GFSNW_prec_precacc24_012.txt.gz
Total_Precipitation_Accumulation
0.00 0.00 0.00 0.00 0.00 0.00 0.00 0.00 0.00 0.02 0.08 0.20 0.33 0.55 0.46 0.23 0.19 0.20 0.13 0.04 0.01 0.02 0.02 0.03 0.08 0.07 0.02 0.00 0.00 0.00 0.00 0.00 0.00 0.00 0.00 0.00 0.00 0.00 0.00 0.00 0.00 0.00 0.00 0.00
0.00 0.00 0.00 0.00 0.00 0.00 0.00 0.00 0.00 0.01 0.06 0.09 0.17 0.23 0.27 0.26 0.29 0.15 0.05 0.04 0.03 0.01 0.01 0.04 0.05 0.03 0.00 0.00 0.00 0.00 0.00 0.00 0.00 0.00 0.00 0.00 0.00 0.00 0.00 0.00 0.00 0.00 0.00 0.00
0.01 0.01 0.00 0.00 0.01 0.00 0.00 0.00 0.00 0.01 0.01 0.01 0.06 0.09 0.21 0.29 0.19 0.05 0.02 0.03 0.02 0.01 0.00 0.01 0.01 0.01 0.00 0.00 0.00 0.00 0.00 0.00 0.00 0.00 0.00 0.00 0.00 0.00 0.00 0.00 0.00 0.00 0.00 0.00
0.01 0.01 0.00 0.00 0.00 0.00 0.00 0.00 0.00 0.00 0.00 0.00 0.01 0.01 0.10 0.11 0.09 0.05 0.04 0.04 0.02 0.01 0.00 0.00 0.00 0.00 0.00 0.00 0.00 0.00 0.00 0.00 0.00 0.00 0.00 0.00 0.00 0.00 0.00 0.00 0.00 0.00 0.00 0.00
0.02 0.01 0.01 0.00 0.00 0.00 0.00 0.00 0.00 0.00 0.00 0.00 0.00 0.00 0.03 0.02 0.01 0.03 0.04 0.01 0.01 0.01 0.01 0.00 0.00 0.00 0.00 0.00 0.00 0.00 0.00 0.00 0.00 0.00 0.00 0.00 0.00 0.00 0.00 0.00 0.00 0.00 0.00 0.00
0.02 0.01 0.01 0.00 0.00 0.00 0.00 0.00 0.00 0.00 0.00 0.00 0.00 0.00 0.00 0.00 0.00 0.02 0.01 0.00 0.01 0.01 0.00 0.00 0.00 0.00 0.00 0.00 0.00 0.00 0.00 0.00 0.00 0.00 0.00 0.00 0.00 0.00 0.00 0.00 0.00 0.00 0.00 0.00
0.01 0.01 0.02 0.01 0.00 0.00 0.00 0.00 0.00 0.00 0.00 0.00 0.00 0.00 0.00 0.00 0.00 0.01 0.00 0.00 0.02 0.01 0.00 0.00 0.00 0.00 0.00 0.00 0.00 0.00 0.00 0.00 0.00 0.00 0.00 0.00 0.00 0.00 0.00 0.00 0.00 0.00 0.00 0.00
0.02 0.01 0.02 0.01 0.00 0.00 0.00 0.00 0.00 0.00 0.00 0.00 0.00 0.00 0.00 0.00 0.00 0.01 0.00 0.00 0.02 0.01 0.00 0.00 0.02 0.01 0.00 0.00 0.00 0.00 0.00 0.00 0.00 0.00 0.00 0.00 0.00 0.00 0.00 0.00 0.00 0.00 0.00 0.00
0.02 0.02 0.02 0.01 0.00 0.00 0.00 0.00 0.00 0.00 0.00 0.00 0.00 0.00 0.00 0.00 0.00 0.00 0.00 0.00 0.00 0.00 0.00 0.00 0.02 0.03 0.01 0.00 0.00 0.00 0.00 0.00 0.00 0.00 0.00 0.00 0.00 0.00 0.00 0.00 0.00 0.00 0.00 0.00
0.02 0.02 0.01 0.01 0.00 0.00 0.00 0.00 0.00 0.00 0.00 0.00 0.00 0.00 0.00 0.00 0.00 0.00 0.00 0.00 0.00 0.00 0.00 0.00 0.00 0.00 0.00 0.00 0.00 0.00 0.00 0.00 0.00 0.00 0.00 0.00 0.00 0.00 0.00 0.00 0.00 0.00 0.00 0.00
0.02 0.02 0.01 0.01 0.00 0.00 0.00 0.00 0.00 0.00 0.00 0.00 0.00 0.00 0.00 0.00 0.00 0.00 0.00 0.00 0.00 0.00 0.00 0.00 0.00 0.00 0.00 0.00 0.00 0.00 0.00 0.00 0.00 0.00 0.00 0.00 0.00 0.00 0.00 0.00 0.00 0.00 0.00 0.00
0.01 0.02 0.02 0.01 0.00 0.00 0.00 0.00 0.00 0.00 0.00 0.00 0.00 0.00 0.00 0.00 0.00 0.00 0.00 0.00 0.00 0.00 0.00 0.00 0.00 0.00 0.00 0.00 0.00 0.00 0.00 0.00 0.00 0.00 0.00 0.00 0.00 0.00 0.00 0.00 0.00 0.00 0.00 0.00
0.01 0.01 0.02 0.01 0.00 0.01 0.01 0.00 0.00 0.00 0.00 0.00 0.00 0.00 0.00 0.00 0.00 0.00 0.00 0.00 0.00 0.00 0.00 0.00 0.00 0.00 0.00 0.00 0.00 0.00 0.00 0.00 0.00 0.00 0.00 0.00 0.00 0.00 0.00 0.00 0.00 0.00 0.00 0.00
0.01 0.01 0.01 0.01 0.00 0.01 0.01 0.00 0.00 0.00 0.00 0.00 0.00 0.00 0.00 0.00 0.00 0.00 0.00 0.00 0.00 0.00 0.00 0.00 0.00 0.00 0.00 0.00 0.00 0.00 0.00 0.00 0.00 0.00 0.00 0.00 0.00 0.00 0.00 0.00 0.00 0.00 0.00 0.00
0.01 0.01 0.01 0.01 0.01 0.01 0.01 0.00 0.00 0.00 0.00 0.00 0.00 0.00 0.00 0.00 0.00 0.00 0.00 0.00 0.00 0.00 0.00 0.00 0.00 0.00 0.00 0.00 0.00 0.00 0.00 0.00 0.00 0.00 0.00 0.00 0.00 0.00 0.00 0.00 0.00 0.00 0.00 0.00
0.00 0.01 0.01 0.01 0.01 0.03 0.01 0.01 0.00 0.01 0.01 0.01 0.00 0.00 0.00 0.00 0.00 0.00 0.00 0.00 0.00 0.00 0.00 0.00 0.00 0.00 0.00 0.00 0.00 0.00 0.00 0.00 0.00 0.00 0.00 0.00 0.00 0.00 0.00 0.00 0.00 0.00 0.00 0.00
0.00 0.01 0.01 0.02 0.03 0.03 0.00 0.00 0.00 0.01 0.01 0.01 0.00 0.00 0.00 0.00 0.00 0.00 0.00 0.00 0.00 0.01 0.01 0.00 0.00 0.00 0.00 0.00 0.00 0.00 0.00 0.00 0.00 0.00 0.00 0.00 0.00 0.00 0.00 0.00 0.00 0.00 0.00 0.00
0.00 0.02 0.03 0.04 0.03 0.02 0.00 0.00 0.02 0.02 0.01 0.00 0.00 0.00 0.00 0.00 0.00 0.00 0.00 0.01 0.01 0.02 0.02 0.00 0.00 0.00 0.00 0.00 0.00 0.00 0.00 0.00 0.00 0.00 0.00 0.00 0.00 0.00 0.00 0.00 0.00 0.00 0.00 0.00
0.01 0.03 0.03 0.02 0.00 0.00 0.00 0.01 0.03 0.01 0.01 0.00 0.00 0.00 0.00 0.00 0.01 0.02 0.01 0.03 0.03 0.01 0.01 0.01 0.00 0.00 0.00 0.00 0.00 0.00 0.00 0.00 0.00 0.00 0.00 0.00 0.00 0.00 0.00 0.00 0.00 0.00 0.00 0.00
0.03 0.01 0.00 0.00 0.00 0.00 0.00 0.00 0.01 0.01 0.01 0.00 0.00 0.00 0.00 0.00 0.00 0.02 0.01 0.01 0.01 0.00 0.01 0.00 0.00 0.00 0.00 0.00 0.00 0.00 0.00 0.00 0.00 0.00 0.00 0.00 0.00 0.00 0.00 0.00 0.00 0.00 0.00 0.00
0.02 0.00 0.00 0.00 0.00 0.00 0.00 0.00 0.00 0.00 0.00 0.00 0.00 0.00 0.00 0.00 0.00 0.00 0.00 0.00 0.00 0.00 0.00 0.00 0.00 0.00 0.00 0.00 0.00 0.00 0.00 0.00 0.00 0.00 0.00 0.00 0.00 0.00 0.00 0.00 0.00 0.00 0.00 0.00
0.00 0.00 0.00 0.00 0.00 0.00 0.00 0.00 0.00 0.00 0.00 0.00 0.00 0.00 0.00 0.00 0.00 0.00 0.00 0.00 0.00 0.00 0.00 0.00 0.00 0.00 0.00 0.00 0.00 0.00 0.00 0.00 0.00 0.00 0.00 0.00 0.00 0.00 0.00 0.00 0.00 0.00 0.00 0.00
0.05 0.09 0.08 0.02 0.03 0.01 0.00 0.00 0.00 0.00 0.00 0.00 0.00 0.00 0.00 0.00 0.00 0.00 0.00 0.00 0.00 0.00 0.01 0.00 0.00 0.00 0.00 0.00 0.00 0.00 0.00 0.00 0.00 0.00 0.00 0.00 0.00 0.00 0.00 0.00 0.00 0.00 0.00 0.00
0.30 0.24 0.17 0.03 0.02 0.00 0.00 0.00 0.00 0.00 0.00 0.00 0.00 0.00 0.00 0.00 0.00 0.00 0.00 0.01 0.01 0.01 0.01 0.00 0.00 0.00 0.00 0.00 0.00 0.00 0.00 0.00 0.00 0.00 0.00 0.00 0.00 0.00 0.00 0.00 0.00 0.00 0.00 0.00
0.32 0.15 0.07 0.01 0.00 0.00 0.00 0.00 0.00 0.00 0.00 0.00 0.00 0.00 0.00 0.00 0.00 0.00 0.01 0.02 0.01 0.00 0.00 0.00 0.00 0.00 0.00 0.00 0.00 0.00 0.00 0.00 0.00 0.00 0.00 0.00 0.00 0.00 0.00 0.00 0.00 0.00 0.00 0.00
0.45 0.11 0.01 0.00 0.00 0.00 0.00 0.00 0.00 0.00 0.00 0.00 0.00 0.00 0.00 0.00 0.00 0.00 0.00 0.00 0.00 0.00 0.00 0.00 0.00 0.00 0.00 0.00 0.00 0.00 0.00 0.00 0.00 0.00 0.00 0.00 0.00 0.00 0.00 0.00 0.00 0.00 0.00 0.00
0.53 0.09 0.00 0.00 0.00 0.00 0.00 0.00 0.00 0.00 0.00 0.00 0.00 0.00 0.00 0.00 0.00 0.00 0.00 0.00 0.00 0.00 0.00 0.00 0.00 0.00 0.00 0.00 0.00 0.00 0.00 0.00 0.00 0.00 0.00 0.00 0.00 0.00 0.00 0.00 0.00 0.00 0.00 0.00

GFSNW_prec_precacc24_015.txt.gz
Total_Precipitation_Accumulation
0.01 0.02 0.01 0.00 0.02 0.01 0.00 0.00 0.00 0.04 0.20 0.41 0.48 0.66 0.67 0.46 0.22 0.21 0.18 0.06 0.02 0.02 0.03 0.09 0.09 0.07 0.02 0.00 0.00 0.00 0.00 0.00 0.00 0.00 0.00 0.00 0.00 0.00 0.00 0.00 0.00 0.00 0.00 0.00
0.01 0.01 0.02 0.00 0.02 0.01 0.00 0.00 0.02 0.08 0.16 0.22 0.36 0.42 0.42 0.37 0.32 0.20 0.15 0.05 0.03 0.01 0.01 0.06 0.06 0.03 0.00 0.00 0.00 0.00 0.00 0.00 0.00 0.00 0.00 0.00 0.00 0.00 0.00 0.00 0.00 0.00 0.00 0.00
0.01 0.01 0.01 0.00 0.03 0.02 0.00 0.00 0.01 0.04 0.06 0.08 0.25 0.30 0.33 0.37 0.29 0.14 0.10 0.03 0.02 0.01 0.01 0.02 0.02 0.02 0.00 0.00 0.00 0.00 0.00 0.00 0.00 0.00 0.00 0.00 0.00 0.00 0.00 0.00 0.00 0.00 0.00 0.00
0.01 0.01 0.01 0.00 0.02 0.05 0.00 0.00 0.00 0.00 0.00 0.01 0.08 0.16 0.26 0.25 0.26 0.11 0.07 0.05 0.02 0.01 0.00 0.00 0.00 0.00 0.00 0.00 0.00 0.00 0.00 0.00 0.00 0.00 0.00 0.00 0.00 0.00 0.00 0.00 0.00 0.00 0.00 0.00
0.02 0.01 0.01 0.00 0.02 0.04 0.00 0.00 0.00 0.00 0.00 0.00 0.01 0.07 0.15 0.18 0.12 0.05 0.05 0.01 0.01 0.01 0.01 0.00 0.00 0.00 0.00 0.00 0.00 0.00 0.00 0.00 0.00 0.00 0.00 0.00 0.00 0.00 0.00 0.00 0.00 0.00 0.00 0.00
0.02 0.02 0.01 0.01 0.02 0.02 0.00 0.00 0.00 0.00 0.00 0.00 0.00 0.00 0.04 0.11 0.07 0.07 0.01 0.00 0.01 0.03 0.01 0.00 0.00 0.00 0.00 0.00 0.00 0.00 0.00 0.00 0.00 0.00 0.00 0.00 0.00 0.00 0.00 0.00 0.00 0.00 0.00 0.00
0.02 0.01 0.02 0.01 0.01 0.02 0.00 0.00 0.00 0.00 0.00 0.00 0.00 0.00 0.01 0.03 0.02 0.05 0.01 0.00 0.02 0.03 0.00 0.00 0.00 0.00 0.00 0.00 0.00 0.00 0.00 0.00 0.00 0.00 0.00 0.00 0.00 0.00 0.00 0.00 0.00 0.00 0.00 0.00
0.02 0.02 0.02 0.01 0.01 0.02 0.00 0.00 0.00 0.00 0.00 0.00 0.00 0.00 0.00 0.00 0.01 0.04 0.02 0.01 0.02 0.01 0.00 0.01 0.04 0.02 0.01 0.00 0.00 0.00 0.00 0.00 0.00 0.00 0.00 0.00 0.00 0.00 0.00 0.00 0.00 0.00 0.00 0.00
0.02 0.02 0.02 0.02 0.01 0.02 0.00 0.00 0.00 0.00 0.00 0.00 0.00 0.00 0.00 0.00 0.00 0.04 0.03 0.02 0.03 0.01 0.01 0.01 0.04 0.07 0.02 0.00 0.00 0.00 0.00 0.02 0.03 0.00 0.00 0.00 0.00 0.00 0.00 0.00 0.00 0.00 0.00 0.00
0.02 0.02 0.01 0.02 0.01 0.02 0.01 0.00 0.00 0.00 0.00 0.00 0.00 0.00 0.00 0.00 0.00 0.00 0.01 0.02 0.03 0.03 0.02 0.01 0.00 0.01 0.00 0.00 0.00 0.00 0.00 0.00 0.00 0.00 0.00 0.00 0.00 0.00 0.00 0.00 0.00 0.00 0.00 0.00
0.02 0.02 0.02 0.02 0.01 0.02 0.01 0.00 0.00 0.00 0.00 0.00 0.00 0.00 0.00 0.00 0.00 0.00 0.00 0.01 0.00 0.02 0.03 0.01 0.00 0.00 0.00 0.00 0.00 0.00 0.00 0.00 0.00 0.00 0.00 0.00 0.00 0.00 0.00 0.00 0.00 0.00 0.00 0.00
0.01 0.02 0.02 0.01 0.00 0.02 0.02 0.00 0.00 0.00 0.00 0.00 0.00 0.00 0.00 0.00 0.00 0.00 0.00 0.00 0.00 0.00 0.00 0.00 0.00 0.00 0.00 0.00 0.00 0.00 0.00 0.00 0.00 0.00 0.00 0.00 0.00 0.00 0.00 0.00 0.00 0.00 0.00 0.00
0.01 0.02 0.02 0.02 0.00 0.03 0.02 0.00 0.00 0.00 0.00 0.00 0.00 0.00 0.00 0.00 0.00 0.00 0.00 0.00 0.00 0.00 0.00 0.00 0.00 0.00 0.00 0.00 0.00 0.00 0.00 0.00 0.00 0.00 0.00 0.00 0.00 0.00 0.00 0.00 0.00 0.00 0.00 0.00
0.01 0.01 0.02 0.02 0.01 0.03 0.02 0.00 0.00 0.00 0.00 0.00 0.00 0.00 0.00 0.00 0.00 0.00 0.00 0.00 0.00 0.00 0.00 0.00 0.00 0.00 0.00 0.00 0.00 0.00 0.00 0.00 0.00 0.00 0.00 0.00 0.00 0.00 0.00 0.00 0.00 0.00 0.00 0.00
0.01 0.01 0.01 0.01 0.01 0.03 0.02 0.01 0.00 0.00 0.00 0.00 0.00 0.00 0.00 0.00 0.00 0.00 0.00 0.00 0.00 0.00 0.00 0.00 0.00 0.00 0.00 0.00 0.00 0.00 0.00 0.00 0.00 0.00 0.00 0.00 0.00 0.00 0.00 0.00 0.00 0.00 0.00 0.00
0.01 0.01 0.01 0.01 0.02 0.06 0.04 0.03 0.01 0.01 0.01 0.01 0.00 0.00 0.00 0.00 0.00 0.00 0.00 0.00 0.00 0.00 0.00 0.00 0.00 0.00 0.00 0.00 0.00 0.00 0.00 0.00 0.00 0.00 0.00 0.00 0.00 0.00 0.00 0.00 0.00 0.00 0.00 0.00
0.01 0.01 0.01 0.02 0.07 0.05 0.02 0.01 0.00 0.01 0.01 0.01 0.00 0.00 0.00 0.00 0.00 0.00 0.00 0.00 0.00 0.01 0.01 0.00 0.00 0.00 0.00 0.00 0.00 0.00 0.00 0.00 0.00 0.00 0.00 0.00 0.00 0.00 0.00 0.00 0.00 0.00 0.00 0.00
0.01 0.02 0.04 0.07 0.06 0.04 0.02 0.00 0.02 0.02 0.01 0.00 0.00 0.00 0.00 0.00 0.00 0.00 0.00 0.01 0.01 0.03 0.02 0.00 0.00 0.00 0.00 0.00 0.00 0.00 0.00 0.00 0.00 0.00 0.00 0.00 0.00 0.00 0.00 0.00 0.00 0.00 0.00 0.00
0.02 0.04 0.05 0.04 0.01 0.00 0.00 0.01 0.03 0.01 0.01 0.00 0.00 0.00 0.00 0.00 0.01 0.02 0.02 0.03 0.03 0.01 0.01 0.01 0.00 0.00 0.00 0.00 0.00 0.00 0.00 0.00 0.00 0.00 0.00 0.00 0.00 0.00 0.00 0.00 0.00 0.00 0.00 0.00
0.04 0.03 0.01 0.00 0.00 0.00 0.00 0.00 0.01 0.01 0.01 0.00 0.00 0.00 0.00 0.00 0.00 0.02 0.02 0.01 0.01 0.00 0.01 0.00 0.00 0.00 0.00 0.00 0.00 0.00 0.00 0.00 0.00 0.00 0.00 0.00 0.00 0.00 0.00 0.00 0.00 0.00 0.00 0.00
0.02 0.00 0.00 0.00 0.00 0.00 0.00 0.00 0.00 0.00 0.00 0.00 0.00 0.00 0.00 0.00 0.00 0.00 0.00 0.00 0.00 0.00 0.00 0.00 0.00 0.00 0.00 0.00 0.00 0.00 0.00 0.00 0.00 0.00 0.00 0.00 0.00 0.00 0.00 0.00 0.00 0.00 0.00 0.00
0.00 0.00 0.01 0.00 0.00 0.00 0.00 0.00 0.00 0.00 0.00 0.00 0.00 0.00 0.00 0.00 0.00 0.00 0.00 0.00 0.00 0.00 0.00 0.00 0.00 0.00 0.00 0.00 0.00 0.00 0.00 0.00 0.00 0.00 0.00 0.00 0.00 0.00 0.00 0.00 0.00 0.00 0.00 0.00
0.07 0.14 0.13 0.02 0.03 0.01 0.00 0.00 0.00 0.00 0.00 0.00 0.00 0.00 0.00 0.00 0.00 0.00 0.00 0.00 0.00 0.00 0.01 0.00 0.00 0.00 0.00 0.00 0.00 0.00 0.00 0.00 0.00 0.00 0.00 0.00 0.00 0.00 0.00 0.00 0.00 0.00 0.00 0.00
0.47 0.35 0.21 0.04 0.03 0.00 0.00 0.00 0.00 0.00 0.00 0.00 0.00 0.00 0.00 0.00 0.00 0.00 0.00 0.01 0.01 0.01 0.01 0.00 0.00 0.00 0.00 0.00 0.00 0.00 0.00 0.00 0.00 0.00 0.00 0.00 0.00 0.00 0.00 0.00 0.00 0.00 0.00 0.00
0.47 0.22 0.10 0.02 0.00 0.00 0.00 0.00 0.00 0.00 0.00 0.00 0.00 0.00 0.00 0.00 0.00 0.00 0.01 0.03 0.01 0.00 0.00 0.00 0.00 0.00 0.00 0.00 0.00 0.00 0.00 0.00 0.00 0.00 0.00 0.00 0.00 0.00 0.00 0.00 0.00 0.00 0.00 0.00
0.62 0.19 0.05 0.01 0.00 0.00 0.00 0.00 0.00 0.00 0.00 0.00 0.00 0.00 0.00 0.00 0.00 0.00 0.00 0.00 0.00 0.00 0.00 0.00 0.00 0.00 0.00 0.00 0.00 0.00 0.00 0.00 0.00 0.00 0.00 0.00 0.00 0.00 0.00 0.00 0.00 0.00 0.00 0.00
0.67 0.13 0.00 0.00 0.00 0.00 0.00 0.00 0.00 0.00 0.00 0.00 0.00 0.00 0.00 0.00 0.00 0.00 0.00 0.00 0.00 0.00 0.00 0.00 0.00 0.00 0.00 0.00 0.00 0.00 0.00 0.00 0.00 0.00 0.00 0.00 0.00 0.00 0.00 0.00 0.00 0.00 0.00 0.00

GFSNW_prec_precacc24_018.txt.gz
Total_Precipitation_Accumulation
0.02 0.02 0.02 0.03 0.04 0.03 0.02 0.00 0.00 0.05 0.27 0.53 0.55 0.74 0.75 0.53 0.28 0.27 0.23 0.06 0.02 0.02 0.03 0.10 0.12 0.07 0.02 0.00 0.00 0.00 0.00 0.00 0.00 0.01 0.00 0.00 0.00 0.00 0.00 0.00 0.00 0.00 0.00 0.00
0.02 0.02 0.02 0.03 0.05 0.03 0.00 0.00 0.04 0.16 0.23 0.28 0.39 0.49 0.51 0.45 0.38 0.23 0.28 0.08 0.04 0.01 0.01 0.07 0.06 0.03 0.00 0.00 0.00 0.00 0.00 0.00 0.00 0.00 0.00 0.00 0.00 0.00 0.00 0.00 0.00 0.00 0.00 0.00
0.01 0.02 0.02 0.02 0.04 0.07 0.01 0.00 0.03 0.11 0.12 0.13 0.39 0.50 0.50 0.46 0.34 0.20 0.26 0.06 0.03 0.01 0.01 0.02 0.03 0.02 0.00 0.00 0.00 0.00 0.00 0.00 0.00 0.00 0.00 0.00 0.00 0.00 0.00 0.00 0.00 0.00 0.00 0.00
0.02 0.01 0.01 0.01 0.03 0.10 0.02 0.00 0.00 0.00 0.01 0.03 0.16 0.37 0.51 0.43 0.39 0.20 0.29 0.09 0.02 0.01 0.01 0.01 0.01 0.00 0.00 0.00 0.00 0.00 0.00 0.00 0.00 0.00 0.00 0.00 0.00 0.00 0.00 0.00 0.00 0.00 0.00 0.00
0.03 0.02 0.01 0.01 0.03 0.12 0.01 0.00 0.00 0.00 0.00 0.00 0.04 0.21 0.29 0.30 0.24 0.16 0.10 0.04 0.01 0.01 0.01 0.00 0.00 0.00 0.00 0.00 0.00 0.00 0.00 0.00 0.00 0.00 0.00 0.00 0.00 0.00 0.00 0.00 0.00 0.00 0.00 0.00
0.02 0.02 0.02 0.01 0.03 0.06 0.00 0.00 0.00 0.00 0.00 0.00 0.04 0.06 0.16 0.23 0.20 0.12 0.01 0.01 0.01 0.04 0.01 0.00 0.00 0.00 0.00 0.00 0.00 0.00 0.00 0.00 0.00 0.00 0.00 0.00 0.00 0.00 0.00 0.00 0.00 0.00 0.00 0.00
0.04 0.01 0.02 0.01 0.02 0.03 0.00 0.00 0.00 0.00 0.00 0.00 0.03 0.04 0.06 0.11 0.11 0.10 0.01 0.00 0.02 0.03 0.00 0.00 0.00 0.00 0.00 0.01 0.00 0.00 0.01 0.00 0.00 0.00 0.00 0.00 0.00 0.00 0.00 0.00 0.00 0.00 0.00 0.00
0.03 0.02 0.02 0.02 0.02 0.04 0.01 0.00 0.00 0.00 0.00 0.00 0.00 0.00 0.02 0.08 0.08 0.10 0.03 0.01 0.03 0.01 0.00 0.01 0.05 0.06 0.07 0.04 0.02 0.00 0.03 0.04 0.00 0.00 0.00 0.00 0.00 0.00 0.00 0.00 0.00 0.00 0.00 0.00
0.03 0.02 0.02 0.02 0.01 0.05 0.02 0.00 0.00 0.00 0.00 0.00 0.00 0.00 0.01 0.04 0.09 0.11 0.06 0.02 0.04 0.03 0.01 0.03 0.05 0.10 0.04 0.01 0.05 0.01 0.02 0.08 0.08 0.01 0.00 0.00 0.00 0.00 0.00 0.00 0.00 0.00 0.00 0.00
0.08 0.02 0.01 0.02 0.01 0.05 0.03 0.00 0.00 0.00 0.00 0.00 0.00 0.00 0.00 0.00 0.04 0.09 0.06 0.03 0.05 0.06 0.04 0.04 0.02 0.04 0.01 0.00 0.00 0.02 0.01 0.00 0.04 0.03 0.01 0.00 0.00 0.00 0.00 0.00 0.00 0.00 0.00 0.00
0.05 0.02 0.02 0.02 0.01 0.04 0.04 0.01 0.00 0.00 0.00 0.00 0.00 0.00 0.00 0.00 0.00 0.03 0.07 0.05 0.04 0.07 0.09 0.05 0.01 0.02 0.00 0.00 0.00 0.00 0.01 0.00 0.00 0.00 0.00 0.00 0.00 0.00 0.00 0.00 0.00 0.00 0.00 0.00
0.06 0.02 0.02 0.02 0.01 0.03 0.06 0.02 0.00 0.00 0.00 0.00 0.00 0.00 0.00 0.00 0.00 0.00 0.02 0.04 0.03 0.02 0.04 0.03 0.01 0.00 0.00 0.00 0.00 0.00 0.00 0.00 0.00 0.00 0.00 0.00 0.00 0.00 0.00 0.00 0.00 0.00 0.00 0.00
0.05 0.02 0.02 0.02 0.01 0.04 0.07 0.02 0.00 0.00 0.00 0.00 0.00 0.00 0.00 0.00 0.00 0.00 0.00 0.02 0.02 0.00 0.00 0.01 0.00 0.00 0.00 0.00 0.00 0.00 0.00 0.00 0.00 0.00 0.00 0.00 0.00 0.00 0.00 0.00 0.00 0.00 0.00 0.00
0.04 0.02 0.02 0.02 0.01 0.04 0.08 0.03 0.00 0.00 0.00 0.00 0.00 0.00 0.00 0.00 0.00 0.00 0.00 0.00 0.00 0.00 0.00 0.00 0.00 0.00 0.00 0.00 0.00 0.00 0.00 0.00 0.00 0.00 0.00 0.00 0.00 0.00 0.00 0.00 0.00 0.00 0.00 0.00
0.03 0.02 0.02 0.02 0.01 0.05 0.06 0.03 0.03 0.00 0.00 0.00 0.00 0.00 0.00 0.00 0.00 0.00 0.00 0.00 0.00 0.00 0.00 0.00 0.00 0.00 0.00 0.00 0.00 0.00 0.00 0.00 0.00 0.00 0.00 0.00 0.00 0.00 0.00 0.00 0.00 0.00 0.00 0.00
0.02 0.02 0.01 0.01 0.03 0.09 0.06 0.07 0.03 0.03 0.01 0.01 0.00 0.00 0.00 0.00 0.00 0.00 0.00 0.00 0.00 0.00 0.00 0.00 0.00 0.00 0.00 0.00 0.00 0.00 0.00 0.00 0.00 0.00 0.00 0.00 0.00 0.00 0.00 0.00 0.00 0.00 0.00 0.00
0.02 0.01 0.01 0.03 0.09 0.08 0.06 0.03 0.01 0.06 0.06 0.04 0.04 0.00 0.00 0.00 0.00 0.00 0.00 0.00 0.00 0.01 0.01 0.00 0.00 0.00 0.00 0.00 0.00 0.00 0.00 0.00 0.00 0.00 0.00 0.00 0.00 0.00 0.00 0.00 0.00 0.00 0.00 0.00
0.02 0.02 0.05 0.09 0.11 0.09 0.05 0.01 0.02 0.03 0.04 0.03 0.05 0.02 0.00 0.00 0.00 0.00 0.00 0.01 0.01 0.03 0.02 0.00 0.00 0.00 0.00 0.00 0.00 0.00 0.00 0.00 0.00 0.00 0.00 0.00 0.00 0.00 0.00 0.00 0.00 0.00 0.00 0.00
0.03 0.04 0.07 0.08 0.03 0.01 0.01 0.02 0.03 0.01 0.02 0.01 0.00 0.00 0.00 0.00 0.01 0.02 0.02 0.03 0.03 0.02 0.01 0.01 0.00 0.00 0.00 0.00 0.00 0.00 0.00 0.00 0.00 0.00 0.00 0.00 0.00 0.00 0.00 0.00 0.00 0.00 0.00 0.00
0.05 0.04 0.02 0.01 0.01 0.01 0.01 0.00 0.01 0.01 0.02 0.00 0.00 0.00 0.00 0.00 0.00 0.02 0.02 0.01 0.01 0.01 0.01 0.00 0.00 0.00 0.00 0.00 0.00 0.00 0.00 0.00 0.00 0.00 0.00 0.00 0.00 0.00 0.00 0.00 0.00 0.00 0.00 0.00
0.03 0.01 0.00 0.00 0.00 0.00 0.00 0.00 0.00 0.00 0.00 0.00 0.00 0.00 0.00 0.00 0.00 0.00 0.00 0.00 0.00 0.00 0.00 0.00 0.00 0.00 0.00 0.00 0.00 0.00 0.00 0.00 0.00 0.00 0.00 0.00 0.00 0.00 0.00 0.00 0.00 0.00 0.00 0.00
0.00 0.00 0.01 0.00 0.00 0.00 0.00 0.00 0.00 0.00 0.00 0.00 0.00 0.00 0.00 0.00 0.00 0.00 0.00 0.00 0.00 0.00 0.00 0.00 0.00 0.00 0.00 0.00 0.00 0.00 0.00 0.00 0.00 0.00 0.00 0.00 0.00 0.00 0.00 0.00 0.00 0.00 0.00 0.00
0.08 0.17 0.16 0.03 0.03 0.01 0.00 0.00 0.00 0.00 0.00 0.00 0.00 0.00 0.00 0.00 0.00 0.00 0.00 0.00 0.00 0.00 0.01 0.00 0.00 0.00 0.00 0.00 0.00 0.00 0.00 0.00 0.00 0.00 0.00 0.00 0.00 0.00 0.00 0.00 0.00 0.00 0.00 0.00
0.67 0.50 0.26 0.04 0.04 0.00 0.00 0.00 0.00 0.00 0.00 0.00 0.00 0.00 0.00 0.00 0.00 0.00 0.00 0.01 0.01 0.01 0.01 0.00 0.00 0.00 0.00 0.00 0.00 0.00 0.00 0.00 0.00 0.00 0.00 0.00 0.00 0.00 0.00 0.00 0.00 0.00 0.00 0.00
0.60 0.27 0.10 0.02 0.00 0.00 0.00 0.00 0.00 0.00 0.00 0.00 0.00 0.00 0.00 0.00 0.00 0.00 0.01 0.03 0.01 0.00 0.00 0.00 0.00 0.00 0.00 0.00 0.00 0.00 0.00 0.00 0.00 0.00 0.00 0.00 0.00 0.00 0.00 0.00 0.00 0.00 0.00 0.00
0.80 0.28 0.09 0.01 0.00 0.00 0.00 0.00 0.00 0.00 0.00 0.00 0.00 0.00 0.00 0.00 0.00 0.00 0.00 0.00 0.00 0.00 0.00 0.00 0.00 0.00 0.00 0.00 0.00 0.00 0.00 0.00 0.00 0.00 0.00 0.00 0.00 0.00 0.00 0.00 0.00 0.00 0.00 0.00
0.80 0.18 0.01 0.00 0.00 0.00 0.00 0.00 0.00 0.00 0.00 0.00 0.00 0.00 0.00 0.00 0.00 0.00 0.00 0.00 0.00 0.00 0.00 0.00 0.00 0.00 0.00 0.00 0.00 0.00 0.00 0.00 0.00 0.00 0.00 0.00 0.00 0.00 0.00 0.00 0.00 0.00 0.00 0.00

GFSNW_prec_precacc24_021.txt.gz
Total_Precipitation_Accumulation
0.07 0.05 0.04 0.04 0.07 0.09 0.06 0.03 0.03 0.06 0.29 0.59 0.61 0.82 0.85 0.57 0.34 0.37 0.30 0.07 0.02 0.02 0.03 0.10 0.12 0.07 0.02 0.00 0.01 0.02 0.04 0.09 0.27 0.18 0.04 0.00 0.00 0.00 0.00 0.00 0.00 0.00 0.00 0.00
0.06 0.05 0.04 0.04 0.09 0.05 0.01 0.02 0.06 0.25 0.27 0.31 0.41 0.56 0.58 0.52 0.41 0.30 0.32 0.09 0.04 0.01 0.01 0.07 0.06 0.03 0.00 0.00 0.00 0.00 0.01 0.01 0.11 0.17 0.10 0.02 0.01 0.00 0.00 0.00 0.00 0.00 0.00 0.00
0.05 0.04 0.02 0.02 0.06 0.08 0.03 0.02 0.06 0.20 0.22 0.14 0.42 0.56 0.56 0.56 0.37 0.23 0.31 0.09 0.04 0.01 0.01 0.02 0.03 0.02 0.00 0.00 0.00 0.00 0.00 0.00 0.00 0.02 0.03 0.01 0.00 0.00 0.00 0.00 0.00 0.00 0.00 0.00
0.14 0.09 0.02 0.01 0.04 0.13 0.07 0.02 0.01 0.01 0.04 0.03 0.17 0.44 0.61 0.58 0.54 0.24 0.39 0.24 0.03 0.01 0.01 0.02 0.01 0.00 0.00 0.00 0.00 0.00 0.00 0.00 0.00 0.00 0.00 0.00 0.00 0.00 0.00 0.00 0.00 0.00 0.00 0.00
0.25 0.15 0.02 0.01 0.03 0.15 0.07 0.02 0.00 0.00 0.00 0.00 0.05 0.30 0.38 0.39 0.35 0.24 0.20 0.13 0.01 0.01 0.01 0.00 0.00 0.00 0.00 0.00 0.00 0.00 0.00 0.00 0.00 0.00 0.00 0.00 0.00 0.00 0.00 0.00 0.00 0.00 0.00 0.00
0.20 0.13 0.02 0.01 0.04 0.08 0.02 0.01 0.00 0.00 0.00 0.00 0.05 0.10 0.29 0.40 0.29 0.17 0.03 0.02 0.01 0.04 0.01 0.00 0.00 0.00 0.00 0.00 0.00 0.00 0.00 0.00 0.00 0.00 0.00 0.00 0.00 0.00 0.00 0.00 0.00 0.00 0.00 0.00
0.34 0.23 0.05 0.01 0.02 0.03 0.00 0.00 0.00 0.00 0.00 0.00 0.04 0.15 0.16 0.24 0.24 0.17 0.02 0.01 0.03 0.03 0.00 0.00 0.00 0.00 0.00 0.01 0.00 0.00 0.01 0.00 0.00 0.00 0.00 0.00 0.00 0.00 0.00 0.00 0.00 0.00 0.00 0.00
0.18 0.06 0.03 0.02 0.02 0.04 0.01 0.00 0.00 0.00 0.00 0.00 0.01 0.05 0.12 0.22 0.22 0.19 0.03 0.01 0.03 0.01 0.00 0.01 0.07 0.08 0.07 0.05 0.03 0.00 0.03 0.05 0.00 0.00 0.00 0.00 0.00 0.00 0.00 0.00 0.00 0.00 0.00 0.00
0.21 0.11 0.04 0.02 0.01 0.06 0.03 0.00 0.03 0.02 0.00 0.00 0.00 0.00 0.07 0.17 0.20 0.16 0.06 0.02 0.04 0.04 0.02 0.04 0.08 0.16 0.06 0.04 0.10 0.02 0.02 0.12 0.10 0.01 0.00 0.00 0.00 0.00 0.00 0.00 0.00 0.00 0.00 0.00
0.36 0.20 0.07 0.03 0.01 0.06 0.04 0.01 0.01 0.03 0.00 0.00 0.00 0.00 0.01 0.04 0.17 0.19 0.06 0.03 0.06 0.07 0.04 0.04 0.03 0.06 0.01 0.01 0.02 0.02 0.02 0.05 0.12 0.05 0.02 0.00 0.00 0.00 0.00 0.00 0.00 0.00 0.00 0.00
0.16 0.08 0.03 0.02 0.01 0.05 0.05 0.01 0.01 0.01 0.00 0.00 0.00 0.00 0.00 0.01 0.03 0.17 0.13 0.06 0.06 0.09 0.10 0.06 0.01 0.02 0.00 0.00 0.00 0.00 0.01 0.00 0.02 0.03 0.00 0.00 0.00 0.00 0.00 0.00 0.00 0.00 0.00 0.00
0.18 0.15 0.09 0.02 0.01 0.04 0.08 0.03 0.03 0.00 0.00 0.00 0.00 0.00 0.00 0.00 0.00 0.03 0.11 0.07 0.04 0.04 0.08 0.06 0.02 0.00 0.00 0.00 0.00 0.00 0.00 0.00 0.00 0.00 0.00 0.00 0.00 0.00 0.00 0.00 0.00 0.00 0.00 0.00
0.12 0.08 0.05 0.03 0.01 0.05 0.09 0.04 0.05 0.00 0.00 0.00 0.00 0.00 0.00 0.00 0.00 0.00 0.06 0.13 0.07 0.01 0.01 0.05 0.05 0.00 0.00 0.00 0.00 0.00 0.00 0.00 0.00 0.00 0.00 0.00 0.00 0.00 0.00 0.00 0.00 0.00 0.00 0.00
0.12 0.09 0.06 0.02 0.02 0.04 0.10 0.05 0.07 0.01 0.00 0.00 0.00 0.00 0.00 0.00 0.00 0.00 0.00 0.06 0.04 0.04 0.05 0.03 0.02 0.01 0.00 0.00 0.00 0.00 0.00 0.00 0.00 0.00 0.00 0.00 0.00 0.00 0.00 0.00 0.00 0.00 0.00 0.00
0.11 0.07 0.05 0.02 0.02 0.05 0.07 0.06 0.14 0.02 0.00 0.00 0.00 0.00 0.00 0.00 0.00 0.00 0.00 0.00 0.00 0.00 0.01 0.00 0.00 0.00 0.00 0.00 0.00 0.00 0.00 0.00 0.00 0.00 0.00 0.00 0.00 0.00 0.00 0.00 0.00 0.00 0.00 0.00
0.09 0.06 0.04 0.02 0.03 0.10 0.10 0.12 0.12 0.07 0.01 0.01 0.00 0.00 0.00 0.00 0.00 0.00 0.00 0.00 0.00 0.00 0.00 0.00 0.00 0.00 0.00 0.00 0.00 0.00 0.00 0.00 0.00 0.00 0.00 0.00 0.00 0.00 0.00 0.00 0.00 0.00 0.00 0.00
0.05 0.05 0.03 0.03 0.10 0.10 0.09 0.05 0.02 0.12 0.08 0.04 0.04 0.00 0.00 0.00 0.00 0.00 0.00 0.00 0.00 0.01 0.01 0.00 0.00 0.00 0.00 0.00 0.00 0.00 0.00 0.00 0.00 0.00 0.00 0.00 0.00 0.00 0.00 0.00 0.00 0.00 0.00 0.00
0.05 0.06 0.07 0.10 0.13 0.14 0.09 0.02 0.04 0.10 0.17 0.09 0.09 0.05 0.00 0.00 0.00 0.00 0.00 0.01 0.01 0.03 0.02 0.00 0.00 0.00 0.00 0.00 0.00 0.00 0.00 0.00 0.00 0.00 0.00 0.00 0.00 0.00 0.00 0.00 0.00 0.00 0.00 0.00
0.12 0.09 0.08 0.10 0.05 0.03 0.04 0.05 0.10 0.03 0.11 0.12 0.05 0.03 0.01 0.00 0.01 0.02 0.02 0.03 0.03 0.02 0.01 0.01 0.00 0.00 0.00 0.00 0.00 0.00 0.00 0.00 0.00 0.00 0.00 0.00 0.00 0.00 0.00 0.00 0.00 0.00 0.00 0.00
0.20 0.06 0.03 0.02 0.02 0.03 0.05 0.06 0.05 0.07 0.04 0.03 0.01 0.00 0.00 0.00 0.00 0.02 0.02 0.01 0.01 0.01 0.01 0.00 0.00 0.00 0.00 0.00 0.00 0.00 0.00 0.00 0.00 0.00 0.00 0.00 0.00 0.00 0.00 0.00 0.00 0.00 0.00 0.00
0.17 0.02 0.00 0.00 0.01 0.01 0.02 0.08 0.03 0.02 0.01 0.00 0.00 0.00 0.00 0.00 0.00 0.00 0.00 0.00 0.00 0.00 0.00 0.00 0.00 0.00 0.00 0.00 0.00 0.00 0.00 0.00 0.00 0.00 0.00 0.00 0.00 0.00 0.00 0.00 0.00 0.00 0.00 0.00
0.10 0.00 0.01 0.01 0.00 0.00 0.00 0.01 0.00 0.00 0.00 0.00 0.00 0.00 0.00 0.00 0.00 0.00 0.00 0.00 0.00 0.00 0.00 0.00 0.00 0.00 0.00 0.00 0.00 0.00 0.00 0.00 0.00 0.00 0.00 0.00 0.00 0.00 0.00 0.00 0.00 0.00 0.00 0.00
0.13 0.17 0.17 0.03 0.03 0.01 0.00 0.00 0.00 0.00 0.00 0.00 0.00 0.00 0.00 0.00 0.00 0.00 0.00 0.00 0.00 0.00 0.01 0.00 0.00 0.00 0.00 0.00 0.00 0.00 0.00 0.00 0.00 0.00 0.00 0.00 0.00 0.00 0.00 0.00 0.00 0.00 0.00 0.00
0.90 0.59 0.30 0.05 0.04 0.00 0.00 0.00 0.00 0.00 0.00 0.00 0.00 0.00 0.00 0.00 0.00 0.00 0.00 0.01 0.01 0.01 0.01 0.00 0.00 0.00 0.00 0.00 0.00 0.00 0.00 0.00 0.00 0.00 0.00 0.00 0.00 0.00 0.00 0.00 0.00 0.00 0.00 0.00
0.76 0.31 0.10 0.02 0.00 0.00 0.00 0.00 0.00 0.00 0.00 0.00 0.00 0.00 0.00 0.00 0.00 0.00 0.01 0.03 0.01 0.00 0.00 0.00 0.00 0.00 0.00 0.00 0.00 0.00 0.00 0.00 0.00 0.00 0.00 0.00 0.00 0.00 0.00 0.00 0.00 0.00 0.00 0.00
0.91 0.33 0.10 0.02 0.00 0.00 0.00 0.00 0.00 0.00 0.00 0.00 0.00 0.00 0.00 0.00 0.00 0.00 0.00 0.00 0.00 0.00 0.00 0.00 0.00 0.00 0.00 0.00 0.00 0.00 0.00 0.00 0.00 0.00 0.00 0.00 0.00 0.00 0.00 0.00 0.00 0.00 0.00 0.00
0.93 0.21 0.01 0.00 0.00 0.00 0.00 0.00 0.00 0.00 0.00 0.00 0.00 0.00 0.00 0.00 0.00 0.00 0.00 0.00 0.00 0.00 0.00 0.00 0.00 0.00 0.00 0.00 0.00 0.00 0.00 0.00 0.00 0.00 0.00 0.00 0.00 0.00 0.00 0.00 0.00 0.00 0.00 0.00

GFSNW_prec_precacc24_024.txt.gz
Total_Precipitation_Accumulation
0.38 0.23 0.12 0.12 0.13 0.15 0.15 0.10 0.08 0.08 0.32 0.78 0.71 0.84 0.91 0.65 0.39 0.45 0.39 0.12 0.02 0.02 0.03 0.10 0.13 0.08 0.03 0.01 0.01 0.10 0.31 0.43 0.62 0.32 0.11 0.12 0.03 0.01 0.00 0.01 0.01 0.02 0.00 0.00
0.31 0.20 0.15 0.15 0.18 0.09 0.06 0.07 0.11 0.37 0.30 0.38 0.43 0.57 0.66 0.63 0.48 0.39 0.39 0.11 0.04 0.01 0.01 0.07 0.06 0.04 0.00 0.00 0.00 0.01 0.15 0.37 0.51 0.36 0.15 0.11 0.04 0.01 0.00 0.00 0.00 0.00 0.00 0.00
0.28 0.20 0.15 0.15 0.13 0.09 0.07 0.07 0.12 0.38 0.37 0.17 0.43 0.59 0.64 0.65 0.43 0.29 0.34 0.10 0.04 0.01 0.01 0.02 0.03 0.03 0.00 0.00 0.00 0.00 0.08 0.25 0.32 0.16 0.08 0.02 0.00 0.00 0.00 0.00 0.00 0.00 0.00 0.00
0.38 0.27 0.20 0.19 0.07 0.14 0.10 0.06 0.05 0.04 0.08 0.04 0.18 0.49 0.69 0.69 0.66 0.34 0.40 0.26 0.03 0.01 0.01 0.02 0.01 0.01 0.00 0.00 0.00 0.00 0.01 0.05 0.07 0.04 0.00 0.00 0.01 0.00 0.00 0.00 0.00 0.00 0.00 0.00
0.50 0.32 0.19 0.10 0.06 0.18 0.13 0.05 0.01 0.02 0.01 0.00 0.05 0.34 0.47 0.50 0.46 0.37 0.23 0.14 0.02 0.01 0.01 0.00 0.00 0.00 0.00 0.00 0.00 0.00 0.00 0.00 0.00 0.00 0.00 0.00 0.00 0.00 0.00 0.00 0.00 0.00 0.00 0.00
0.41 0.31 0.19 0.15 0.08 0.11 0.06 0.04 0.00 0.01 0.01 0.01 0.05 0.11 0.36 0.55 0.46 0.22 0.05 0.04 0.01 0.04 0.01 0.00 0.01 0.00 0.00 0.00 0.00 0.00 0.00 0.00 0.00 0.00 0.00 0.00 0.00 0.00 0.00 0.00 0.00 0.00 0.00 0.00
0.48 0.46 0.39 0.29 0.12 0.04 0.00 0.00 0.01 0.04 0.02 0.01 0.04 0.16 0.25 0.36 0.41 0.27 0.06 0.05 0.03 0.03 0.00 0.00 0.01 0.00 0.00 0.01 0.00 0.00 0.01 0.00 0.01 0.00 0.00 0.00 0.00 0.00 0.00 0.00 0.00 0.00 0.00 0.00
0.27 0.15 0.11 0.04 0.04 0.06 0.01 0.00 0.02 0.05 0.02 0.02 0.01 0.06 0.21 0.32 0.38 0.32 0.08 0.04 0.04 0.01 0.00 0.03 0.11 0.09 0.08 0.05 0.03 0.00 0.04 0.06 0.01 0.00 0.00 0.00 0.00 0.00 0.00 0.00 0.00 0.00 0.00 0.00
0.37 0.31 0.36 0.20 0.05 0.08 0.04 0.01 0.06 0.07 0.04 0.02 0.00 0.00 0.11 0.28 0.37 0.31 0.12 0.03 0.05 0.04 0.02 0.06 0.09 0.21 0.07 0.04 0.10 0.02 0.02 0.12 0.10 0.02 0.00 0.00 0.00 0.00 0.00 0.00 0.00 0.00 0.00 0.00
0.53 0.38 0.21 0.08 0.04 0.09 0.06 0.01 0.04 0.13 0.06 0.01 0.00 0.00 0.02 0.16 0.34 0.33 0.12 0.03 0.08 0.11 0.06 0.06 0.03 0.11 0.02 0.01 0.02 0.02 0.02 0.06 0.12 0.05 0.02 0.00 0.00 0.00 0.00 0.00 0.00 0.00 0.00 0.00
0.27 0.24 0.10 0.08 0.06 0.09 0.09 0.01 0.03 0.08 0.07 0.01 0.00 0.00 0.00 0.04 0.17 0.35 0.15 0.06 0.06 0.15 0.12 0.08 0.01 0.03 0.02 0.00 0.00 0.00 0.01 0.01 0.02 0.04 0.01 0.00 0.00 0.00 0.00 0.00 0.00 0.00 0.00 0.00
0.24 0.29 0.14 0.06 0.03 0.07 0.10 0.04 0.05 0.08 0.05 0.02 0.00 0.00 0.00 0.00 0.05 0.14 0.27 0.11 0.04 0.06 0.10 0.07 0.02 0.00 0.00 0.00 0.00 0.00 0.00 0.00 0.00 0.00 0.00 0.00 0.00 0.00 0.00 0.00 0.00 0.00 0.00 0.00
0.17 0.20 0.12 0.06 0.04 0.08 0.11 0.05 0.10 0.11 0.04 0.01 0.00 0.00 0.00 0.00 0.00 0.02 0.14 0.22 0.14 0.03 0.03 0.07 0.05 0.00 0.00 0.00 0.00 0.00 0.00 0.00 0.00 0.00 0.00 0.00 0.00 0.00 0.00 0.00 0.00 0.00 0.00 0.00
0.16 0.18 0.14 0.07 0.04 0.07 0.13 0.05 0.12 0.11 0.05 0.01 0.00 0.00 0.00 0.00 0.00 0.00 0.02 0.19 0.21 0.18 0.16 0.11 0.08 0.05 0.01 0.00 0.00 0.00 0.00 0.00 0.00 0.00 0.00 0.00 0.00 0.00 0.00 0.00 0.00 0.00 0.00 0.00
0.14 0.14 0.12 0.07 0.04 0.08 0.10 0.06 0.19 0.15 0.07 0.02 0.00 0.00 0.00 0.00 0.00 0.00 0.00 0.07 0.12 0.10 0.15 0.07 0.02 0.01 0.01 0.00 0.00 0.00 0.00 0.00 0.00 0.00 0.00 0.00 0.00 0.00 0.00 0.00 0.00 0.00 0.00 0.00
0.11 0.12 0.10 0.07 0.06 0.14 0.12 0.14 0.15 0.18 0.06 0.01 0.00 0.00 0.00 0.00 0.00 0.00 0.00 0.00 0.00 0.01 0.01 0.01 0.01 0.00 0.00 0.00 0.00 0.00 0.00 0.00 0.00 0.00 0.00 0.00 0.00 0.00 0.00 0.00 0.00 0.00 0.00 0.00
0.09 0.11 0.10 0.08 0.13 0.12 0.11 0.07 0.03 0.17 0.16 0.05 0.04 0.01 0.00 0.00 0.00 0.00 0.00 0.00 0.00 0.01 0.01 0.00 0.00 0.00 0.00 0.00 0.00 0.00 0.00 0.00 0.00 0.00 0.00 0.00 0.00 0.00 0.00 0.00 0.00 0.00 0.00 0.00
0.11 0.15 0.15 0.15 0.17 0.15 0.09 0.03 0.05 0.18 0.31 0.12 0.09 0.05 0.00 0.00 0.00 0.00 0.00 0.01 0.01 0.03 0.02 0.00 0.00 0.00 0.00 0.00 0.00 0.00 0.00 0.00 0.00 0.00 0.00 0.00 0.00 0.00 0.00 0.00 0.00 0.00 0.00 0.00
0.24 0.27 0.21 0.16 0.08 0.04 0.04 0.06 0.12 0.07 0.28 0.25 0.07 0.03 0.01 0.00 0.01 0.02 0.02 0.03 0.03 0.02 0.01 0.01 0.00 0.00 0.00 0.00 0.00 0.00 0.00 0.00 0.00 0.00 0.00 0.00 0.00 0.00 0.00 0.00 0.00 0.00 0.00 0.00
0.52 0.36 0.11 0.06 0.03 0.04 0.06 0.08 0.11 0.14 0.10 0.14 0.09 0.02 0.00 0.00 0.01 0.03 0.02 0.01 0.01 0.01 0.01 0.00 0.00 0.00 0.00 0.00 0.00 0.00 0.00 0.00 0.00 0.00 0.00 0.00 0.00 0.00 0.00 0.00 0.00 0.00 0.00 0.00
0.68 0.29 0.05 0.02 0.03 0.01 0.03 0.14 0.06 0.10 0.05 0.02 0.02 0.04 0.03 0.00 0.04 0.06 0.04 0.01 0.00 0.00 0.00 0.00 0.00 0.00 0.00 0.00 0.00 0.00 0.00 0.00 0.00 0.00 0.00 0.00 0.00 0.00 0.00 0.00 0.00 0.00 0.00 0.00
0.34 0.11 0.06 0.02 0.02 0.02 0.01 0.06 0.04 0.00 0.00 0.00 0.00 0.00 0.00 0.00 0.00 0.00 0.00 0.00 0.00 0.00 0.00 0.00 0.00 0.00 0.00 0.00 0.00 0.00 0.00 0.00 0.00 0.00 0.00 0.00 0.00 0.00 0.00 0.00 0.00 0.00 0.00 0.00
0.33 0.33 0.25 0.05 0.06 0.02 0.00 0.00 0.00 0.00 0.00 0.00 0.00 0.00 0.00 0.00 0.00 0.00 0.00 0.00 0.00 0.00 0.01 0.00 0.00 0.00 0.00 0.00 0.00 0.00 0.00 0.00 0.00 0.00 0.00 0.00 0.00 0.00 0.00 0.00 0.00 0.00 0.00 0.00
1.25 0.78 0.39 0.06 0.05 0.00 0.00 0.00 0.00 0.00 0.00 0.00 0.00 0.00 0.00 0.00 0.00 0.00 0.00 0.01 0.01 0.01 0.01 0.00 0.00 0.00 0.00 0.00 0.00 0.00 0.00 0.00 0.00 0.00 0.00 0.00 0.00 0.00 0.00 0.00 0.00 0.00 0.00 0.00
0.95 0.34 0.11 0.02 0.00 0.00 0.00 0.00 0.00 0.00 0.00 0.00 0.00 0.00 0.00 0.00 0.00 0.00 0.01 0.03 0.01 0.00 0.00 0.00 0.00 0.00 0.00 0.00 0.00 0.00 0.00 0.00 0.00 0.00 0.00 0.00 0.00 0.00 0.00 0.00 0.00 0.00 0.00 0.00
1.04 0.38 0.11 0.02 0.00 0.00 0.00 0.00 0.00 0.00 0.00 0.00 0.00 0.00 0.00 0.00 0.00 0.00 0.00 0.00 0.00 0.00 0.00 0.00 0.00 0.00 0.00 0.00 0.00 0.00 0.00 0.00 0.00 0.00 0.00 0.00 0.00 0.00 0.00 0.00 0.00 0.00 0.00 0.00
1.08 0.28 0.02 0.00 0.00 0.00 0.00 0.00 0.00 0.00 0.00 0.00 0.00 0.00 0.00 0.00 0.00 0.00 0.00 0.00 0.00 0.00 0.00 0.00 0.00 0.00 0.00 0.00 0.00 0.00 0.00 0.00 0.00 0.00 0.00 0.00 0.00 0.00 0.00 0.00 0.00 0.00 0.00 0.00

GFSNW_prec_precacc24_027.txt.gz
Total_Precipitation_Accumulation
0.58 0.47 0.28 0.28 0.36 0.41 0.34 0.20 0.18 0.15 0.48 1.06 0.87 0.86 0.91 0.65 0.40 0.51 0.47 0.17 0.04 0.03 0.04 0.10 0.13 0.08 0.03 0.01 0.01 0.11 0.33 0.48 0.69 0.47 0.16 0.17 0.21 0.19 0.11 0.24 0.15 0.08 0.02 0.00
0.58 0.51 0.36 0.28 0.51 0.57 0.23 0.14 0.25 0.52 0.41 0.49 0.46 0.58 0.66 0.64 0.52 0.49 0.47 0.15 0.06 0.01 0.02 0.08 0.06 0.04 0.00 0.00 0.00 0.03 0.25 0.56 0.64 0.50 0.26 0.30 0.38 0.23 0.08 0.08 0.06 0.03 0.01 0.00
0.50 0.44 0.37 0.29 0.77 0.71 0.12 0.13 0.23 0.66 0.56 0.22 0.43 0.60 0.64 0.67 0.49 0.41 0.44 0.16 0.05 0.02 0.01 0.03 0.03 0.03 0.00 0.00 0.00 0.01 0.24 0.56 0.54 0.31 0.11 0.12 0.17 0.11 0.03 0.02 0.03 0.02 0.01 0.00
0.58 0.45 0.37 0.34 0.56 0.60 0.15 0.14 0.12 0.10 0.14 0.07 0.18 0.51 0.70 0.74 0.77 0.46 0.54 0.35 0.05 0.02 0.01 0.02 0.01 0.01 0.01 0.00 0.00 0.01 0.19 0.46 0.35 0.14 0.00 0.01 0.02 0.01 0.01 0.03 0.02 0.01 0.00 0.00
0.60 0.45 0.33 0.24 0.25 0.36 0.18 0.10 0.08 0.05 0.01 0.01 0.08 0.38 0.50 0.56 0.58 0.49 0.30 0.19 0.03 0.01 0.01 0.00 0.00 0.00 0.00 0.00 0.00 0.01 0.04 0.13 0.12 0.11 0.00 0.00 0.00 0.00 0.00 0.01 0.00 0.00 0.00 0.00
0.48 0.46 0.36 0.63 0.56 0.34 0.14 0.06 0.04 0.03 0.04 0.02 0.08 0.13 0.37 0.60 0.56 0.29 0.08 0.06 0.08 0.07 0.01 0.00 0.01 0.00 0.00 0.00 0.00 0.00 0.00 0.02 0.03 0.05 0.01 0.00 0.00 0.00 0.00 0.00 0.00 0.00 0.00 0.00
0.59 0.61 0.52 0.56 0.40 0.23 0.02 0.00 0.01 0.04 0.03 0.03 0.06 0.18 0.27 0.41 0.49 0.37 0.09 0.07 0.07 0.04 0.00 0.01 0.02 0.01 0.00 0.02 0.02 0.00 0.01 0.01 0.01 0.00 0.00 0.00 0.00 0.00 0.00 0.00 0.00 0.00 0.00 0.00
0.37 0.23 0.16 0.13 0.14 0.14 0.03 0.00 0.02 0.06 0.04 0.03 0.04 0.10 0.22 0.36 0.46 0.41 0.13 0.06 0.04 0.01 0.01 0.03 0.17 0.17 0.09 0.05 0.03 0.01 0.04 0.06 0.01 0.00 0.00 0.00 0.00 0.00 0.00 0.00 0.00 0.00 0.00 0.00
0.44 0.36 0.46 0.38 0.26 0.24 0.09 0.01 0.06 0.08 0.07 0.05 0.02 0.02 0.14 0.33 0.48 0.43 0.17 0.03 0.05 0.04 0.04 0.08 0.15 0.29 0.08 0.04 0.10 0.02 0.03 0.13 0.10 0.02 0.00 0.00 0.00 0.00 0.00 0.00 0.00 0.00 0.00 0.00
0.56 0.43 0.35 0.19 0.07 0.16 0.16 0.02 0.04 0.15 0.09 0.02 0.03 0.01 0.05 0.25 0.51 0.50 0.22 0.05 0.12 0.11 0.07 0.07 0.04 0.12 0.02 0.01 0.02 0.03 0.03 0.07 0.14 0.05 0.02 0.00 0.00 0.00 0.00 0.00 0.00 0.00 0.00 0.00
0.30 0.27 0.20 0.21 0.14 0.22 0.22 0.02 0.03 0.10 0.10 0.03 0.01 0.00 0.00 0.05 0.26 0.51 0.29 0.08 0.11 0.17 0.14 0.10 0.02 0.03 0.02 0.00 0.00 0.00 0.01 0.01 0.03 0.04 0.01 0.00 0.00 0.00 0.00 0.00 0.00 0.00 0.00 0.00
0.27 0.34 0.24 0.16 0.06 0.11 0.16 0.05 0.05 0.10 0.10 0.05 0.01 0.00 0.00 0.00 0.07 0.28 0.44 0.16 0.04 0.08 0.11 0.07 0.02 0.00 0.00 0.00 0.00 0.00 0.00 0.00 0.00 0.00 0.00 0.00 0.00 0.00 0.00 0.00 0.00 0.00 0.00 0.00
0.19 0.26 0.23 0.14 0.09 0.15 0.16 0.06 0.11 0.15 0.09 0.05 0.01 0.00 0.00 0.00 0.01 0.08 0.29 0.33 0.16 0.04 0.04 0.08 0.05 0.00 0.00 0.00 0.00 0.00 0.00 0.00 0.00 0.00 0.00 0.00 0.00 0.00 0.00 0.00 0.00 0.00 0.00 0.00
0.18 0.23 0.24 0.13 0.09 0.12 0.17 0.06 0.12 0.15 0.13 0.07 0.01 0.00 0.00 0.00 0.00 0.01 0.07 0.29 0.27 0.20 0.17 0.14 0.09 0.05 0.01 0.00 0.00 0.00 0.00 0.00 0.00 0.00 0.00 0.00 0.00 0.00 0.00 0.00 0.00 0.00 0.00 0.00
0.15 0.16 0.21 0.14 0.09 0.11 0.13 0.06 0.19 0.21 0.17 0.12 0.01 0.00 0.00 0.00 0.00 0.00 0.00 0.14 0.30 0.19 0.27 0.13 0.06 0.02 0.01 0.00 0.00 0.00 0.00 0.00 0.00 0.00 0.00 0.00 0.00 0.00 0.00 0.00 0.00 0.00 0.00 0.00
0.12 0.13 0.18 0.14 0.10 0.16 0.15 0.16 0.15 0.20 0.13 0.10 0.01 0.00 0.00 0.00 0.00 0.00 0.00 0.05 0.11 0.10 0.10 0.08 0.05 0.02 0.00 0.00 0.00 0.00 0.00 0.00 0.00 0.00 0.00 0.00 0.00 0.00 0.00 0.00 0.00 0.00 0.00 0.00
0.10 0.12 0.18 0.16 0.17 0.16 0.13 0.08 0.03 0.17 0.20 0.11 0.04 0.00 0.00 0.00 0.00 0.00 0.00 0.00 0.01 0.01 0.01 0.00 0.00 0.00 0.00 0.00 0.00 0.00 0.00 0.00 0.00 0.00 0.00 0.00 0.00 0.00 0.00 0.00 0.00 0.00 0.00 0.00
0.12 0.16 0.23 0.26 0.24 0.21 0.12 0.05 0.07 0.19 0.36 0.15 0.09 0.04 0.00 0.00 0.00 0.00 0.00 0.00 0.01 0.02 0.01 0.00 0.00 0.00 0.00 0.00 0.00 0.00 0.00 0.00 0.00 0.00 0.00 0.00 0.00 0.00 0.00 0.00 0.00 0.00 0.00 0.00
0.25 0.31 0.40 0.43 0.17 0.06 0.05 0.08 0.14 0.12 0.36 0.38 0.08 0.03 0.01 0.00 0.01 0.01 0.01 0.02 0.03 0.01 0.01 0.01 0.00 0.00 0.00 0.00 0.00 0.00 0.00 0.00 0.00 0.00 0.00 0.00 0.00 0.00 0.00 0.00 0.00 0.00 0.00 0.00
0.55 0.62 0.43 0.23 0.08 0.05 0.06 0.10 0.12 0.21 0.19 0.18 0.11 0.02 0.00 0.00 0.01 0.02 0.01 0.01 0.01 0.00 0.00 0.00 0.00 0.00 0.00 0.00 0.00 0.00 0.00 0.00 0.00 0.00 0.00 0.00 0.00 0.00 0.00 0.00 0.00 0.00 0.00 0.00
0.95 0.63 0.20 0.07 0.04 0.02 0.03 0.17 0.11 0.14 0.08 0.03 0.03 0.05 0.05 0.01 0.05 0.08 0.04 0.01 0.00 0.00 0.00 0.00 0.00 0.00 0.00 0.00 0.00 0.00 0.00 0.00 0.00 0.00 0.00 0.00 0.00 0.00 0.00 0.00 0.00 0.00 0.00 0.00
0.57 0.23 0.26 0.07 0.05 0.04 0.01 0.09 0.08 0.02 0.00 0.00 0.00 0.00 0.03 0.06 0.03 0.04 0.04 0.00 0.00 0.00 0.00 0.00 0.00 0.00 0.00 0.00 0.00 0.00 0.00 0.00 0.00 0.00 0.00 0.00 0.00 0.00 0.00 0.00 0.00 0.00 0.00 0.00
0.58 0.60 0.50 0.08 0.07 0.03 0.00 0.01 0.01 0.00 0.00 0.00 0.00 0.00 0.00 0.01 0.01 0.00 0.00 0.00 0.00 0.00 0.01 0.00 0.00 0.00 0.00 0.00 0.00 0.00 0.00 0.00 0.00 0.00 0.00 0.00 0.00 0.00 0.00 0.00 0.00 0.00 0.00 0.00
1.57 1.16 0.59 0.07 0.05 0.00 0.00 0.00 0.00 0.00 0.00 0.00 0.00 0.00 0.00 0.00 0.00 0.00 0.00 0.01 0.01 0.01 0.00 0.00 0.00 0.00 0.00 0.00 0.00 0.00 0.00 0.00 0.00 0.00 0.00 0.00 0.00 0.00 0.00 0.00 0.00 0.00 0.00 0.00
1.26 0.54 0.14 0.02 0.00 0.00 0.00 0.00 0.00 0.00 0.00 0.00 0.00 0.00 0.00 0.00 0.00 0.00 0.01 0.03 0.01 0.00 0.00 0.00 0.00 0.00 0.00 0.00 0.00 0.00 0.00 0.00 0.00 0.00 0.00 0.00 0.00 0.00 0.00 0.00 0.00 0.00 0.00 0.00
1.27 0.47 0.12 0.02 0.00 0.00 0.00 0.00 0.00 0.00 0.00 0.00 0.00 0.00 0.00 0.00 0.00 0.00 0.00 0.00 0.00 0.00 0.00 0.00 0.00 0.00 0.00 0.00 0.00 0.00 0.00 0.00 0.00 0.00 0.00 0.00 0.00 0.00 0.00 0.00 0.00 0.00 0.00 0.00
1.26 0.32 0.02 0.00 0.00 0.00 0.00 0.00 0.00 0.00 0.00 0.00 0.00 0.00 0.00 0.00 0.00 0.00 0.00 0.00 0.00 0.00 0.00 0.00 0.00 0.00 0.00 0.00 0.00 0.00 0.00 0.00 0.00 0.00 0.00 0.00 0.00 0.00 0.00 0.00 0.00 0.00 0.00 0.00

GFSNW_prec_precacc24_033.txt.gz
Total_Precipitation_Accumulation
0.64 0.65 0.74 0.57 0.54 0.73 0.73 0.80 0.96 0.87 1.41 2.05 1.22 0.66 0.71 0.47 0.22 0.36 0.42 0.18 0.07 0.04 0.05 0.10 0.12 0.07 0.03 0.01 0.01 0.12 0.36 0.69 0.83 0.69 0.27 0.20 0.30 0.26 0.12 0.27 0.23 0.14 0.19 0.03
0.64 0.79 0.70 0.58 0.84 1.09 0.95 0.80 0.96 1.24 0.95 1.10 0.57 0.50 0.45 0.40 0.29 0.43 0.50 0.17 0.07 0.02 0.03 0.10 0.06 0.04 0.00 0.00 0.01 0.09 0.43 0.84 0.80 0.62 0.50 0.46 0.60 0.32 0.14 0.16 0.31 0.23 0.16 0.02
0.58 0.67 0.60 0.52 1.06 1.24 1.07 0.85 0.99 1.58 1.47 0.48 0.45 0.59 0.54 0.47 0.36 0.40 0.51 0.25 0.13 0.07 0.03 0.03 0.03 0.03 0.00 0.00 0.00 0.03 0.41 0.85 0.90 0.70 0.39 0.33 0.28 0.19 0.11 0.14 0.21 0.20 0.18 0.03
0.64 0.58 0.49 0.53 0.84 1.04 0.90 0.67 0.50 0.39 0.48 0.24 0.20 0.51 0.70 0.68 0.71 0.46 0.62 0.44 0.11 0.06 0.04 0.02 0.01 0.01 0.01 0.00 0.00 0.06 0.42 0.85 0.84 0.45 0.21 0.24 0.23 0.19 0.10 0.23 0.17 0.14 0.07 0.06
0.62 0.53 0.41 0.44 0.49 0.84 0.65 0.42 0.29 0.07 0.01 0.02 0.09 0.39 0.50 0.56 0.58 0.53 0.35 0.25 0.07 0.07 0.03 0.00 0.00 0.00 0.00 0.01 0.02 0.10 0.29 0.61 0.68 0.56 0.14 0.15 0.19 0.31 0.11 0.43 0.20 0.16 0.14 0.11
0.47 0.52 0.44 0.87 0.95 1.23 0.78 0.33 0.13 0.05 0.05 0.03 0.09 0.14 0.37 0.60 0.58 0.31 0.11 0.13 0.17 0.11 0.01 0.01 0.01 0.00 0.00 0.01 0.04 0.12 0.17 0.37 0.53 0.51 0.31 0.18 0.28 0.30 0.47 0.43 0.17 0.21 0.25 0.12
0.58 0.64 0.59 0.78 0.73 0.81 0.62 0.32 0.16 0.10 0.06 0.04 0.07 0.20 0.30 0.42 0.50 0.43 0.17 0.15 0.14 0.06 0.00 0.01 0.02 0.01 0.00 0.02 0.03 0.02 0.02 0.12 0.26 0.18 0.03 0.08 0.05 0.07 0.24 0.18 0.16 0.21 0.10 0.05
0.37 0.25 0.21 0.31 0.41 0.47 0.41 0.21 0.07 0.08 0.07 0.04 0.06 0.12 0.27 0.41 0.52 0.51 0.27 0.14 0.06 0.02 0.02 0.07 0.18 0.17 0.10 0.05 0.03 0.03 0.04 0.08 0.05 0.02 0.00 0.01 0.00 0.00 0.01 0.02 0.07 0.06 0.04 0.01
0.44 0.37 0.49 0.51 0.54 0.49 0.41 0.24 0.12 0.08 0.08 0.06 0.04 0.06 0.17 0.38 0.59 0.60 0.33 0.15 0.10 0.06 0.08 0.12 0.16 0.35 0.11 0.04 0.10 0.02 0.03 0.14 0.12 0.02 0.00 0.00 0.00 0.00 0.00 0.00 0.01 0.00 0.00 0.00
0.56 0.45 0.37 0.25 0.24 0.39 0.41 0.16 0.09 0.15 0.10 0.03 0.06 0.06 0.10 0.31 0.65 0.70 0.46 0.29 0.23 0.13 0.11 0.11 0.04 0.14 0.02 0.01 0.02 0.03 0.03 0.07 0.14 0.05 0.02 0.00 0.00 0.00 0.00 0.00 0.00 0.00 0.00 0.00
0.30 0.28 0.22 0.26 0.28 0.40 0.41 0.13 0.06 0.12 0.14 0.04 0.02 0.02 0.03 0.14 0.40 0.73 0.57 0.43 0.29 0.23 0.17 0.18 0.02 0.03 0.02 0.00 0.00 0.00 0.01 0.01 0.03 0.04 0.01 0.00 0.00 0.00 0.00 0.00 0.00 0.00 0.00 0.00
0.27 0.35 0.26 0.21 0.15 0.24 0.31 0.13 0.06 0.13 0.14 0.07 0.03 0.02 0.01 0.04 0.14 0.42 0.60 0.37 0.13 0.11 0.12 0.09 0.03 0.00 0.00 0.00 0.00 0.00 0.00 0.00 0.00 0.00 0.00 0.00 0.00 0.00 0.00 0.00 0.00 0.00 0.00 0.00
0.19 0.27 0.26 0.20 0.19 0.27 0.33 0.14 0.12 0.16 0.14 0.07 0.03 0.01 0.02 0.01 0.05 0.17 0.49 0.50 0.29 0.08 0.04 0.09 0.06 0.00 0.00 0.00 0.00 0.00 0.00 0.00 0.00 0.00 0.00 0.00 0.00 0.00 0.00 0.00 0.00 0.00 0.00 0.00
0.19 0.25 0.26 0.20 0.19 0.23 0.32 0.09 0.13 0.16 0.14 0.09 0.04 0.02 0.00 0.01 0.03 0.09 0.23 0.62 0.53 0.35 0.19 0.15 0.11 0.05 0.01 0.00 0.00 0.00 0.00 0.00 0.00 0.00 0.00 0.00 0.00 0.00 0.00 0.00 0.00 0.00 0.00 0.00
0.17 0.18 0.23 0.18 0.18 0.23 0.22 0.09 0.20 0.21 0.21 0.24 0.10 0.02 0.00 0.00 0.02 0.02 0.09 0.28 0.55 0.43 0.39 0.14 0.08 0.04 0.01 0.00 0.00 0.00 0.00 0.00 0.00 0.00 0.00 0.00 0.00 0.00 0.00 0.00 0.00 0.00 0.00 0.00
0.14 0.14 0.19 0.18 0.20 0.29 0.26 0.21 0.15 0.21 0.15 0.23 0.17 0.06 0.00 0.00 0.00 0.00 0.04 0.12 0.25 0.36 0.29 0.13 0.07 0.03 0.02 0.00 0.00 0.00 0.00 0.00 0.00 0.00 0.00 0.00 0.00 0.00 0.00 0.00 0.00 0.00 0.00 0.00
0.12 0.13 0.18 0.20 0.30 0.29 0.24 0.09 0.03 0.17 0.22 0.19 0.17 0.05 0.00 0.00 0.00 0.00 0.00 0.06 0.13 0.16 0.19 0.06 0.02 0.03 0.02 0.00 0.00 0.00 0.00 0.00 0.00 0.00 0.00 0.00 0.00 0.00 0.00 0.00 0.00 0.00 0.00 0.00
0.13 0.16 0.24 0.32 0.36 0.32 0.18 0.05 0.07 0.18 0.37 0.19 0.14 0.07 0.00 0.00 0.00 0.00 0.00 0.01 0.02 0.02 0.04 0.03 0.01 0.01 0.00 0.00 0.00 0.00 0.00 0.00 0.00 0.00 0.00 0.00 0.00 0.00 0.00 0.00 0.00 0.00 0.00 0.00
0.25 0.31 0.45 0.60 0.30 0.11 0.07 0.14 0.16 0.13 0.38 0.46 0.10 0.03 0.01 0.00 0.01 0.00 0.00 0.00 0.01 0.01 0.01 0.01 0.01 0.00 0.00 0.00 0.00 0.00 0.00 0.00 0.00 0.00 0.00 0.00 0.00 0.00 0.00 0.00 0.00 0.00 0.00 0.00
0.54 0.68 0.67 0.45 0.18 0.11 0.10 0.24 0.20 0.30 0.26 0.22 0.14 0.02 0.00 0.00 0.01 0.01 0.01 0.00 0.01 0.00 0.00 0.00 0.00 0.00 0.00 0.00 0.00 0.00 0.00 0.00 0.00 0.00 0.00 0.00 0.00 0.00 0.00 0.00 0.00 0.00 0.00 0.00
0.99 0.83 0.46 0.28 0.20 0.12 0.09 0.33 0.23 0.19 0.14 0.06 0.03 0.05 0.05 0.01 0.05 0.09 0.05 0.01 0.00 0.00 0.00 0.00 0.00 0.00 0.00 0.00 0.00 0.00 0.00 0.00 0.00 0.00 0.00 0.00 0.00 0.00 0.00 0.00 0.00 0.00 0.00 0.00
0.73 0.61 0.72 0.55 0.34 0.29 0.09 0.15 0.15 0.03 0.01 0.00 0.00 0.00 0.03 0.06 0.03 0.06 0.06 0.00 0.00 0.00 0.00 0.00 0.00 0.00 0.00 0.00 0.00 0.00 0.00 0.00 0.00 0.00 0.00 0.00 0.00 0.00 0.00 0.00 0.00 0.00 0.00 0.00
0.82 1.08 1.05 0.41 0.29 0.12 0.01 0.01 0.03 0.00 0.00 0.00 0.00 0.00 0.00 0.02 0.08 0.05 0.02 0.00 0.00 0.00 0.00 0.00 0.00 0.00 0.00 0.00 0.00 0.00 0.00 0.00 0.00 0.00 0.00 0.00 0.00 0.00 0.00 0.00 0.00 0.00 0.00 0.00
1.74 1.58 1.00 0.18 0.10 0.00 0.00 0.00 0.00 0.00 0.00 0.00 0.00 0.00 0.00 0.00 0.02 0.04 0.00 0.00 0.00 0.00 0.00 0.00 0.00 0.00 0.00 0.00 0.00 0.00 0.00 0.00 0.00 0.00 0.00 0.00 0.00 0.00 0.00 0.00 0.00 0.00 0.00 0.00
1.34 0.87 0.37 0.06 0.01 0.00 0.00 0.00 0.00 0.00 0.00 0.00 0.00 0.00 0.00 0.00 0.01 0.00 0.00 0.01 0.00 0.00 0.00 0.00 0.00 0.00 0.00 0.00 0.00 0.00 0.00 0.00 0.00 0.00 0.00 0.00 0.00 0.00 0.00 0.00 0.00 0.00 0.00 0.00
1.26 0.69 0.23 0.02 0.00 0.00 0.00 0.00 0.00 0.00 0.00 0.00 0.00 0.00 0.00 0.00 0.00 0.00 0.00 0.00 0.00 0.00 0.00 0.00 0.00 0.00 0.00 0.00 0.00 0.00 0.00 0.00 0.00 0.00 0.00 0.00 0.00 0.00 0.00 0.00 0.00 0.00 0.00 0.00
1.18 0.36 0.03 0.00 0.00 0.00 0.00 0.00 0.00 0.00 0.00 0.00 0.00 0.00 0.00 0.00 0.00 0.00 0.00 0.00 0.00 0.00 0.00 0.00 0.00 0.00 0.00 0.00 0.00 0.00 0.00 0.00 0.00 0.00 0.00 0.00 0.00 0.00 0.00 0.00 0.00 0.00 0.00 0.00

GFSNW_prec_precacc24_036.txt.gz
Total_Precipitation_Accumulation
0.64 0.65 0.78 0.65 0.77 0.92 0.82 0.84 1.03 1.08 1.72 2.65 1.56 0.48 0.46 0.42 0.22 0.32 0.36 0.17 0.07 0.04 0.04 0.09 0.04 0.01 0.01 0.01 0.01 0.12 0.36 0.72 0.84 0.69 0.27 0.22 0.34 0.29 0.21 0.37 0.24 0.14 0.20 0.03
0.64 0.79 0.71 0.63 0.95 1.22 1.01 0.90 1.01 1.54 1.27 1.33 0.66 0.42 0.39 0.38 0.24 0.36 0.48 0.17 0.07 0.02 0.03 0.09 0.01 0.00 0.00 0.00 0.01 0.09 0.43 0.87 0.83 0.62 0.53 0.56 0.75 0.40 0.25 0.26 0.39 0.26 0.16 0.02
0.58 0.66 0.61 0.54 1.12 1.41 1.19 1.03 1.19 1.94 1.92 0.63 0.42 0.53 0.44 0.38 0.30 0.39 0.50 0.24 0.14 0.08 0.04 0.03 0.02 0.02 0.00 0.00 0.00 0.03 0.41 0.86 0.93 0.75 0.43 0.52 0.54 0.31 0.27 0.29 0.34 0.22 0.18 0.03
0.65 0.58 0.49 0.54 0.89 1.12 1.02 0.84 0.70 0.54 0.61 0.41 0.22 0.50 0.62 0.62 0.69 0.46 0.62 0.43 0.11 0.07 0.07 0.03 0.02 0.01 0.01 0.00 0.00 0.06 0.42 0.87 0.88 0.49 0.28 0.37 0.39 0.33 0.23 0.34 0.20 0.15 0.07 0.07
0.62 0.52 0.41 0.45 0.52 0.91 0.67 0.47 0.50 0.12 0.03 0.04 0.12 0.40 0.49 0.54 0.58 0.52 0.34 0.25 0.08 0.07 0.04 0.01 0.00 0.00 0.00 0.01 0.02 0.11 0.32 0.67 0.73 0.61 0.24 0.31 0.31 0.36 0.16 0.46 0.21 0.16 0.14 0.12
0.48 0.51 0.44 0.88 0.98 1.33 0.84 0.38 0.33 0.19 0.12 0.05 0.14 0.16 0.37 0.60 0.58 0.29 0.10 0.13 0.17 0.11 0.01 0.01 0.01 0.00 0.00 0.01 0.05 0.14 0.23 0.45 0.65 0.62 0.48 0.25 0.40 0.42 0.50 0.43 0.17 0.21 0.26 0.14
0.59 0.64 0.58 0.77 0.78 0.91 0.73 0.38 0.30 0.30 0.13 0.05 0.07 0.20 0.30 0.42 0.51 0.42 0.17 0.15 0.13 0.05 0.01 0.02 0.02 0.01 0.00 0.02 0.03 0.02 0.03 0.18 0.38 0.27 0.13 0.14 0.10 0.10 0.30 0.25 0.22 0.24 0.13 0.06
0.37 0.24 0.20 0.31 0.44 0.56 0.44 0.32 0.26 0.23 0.08 0.04 0.07 0.12 0.27 0.41 0.53 0.52 0.29 0.15 0.06 0.06 0.07 0.09 0.17 0.17 0.10 0.05 0.03 0.03 0.04 0.11 0.15 0.08 0.03 0.02 0.00 0.00 0.02 0.11 0.20 0.13 0.06 0.01
0.43 0.36 0.48 0.51 0.57 0.53 0.44 0.33 0.28 0.16 0.09 0.06 0.04 0.07 0.18 0.39 0.60 0.61 0.35 0.18 0.16 0.13 0.15 0.17 0.16 0.33 0.10 0.04 0.10 0.02 0.03 0.15 0.17 0.03 0.03 0.01 0.00 0.00 0.00 0.00 0.03 0.01 0.01 0.02
0.56 0.44 0.37 0.25 0.26 0.41 0.46 0.29 0.27 0.16 0.10 0.03 0.06 0.07 0.11 0.31 0.67 0.74 0.50 0.35 0.31 0.19 0.16 0.14 0.04 0.13 0.02 0.01 0.02 0.03 0.04 0.08 0.15 0.06 0.03 0.00 0.00 0.00 0.00 0.00 0.00 0.00 0.00 0.00
0.30 0.27 0.21 0.26 0.30 0.42 0.47 0.18 0.12 0.14 0.14 0.04 0.02 0.02 0.03 0.14 0.42 0.78 0.65 0.52 0.46 0.32 0.20 0.21 0.02 0.03 0.02 0.00 0.00 0.00 0.01 0.01 0.03 0.04 0.01 0.00 0.00 0.00 0.00 0.00 0.00 0.00 0.00 0.00
0.27 0.34 0.25 0.21 0.16 0.27 0.36 0.18 0.08 0.14 0.14 0.07 0.03 0.02 0.01 0.04 0.16 0.48 0.69 0.46 0.26 0.18 0.12 0.11 0.04 0.00 0.00 0.00 0.00 0.00 0.00 0.00 0.00 0.00 0.00 0.00 0.00 0.00 0.00 0.00 0.00 0.00 0.00 0.00
0.19 0.27 0.26 0.20 0.19 0.29 0.37 0.17 0.14 0.16 0.14 0.07 0.03 0.01 0.02 0.02 0.08 0.24 0.59 0.57 0.34 0.12 0.04 0.09 0.06 0.01 0.00 0.00 0.00 0.00 0.00 0.00 0.00 0.00 0.00 0.00 0.00 0.00 0.00 0.00 0.00 0.00 0.00 0.00
0.18 0.25 0.27 0.19 0.19 0.24 0.34 0.11 0.17 0.16 0.14 0.09 0.04 0.03 0.02 0.01 0.06 0.16 0.32 0.70 0.61 0.40 0.21 0.16 0.14 0.05 0.01 0.00 0.00 0.00 0.00 0.00 0.00 0.00 0.00 0.00 0.00 0.00 0.00 0.00 0.00 0.00 0.00 0.00
0.16 0.18 0.22 0.18 0.18 0.23 0.23 0.10 0.22 0.22 0.21 0.25 0.10 0.04 0.02 0.01 0.09 0.12 0.20 0.35 0.61 0.48 0.43 0.16 0.09 0.05 0.01 0.00 0.00 0.00 0.00 0.00 0.00 0.00 0.00 0.00 0.00 0.00 0.00 0.00 0.00 0.00 0.00 0.00
0.14 0.14 0.18 0.17 0.20 0.30 0.29 0.27 0.16 0.21 0.15 0.24 0.21 0.11 0.03 0.00 0.04 0.05 0.12 0.19 0.33 0.42 0.36 0.18 0.08 0.03 0.02 0.00 0.00 0.00 0.00 0.00 0.00 0.00 0.00 0.00 0.00 0.00 0.00 0.00 0.00 0.00 0.00 0.00
0.12 0.13 0.18 0.19 0.28 0.30 0.27 0.10 0.03 0.18 0.22 0.19 0.25 0.12 0.01 0.00 0.01 0.03 0.04 0.12 0.17 0.22 0.26 0.12 0.03 0.03 0.02 0.00 0.00 0.00 0.00 0.00 0.00 0.00 0.00 0.00 0.00 0.00 0.00 0.00 0.00 0.00 0.00 0.00
0.13 0.16 0.23 0.31 0.35 0.33 0.20 0.05 0.06 0.19 0.37 0.19 0.16 0.09 0.01 0.00 0.00 0.01 0.01 0.05 0.07 0.05 0.07 0.04 0.02 0.02 0.01 0.00 0.00 0.00 0.00 0.00 0.00 0.00 0.00 0.00 0.00 0.00 0.00 0.00 0.00 0.00 0.00 0.00
0.24 0.31 0.44 0.59 0.30 0.11 0.08 0.14 0.16 0.13 0.38 0.47 0.10 0.03 0.02 0.00 0.01 0.01 0.01 0.01 0.01 0.01 0.00 0.01 0.01 0.00 0.00 0.00 0.00 0.00 0.00 0.00 0.00 0.00 0.00 0.00 0.00 0.00 0.00 0.00 0.00 0.00 0.00 0.00
0.54 0.68 0.67 0.47 0.19 0.17 0.17 0.31 0.22 0.30 0.26 0.23 0.15 0.02 0.01 0.01 0.01 0.01 0.01 0.00 0.01 0.00 0.00 0.00 0.00 0.00 0.00 0.00 0.00 0.00 0.00 0.00 0.00 0.00 0.00 0.00 0.00 0.00 0.00 0.00 0.00 0.00 0.00 0.00
1.01 0.85 0.49 0.31 0.33 0.36 0.17 0.46 0.29 0.22 0.14 0.06 0.03 0.05 0.05 0.01 0.05 0.09 0.05 0.01 0.00 0.00 0.00 0.00 0.00 0.00 0.00 0.00 0.00 0.00 0.00 0.00 0.00 0.00 0.00 0.00 0.00 0.00 0.00 0.00 0.00 0.00 0.00 0.00
0.74 0.62 0.82 0.66 0.56 0.41 0.14 0.18 0.16 0.04 0.01 0.00 0.00 0.00 0.03 0.06 0.03 0.06 0.07 0.00 0.00 0.00 0.00 0.00 0.00 0.00 0.00 0.00 0.00 0.00 0.00 0.00 0.00 0.00 0.00 0.00 0.00 0.00 0.00 0.00 0.00 0.00 0.00 0.00
0.81 1.10 1.17 0.54 0.39 0.18 0.02 0.02 0.04 0.00 0.00 0.00 0.00 0.00 0.00 0.02 0.08 0.05 0.03 0.00 0.00 0.00 0.00 0.00 0.00 0.00 0.00 0.00 0.00 0.00 0.00 0.00 0.00 0.00 0.00 0.00 0.00 0.00 0.00 0.00 0.00 0.00 0.00 0.00
1.63 1.54 1.06 0.24 0.14 0.00 0.00 0.00 0.00 0.00 0.00 0.00 0.00 0.00 0.00 0.00 0.02 0.04 0.00 0.00 0.00 0.00 0.00 0.00 0.00 0.00 0.00 0.00 0.00 0.00 0.00 0.00 0.00 0.00 0.00 0.00 0.00 0.00 0.00 0.00 0.00 0.00 0.00 0.00
1.26 0.87 0.44 0.12 0.04 0.01 0.00 0.00 0.00 0.00 0.00 0.00 0.00 0.00 0.00 0.00 0.01 0.01 0.00 0.01 0.00 0.00 0.00 0.00 0.00 0.00 0.00 0.00 0.00 0.00 0.00 0.00 0.00 0.00 0.00 0.00 0.00 0.00 0.00 0.00 0.00 0.00 0.00 0.00
1.13 0.70 0.29 0.04 0.00 0.00 0.00 0.00 0.00 0.00 0.00 0.00 0.00 0.00 0.00 0.00 0.00 0.00 0.00 0.00 0.00 0.00 0.00 0.00 0.00 0.00 0.00 0.00 0.00 0.00 0.00 0.00 0.00 0.00 0.00 0.00 0.00 0.00 0.00 0.00 0.00 0.00 0.00 0.00
1.01 0.34 0.05 0.01 0.00 0.00 0.00 0.00 0.00 0.00 0.00 0.00 0.00 0.00 0.00 0.00 0.00 0.00 0.00 0.00 0.00 0.00 0.00 0.00 0.00 0.00 0.00 0.00 0.00 0.00 0.00 0.00 0.00 0.00 0.00 0.00 0.00 0.00 0.00 0.00 0.00 0.00 0.00 0.00

GFSNW_prec_precacc24_039.txt.gz
Total_Precipitation_Accumulation
0.64 0.64 0.77 0.65 0.84 1.16 0.96 0.88 1.06 1.21 1.70 2.70 1.79 0.64 0.28 0.19 0.18 0.30 0.31 0.15 0.07 0.04 0.02 0.03 0.04 0.01 0.01 0.00 0.01 0.12 0.36 0.74 0.85 0.69 0.27 0.22 0.34 0.30 0.28 0.62 0.33 0.20 0.21 0.03
0.64 0.79 0.69 0.63 0.97 1.43 1.11 1.04 1.14 1.82 1.23 1.26 0.53 0.31 0.27 0.28 0.20 0.31 0.39 0.16 0.06 0.02 0.03 0.07 0.01 0.00 0.00 0.00 0.01 0.09 0.43 0.89 0.83 0.62 0.53 0.58 0.79 0.41 0.33 0.43 0.63 0.43 0.21 0.03
0.59 0.66 0.60 0.54 1.12 1.47 1.25 1.18 1.48 2.34 2.13 0.63 0.23 0.35 0.33 0.31 0.20 0.31 0.43 0.24 0.13 0.08 0.04 0.02 0.01 0.00 0.00 0.00 0.00 0.03 0.41 0.87 0.93 0.75 0.43 0.56 0.76 0.41 0.42 0.57 0.61 0.28 0.21 0.03
0.65 0.58 0.49 0.54 0.89 1.11 1.05 0.87 0.82 0.62 0.67 0.52 0.17 0.36 0.46 0.48 0.53 0.39 0.58 0.42 0.11 0.07 0.07 0.03 0.02 0.00 0.01 0.00 0.00 0.06 0.43 0.88 0.88 0.49 0.28 0.42 0.52 0.50 0.39 0.54 0.25 0.20 0.09 0.07
0.63 0.52 0.41 0.46 0.52 0.92 0.72 0.56 0.72 0.23 0.04 0.08 0.15 0.36 0.38 0.39 0.47 0.50 0.33 0.25 0.08 0.07 0.05 0.01 0.00 0.00 0.00 0.01 0.02 0.11 0.32 0.69 0.74 0.61 0.24 0.38 0.47 0.47 0.24 0.48 0.21 0.18 0.14 0.12
0.48 0.51 0.43 0.88 0.97 1.40 0.94 0.55 0.59 0.33 0.17 0.08 0.19 0.17 0.33 0.51 0.50 0.24 0.10 0.13 0.17 0.09 0.01 0.01 0.01 0.00 0.00 0.01 0.05 0.15 0.25 0.48 0.69 0.63 0.48 0.28 0.46 0.55 0.60 0.44 0.18 0.22 0.26 0.14
0.59 0.64 0.58 0.77 0.78 0.96 0.81 0.47 0.35 0.41 0.18 0.07 0.08 0.21 0.29 0.40 0.49 0.38 0.16 0.15 0.12 0.03 0.01 0.02 0.02 0.01 0.01 0.03 0.03 0.03 0.03 0.20 0.40 0.28 0.14 0.15 0.11 0.14 0.39 0.26 0.22 0.24 0.14 0.07
0.37 0.25 0.19 0.31 0.44 0.59 0.47 0.34 0.31 0.33 0.13 0.06 0.09 0.13 0.28 0.41 0.52 0.48 0.26 0.14 0.06 0.08 0.12 0.12 0.17 0.16 0.09 0.05 0.03 0.03 0.04 0.11 0.17 0.11 0.05 0.03 0.00 0.00 0.05 0.13 0.20 0.13 0.06 0.01
0.44 0.37 0.48 0.50 0.58 0.55 0.45 0.34 0.32 0.28 0.11 0.07 0.05 0.07 0.18 0.39 0.60 0.57 0.32 0.16 0.16 0.18 0.22 0.22 0.17 0.28 0.08 0.03 0.10 0.02 0.03 0.13 0.17 0.05 0.07 0.01 0.00 0.00 0.00 0.01 0.04 0.01 0.01 0.02
0.57 0.44 0.36 0.25 0.26 0.41 0.47 0.33 0.50 0.34 0.11 0.03 0.06 0.07 0.11 0.31 0.67 0.74 0.49 0.34 0.31 0.22 0.23 0.17 0.07 0.13 0.02 0.00 0.02 0.02 0.04 0.08 0.16 0.08 0.06 0.00 0.00 0.00 0.00 0.01 0.02 0.00 0.00 0.00
0.31 0.27 0.21 0.25 0.30 0.41 0.48 0.26 0.33 0.21 0.14 0.04 0.02 0.02 0.03 0.14 0.42 0.78 0.65 0.55 0.50 0.40 0.25 0.24 0.03 0.03 0.02 0.00 0.00 0.00 0.01 0.02 0.03 0.05 0.01 0.00 0.00 0.00 0.00 0.00 0.00 0.00 0.00 0.00
0.27 0.33 0.25 0.21 0.17 0.26 0.37 0.26 0.10 0.18 0.15 0.07 0.03 0.02 0.01 0.04 0.16 0.48 0.72 0.51 0.38 0.26 0.15 0.12 0.05 0.00 0.00 0.00 0.00 0.00 0.00 0.00 0.00 0.00 0.00 0.00 0.00 0.00 0.00 0.00 0.00 0.00 0.00 0.00
0.19 0.27 0.26 0.20 0.19 0.28 0.37 0.22 0.16 0.20 0.16 0.07 0.03 0.01 0.02 0.02 0.08 0.25 0.64 0.63 0.40 0.22 0.08 0.10 0.09 0.04 0.00 0.00 0.00 0.00 0.00 0.00 0.00 0.00 0.00 0.00 0.00 0.00 0.00 0.00 0.00 0.00 0.00 0.00
0.18 0.25 0.26 0.19 0.19 0.22 0.33 0.14 0.21 0.17 0.14 0.09 0.04 0.03 0.02 0.01 0.07 0.19 0.39 0.77 0.66 0.48 0.25 0.17 0.15 0.06 0.01 0.00 0.00 0.00 0.00 0.00 0.00 0.00 0.00 0.00 0.00 0.00 0.00 0.00 0.00 0.00 0.00 0.00
0.17 0.18 0.22 0.18 0.18 0.22 0.21 0.10 0.26 0.24 0.23 0.26 0.10 0.04 0.02 0.02 0.13 0.22 0.31 0.46 0.66 0.51 0.46 0.17 0.10 0.05 0.02 0.00 0.00 0.00 0.00 0.00 0.00 0.00 0.00 0.00 0.00 0.00 0.00 0.00 0.00 0.00 0.00 0.00
0.14 0.14 0.18 0.17 0.19 0.27 0.27 0.26 0.20 0.25 0.23 0.25 0.21 0.12 0.05 0.03 0.10 0.17 0.25 0.26 0.37 0.46 0.39 0.19 0.08 0.03 0.02 0.00 0.00 0.00 0.00 0.00 0.00 0.00 0.00 0.00 0.00 0.00 0.00 0.00 0.00 0.00 0.00 0.00
0.12 0.13 0.18 0.19 0.24 0.28 0.28 0.12 0.05 0.19 0.24 0.19 0.25 0.16 0.04 0.01 0.04 0.12 0.14 0.22 0.23 0.26 0.30 0.14 0.05 0.03 0.02 0.00 0.00 0.00 0.00 0.00 0.00 0.00 0.00 0.00 0.00 0.00 0.00 0.00 0.00 0.00 0.00 0.00
0.13 0.16 0.23 0.29 0.32 0.31 0.20 0.06 0.06 0.19 0.38 0.19 0.16 0.10 0.02 0.00 0.01 0.03 0.03 0.13 0.16 0.11 0.11 0.06 0.03 0.03 0.02 0.00 0.00 0.00 0.00 0.00 0.00 0.00 0.00 0.00 0.00 0.00 0.00 0.00 0.00 0.00 0.00 0.00
0.24 0.30 0.42 0.58 0.29 0.13 0.12 0.15 0.16 0.13 0.38 0.48 0.10 0.03 0.02 0.01 0.01 0.01 0.03 0.02 0.04 0.04 0.01 0.01 0.01 0.00 0.00 0.00 0.00 0.00 0.00 0.00 0.00 0.00 0.00 0.00 0.00 0.00 0.00 0.00 0.00 0.00 0.00 0.00
0.53 0.67 0.67 0.47 0.19 0.26 0.35 0.36 0.25 0.31 0.26 0.24 0.15 0.02 0.01 0.01 0.01 0.00 0.00 0.00 0.01 0.00 0.00 0.00 0.00 0.00 0.00 0.00 0.00 0.00 0.00 0.00 0.00 0.00 0.00 0.00 0.00 0.00 0.00 0.00 0.00 0.00 0.00 0.00
1.00 0.85 0.51 0.33 0.38 0.53 0.25 0.53 0.32 0.24 0.14 0.06 0.03 0.05 0.05 0.01 0.05 0.09 0.05 0.01 0.00 0.00 0.00 0.00 0.00 0.00 0.00 0.00 0.00 0.00 0.00 0.00 0.00 0.00 0.00 0.00 0.00 0.00 0.00 0.00 0.00 0.00 0.00 0.00
0.74 0.63 0.87 0.70 0.63 0.52 0.18 0.21 0.17 0.05 0.01 0.00 0.00 0.00 0.03 0.06 0.03 0.06 0.07 0.00 0.00 0.00 0.00 0.00 0.00 0.00 0.00 0.00 0.00 0.00 0.00 0.00 0.00 0.00 0.00 0.00 0.00 0.00 0.00 0.00 0.00 0.00 0.00 0.00
0.79 1.07 1.19 0.58 0.49 0.25 0.04 0.02 0.04 0.00 0.00 0.00 0.00 0.00 0.00 0.02 0.08 0.05 0.03 0.00 0.00 0.00 0.00 0.00 0.00 0.00 0.00 0.00 0.00 0.00 0.00 0.00 0.00 0.00 0.00 0.00 0.00 0.00 0.00 0.00 0.00 0.00 0.00 0.00
1.45 1.45 1.06 0.26 0.19 0.03 0.02 0.00 0.00 0.00 0.00 0.00 0.00 0.00 0.00 0.00 0.02 0.04 0.00 0.00 0.00 0.00 0.00 0.00 0.00 0.00 0.00 0.00 0.00 0.00 0.00 0.00 0.00 0.00 0.00 0.00 0.00 0.00 0.00 0.00 0.00 0.00 0.00 0.00
1.11 0.82 0.45 0.13 0.07 0.03 0.01 0.00 0.00 0.00 0.00 0.00 0.00 0.00 0.00 0.00 0.01 0.01 0.00 0.00 0.00 0.00 0.00 0.00 0.00 0.00 0.00 0.00 0.00 0.00 0.00 0.00 0.00 0.00 0.00 0.00 0.00 0.00 0.00 0.00 0.00 0.00 0.00 0.00
0.97 0.63 0.28 0.07 0.01 0.01 0.00 0.00 0.00 0.00 0.00 0.00 0.00 0.00 0.00 0.00 0.00 0.01 0.00 0.00 0.00 0.00 0.00 0.00 0.00 0.00 0.00 0.00 0.00 0.00 0.00 0.00 0.00 0.00 0.00 0.00 0.00 0.00 0.00 0.00 0.00 0.00 0.00 0.00
0.88 0.30 0.05 0.03 0.01 0.02 0.00 0.00 0.00 0.00 0.00 0.00 0.00 0.00 0.00 0.00 0.00 0.00 0.00 0.00 0.00 0.00 0.00 0.00 0.00 0.00 0.00 0.00 0.00 0.00 0.00 0.00 0.00 0.00 0.00 0.00 0.00 0.00 0.00 0.00 0.00 0.00 0.00 0.00

GFSNW_prec_precacc24_042.txt.gz
Total_Precipitation_Accumulation
0.65 0.64 0.76 0.63 0.81 1.21 1.02 0.96 1.26 1.25 1.73 2.68 2.00 0.78 0.30 0.13 0.13 0.25 0.26 0.15 0.07 0.04 0.02 0.02 0.01 0.01 0.01 0.00 0.00 0.12 0.36 0.74 0.86 0.68 0.27 0.22 0.34 0.30 0.30 0.76 0.42 0.34 0.31 0.07
0.64 0.79 0.69 0.60 0.95 1.44 1.18 1.10 1.32 1.90 1.23 1.25 0.65 0.39 0.23 0.19 0.15 0.27 0.25 0.13 0.06 0.02 0.03 0.06 0.00 0.00 0.00 0.00 0.01 0.09 0.43 0.89 0.84 0.62 0.53 0.58 0.79 0.41 0.34 0.55 0.84 0.58 0.31 0.09
0.59 0.66 0.60 0.53 1.11 1.44 1.29 1.29 1.83 2.50 2.16 0.59 0.10 0.19 0.19 0.22 0.16 0.24 0.26 0.21 0.13 0.08 0.04 0.02 0.01 0.00 0.00 0.00 0.00 0.03 0.41 0.87 0.93 0.75 0.43 0.57 0.82 0.45 0.53 0.89 0.83 0.32 0.26 0.03
0.65 0.58 0.49 0.53 0.88 1.07 1.10 1.14 1.10 0.67 0.68 0.50 0.09 0.16 0.21 0.31 0.39 0.30 0.36 0.38 0.11 0.07 0.07 0.02 0.02 0.00 0.01 0.00 0.00 0.06 0.43 0.89 0.88 0.49 0.28 0.42 0.57 0.56 0.48 0.77 0.35 0.28 0.10 0.07
0.63 0.53 0.41 0.45 0.51 0.85 0.80 0.75 0.89 0.28 0.04 0.09 0.13 0.22 0.24 0.27 0.35 0.39 0.28 0.23 0.08 0.07 0.05 0.00 0.00 0.00 0.01 0.01 0.02 0.11 0.33 0.70 0.75 0.61 0.24 0.38 0.48 0.55 0.34 0.52 0.22 0.19 0.15 0.12
0.49 0.51 0.44 0.88 0.96 1.40 0.99 0.60 0.66 0.44 0.21 0.09 0.17 0.12 0.22 0.38 0.37 0.19 0.10 0.13 0.17 0.09 0.01 0.01 0.01 0.00 0.00 0.01 0.06 0.15 0.26 0.49 0.71 0.64 0.48 0.28 0.46 0.58 0.66 0.46 0.18 0.22 0.27 0.14
0.57 0.64 0.58 0.77 0.78 0.96 0.85 0.49 0.42 0.52 0.22 0.08 0.06 0.17 0.24 0.31 0.40 0.33 0.16 0.15 0.12 0.03 0.01 0.03 0.03 0.02 0.00 0.02 0.03 0.03 0.04 0.21 0.44 0.30 0.15 0.15 0.11 0.14 0.43 0.27 0.22 0.24 0.14 0.07
0.36 0.25 0.20 0.30 0.43 0.58 0.48 0.34 0.35 0.46 0.21 0.06 0.09 0.13 0.25 0.33 0.45 0.42 0.26 0.14 0.06 0.09 0.14 0.13 0.17 0.13 0.04 0.01 0.01 0.03 0.01 0.07 0.21 0.13 0.06 0.03 0.00 0.00 0.07 0.13 0.20 0.13 0.06 0.01
0.43 0.38 0.48 0.50 0.58 0.52 0.44 0.34 0.34 0.38 0.19 0.08 0.05 0.07 0.17 0.35 0.51 0.50 0.30 0.16 0.16 0.18 0.27 0.22 0.16 0.26 0.06 0.02 0.05 0.01 0.02 0.07 0.14 0.05 0.10 0.02 0.00 0.00 0.00 0.01 0.05 0.02 0.01 0.02
0.51 0.44 0.36 0.25 0.27 0.39 0.46 0.37 0.59 0.43 0.15 0.04 0.06 0.07 0.11 0.31 0.63 0.65 0.44 0.34 0.30 0.23 0.28 0.16 0.06 0.10 0.02 0.00 0.02 0.01 0.05 0.11 0.15 0.07 0.11 0.00 0.00 0.00 0.00 0.04 0.05 0.01 0.02 0.01
0.28 0.27 0.21 0.26 0.30 0.40 0.47 0.33 0.46 0.33 0.18 0.04 0.02 0.02 0.03 0.14 0.42 0.75 0.59 0.51 0.47 0.37 0.24 0.23 0.03 0.01 0.02 0.00 0.00 0.00 0.01 0.02 0.04 0.06 0.03 0.00 0.00 0.00 0.00 0.00 0.01 0.01 0.02 0.01
0.22 0.33 0.25 0.21 0.17 0.25 0.33 0.28 0.16 0.24 0.16 0.07 0.03 0.02 0.01 0.04 0.16 0.47 0.70 0.47 0.36 0.26 0.13 0.10 0.05 0.00 0.00 0.00 0.00 0.00 0.00 0.00 0.00 0.00 0.00 0.00 0.00 0.00 0.00 0.00 0.00 0.00 0.01 0.01
0.15 0.26 0.26 0.19 0.19 0.27 0.32 0.21 0.16 0.23 0.17 0.08 0.03 0.01 0.02 0.02 0.08 0.25 0.64 0.62 0.41 0.26 0.12 0.12 0.10 0.07 0.00 0.00 0.00 0.00 0.00 0.00 0.00 0.00 0.00 0.00 0.00 0.00 0.00 0.00 0.00 0.00 0.00 0.00
0.15 0.25 0.26 0.19 0.19 0.22 0.28 0.12 0.21 0.19 0.16 0.09 0.04 0.03 0.02 0.01 0.07 0.20 0.41 0.80 0.70 0.53 0.32 0.21 0.18 0.09 0.03 0.00 0.00 0.00 0.00 0.00 0.00 0.00 0.00 0.00 0.00 0.00 0.00 0.00 0.00 0.00 0.00 0.00
0.15 0.18 0.22 0.18 0.18 0.20 0.18 0.08 0.24 0.25 0.25 0.27 0.11 0.04 0.02 0.02 0.14 0.25 0.37 0.53 0.72 0.56 0.54 0.22 0.12 0.08 0.02 0.01 0.00 0.00 0.00 0.00 0.00 0.00 0.00 0.00 0.00 0.00 0.00 0.00 0.00 0.00 0.00 0.00
0.13 0.14 0.19 0.17 0.19 0.24 0.25 0.25 0.25 0.29 0.30 0.28 0.21 0.12 0.07 0.06 0.16 0.26 0.35 0.35 0.45 0.51 0.43 0.24 0.10 0.03 0.03 0.01 0.00 0.00 0.00 0.00 0.00 0.00 0.00 0.00 0.00 0.00 0.00 0.00 0.00 0.00 0.00 0.00
0.12 0.13 0.19 0.19 0.23 0.25 0.26 0.11 0.07 0.16 0.22 0.18 0.22 0.17 0.08 0.08 0.09 0.19 0.25 0.33 0.29 0.30 0.33 0.16 0.06 0.04 0.03 0.01 0.00 0.00 0.00 0.00 0.00 0.00 0.00 0.00 0.00 0.00 0.00 0.00 0.00 0.02 0.00 0.00
0.12 0.16 0.23 0.27 0.27 0.26 0.19 0.06 0.06 0.18 0.36 0.17 0.12 0.08 0.03 0.05 0.04 0.06 0.10 0.24 0.24 0.16 0.14 0.07 0.04 0.03 0.03 0.01 0.00 0.00 0.00 0.00 0.00 0.00 0.00 0.00 0.00 0.00 0.02 0.00 0.00 0.00 0.01 0.01
0.23 0.29 0.41 0.53 0.27 0.12 0.15 0.18 0.17 0.13 0.37 0.47 0.10 0.04 0.02 0.02 0.02 0.03 0.07 0.07 0.09 0.08 0.03 0.01 0.01 0.00 0.00 0.00 0.00 0.00 0.00 0.00 0.00 0.00 0.00 0.00 0.00 0.01 0.03 0.02 0.00 0.00 0.00 0.00
0.52 0.66 0.66 0.46 0.19 0.27 0.42 0.37 0.26 0.32 0.26 0.24 0.15 0.02 0.01 0.01 0.02 0.00 0.02 0.01 0.01 0.00 0.00 0.00 0.00 0.00 0.00 0.00 0.00 0.00 0.00 0.00 0.00 0.01 0.01 0.00 0.00 0.00 0.01 0.02 0.02 0.00 0.00 0.00
1.00 0.85 0.52 0.33 0.39 0.60 0.30 0.57 0.33 0.25 0.14 0.06 0.03 0.05 0.05 0.01 0.06 0.09 0.05 0.02 0.00 0.00 0.00 0.00 0.00 0.00 0.00 0.00 0.00 0.00 0.00 0.00 0.00 0.00 0.01 0.00 0.00 0.00 0.00 0.00 0.00 0.00 0.00 0.00
0.74 0.63 0.88 0.71 0.67 0.58 0.19 0.22 0.19 0.05 0.01 0.00 0.00 0.00 0.03 0.06 0.04 0.07 0.07 0.00 0.00 0.00 0.00 0.00 0.00 0.00 0.00 0.00 0.00 0.00 0.00 0.00 0.00 0.00 0.00 0.00 0.00 0.00 0.00 0.00 0.00 0.00 0.00 0.00
0.78 1.04 1.17 0.59 0.52 0.29 0.05 0.03 0.04 0.00 0.00 0.00 0.00 0.00 0.00 0.02 0.08 0.05 0.03 0.00 0.00 0.00 0.00 0.00 0.00 0.00 0.00 0.00 0.00 0.00 0.00 0.00 0.00 0.00 0.00 0.00 0.00 0.00 0.00 0.00 0.00 0.00 0.00 0.00
1.26 1.30 1.01 0.28 0.22 0.06 0.05 0.00 0.00 0.00 0.00 0.00 0.01 0.00 0.00 0.00 0.02 0.05 0.01 0.00 0.00 0.00 0.00 0.00 0.00 0.00 0.00 0.00 0.00 0.00 0.00 0.00 0.00 0.00 0.00 0.00 0.00 0.00 0.00 0.00 0.00 0.00 0.00 0.00
0.99 0.77 0.44 0.13 0.08 0.05 0.02 0.00 0.00 0.00 0.00 0.00 0.00 0.00 0.00 0.00 0.01 0.01 0.00 0.00 0.00 0.00 0.00 0.00 0.00 0.00 0.00 0.00 0.00 0.00 0.00 0.00 0.00 0.00 0.00 0.00 0.00 0.00 0.00 0.00 0.00 0.00 0.00 0.00
0.79 0.55 0.25 0.07 0.01 0.00 0.00 0.00 0.00 0.00 0.00 0.00 0.00 0.00 0.00 0.00 0.00 0.01 0.00 0.00 0.00 0.00 0.00 0.00 0.00 0.00 0.00 0.00 0.00 0.00 0.00 0.00 0.00 0.00 0.00 0.00 0.00 0.00 0.00 0.00 0.00 0.00 0.00 0.00
0.74 0.25 0.04 0.03 0.02 0.02 0.01 0.00 0.00 0.00 0.00 0.01 0.02 0.01 0.00 0.00 0.00 0.00 0.00 0.00 0.00 0.00 0.00 0.00 0.00 0.00 0.00 0.00 0.00 0.00 0.00 0.00 0.00 0.00 0.00 0.00 0.00 0.00 0.00 0.00 0.00 0.00 0.00 0.00

GFSNW_prec_precacc24_045.txt.gz
Total_Precipitation_Accumulation
0.62 0.63 0.75 0.62 0.78 1.16 1.01 1.03 1.42 1.32 1.78 2.71 2.02 0.75 0.23 0.12 0.06 0.15 0.19 0.14 0.07 0.04 0.02 0.02 0.01 0.01 0.00 0.00 0.00 0.10 0.32 0.65 0.59 0.51 0.24 0.21 0.33 0.30 0.30 0.77 0.42 0.39 0.35 0.09
0.62 0.78 0.68 0.59 0.91 1.43 1.27 1.19 1.43 1.87 1.26 1.27 0.69 0.36 0.24 0.15 0.12 0.21 0.21 0.12 0.06 0.02 0.03 0.06 0.00 0.00 0.00 0.00 0.00 0.08 0.42 0.88 0.73 0.46 0.44 0.55 0.78 0.41 0.35 0.58 0.93 0.65 0.40 0.13
0.57 0.65 0.59 0.53 1.09 1.43 1.41 1.43 1.85 2.47 2.14 0.60 0.10 0.16 0.24 0.15 0.14 0.22 0.21 0.18 0.12 0.08 0.04 0.02 0.01 0.00 0.00 0.00 0.00 0.03 0.41 0.88 0.93 0.73 0.40 0.56 0.82 0.45 0.57 1.09 1.01 0.34 0.28 0.03
0.54 0.51 0.48 0.53 0.87 1.05 1.16 1.29 1.16 0.79 0.72 0.51 0.12 0.11 0.16 0.17 0.26 0.27 0.27 0.23 0.10 0.07 0.07 0.02 0.01 0.00 0.01 0.00 0.00 0.06 0.43 0.90 0.88 0.49 0.28 0.42 0.57 0.56 0.49 0.89 0.49 0.41 0.13 0.07
0.42 0.39 0.40 0.45 0.51 0.83 0.80 0.82 0.99 0.33 0.05 0.09 0.14 0.14 0.16 0.19 0.25 0.31 0.18 0.14 0.08 0.07 0.05 0.00 0.00 0.00 0.01 0.01 0.01 0.11 0.33 0.71 0.75 0.61 0.24 0.38 0.48 0.55 0.36 0.56 0.25 0.22 0.15 0.12
0.32 0.40 0.44 0.88 0.95 1.39 1.01 0.66 0.76 0.48 0.21 0.10 0.16 0.08 0.09 0.21 0.29 0.15 0.08 0.11 0.17 0.09 0.01 0.00 0.01 0.00 0.00 0.01 0.06 0.16 0.27 0.50 0.72 0.64 0.48 0.28 0.46 0.58 0.68 0.48 0.19 0.22 0.27 0.14
0.27 0.43 0.55 0.77 0.78 0.97 0.87 0.52 0.46 0.56 0.24 0.09 0.06 0.06 0.14 0.19 0.27 0.26 0.15 0.14 0.11 0.03 0.01 0.02 0.03 0.02 0.00 0.02 0.03 0.03 0.05 0.22 0.45 0.31 0.15 0.16 0.11 0.14 0.44 0.28 0.23 0.24 0.14 0.07
0.22 0.21 0.20 0.31 0.43 0.59 0.48 0.35 0.36 0.48 0.24 0.07 0.09 0.09 0.16 0.19 0.31 0.33 0.25 0.14 0.05 0.09 0.14 0.13 0.15 0.11 0.04 0.01 0.00 0.02 0.01 0.08 0.22 0.14 0.07 0.03 0.00 0.00 0.07 0.13 0.20 0.13 0.06 0.01
0.26 0.29 0.46 0.50 0.58 0.52 0.44 0.36 0.35 0.39 0.24 0.10 0.05 0.07 0.12 0.23 0.40 0.46 0.30 0.16 0.16 0.17 0.27 0.21 0.15 0.20 0.04 0.00 0.00 0.00 0.02 0.04 0.13 0.06 0.12 0.02 0.00 0.00 0.01 0.02 0.08 0.02 0.02 0.03
0.23 0.27 0.31 0.24 0.27 0.38 0.45 0.38 0.59 0.43 0.22 0.05 0.06 0.08 0.10 0.28 0.50 0.56 0.45 0.35 0.31 0.22 0.29 0.17 0.06 0.08 0.01 0.00 0.00 0.01 0.05 0.07 0.08 0.07 0.15 0.01 0.00 0.00 0.01 0.05 0.09 0.01 0.04 0.02
0.16 0.21 0.19 0.25 0.30 0.39 0.46 0.34 0.46 0.34 0.25 0.05 0.03 0.02 0.03 0.13 0.39 0.62 0.53 0.51 0.46 0.37 0.24 0.23 0.04 0.01 0.02 0.00 0.00 0.00 0.01 0.03 0.04 0.05 0.06 0.00 0.00 0.00 0.00 0.00 0.01 0.02 0.08 0.01
0.10 0.21 0.19 0.21 0.16 0.24 0.32 0.28 0.15 0.26 0.18 0.09 0.04 0.02 0.01 0.05 0.16 0.45 0.61 0.45 0.35 0.23 0.10 0.07 0.05 0.01 0.00 0.00 0.00 0.00 0.00 0.00 0.00 0.00 0.00 0.00 0.00 0.00 0.00 0.00 0.00 0.00 0.02 0.09
0.08 0.21 0.24 0.19 0.19 0.26 0.31 0.20 0.13 0.24 0.18 0.09 0.03 0.01 0.02 0.02 0.08 0.24 0.59 0.51 0.35 0.25 0.11 0.11 0.08 0.09 0.01 0.01 0.00 0.00 0.00 0.00 0.00 0.00 0.00 0.00 0.00 0.00 0.00 0.00 0.00 0.00 0.00 0.01
0.07 0.18 0.23 0.19 0.18 0.21 0.25 0.09 0.14 0.20 0.17 0.10 0.05 0.03 0.02 0.01 0.07 0.20 0.40 0.75 0.66 0.52 0.29 0.20 0.18 0.10 0.04 0.00 0.00 0.00 0.00 0.00 0.00 0.00 0.00 0.00 0.00 0.00 0.00 0.00 0.00 0.00 0.00 0.00
0.08 0.13 0.19 0.17 0.18 0.19 0.16 0.05 0.13 0.23 0.26 0.29 0.11 0.04 0.02 0.02 0.14 0.25 0.38 0.55 0.76 0.59 0.57 0.24 0.13 0.10 0.04 0.01 0.00 0.00 0.00 0.00 0.00 0.00 0.00 0.00 0.00 0.00 0.00 0.00 0.00 0.00 0.00 0.00
0.06 0.10 0.16 0.17 0.19 0.24 0.22 0.20 0.18 0.27 0.32 0.29 0.22 0.12 0.07 0.07 0.18 0.30 0.40 0.42 0.53 0.56 0.46 0.26 0.12 0.04 0.04 0.03 0.00 0.00 0.00 0.00 0.00 0.00 0.00 0.00 0.00 0.00 0.00 0.00 0.00 0.00 0.00 0.00
0.08 0.10 0.17 0.19 0.23 0.23 0.22 0.09 0.07 0.13 0.21 0.19 0.23 0.17 0.09 0.11 0.13 0.23 0.31 0.40 0.35 0.35 0.36 0.18 0.09 0.05 0.03 0.01 0.00 0.00 0.00 0.00 0.00 0.00 0.00 0.00 0.00 0.00 0.00 0.00 0.00 0.03 0.01 0.00
0.08 0.13 0.21 0.27 0.26 0.22 0.16 0.05 0.05 0.11 0.24 0.12 0.08 0.06 0.03 0.07 0.09 0.12 0.18 0.35 0.32 0.21 0.17 0.09 0.04 0.04 0.04 0.01 0.00 0.00 0.00 0.00 0.00 0.00 0.00 0.00 0.00 0.00 0.02 0.01 0.00 0.00 0.01 0.01
0.14 0.25 0.40 0.52 0.26 0.11 0.14 0.17 0.12 0.11 0.30 0.38 0.05 0.01 0.01 0.03 0.06 0.09 0.16 0.16 0.19 0.17 0.07 0.03 0.02 0.01 0.01 0.00 0.00 0.00 0.00 0.00 0.00 0.00 0.00 0.00 0.00 0.01 0.03 0.03 0.00 0.00 0.00 0.01
0.37 0.64 0.65 0.45 0.18 0.27 0.41 0.34 0.24 0.27 0.24 0.21 0.15 0.02 0.01 0.01 0.05 0.02 0.08 0.12 0.09 0.06 0.03 0.01 0.01 0.00 0.00 0.00 0.00 0.00 0.00 0.00 0.00 0.01 0.01 0.00 0.00 0.00 0.02 0.03 0.04 0.00 0.00 0.00
0.86 0.83 0.52 0.33 0.40 0.64 0.31 0.50 0.31 0.23 0.13 0.05 0.04 0.05 0.05 0.01 0.09 0.12 0.06 0.06 0.03 0.01 0.00 0.00 0.00 0.00 0.00 0.00 0.00 0.00 0.00 0.00 0.00 0.00 0.01 0.02 0.01 0.00 0.00 0.00 0.02 0.00 0.00 0.00
0.65 0.64 0.89 0.72 0.69 0.63 0.20 0.22 0.18 0.05 0.01 0.00 0.00 0.00 0.04 0.06 0.04 0.12 0.10 0.01 0.00 0.00 0.00 0.00 0.00 0.00 0.00 0.00 0.00 0.00 0.00 0.00 0.00 0.00 0.00 0.01 0.00 0.00 0.00 0.00 0.00 0.00 0.00 0.00
0.74 1.04 1.16 0.60 0.53 0.31 0.05 0.03 0.04 0.00 0.00 0.00 0.00 0.00 0.00 0.02 0.08 0.06 0.03 0.01 0.00 0.00 0.00 0.00 0.00 0.00 0.00 0.00 0.00 0.00 0.00 0.00 0.00 0.00 0.00 0.00 0.00 0.00 0.00 0.00 0.00 0.00 0.00 0.00
1.03 1.22 0.97 0.28 0.23 0.07 0.07 0.01 0.00 0.00 0.00 0.00 0.01 0.00 0.00 0.00 0.02 0.05 0.01 0.00 0.00 0.00 0.00 0.00 0.00 0.00 0.00 0.00 0.00 0.00 0.00 0.00 0.00 0.00 0.00 0.00 0.00 0.00 0.00 0.00 0.00 0.00 0.00 0.00
0.83 0.72 0.44 0.14 0.08 0.05 0.02 0.00 0.00 0.00 0.00 0.00 0.00 0.00 0.00 0.00 0.01 0.01 0.00 0.00 0.00 0.00 0.00 0.00 0.00 0.00 0.00 0.00 0.00 0.00 0.00 0.00 0.00 0.00 0.00 0.00 0.00 0.00 0.00 0.00 0.00 0.00 0.00 0.00
0.69 0.50 0.24 0.07 0.01 0.00 0.00 0.00 0.00 0.00 0.00 0.00 0.01 0.00 0.00 0.00 0.00 0.01 0.00 0.00 0.00 0.00 0.00 0.00 0.00 0.00 0.00 0.00 0.00 0.00 0.00 0.00 0.00 0.00 0.00 0.00 0.00 0.00 0.00 0.00 0.00 0.00 0.00 0.00
0.62 0.22 0.04 0.03 0.02 0.02 0.01 0.00 0.00 0.00 0.00 0.01 0.06 0.03 0.00 0.00 0.00 0.00 0.00 0.00 0.00 0.00 0.00 0.00 0.00 0.00 0.00 0.00 0.00 0.00 0.00 0.00 0.00 0.00 0.00 0.00 0.00 0.00 0.00 0.00 0.00 0.00 0.00 0.00

GFSNW_prec_precacc24_048.txt.gz
Total_Precipitation_Accumulation
0.32 0.46 0.66 0.54 0.73 1.10 0.98 1.10 1.53 1.42 1.80 2.53 1.93 0.75 0.22 0.23 0.09 0.07 0.10 0.09 0.06 0.04 0.02 0.02 0.00 0.00 0.00 0.00 0.00 0.02 0.05 0.31 0.24 0.37 0.17 0.09 0.31 0.30 0.29 0.77 0.41 0.38 0.35 0.10
0.38 0.62 0.57 0.49 0.82 1.41 1.31 1.22 1.41 1.82 1.30 1.25 0.69 0.37 0.24 0.16 0.08 0.12 0.15 0.10 0.05 0.02 0.03 0.07 0.00 0.00 0.00 0.00 0.00 0.07 0.28 0.52 0.33 0.27 0.39 0.47 0.75 0.41 0.34 0.59 0.97 0.66 0.42 0.14
0.34 0.48 0.47 0.40 1.02 1.45 1.46 1.41 1.81 2.32 2.10 0.64 0.11 0.17 0.29 0.12 0.09 0.15 0.18 0.17 0.12 0.08 0.04 0.02 0.01 0.00 0.00 0.00 0.00 0.03 0.33 0.63 0.61 0.58 0.35 0.55 0.82 0.45 0.57 1.13 1.08 0.35 0.29 0.04
0.30 0.34 0.30 0.35 0.84 1.09 1.16 1.26 1.14 0.79 0.69 0.58 0.13 0.10 0.14 0.09 0.14 0.16 0.25 0.21 0.10 0.07 0.07 0.02 0.01 0.00 0.00 0.00 0.00 0.06 0.42 0.84 0.81 0.45 0.28 0.41 0.56 0.56 0.49 0.94 0.52 0.50 0.16 0.07
0.17 0.23 0.24 0.37 0.48 0.82 0.75 0.80 1.05 0.38 0.07 0.15 0.16 0.12 0.17 0.09 0.13 0.19 0.15 0.12 0.07 0.07 0.05 0.00 0.00 0.00 0.00 0.01 0.01 0.11 0.33 0.70 0.74 0.61 0.24 0.38 0.48 0.55 0.36 0.56 0.27 0.26 0.16 0.13
0.11 0.24 0.27 0.74 0.92 1.37 0.99 0.65 0.77 0.48 0.21 0.11 0.17 0.08 0.05 0.07 0.12 0.09 0.06 0.10 0.17 0.08 0.01 0.00 0.00 0.00 0.00 0.01 0.06 0.16 0.27 0.50 0.73 0.64 0.48 0.28 0.47 0.58 0.68 0.48 0.20 0.24 0.27 0.14
0.14 0.21 0.21 0.50 0.69 0.98 0.90 0.53 0.46 0.53 0.22 0.09 0.06 0.04 0.06 0.08 0.10 0.16 0.11 0.10 0.11 0.03 0.01 0.02 0.02 0.01 0.00 0.02 0.02 0.03 0.05 0.23 0.45 0.31 0.15 0.16 0.11 0.14 0.44 0.28 0.23 0.26 0.14 0.07
0.14 0.12 0.12 0.29 0.42 0.58 0.49 0.35 0.35 0.45 0.22 0.06 0.09 0.08 0.08 0.10 0.16 0.20 0.20 0.11 0.05 0.09 0.14 0.12 0.11 0.10 0.04 0.01 0.00 0.03 0.01 0.10 0.23 0.15 0.07 0.03 0.00 0.00 0.07 0.13 0.22 0.14 0.07 0.01
0.10 0.08 0.14 0.33 0.54 0.50 0.43 0.36 0.32 0.35 0.21 0.08 0.05 0.07 0.08 0.14 0.24 0.31 0.24 0.16 0.15 0.17 0.26 0.19 0.14 0.16 0.04 0.00 0.00 0.01 0.02 0.04 0.16 0.07 0.12 0.02 0.00 0.00 0.01 0.02 0.15 0.02 0.05 0.03
0.06 0.08 0.17 0.19 0.25 0.35 0.43 0.39 0.59 0.37 0.20 0.06 0.06 0.08 0.09 0.17 0.34 0.44 0.39 0.34 0.29 0.19 0.27 0.16 0.06 0.03 0.00 0.00 0.01 0.01 0.05 0.09 0.11 0.08 0.16 0.01 0.00 0.00 0.01 0.06 0.10 0.01 0.05 0.03
0.05 0.05 0.13 0.19 0.26 0.35 0.43 0.35 0.46 0.34 0.23 0.05 0.03 0.03 0.05 0.11 0.26 0.46 0.51 0.51 0.46 0.32 0.23 0.22 0.04 0.00 0.01 0.00 0.00 0.00 0.01 0.02 0.04 0.06 0.07 0.00 0.00 0.00 0.00 0.00 0.01 0.02 0.10 0.02
0.04 0.07 0.14 0.17 0.15 0.22 0.30 0.28 0.14 0.21 0.18 0.08 0.05 0.02 0.02 0.05 0.12 0.36 0.46 0.42 0.35 0.21 0.09 0.07 0.05 0.01 0.01 0.00 0.00 0.00 0.00 0.00 0.00 0.00 0.00 0.00 0.00 0.00 0.00 0.00 0.00 0.00 0.02 0.10
0.03 0.09 0.17 0.16 0.16 0.24 0.29 0.19 0.09 0.15 0.16 0.10 0.04 0.02 0.02 0.02 0.08 0.23 0.52 0.43 0.29 0.23 0.09 0.10 0.08 0.10 0.01 0.01 0.00 0.00 0.00 0.00 0.00 0.00 0.00 0.00 0.00 0.00 0.00 0.00 0.00 0.00 0.00 0.01
0.03 0.09 0.15 0.15 0.16 0.19 0.23 0.09 0.10 0.10 0.13 0.09 0.07 0.03 0.02 0.01 0.07 0.20 0.39 0.62 0.50 0.38 0.19 0.14 0.14 0.07 0.04 0.00 0.00 0.00 0.00 0.00 0.00 0.00 0.00 0.00 0.00 0.00 0.00 0.00 0.00 0.00 0.00 0.00
0.04 0.06 0.12 0.13 0.16 0.17 0.14 0.05 0.08 0.11 0.20 0.27 0.12 0.05 0.02 0.02 0.14 0.25 0.38 0.49 0.64 0.51 0.45 0.19 0.12 0.10 0.04 0.02 0.00 0.00 0.00 0.00 0.00 0.00 0.00 0.00 0.00 0.00 0.00 0.00 0.00 0.00 0.00 0.00
0.04 0.04 0.10 0.13 0.17 0.20 0.20 0.19 0.15 0.16 0.28 0.29 0.22 0.13 0.07 0.07 0.18 0.30 0.41 0.44 0.56 0.58 0.47 0.25 0.13 0.05 0.07 0.05 0.00 0.00 0.00 0.00 0.00 0.00 0.00 0.00 0.00 0.00 0.00 0.00 0.00 0.00 0.00 0.00
0.04 0.03 0.11 0.16 0.21 0.22 0.21 0.08 0.07 0.08 0.13 0.19 0.23 0.17 0.09 0.11 0.14 0.25 0.34 0.45 0.41 0.40 0.41 0.20 0.10 0.08 0.09 0.03 0.00 0.00 0.00 0.00 0.00 0.00 0.00 0.00 0.00 0.00 0.00 0.00 0.00 0.03 0.01 0.00
0.03 0.04 0.14 0.23 0.23 0.20 0.15 0.04 0.05 0.04 0.10 0.11 0.09 0.06 0.03 0.07 0.12 0.19 0.25 0.46 0.40 0.26 0.22 0.11 0.06 0.06 0.06 0.02 0.00 0.00 0.00 0.00 0.00 0.00 0.00 0.00 0.00 0.00 0.02 0.01 0.00 0.00 0.01 0.01
0.02 0.07 0.27 0.46 0.23 0.10 0.14 0.17 0.10 0.07 0.15 0.27 0.03 0.01 0.01 0.03 0.09 0.16 0.24 0.26 0.29 0.23 0.11 0.05 0.05 0.03 0.01 0.00 0.00 0.00 0.00 0.00 0.00 0.00 0.00 0.00 0.00 0.01 0.03 0.03 0.01 0.00 0.00 0.01
0.05 0.34 0.59 0.43 0.17 0.28 0.46 0.34 0.19 0.20 0.19 0.11 0.07 0.01 0.01 0.01 0.06 0.07 0.13 0.20 0.19 0.14 0.10 0.06 0.03 0.01 0.00 0.00 0.00 0.00 0.00 0.00 0.00 0.01 0.01 0.00 0.00 0.00 0.02 0.03 0.05 0.00 0.00 0.00
0.34 0.57 0.46 0.32 0.41 0.71 0.34 0.45 0.28 0.16 0.10 0.05 0.01 0.01 0.03 0.01 0.05 0.09 0.08 0.08 0.08 0.06 0.02 0.01 0.00 0.00 0.00 0.00 0.00 0.00 0.00 0.00 0.00 0.00 0.01 0.02 0.01 0.00 0.00 0.00 0.03 0.01 0.00 0.00
0.41 0.53 0.84 0.72 0.72 0.65 0.21 0.17 0.15 0.05 0.01 0.00 0.00 0.00 0.04 0.07 0.04 0.14 0.15 0.06 0.04 0.02 0.00 0.00 0.00 0.00 0.00 0.00 0.00 0.00 0.00 0.00 0.00 0.00 0.00 0.01 0.01 0.02 0.00 0.00 0.01 0.00 0.00 0.00
0.54 0.88 1.09 0.59 0.52 0.32 0.07 0.03 0.04 0.01 0.00 0.00 0.01 0.00 0.00 0.02 0.08 0.06 0.04 0.03 0.04 0.02 0.02 0.01 0.00 0.00 0.00 0.00 0.00 0.00 0.00 0.00 0.00 0.00 0.00 0.01 0.00 0.00 0.00 0.00 0.00 0.00 0.00 0.00
0.69 1.03 0.88 0.27 0.24 0.07 0.08 0.01 0.00 0.00 0.00 0.00 0.01 0.00 0.00 0.00 0.02 0.05 0.01 0.00 0.00 0.00 0.02 0.00 0.00 0.00 0.00 0.00 0.00 0.00 0.01 0.00 0.00 0.00 0.00 0.00 0.00 0.00 0.00 0.00 0.00 0.00 0.00 0.00
0.64 0.69 0.44 0.14 0.09 0.05 0.02 0.00 0.00 0.00 0.00 0.00 0.00 0.00 0.00 0.00 0.01 0.01 0.00 0.00 0.00 0.00 0.00 0.00 0.00 0.00 0.00 0.00 0.00 0.00 0.00 0.00 0.00 0.00 0.00 0.00 0.00 0.00 0.00 0.00 0.00 0.00 0.00 0.00
0.55 0.45 0.24 0.07 0.01 0.00 0.00 0.00 0.00 0.00 0.00 0.00 0.01 0.00 0.00 0.00 0.00 0.01 0.00 0.00 0.00 0.00 0.00 0.00 0.00 0.00 0.00 0.00 0.00 0.00 0.00 0.00 0.00 0.00 0.00 0.00 0.00 0.00 0.00 0.00 0.00 0.00 0.00 0.00
0.47 0.16 0.04 0.03 0.02 0.02 0.01 0.00 0.00 0.00 0.00 0.01 0.07 0.04 0.00 0.00 0.00 0.00 0.00 0.00 0.00 0.00 0.00 0.00 0.00 0.00 0.00 0.00 0.00 0.00 0.00 0.00 0.00 0.00 0.00 0.00 0.00 0.00 0.00 0.00 0.00 0.00 0.00 0.00

GFSNW_prec_precacc24_051.txt.gz
Total_Precipitation_Accumulation
0.13 0.22 0.50 0.39 0.49 0.85 0.80 1.01 1.52 1.40 1.69 2.26 1.78 0.75 0.26 0.52 0.29 0.05 0.02 0.03 0.04 0.03 0.02 0.02 0.00 0.00 0.00 0.00 0.00 0.01 0.03 0.26 0.17 0.22 0.12 0.05 0.13 0.11 0.19 0.53 0.27 0.32 0.34 0.10
0.11 0.31 0.35 0.35 0.49 0.95 1.18 1.16 1.27 1.68 1.21 1.14 0.66 0.40 0.34 0.37 0.09 0.03 0.07 0.06 0.04 0.02 0.02 0.05 0.00 0.00 0.00 0.00 0.00 0.06 0.17 0.34 0.20 0.13 0.28 0.28 0.41 0.18 0.27 0.51 0.92 0.64 0.42 0.14
0.13 0.25 0.25 0.26 0.38 0.84 1.43 1.35 1.72 2.05 1.93 0.60 0.13 0.25 0.45 0.22 0.08 0.05 0.08 0.11 0.11 0.07 0.04 0.01 0.01 0.00 0.00 0.00 0.00 0.02 0.16 0.32 0.39 0.43 0.32 0.45 0.65 0.34 0.54 1.10 1.06 0.34 0.29 0.04
0.11 0.16 0.13 0.21 0.34 0.63 1.12 1.18 1.07 0.74 0.64 0.56 0.14 0.16 0.21 0.07 0.03 0.05 0.12 0.12 0.09 0.06 0.06 0.02 0.01 0.00 0.00 0.00 0.00 0.05 0.24 0.44 0.54 0.35 0.28 0.41 0.55 0.55 0.48 0.91 0.50 0.51 0.16 0.07
0.08 0.10 0.10 0.23 0.29 0.64 0.71 0.75 1.01 0.36 0.14 0.18 0.14 0.20 0.29 0.08 0.01 0.07 0.08 0.08 0.06 0.07 0.04 0.00 0.00 0.00 0.00 0.01 0.01 0.11 0.29 0.58 0.63 0.50 0.24 0.38 0.48 0.55 0.36 0.55 0.27 0.26 0.17 0.13
0.06 0.09 0.10 0.26 0.44 1.14 0.92 0.63 0.74 0.46 0.22 0.11 0.21 0.17 0.12 0.03 0.02 0.02 0.03 0.07 0.10 0.06 0.01 0.00 0.00 0.00 0.00 0.01 0.06 0.16 0.27 0.49 0.70 0.60 0.47 0.27 0.46 0.58 0.68 0.48 0.20 0.25 0.27 0.14
0.04 0.06 0.08 0.23 0.40 0.78 0.89 0.54 0.46 0.53 0.21 0.06 0.04 0.03 0.05 0.03 0.03 0.07 0.08 0.08 0.08 0.02 0.01 0.02 0.01 0.01 0.00 0.00 0.01 0.03 0.05 0.22 0.45 0.31 0.15 0.16 0.11 0.14 0.44 0.28 0.23 0.26 0.14 0.07
0.04 0.05 0.06 0.19 0.32 0.50 0.48 0.37 0.35 0.44 0.21 0.05 0.06 0.04 0.07 0.07 0.09 0.12 0.15 0.09 0.04 0.09 0.13 0.11 0.05 0.03 0.03 0.01 0.00 0.02 0.01 0.10 0.24 0.15 0.07 0.03 0.00 0.00 0.07 0.13 0.22 0.14 0.07 0.02
0.03 0.04 0.04 0.14 0.33 0.34 0.38 0.37 0.34 0.35 0.19 0.05 0.03 0.05 0.05 0.08 0.14 0.19 0.19 0.15 0.14 0.17 0.25 0.18 0.08 0.07 0.03 0.00 0.00 0.00 0.02 0.05 0.16 0.07 0.12 0.02 0.00 0.00 0.01 0.02 0.15 0.02 0.05 0.04
0.03 0.04 0.03 0.08 0.21 0.29 0.33 0.39 0.60 0.37 0.18 0.04 0.04 0.07 0.06 0.09 0.17 0.28 0.30 0.32 0.25 0.18 0.26 0.15 0.05 0.03 0.00 0.00 0.01 0.01 0.05 0.10 0.11 0.09 0.16 0.01 0.00 0.00 0.01 0.06 0.10 0.01 0.06 0.06
0.02 0.02 0.03 0.07 0.17 0.22 0.29 0.34 0.46 0.34 0.22 0.03 0.02 0.03 0.05 0.09 0.17 0.30 0.38 0.48 0.41 0.29 0.21 0.20 0.04 0.00 0.00 0.00 0.00 0.00 0.01 0.02 0.04 0.06 0.07 0.00 0.00 0.00 0.00 0.00 0.01 0.02 0.10 0.03
0.01 0.01 0.04 0.07 0.12 0.18 0.24 0.27 0.15 0.21 0.18 0.06 0.04 0.02 0.03 0.05 0.10 0.22 0.29 0.37 0.34 0.20 0.08 0.07 0.05 0.01 0.01 0.00 0.00 0.00 0.00 0.00 0.00 0.00 0.00 0.00 0.00 0.00 0.00 0.00 0.00 0.00 0.02 0.10
0.01 0.02 0.05 0.08 0.12 0.16 0.24 0.18 0.08 0.12 0.14 0.06 0.04 0.03 0.02 0.02 0.07 0.17 0.37 0.31 0.27 0.23 0.09 0.09 0.08 0.10 0.01 0.01 0.00 0.00 0.00 0.00 0.00 0.00 0.00 0.00 0.00 0.00 0.00 0.00 0.00 0.00 0.00 0.01
0.01 0.04 0.05 0.08 0.12 0.14 0.19 0.09 0.09 0.06 0.06 0.04 0.08 0.03 0.02 0.01 0.07 0.18 0.34 0.52 0.44 0.36 0.17 0.10 0.13 0.07 0.04 0.01 0.00 0.00 0.00 0.00 0.00 0.00 0.00 0.00 0.00 0.00 0.00 0.00 0.00 0.00 0.00 0.00
0.03 0.04 0.03 0.06 0.11 0.14 0.11 0.05 0.08 0.04 0.10 0.18 0.11 0.05 0.02 0.02 0.14 0.25 0.38 0.42 0.47 0.42 0.34 0.14 0.09 0.09 0.03 0.01 0.00 0.00 0.00 0.00 0.00 0.00 0.00 0.00 0.00 0.00 0.00 0.00 0.00 0.00 0.00 0.00
0.03 0.03 0.02 0.05 0.13 0.17 0.16 0.16 0.15 0.13 0.20 0.20 0.21 0.13 0.07 0.07 0.18 0.30 0.41 0.40 0.46 0.49 0.40 0.20 0.08 0.04 0.09 0.07 0.00 0.00 0.00 0.00 0.00 0.00 0.00 0.00 0.00 0.00 0.00 0.00 0.00 0.00 0.00 0.00
0.03 0.02 0.02 0.07 0.16 0.18 0.18 0.07 0.09 0.10 0.07 0.12 0.23 0.17 0.09 0.11 0.14 0.25 0.34 0.47 0.44 0.43 0.45 0.21 0.10 0.09 0.13 0.05 0.00 0.00 0.00 0.00 0.00 0.00 0.00 0.00 0.00 0.00 0.00 0.00 0.00 0.03 0.01 0.00
0.02 0.03 0.04 0.12 0.16 0.15 0.12 0.03 0.04 0.02 0.03 0.07 0.09 0.06 0.03 0.07 0.12 0.20 0.29 0.51 0.44 0.29 0.25 0.13 0.08 0.07 0.08 0.03 0.00 0.00 0.00 0.00 0.00 0.00 0.00 0.00 0.00 0.00 0.02 0.01 0.00 0.00 0.01 0.01
0.01 0.01 0.07 0.18 0.13 0.08 0.14 0.16 0.10 0.02 0.07 0.17 0.02 0.01 0.01 0.03 0.09 0.18 0.31 0.32 0.35 0.27 0.13 0.06 0.07 0.04 0.02 0.00 0.00 0.00 0.00 0.00 0.00 0.00 0.00 0.00 0.00 0.01 0.03 0.03 0.01 0.00 0.00 0.01
0.00 0.07 0.27 0.26 0.12 0.28 0.48 0.34 0.21 0.15 0.11 0.09 0.06 0.00 0.01 0.01 0.06 0.09 0.19 0.28 0.27 0.19 0.16 0.11 0.05 0.01 0.00 0.00 0.00 0.00 0.00 0.00 0.00 0.01 0.01 0.00 0.00 0.00 0.02 0.03 0.05 0.00 0.00 0.00
0.07 0.22 0.31 0.26 0.41 0.80 0.43 0.45 0.27 0.15 0.07 0.03 0.01 0.00 0.01 0.00 0.04 0.07 0.11 0.14 0.14 0.12 0.08 0.08 0.06 0.03 0.00 0.00 0.00 0.00 0.00 0.00 0.00 0.00 0.01 0.02 0.01 0.00 0.00 0.00 0.03 0.01 0.00 0.00
0.18 0.41 0.64 0.69 0.77 0.74 0.23 0.16 0.11 0.04 0.01 0.00 0.00 0.00 0.00 0.01 0.01 0.10 0.13 0.12 0.11 0.10 0.07 0.06 0.01 0.00 0.00 0.00 0.00 0.00 0.00 0.00 0.00 0.00 0.00 0.01 0.01 0.02 0.02 0.01 0.01 0.01 0.00 0.00
0.29 0.61 0.84 0.57 0.53 0.35 0.09 0.04 0.04 0.01 0.00 0.00 0.01 0.00 0.00 0.01 0.07 0.05 0.04 0.05 0.08 0.08 0.12 0.12 0.02 0.01 0.00 0.00 0.00 0.00 0.00 0.00 0.00 0.00 0.00 0.02 0.01 0.00 0.00 0.01 0.04 0.02 0.00 0.00
0.36 0.64 0.68 0.26 0.25 0.08 0.11 0.01 0.00 0.00 0.00 0.00 0.01 0.00 0.00 0.01 0.02 0.05 0.01 0.00 0.00 0.02 0.10 0.06 0.00 0.00 0.00 0.00 0.00 0.00 0.03 0.04 0.00 0.00 0.00 0.02 0.00 0.00 0.00 0.00 0.01 0.00 0.00 0.00
0.32 0.50 0.41 0.14 0.09 0.05 0.02 0.00 0.00 0.00 0.00 0.00 0.00 0.00 0.00 0.00 0.01 0.01 0.00 0.00 0.00 0.00 0.01 0.00 0.00 0.00 0.00 0.00 0.00 0.00 0.04 0.04 0.01 0.00 0.00 0.00 0.00 0.00 0.00 0.00 0.00 0.00 0.00 0.00
0.32 0.35 0.22 0.07 0.01 0.00 0.00 0.00 0.00 0.00 0.00 0.00 0.01 0.00 0.00 0.00 0.00 0.01 0.00 0.00 0.00 0.00 0.00 0.00 0.00 0.00 0.00 0.00 0.00 0.00 0.00 0.00 0.00 0.00 0.00 0.00 0.00 0.00 0.00 0.00 0.01 0.02 0.00 0.00
0.26 0.11 0.04 0.04 0.02 0.02 0.01 0.00 0.00 0.00 0.00 0.02 0.08 0.05 0.01 0.00 0.00 0.00 0.00 0.00 0.00 0.00 0.00 0.00 0.00 0.00 0.00 0.00 0.00 0.00 0.00 0.00 0.00 0.00 0.00 0.00 0.00 0.00 0.00 0.00 0.00 0.01 0.00 0.00

GFSNW_prec_precacc24_054.txt.gz
Total_Precipitation_Accumulation
0.07 0.07 0.26 0.23 0.40 0.68 0.57 0.62 1.07 1.11 1.44 2.03 1.59 0.76 0.35 0.71 0.48 0.10 0.01 0.00 0.00 0.00 0.01 0.01 0.00 0.00 0.00 0.00 0.00 0.00 0.01 0.17 0.10 0.08 0.02 0.04 0.12 0.08 0.19 0.51 0.19 0.26 0.18 0.08
0.06 0.07 0.22 0.21 0.28 0.59 0.60 0.76 0.90 1.44 1.06 0.86 0.66 0.46 0.45 0.54 0.16 0.02 0.02 0.00 0.01 0.01 0.01 0.04 0.00 0.00 0.00 0.00 0.00 0.01 0.06 0.20 0.12 0.08 0.14 0.21 0.30 0.16 0.26 0.44 0.67 0.45 0.34 0.13
0.06 0.04 0.12 0.16 0.25 0.51 0.61 0.92 1.45 1.77 1.64 0.50 0.19 0.41 0.67 0.38 0.09 0.02 0.00 0.01 0.03 0.04 0.03 0.01 0.01 0.00 0.00 0.00 0.00 0.00 0.06 0.16 0.13 0.16 0.19 0.42 0.58 0.27 0.47 1.00 0.88 0.17 0.15 0.01
0.05 0.03 0.05 0.13 0.25 0.36 0.52 0.88 0.99 0.66 0.54 0.50 0.15 0.24 0.27 0.08 0.03 0.01 0.02 0.03 0.02 0.05 0.05 0.02 0.01 0.00 0.00 0.00 0.00 0.01 0.13 0.20 0.16 0.13 0.17 0.38 0.47 0.40 0.40 0.72 0.35 0.39 0.11 0.04
0.05 0.02 0.03 0.07 0.15 0.23 0.31 0.62 1.00 0.36 0.14 0.18 0.16 0.23 0.29 0.07 0.01 0.02 0.01 0.02 0.03 0.02 0.04 0.00 0.00 0.00 0.00 0.01 0.01 0.08 0.20 0.28 0.30 0.36 0.20 0.31 0.39 0.30 0.28 0.20 0.10 0.16 0.15 0.12
0.05 0.02 0.02 0.06 0.17 0.40 0.44 0.57 0.74 0.45 0.22 0.14 0.29 0.23 0.12 0.03 0.02 0.02 0.00 0.01 0.03 0.02 0.01 0.00 0.00 0.00 0.00 0.00 0.04 0.14 0.25 0.34 0.44 0.49 0.44 0.25 0.41 0.48 0.62 0.33 0.14 0.20 0.25 0.14
0.03 0.02 0.01 0.06 0.16 0.39 0.57 0.50 0.46 0.49 0.19 0.05 0.04 0.02 0.02 0.03 0.02 0.03 0.04 0.04 0.03 0.00 0.01 0.02 0.01 0.01 0.00 0.00 0.00 0.02 0.05 0.22 0.39 0.26 0.14 0.16 0.11 0.14 0.44 0.28 0.23 0.26 0.14 0.07
0.03 0.02 0.02 0.04 0.15 0.29 0.27 0.34 0.36 0.44 0.18 0.04 0.05 0.02 0.03 0.06 0.06 0.06 0.10 0.07 0.03 0.08 0.13 0.08 0.04 0.02 0.01 0.00 0.00 0.00 0.01 0.10 0.23 0.15 0.07 0.03 0.00 0.00 0.07 0.13 0.22 0.14 0.07 0.02
0.02 0.02 0.01 0.03 0.14 0.20 0.24 0.31 0.34 0.36 0.20 0.05 0.03 0.03 0.03 0.07 0.09 0.10 0.12 0.13 0.13 0.17 0.23 0.16 0.08 0.01 0.01 0.00 0.00 0.00 0.02 0.05 0.15 0.08 0.12 0.02 0.00 0.00 0.01 0.02 0.15 0.02 0.05 0.04
0.02 0.01 0.01 0.03 0.08 0.14 0.20 0.36 0.60 0.38 0.19 0.03 0.01 0.02 0.03 0.06 0.10 0.15 0.16 0.24 0.22 0.17 0.24 0.13 0.05 0.01 0.00 0.00 0.01 0.01 0.06 0.11 0.12 0.09 0.16 0.01 0.00 0.00 0.01 0.06 0.10 0.01 0.06 0.06
0.02 0.00 0.01 0.04 0.06 0.12 0.21 0.31 0.46 0.33 0.20 0.03 0.01 0.02 0.03 0.05 0.10 0.17 0.21 0.32 0.33 0.27 0.20 0.18 0.04 0.00 0.00 0.00 0.00 0.00 0.01 0.03 0.04 0.07 0.08 0.00 0.00 0.00 0.00 0.00 0.01 0.02 0.10 0.03
0.01 0.00 0.02 0.04 0.04 0.11 0.16 0.26 0.15 0.19 0.16 0.04 0.02 0.02 0.02 0.02 0.07 0.16 0.19 0.27 0.31 0.18 0.07 0.06 0.05 0.01 0.01 0.00 0.00 0.00 0.00 0.00 0.00 0.00 0.00 0.00 0.00 0.00 0.00 0.00 0.00 0.00 0.02 0.10
0.01 0.01 0.03 0.03 0.03 0.09 0.13 0.17 0.08 0.11 0.13 0.04 0.02 0.04 0.02 0.02 0.07 0.14 0.24 0.19 0.21 0.21 0.09 0.08 0.07 0.10 0.01 0.01 0.00 0.00 0.00 0.00 0.00 0.00 0.00 0.00 0.00 0.00 0.00 0.00 0.00 0.00 0.00 0.01
0.01 0.03 0.03 0.02 0.03 0.06 0.08 0.08 0.09 0.06 0.05 0.02 0.07 0.04 0.02 0.01 0.07 0.16 0.24 0.34 0.33 0.33 0.17 0.09 0.11 0.07 0.04 0.01 0.00 0.00 0.00 0.00 0.00 0.00 0.00 0.00 0.00 0.00 0.00 0.00 0.00 0.00 0.00 0.00
0.02 0.03 0.02 0.02 0.03 0.05 0.04 0.04 0.08 0.04 0.07 0.09 0.07 0.05 0.02 0.02 0.14 0.25 0.36 0.38 0.37 0.32 0.32 0.14 0.08 0.09 0.03 0.01 0.00 0.00 0.00 0.00 0.00 0.00 0.00 0.00 0.00 0.00 0.00 0.00 0.00 0.00 0.00 0.00
0.03 0.03 0.02 0.02 0.05 0.08 0.08 0.13 0.15 0.13 0.18 0.11 0.13 0.12 0.07 0.07 0.18 0.30 0.40 0.36 0.38 0.34 0.35 0.18 0.07 0.03 0.08 0.07 0.01 0.00 0.00 0.00 0.00 0.00 0.00 0.00 0.00 0.00 0.00 0.00 0.00 0.00 0.00 0.00
0.02 0.02 0.02 0.02 0.06 0.10 0.11 0.07 0.13 0.11 0.06 0.08 0.19 0.16 0.09 0.11 0.14 0.25 0.34 0.45 0.38 0.35 0.40 0.22 0.09 0.06 0.12 0.07 0.00 0.00 0.00 0.00 0.00 0.00 0.00 0.00 0.00 0.00 0.00 0.00 0.00 0.03 0.01 0.00
0.01 0.02 0.03 0.06 0.06 0.07 0.08 0.03 0.04 0.02 0.02 0.04 0.08 0.05 0.03 0.07 0.12 0.20 0.30 0.53 0.50 0.34 0.29 0.16 0.08 0.07 0.09 0.04 0.00 0.00 0.00 0.00 0.00 0.00 0.00 0.00 0.00 0.00 0.02 0.01 0.00 0.00 0.01 0.01
0.00 0.01 0.02 0.04 0.03 0.05 0.14 0.15 0.08 0.01 0.07 0.13 0.02 0.01 0.01 0.03 0.09 0.18 0.33 0.37 0.40 0.32 0.17 0.08 0.10 0.06 0.04 0.00 0.00 0.00 0.00 0.00 0.00 0.00 0.00 0.00 0.00 0.01 0.03 0.03 0.01 0.00 0.00 0.01
0.00 0.02 0.07 0.09 0.06 0.30 0.52 0.30 0.22 0.11 0.06 0.08 0.04 0.01 0.01 0.01 0.06 0.10 0.21 0.34 0.34 0.24 0.20 0.16 0.09 0.03 0.01 0.00 0.00 0.00 0.00 0.00 0.00 0.01 0.01 0.00 0.00 0.00 0.02 0.03 0.05 0.00 0.00 0.00
0.04 0.07 0.15 0.18 0.40 0.82 0.44 0.38 0.25 0.16 0.05 0.02 0.01 0.00 0.01 0.01 0.05 0.08 0.12 0.18 0.21 0.16 0.14 0.16 0.13 0.10 0.04 0.00 0.00 0.00 0.00 0.00 0.00 0.00 0.01 0.02 0.01 0.00 0.00 0.00 0.03 0.01 0.00 0.00
0.04 0.15 0.36 0.52 0.68 0.72 0.26 0.16 0.10 0.06 0.01 0.00 0.01 0.00 0.00 0.00 0.01 0.10 0.13 0.17 0.19 0.17 0.15 0.15 0.05 0.01 0.00 0.00 0.00 0.00 0.00 0.00 0.00 0.00 0.00 0.01 0.01 0.02 0.02 0.01 0.01 0.01 0.00 0.00
0.08 0.27 0.49 0.44 0.47 0.39 0.10 0.05 0.04 0.01 0.00 0.00 0.01 0.00 0.00 0.00 0.01 0.02 0.04 0.08 0.11 0.13 0.22 0.20 0.06 0.01 0.00 0.00 0.00 0.00 0.00 0.00 0.00 0.00 0.00 0.02 0.02 0.00 0.00 0.02 0.05 0.03 0.01 0.01
0.13 0.30 0.42 0.23 0.24 0.09 0.12 0.01 0.00 0.00 0.00 0.00 0.01 0.00 0.00 0.00 0.01 0.03 0.01 0.00 0.01 0.06 0.19 0.11 0.01 0.00 0.00 0.00 0.00 0.00 0.04 0.09 0.01 0.00 0.01 0.08 0.04 0.00 0.00 0.00 0.03 0.04 0.01 0.00
0.15 0.27 0.30 0.14 0.10 0.06 0.02 0.00 0.00 0.00 0.00 0.00 0.00 0.00 0.00 0.00 0.01 0.01 0.00 0.00 0.00 0.02 0.07 0.02 0.00 0.00 0.00 0.00 0.00 0.00 0.21 0.29 0.08 0.02 0.00 0.00 0.00 0.00 0.01 0.00 0.00 0.00 0.00 0.00
0.14 0.21 0.18 0.07 0.01 0.00 0.00 0.00 0.00 0.00 0.00 0.00 0.01 0.01 0.00 0.00 0.00 0.01 0.00 0.00 0.00 0.01 0.00 0.00 0.00 0.00 0.00 0.00 0.00 0.00 0.08 0.10 0.06 0.01 0.00 0.01 0.02 0.00 0.00 0.00 0.02 0.04 0.02 0.00
0.07 0.05 0.03 0.04 0.03 0.03 0.01 0.00 0.00 0.00 0.00 0.03 0.11 0.06 0.01 0.00 0.01 0.00 0.00 0.00 0.00 0.00 0.00 0.00 0.00 0.00 0.00 0.00 0.00 0.00 0.00 0.00 0.00 0.00 0.00 0.00 0.00 0.00 0.00 0.00 0.00 0.03 0.05 0.01

GFSNW_prec_precacc24_057.txt.gz
Total_Precipitation_Accumulation
0.08 0.05 0.05 0.10 0.32 0.55 0.42 0.41 0.74 0.69 0.76 1.26 1.34 0.77 0.45 0.80 0.52 0.11 0.01 0.00 0.00 0.00 0.00 0.00 0.00 0.00 0.00 0.00 0.00 0.00 0.00 0.05 0.04 0.00 0.00 0.01 0.04 0.04 0.17 0.50 0.19 0.26 0.16 0.07
0.06 0.04 0.02 0.06 0.15 0.45 0.46 0.49 0.56 0.96 0.67 0.54 0.59 0.51 0.52 0.58 0.17 0.02 0.01 0.00 0.00 0.00 0.01 0.02 0.00 0.00 0.00 0.00 0.00 0.00 0.00 0.06 0.03 0.01 0.03 0.11 0.19 0.09 0.21 0.43 0.67 0.44 0.27 0.11
0.06 0.02 0.02 0.03 0.09 0.31 0.48 0.63 0.95 1.14 1.02 0.35 0.27 0.60 0.76 0.39 0.09 0.02 0.00 0.00 0.00 0.01 0.02 0.00 0.01 0.00 0.00 0.00 0.00 0.00 0.00 0.02 0.03 0.04 0.04 0.24 0.54 0.26 0.46 0.99 0.88 0.16 0.11 0.01
0.05 0.02 0.01 0.02 0.07 0.19 0.37 0.65 0.69 0.45 0.31 0.40 0.15 0.27 0.29 0.09 0.03 0.01 0.00 0.00 0.00 0.01 0.03 0.01 0.01 0.00 0.00 0.00 0.00 0.00 0.01 0.05 0.04 0.04 0.08 0.18 0.33 0.37 0.39 0.71 0.35 0.38 0.09 0.00
0.05 0.02 0.01 0.02 0.05 0.16 0.24 0.43 0.80 0.35 0.14 0.18 0.15 0.22 0.29 0.07 0.01 0.01 0.01 0.01 0.01 0.01 0.02 0.00 0.00 0.00 0.00 0.00 0.00 0.01 0.04 0.10 0.07 0.05 0.10 0.23 0.29 0.25 0.26 0.14 0.07 0.10 0.02 0.02
0.05 0.02 0.01 0.01 0.06 0.25 0.29 0.36 0.65 0.45 0.21 0.13 0.29 0.23 0.12 0.03 0.00 0.01 0.00 0.00 0.00 0.00 0.00 0.00 0.00 0.00 0.00 0.00 0.02 0.04 0.11 0.14 0.20 0.13 0.17 0.10 0.19 0.28 0.21 0.06 0.03 0.03 0.02 0.02
0.03 0.02 0.01 0.01 0.08 0.21 0.30 0.23 0.32 0.47 0.18 0.05 0.03 0.01 0.02 0.03 0.01 0.01 0.00 0.00 0.01 0.00 0.01 0.01 0.01 0.01 0.00 0.00 0.00 0.01 0.04 0.11 0.19 0.13 0.11 0.07 0.06 0.07 0.19 0.10 0.07 0.05 0.04 0.02
0.03 0.02 0.01 0.00 0.05 0.16 0.10 0.17 0.32 0.44 0.18 0.03 0.04 0.02 0.02 0.03 0.02 0.02 0.01 0.01 0.03 0.08 0.12 0.07 0.04 0.02 0.01 0.00 0.00 0.00 0.01 0.08 0.20 0.13 0.07 0.03 0.00 0.00 0.06 0.11 0.15 0.08 0.03 0.01
0.02 0.02 0.00 0.00 0.05 0.09 0.06 0.15 0.29 0.36 0.19 0.04 0.01 0.01 0.02 0.04 0.03 0.02 0.03 0.04 0.10 0.15 0.21 0.13 0.07 0.01 0.00 0.00 0.01 0.00 0.02 0.04 0.15 0.08 0.12 0.02 0.00 0.00 0.01 0.02 0.15 0.02 0.05 0.04
0.02 0.01 0.00 0.02 0.05 0.06 0.08 0.25 0.55 0.37 0.19 0.03 0.01 0.01 0.02 0.02 0.03 0.07 0.06 0.09 0.14 0.16 0.22 0.11 0.05 0.01 0.00 0.00 0.01 0.01 0.06 0.11 0.13 0.09 0.16 0.01 0.00 0.00 0.01 0.06 0.10 0.01 0.06 0.06
0.02 0.00 0.01 0.02 0.04 0.05 0.10 0.24 0.44 0.32 0.18 0.02 0.01 0.02 0.03 0.01 0.03 0.08 0.09 0.14 0.23 0.24 0.18 0.12 0.03 0.00 0.00 0.00 0.00 0.00 0.01 0.03 0.04 0.08 0.08 0.00 0.00 0.00 0.00 0.00 0.01 0.02 0.10 0.03
0.01 0.01 0.02 0.02 0.03 0.05 0.10 0.19 0.14 0.18 0.15 0.04 0.02 0.00 0.01 0.01 0.03 0.09 0.13 0.16 0.26 0.17 0.07 0.05 0.05 0.01 0.01 0.00 0.00 0.00 0.00 0.00 0.00 0.00 0.00 0.00 0.00 0.00 0.00 0.00 0.00 0.00 0.02 0.10
0.01 0.01 0.02 0.02 0.02 0.03 0.07 0.11 0.07 0.10 0.11 0.04 0.02 0.02 0.01 0.01 0.03 0.08 0.16 0.14 0.14 0.18 0.09 0.08 0.07 0.10 0.01 0.01 0.00 0.00 0.00 0.00 0.00 0.00 0.00 0.00 0.00 0.00 0.00 0.00 0.00 0.00 0.00 0.01
0.01 0.03 0.03 0.01 0.01 0.02 0.03 0.06 0.09 0.06 0.05 0.02 0.06 0.01 0.02 0.01 0.03 0.11 0.17 0.18 0.17 0.21 0.16 0.09 0.11 0.08 0.04 0.01 0.00 0.00 0.01 0.00 0.00 0.00 0.00 0.00 0.00 0.00 0.00 0.00 0.00 0.00 0.00 0.00
0.02 0.02 0.02 0.02 0.01 0.02 0.02 0.02 0.08 0.04 0.08 0.07 0.05 0.02 0.02 0.02 0.12 0.23 0.29 0.27 0.22 0.17 0.22 0.14 0.08 0.08 0.04 0.01 0.00 0.00 0.00 0.00 0.00 0.00 0.00 0.00 0.00 0.00 0.00 0.00 0.00 0.00 0.00 0.00
0.02 0.02 0.03 0.02 0.03 0.06 0.06 0.10 0.15 0.13 0.18 0.09 0.06 0.06 0.07 0.07 0.18 0.30 0.37 0.33 0.32 0.23 0.21 0.16 0.07 0.03 0.08 0.08 0.01 0.00 0.00 0.00 0.00 0.00 0.00 0.00 0.00 0.00 0.00 0.00 0.00 0.00 0.00 0.00
0.02 0.01 0.02 0.02 0.04 0.07 0.08 0.07 0.19 0.12 0.07 0.07 0.11 0.12 0.09 0.11 0.14 0.24 0.34 0.41 0.32 0.29 0.29 0.19 0.10 0.07 0.14 0.09 0.01 0.00 0.00 0.00 0.00 0.00 0.00 0.00 0.00 0.00 0.00 0.00 0.00 0.03 0.01 0.00
0.01 0.01 0.03 0.09 0.08 0.06 0.06 0.03 0.08 0.05 0.04 0.05 0.07 0.04 0.03 0.07 0.12 0.20 0.30 0.53 0.49 0.34 0.28 0.16 0.08 0.08 0.13 0.08 0.00 0.00 0.00 0.00 0.00 0.00 0.00 0.00 0.00 0.00 0.02 0.01 0.00 0.00 0.01 0.01
0.00 0.00 0.03 0.03 0.00 0.03 0.13 0.18 0.17 0.05 0.12 0.16 0.03 0.01 0.01 0.03 0.09 0.19 0.34 0.38 0.42 0.34 0.19 0.09 0.12 0.10 0.07 0.01 0.00 0.00 0.00 0.00 0.00 0.00 0.00 0.00 0.00 0.01 0.03 0.03 0.01 0.00 0.00 0.01
0.00 0.01 0.04 0.04 0.03 0.30 0.55 0.31 0.23 0.13 0.09 0.11 0.05 0.01 0.01 0.01 0.07 0.11 0.22 0.36 0.38 0.27 0.22 0.20 0.14 0.05 0.02 0.00 0.00 0.00 0.00 0.00 0.00 0.01 0.01 0.00 0.00 0.00 0.02 0.03 0.05 0.00 0.00 0.00
0.01 0.03 0.06 0.06 0.31 0.85 0.46 0.38 0.24 0.16 0.04 0.02 0.01 0.01 0.02 0.01 0.06 0.10 0.16 0.21 0.27 0.21 0.18 0.24 0.18 0.14 0.05 0.01 0.00 0.00 0.00 0.00 0.00 0.00 0.01 0.02 0.01 0.00 0.00 0.00 0.03 0.01 0.00 0.00
0.02 0.03 0.18 0.22 0.51 0.62 0.23 0.16 0.07 0.06 0.01 0.00 0.01 0.00 0.00 0.00 0.01 0.12 0.20 0.22 0.28 0.24 0.23 0.23 0.09 0.03 0.00 0.00 0.00 0.00 0.00 0.00 0.00 0.00 0.00 0.01 0.01 0.02 0.02 0.01 0.01 0.01 0.00 0.00
0.02 0.10 0.25 0.25 0.36 0.35 0.14 0.06 0.05 0.01 0.00 0.00 0.01 0.00 0.00 0.00 0.00 0.04 0.05 0.13 0.16 0.19 0.30 0.24 0.09 0.02 0.00 0.00 0.00 0.00 0.00 0.00 0.00 0.00 0.00 0.02 0.02 0.00 0.00 0.02 0.05 0.04 0.02 0.02
0.03 0.11 0.18 0.16 0.23 0.09 0.13 0.01 0.00 0.00 0.00 0.00 0.01 0.00 0.00 0.01 0.01 0.01 0.01 0.01 0.02 0.11 0.23 0.13 0.03 0.00 0.00 0.00 0.00 0.00 0.04 0.11 0.02 0.00 0.02 0.10 0.05 0.00 0.00 0.00 0.03 0.05 0.02 0.01
0.04 0.09 0.14 0.10 0.09 0.06 0.02 0.00 0.00 0.00 0.00 0.00 0.00 0.00 0.00 0.02 0.01 0.01 0.00 0.00 0.00 0.03 0.08 0.03 0.00 0.00 0.00 0.00 0.00 0.00 0.26 0.45 0.25 0.07 0.06 0.07 0.01 0.01 0.01 0.00 0.00 0.00 0.00 0.00
0.04 0.08 0.11 0.06 0.01 0.00 0.00 0.00 0.00 0.00 0.00 0.01 0.01 0.02 0.01 0.00 0.00 0.01 0.00 0.00 0.00 0.01 0.00 0.00 0.00 0.00 0.00 0.00 0.00 0.00 0.11 0.23 0.23 0.06 0.02 0.04 0.07 0.04 0.01 0.00 0.04 0.05 0.02 0.00
0.01 0.01 0.02 0.04 0.03 0.03 0.01 0.00 0.00 0.00 0.01 0.05 0.14 0.09 0.01 0.01 0.03 0.00 0.00 0.00 0.00 0.00 0.00 0.00 0.00 0.00 0.00 0.00 0.00 0.00 0.00 0.01 0.01 0.00 0.00 0.01 0.05 0.10 0.04 0.00 0.01 0.06 0.10 0.03

GFSNW_prec_precacc24_060.txt.gz
Total_Precipitation_Accumulation
0.07 0.04 0.01 0.01 0.09 0.36 0.33 0.37 0.67 0.46 0.38 0.47 0.78 0.69 0.48 0.82 0.53 0.11 0.01 0.00 0.00 0.00 0.00 0.00 0.00 0.00 0.00 0.00 0.00 0.00 0.00 0.02 0.03 0.00 0.00 0.00 0.00 0.01 0.09 0.40 0.18 0.25 0.16 0.07
0.06 0.03 0.01 0.01 0.04 0.31 0.39 0.40 0.51 0.65 0.30 0.23 0.36 0.46 0.52 0.58 0.17 0.02 0.01 0.00 0.00 0.00 0.00 0.00 0.00 0.00 0.00 0.00 0.00 0.00 0.00 0.03 0.01 0.01 0.00 0.01 0.03 0.01 0.10 0.33 0.59 0.42 0.27 0.11
0.05 0.02 0.01 0.00 0.02 0.14 0.36 0.45 0.75 0.77 0.56 0.18 0.26 0.59 0.75 0.39 0.09 0.02 0.00 0.00 0.00 0.00 0.00 0.00 0.00 0.00 0.00 0.00 0.00 0.00 0.00 0.01 0.00 0.00 0.00 0.05 0.28 0.15 0.31 0.83 0.75 0.14 0.11 0.01
0.04 0.02 0.01 0.01 0.02 0.11 0.25 0.48 0.49 0.31 0.18 0.23 0.13 0.27 0.29 0.09 0.03 0.01 0.00 0.00 0.00 0.00 0.00 0.00 0.00 0.00 0.00 0.00 0.00 0.00 0.01 0.03 0.00 0.00 0.00 0.04 0.18 0.23 0.26 0.59 0.32 0.37 0.09 0.00
0.04 0.02 0.01 0.01 0.01 0.09 0.21 0.38 0.60 0.29 0.12 0.15 0.12 0.21 0.29 0.07 0.01 0.01 0.00 0.00 0.00 0.00 0.00 0.00 0.00 0.00 0.00 0.00 0.00 0.01 0.02 0.04 0.02 0.00 0.00 0.07 0.17 0.19 0.20 0.10 0.06 0.10 0.02 0.01
0.04 0.02 0.01 0.00 0.02 0.15 0.22 0.31 0.45 0.31 0.14 0.10 0.23 0.21 0.12 0.03 0.00 0.01 0.00 0.00 0.00 0.00 0.00 0.00 0.00 0.00 0.00 0.00 0.01 0.02 0.04 0.06 0.07 0.03 0.00 0.02 0.06 0.16 0.18 0.05 0.02 0.03 0.02 0.00
0.03 0.02 0.01 0.01 0.02 0.12 0.19 0.17 0.18 0.28 0.12 0.04 0.03 0.01 0.01 0.02 0.01 0.01 0.00 0.00 0.00 0.00 0.00 0.01 0.01 0.00 0.00 0.00 0.00 0.01 0.03 0.05 0.08 0.04 0.02 0.02 0.01 0.04 0.14 0.03 0.01 0.02 0.01 0.01
0.02 0.02 0.01 0.00 0.02 0.07 0.07 0.06 0.13 0.29 0.17 0.03 0.03 0.02 0.02 0.03 0.02 0.00 0.00 0.00 0.00 0.03 0.07 0.05 0.03 0.02 0.01 0.00 0.00 0.00 0.01 0.05 0.11 0.08 0.04 0.01 0.00 0.00 0.05 0.02 0.02 0.01 0.01 0.01
0.02 0.02 0.00 0.00 0.02 0.05 0.03 0.05 0.13 0.29 0.19 0.04 0.01 0.01 0.01 0.03 0.02 0.01 0.01 0.00 0.04 0.08 0.14 0.08 0.06 0.01 0.00 0.00 0.01 0.00 0.02 0.03 0.10 0.06 0.09 0.01 0.00 0.00 0.01 0.02 0.12 0.01 0.04 0.02
0.02 0.01 0.00 0.01 0.02 0.03 0.04 0.12 0.37 0.37 0.19 0.03 0.00 0.01 0.01 0.02 0.02 0.03 0.02 0.03 0.06 0.10 0.16 0.08 0.05 0.01 0.00 0.00 0.01 0.01 0.06 0.11 0.12 0.09 0.15 0.00 0.00 0.00 0.01 0.06 0.10 0.01 0.06 0.05
0.01 0.00 0.01 0.02 0.02 0.02 0.05 0.18 0.38 0.30 0.19 0.02 0.01 0.02 0.03 0.00 0.01 0.03 0.02 0.04 0.06 0.15 0.16 0.09 0.03 0.00 0.00 0.00 0.00 0.00 0.01 0.03 0.05 0.08 0.08 0.00 0.00 0.00 0.00 0.00 0.01 0.02 0.10 0.03
0.01 0.01 0.02 0.02 0.02 0.02 0.04 0.15 0.12 0.17 0.14 0.04 0.02 0.00 0.01 0.00 0.01 0.03 0.03 0.07 0.12 0.10 0.06 0.03 0.04 0.01 0.01 0.00 0.00 0.00 0.00 0.00 0.00 0.00 0.00 0.00 0.00 0.00 0.00 0.00 0.00 0.00 0.02 0.10
0.01 0.01 0.02 0.02 0.02 0.02 0.03 0.08 0.05 0.10 0.11 0.04 0.02 0.02 0.00 0.00 0.00 0.01 0.07 0.07 0.08 0.14 0.08 0.07 0.07 0.10 0.01 0.01 0.00 0.00 0.00 0.00 0.00 0.00 0.00 0.00 0.00 0.00 0.00 0.00 0.00 0.00 0.00 0.01
0.02 0.02 0.01 0.01 0.01 0.02 0.02 0.04 0.04 0.06 0.06 0.03 0.06 0.01 0.01 0.00 0.01 0.04 0.09 0.11 0.10 0.16 0.14 0.09 0.09 0.07 0.04 0.01 0.00 0.00 0.01 0.00 0.00 0.00 0.00 0.00 0.00 0.00 0.00 0.00 0.00 0.00 0.00 0.00
0.02 0.02 0.02 0.02 0.01 0.02 0.02 0.02 0.06 0.04 0.10 0.08 0.05 0.01 0.00 0.01 0.05 0.13 0.19 0.20 0.16 0.12 0.18 0.12 0.07 0.07 0.04 0.01 0.00 0.00 0.00 0.00 0.00 0.00 0.00 0.00 0.00 0.00 0.00 0.00 0.00 0.00 0.00 0.00
0.02 0.03 0.03 0.03 0.03 0.05 0.05 0.05 0.14 0.12 0.19 0.12 0.03 0.01 0.04 0.07 0.15 0.26 0.29 0.25 0.24 0.16 0.15 0.12 0.07 0.03 0.08 0.08 0.01 0.00 0.00 0.00 0.00 0.00 0.00 0.00 0.00 0.00 0.00 0.00 0.00 0.00 0.00 0.00
0.02 0.02 0.02 0.02 0.05 0.08 0.07 0.07 0.25 0.13 0.10 0.15 0.05 0.06 0.08 0.12 0.13 0.22 0.30 0.35 0.28 0.24 0.24 0.14 0.09 0.07 0.16 0.11 0.01 0.00 0.00 0.00 0.00 0.00 0.00 0.00 0.00 0.00 0.00 0.00 0.00 0.03 0.01 0.00
0.01 0.01 0.03 0.10 0.12 0.09 0.05 0.03 0.13 0.17 0.16 0.14 0.08 0.02 0.02 0.07 0.13 0.19 0.29 0.49 0.45 0.32 0.25 0.15 0.08 0.09 0.18 0.12 0.00 0.00 0.00 0.00 0.00 0.00 0.00 0.00 0.00 0.00 0.02 0.01 0.00 0.00 0.01 0.01
0.00 0.00 0.03 0.04 0.00 0.02 0.13 0.26 0.30 0.18 0.24 0.21 0.04 0.01 0.01 0.02 0.09 0.18 0.33 0.38 0.42 0.34 0.21 0.10 0.14 0.14 0.11 0.02 0.00 0.00 0.00 0.00 0.00 0.00 0.00 0.00 0.00 0.01 0.03 0.03 0.01 0.00 0.00 0.01
0.00 0.00 0.03 0.02 0.02 0.24 0.54 0.37 0.36 0.27 0.18 0.14 0.06 0.01 0.01 0.02 0.11 0.12 0.25 0.39 0.39 0.28 0.22 0.22 0.19 0.07 0.03 0.01 0.00 0.00 0.00 0.00 0.00 0.01 0.01 0.00 0.00 0.00 0.02 0.03 0.05 0.00 0.00 0.00
0.00 0.01 0.03 0.03 0.18 0.64 0.49 0.37 0.25 0.17 0.06 0.03 0.01 0.01 0.02 0.01 0.06 0.11 0.19 0.25 0.31 0.23 0.20 0.30 0.22 0.15 0.06 0.01 0.00 0.00 0.00 0.00 0.00 0.00 0.01 0.02 0.01 0.00 0.00 0.00 0.03 0.01 0.00 0.00
0.01 0.02 0.08 0.10 0.31 0.53 0.22 0.17 0.09 0.09 0.02 0.00 0.01 0.01 0.01 0.01 0.01 0.13 0.27 0.29 0.33 0.26 0.29 0.30 0.11 0.04 0.00 0.00 0.00 0.00 0.00 0.00 0.00 0.00 0.00 0.01 0.01 0.02 0.02 0.01 0.01 0.01 0.00 0.00
0.01 0.03 0.10 0.12 0.25 0.31 0.15 0.08 0.06 0.02 0.00 0.01 0.01 0.00 0.00 0.00 0.01 0.06 0.09 0.17 0.20 0.23 0.33 0.27 0.10 0.04 0.00 0.00 0.00 0.00 0.00 0.00 0.00 0.00 0.00 0.02 0.02 0.00 0.00 0.02 0.05 0.04 0.02 0.02
0.01 0.03 0.05 0.08 0.19 0.10 0.14 0.02 0.00 0.00 0.00 0.00 0.01 0.01 0.00 0.01 0.03 0.03 0.03 0.01 0.02 0.12 0.25 0.14 0.05 0.01 0.00 0.00 0.00 0.00 0.06 0.12 0.03 0.01 0.02 0.11 0.05 0.00 0.00 0.00 0.03 0.05 0.02 0.01
0.01 0.02 0.04 0.04 0.07 0.06 0.02 0.00 0.00 0.00 0.00 0.00 0.00 0.00 0.00 0.02 0.03 0.01 0.01 0.01 0.01 0.03 0.08 0.03 0.00 0.00 0.00 0.00 0.00 0.01 0.30 0.48 0.28 0.14 0.14 0.14 0.06 0.02 0.01 0.00 0.00 0.00 0.01 0.00
0.01 0.02 0.05 0.04 0.01 0.00 0.00 0.00 0.00 0.01 0.03 0.05 0.02 0.03 0.03 0.00 0.01 0.01 0.00 0.00 0.00 0.01 0.00 0.00 0.00 0.00 0.00 0.00 0.00 0.01 0.15 0.28 0.31 0.16 0.12 0.15 0.17 0.10 0.04 0.00 0.04 0.05 0.02 0.00
0.00 0.00 0.01 0.03 0.02 0.02 0.01 0.00 0.00 0.00 0.01 0.08 0.18 0.11 0.02 0.01 0.04 0.01 0.00 0.00 0.00 0.00 0.00 0.00 0.00 0.00 0.00 0.00 0.00 0.00 0.00 0.01 0.06 0.02 0.00 0.02 0.08 0.17 0.12 0.02 0.03 0.07 0.10 0.04

GFSNW_prec_precacc24_063.txt.gz
Total_Precipitation_Accumulation
0.06 0.04 0.01 0.01 0.01 0.11 0.18 0.33 0.63 0.31 0.28 0.20 0.39 0.42 0.46 0.82 0.53 0.11 0.01 0.00 0.00 0.00 0.00 0.00 0.00 0.00 0.00 0.00 0.00 0.00 0.00 0.01 0.02 0.00 0.00 0.00 0.00 0.00 0.01 0.15 0.09 0.20 0.14 0.06
0.05 0.02 0.01 0.00 0.00 0.10 0.30 0.26 0.36 0.30 0.23 0.17 0.29 0.38 0.49 0.58 0.17 0.02 0.01 0.00 0.00 0.00 0.00 0.00 0.00 0.00 0.00 0.00 0.00 0.00 0.00 0.01 0.00 0.01 0.00 0.00 0.00 0.00 0.02 0.16 0.34 0.25 0.21 0.10
0.04 0.01 0.01 0.00 0.00 0.06 0.30 0.30 0.46 0.33 0.30 0.12 0.25 0.55 0.74 0.39 0.09 0.02 0.00 0.00 0.00 0.00 0.00 0.00 0.00 0.00 0.00 0.00 0.00 0.00 0.00 0.01 0.00 0.00 0.00 0.01 0.06 0.04 0.16 0.56 0.48 0.08 0.08 0.01
0.03 0.01 0.01 0.00 0.00 0.07 0.22 0.45 0.37 0.23 0.11 0.11 0.11 0.27 0.29 0.09 0.03 0.01 0.00 0.00 0.00 0.00 0.00 0.00 0.00 0.00 0.00 0.00 0.00 0.00 0.00 0.02 0.00 0.00 0.00 0.00 0.04 0.06 0.10 0.40 0.27 0.32 0.07 0.00
0.03 0.01 0.01 0.00 0.00 0.05 0.16 0.30 0.38 0.18 0.11 0.11 0.07 0.19 0.27 0.07 0.01 0.01 0.00 0.00 0.00 0.00 0.00 0.00 0.00 0.00 0.00 0.00 0.00 0.01 0.01 0.02 0.01 0.00 0.00 0.00 0.01 0.08 0.13 0.08 0.06 0.08 0.02 0.01
0.03 0.02 0.01 0.00 0.01 0.06 0.12 0.15 0.19 0.17 0.09 0.08 0.19 0.19 0.12 0.02 0.00 0.01 0.00 0.00 0.00 0.00 0.00 0.00 0.00 0.00 0.00 0.00 0.01 0.01 0.02 0.02 0.04 0.01 0.00 0.00 0.01 0.03 0.09 0.05 0.02 0.03 0.01 0.00
0.02 0.01 0.00 0.00 0.01 0.05 0.10 0.09 0.12 0.17 0.06 0.02 0.02 0.01 0.01 0.02 0.01 0.01 0.00 0.00 0.00 0.00 0.00 0.00 0.00 0.00 0.00 0.00 0.00 0.01 0.02 0.03 0.05 0.03 0.00 0.01 0.00 0.00 0.05 0.02 0.01 0.02 0.00 0.00
0.02 0.01 0.01 0.00 0.01 0.02 0.04 0.04 0.08 0.19 0.12 0.02 0.01 0.01 0.01 0.03 0.02 0.00 0.00 0.00 0.00 0.00 0.02 0.02 0.01 0.01 0.01 0.00 0.00 0.00 0.01 0.05 0.07 0.04 0.01 0.00 0.00 0.00 0.02 0.00 0.02 0.01 0.01 0.01
0.02 0.01 0.00 0.00 0.01 0.01 0.01 0.05 0.09 0.17 0.17 0.03 0.01 0.01 0.01 0.03 0.02 0.01 0.00 0.00 0.00 0.02 0.06 0.03 0.02 0.01 0.00 0.00 0.01 0.00 0.02 0.03 0.07 0.04 0.05 0.00 0.00 0.00 0.00 0.01 0.12 0.01 0.04 0.02
0.02 0.01 0.00 0.02 0.01 0.01 0.01 0.08 0.14 0.19 0.19 0.03 0.00 0.01 0.01 0.02 0.01 0.03 0.01 0.01 0.03 0.04 0.08 0.04 0.02 0.01 0.00 0.00 0.01 0.02 0.06 0.11 0.12 0.07 0.12 0.00 0.00 0.00 0.01 0.05 0.08 0.01 0.05 0.05
0.01 0.01 0.01 0.02 0.01 0.01 0.02 0.11 0.16 0.23 0.19 0.02 0.01 0.02 0.03 0.00 0.01 0.03 0.01 0.01 0.01 0.05 0.07 0.04 0.02 0.00 0.00 0.00 0.00 0.00 0.01 0.03 0.05 0.08 0.08 0.00 0.00 0.00 0.00 0.00 0.01 0.02 0.09 0.02
0.01 0.01 0.01 0.01 0.01 0.02 0.01 0.06 0.10 0.14 0.14 0.04 0.02 0.00 0.01 0.00 0.01 0.03 0.01 0.02 0.01 0.02 0.04 0.02 0.03 0.01 0.01 0.00 0.00 0.00 0.00 0.00 0.00 0.00 0.00 0.00 0.00 0.00 0.00 0.00 0.00 0.00 0.02 0.10
0.01 0.02 0.02 0.01 0.01 0.02 0.02 0.02 0.03 0.07 0.09 0.04 0.02 0.02 0.00 0.00 0.00 0.00 0.01 0.01 0.03 0.04 0.05 0.07 0.04 0.06 0.01 0.01 0.00 0.00 0.00 0.00 0.00 0.00 0.00 0.00 0.00 0.00 0.00 0.00 0.00 0.00 0.00 0.01
0.02 0.02 0.01 0.01 0.01 0.02 0.01 0.01 0.01 0.05 0.07 0.03 0.06 0.01 0.01 0.00 0.00 0.00 0.02 0.04 0.05 0.08 0.10 0.07 0.08 0.07 0.04 0.01 0.00 0.00 0.01 0.00 0.00 0.00 0.00 0.00 0.00 0.00 0.00 0.00 0.00 0.00 0.00 0.00
0.01 0.02 0.02 0.02 0.02 0.02 0.02 0.01 0.01 0.02 0.09 0.10 0.05 0.01 0.00 0.01 0.02 0.03 0.07 0.10 0.11 0.10 0.15 0.11 0.06 0.07 0.03 0.01 0.00 0.00 0.00 0.00 0.00 0.00 0.00 0.00 0.00 0.00 0.00 0.00 0.00 0.00 0.00 0.00
0.02 0.02 0.03 0.03 0.03 0.06 0.05 0.04 0.09 0.08 0.12 0.14 0.04 0.01 0.01 0.04 0.10 0.16 0.17 0.18 0.20 0.13 0.13 0.13 0.07 0.03 0.08 0.08 0.01 0.00 0.00 0.00 0.00 0.00 0.00 0.00 0.00 0.00 0.00 0.00 0.00 0.00 0.00 0.00
0.01 0.01 0.02 0.02 0.05 0.08 0.04 0.05 0.27 0.12 0.09 0.18 0.10 0.04 0.05 0.12 0.11 0.14 0.21 0.25 0.22 0.20 0.23 0.13 0.08 0.07 0.16 0.12 0.01 0.00 0.00 0.00 0.00 0.00 0.00 0.00 0.00 0.00 0.00 0.00 0.00 0.03 0.01 0.00
0.01 0.01 0.02 0.10 0.13 0.11 0.05 0.03 0.15 0.20 0.20 0.25 0.20 0.08 0.05 0.09 0.15 0.18 0.27 0.41 0.37 0.28 0.22 0.14 0.07 0.08 0.18 0.13 0.00 0.00 0.00 0.00 0.00 0.00 0.00 0.00 0.00 0.00 0.01 0.01 0.00 0.00 0.00 0.01
0.00 0.00 0.02 0.04 0.01 0.01 0.09 0.27 0.33 0.24 0.37 0.34 0.13 0.11 0.05 0.06 0.09 0.18 0.32 0.37 0.40 0.32 0.21 0.11 0.16 0.16 0.12 0.02 0.00 0.00 0.00 0.00 0.00 0.00 0.00 0.00 0.00 0.01 0.03 0.03 0.01 0.00 0.00 0.01
0.00 0.00 0.03 0.02 0.02 0.16 0.40 0.42 0.42 0.33 0.27 0.21 0.13 0.08 0.07 0.05 0.14 0.14 0.26 0.43 0.40 0.28 0.22 0.23 0.21 0.08 0.03 0.01 0.00 0.00 0.00 0.00 0.00 0.01 0.01 0.00 0.00 0.00 0.02 0.03 0.04 0.00 0.00 0.00
0.00 0.00 0.01 0.01 0.14 0.49 0.48 0.38 0.28 0.21 0.10 0.05 0.03 0.02 0.05 0.03 0.10 0.14 0.21 0.27 0.35 0.25 0.20 0.32 0.23 0.16 0.06 0.01 0.00 0.00 0.00 0.00 0.00 0.00 0.01 0.02 0.01 0.00 0.00 0.00 0.03 0.01 0.00 0.00
0.01 0.01 0.02 0.07 0.23 0.45 0.24 0.20 0.11 0.11 0.03 0.04 0.03 0.01 0.01 0.01 0.01 0.13 0.29 0.33 0.40 0.28 0.32 0.35 0.12 0.04 0.00 0.00 0.00 0.00 0.00 0.00 0.00 0.00 0.00 0.01 0.01 0.02 0.02 0.01 0.01 0.01 0.00 0.00
0.01 0.02 0.03 0.08 0.16 0.27 0.15 0.09 0.07 0.02 0.01 0.04 0.02 0.01 0.03 0.02 0.01 0.08 0.13 0.24 0.24 0.28 0.36 0.28 0.11 0.05 0.01 0.00 0.00 0.00 0.00 0.00 0.00 0.00 0.00 0.03 0.02 0.00 0.00 0.02 0.05 0.04 0.02 0.02
0.01 0.01 0.02 0.05 0.14 0.08 0.13 0.02 0.01 0.00 0.00 0.01 0.02 0.02 0.01 0.02 0.06 0.05 0.05 0.03 0.05 0.13 0.25 0.14 0.05 0.02 0.00 0.00 0.00 0.01 0.06 0.12 0.04 0.01 0.02 0.12 0.05 0.01 0.00 0.00 0.03 0.05 0.02 0.01
0.01 0.01 0.01 0.01 0.04 0.03 0.01 0.00 0.00 0.00 0.01 0.01 0.00 0.00 0.00 0.02 0.04 0.02 0.02 0.02 0.01 0.03 0.08 0.03 0.00 0.00 0.00 0.00 0.01 0.06 0.35 0.51 0.31 0.16 0.17 0.18 0.11 0.08 0.05 0.01 0.00 0.00 0.01 0.00
0.00 0.01 0.02 0.01 0.01 0.00 0.00 0.00 0.00 0.01 0.04 0.10 0.04 0.03 0.03 0.00 0.02 0.03 0.00 0.00 0.00 0.01 0.00 0.00 0.00 0.00 0.00 0.00 0.01 0.05 0.19 0.33 0.38 0.22 0.16 0.21 0.27 0.24 0.15 0.04 0.07 0.06 0.03 0.01
0.00 0.00 0.00 0.01 0.01 0.01 0.01 0.00 0.00 0.01 0.02 0.11 0.25 0.15 0.02 0.02 0.05 0.01 0.00 0.00 0.00 0.00 0.00 0.00 0.00 0.00 0.00 0.00 0.00 0.00 0.00 0.01 0.07 0.06 0.05 0.04 0.08 0.19 0.16 0.05 0.04 0.08 0.11 0.04

GFSNW_prec_precacc24_066.txt.gz
Total_Precipitation_Accumulation
0.05 0.03 0.01 0.01 0.01 0.05 0.10 0.25 0.44 0.26 0.17 0.10 0.11 0.20 0.36 0.82 0.53 0.11 0.01 0.00 0.00 0.00 0.00 0.00 0.00 0.00 0.00 0.00 0.00 0.00 0.00 0.00 0.02 0.01 0.00 0.00 0.00 0.00 0.00 0.01 0.00 0.05 0.05 0.02
0.04 0.02 0.00 0.00 0.00 0.06 0.22 0.19 0.17 0.13 0.16 0.13 0.15 0.23 0.45 0.58 0.17 0.02 0.01 0.00 0.00 0.00 0.00 0.00 0.00 0.00 0.00 0.00 0.00 0.00 0.00 0.00 0.00 0.01 0.00 0.00 0.00 0.00 0.00 0.04 0.14 0.09 0.11 0.05
0.04 0.01 0.00 0.00 0.00 0.05 0.24 0.19 0.09 0.11 0.21 0.12 0.24 0.52 0.71 0.38 0.09 0.02 0.00 0.00 0.00 0.00 0.00 0.00 0.00 0.00 0.00 0.00 0.00 0.00 0.00 0.00 0.00 0.00 0.00 0.00 0.00 0.00 0.04 0.24 0.27 0.04 0.03 0.00
0.03 0.01 0.01 0.00 0.00 0.06 0.15 0.18 0.09 0.17 0.10 0.11 0.11 0.26 0.29 0.08 0.02 0.01 0.00 0.00 0.00 0.00 0.00 0.00 0.00 0.00 0.00 0.00 0.00 0.00 0.00 0.01 0.00 0.00 0.00 0.00 0.00 0.00 0.01 0.16 0.17 0.24 0.06 0.00
0.02 0.01 0.01 0.00 0.00 0.03 0.07 0.11 0.21 0.14 0.11 0.11 0.07 0.18 0.27 0.07 0.01 0.01 0.00 0.00 0.00 0.00 0.00 0.00 0.00 0.00 0.00 0.00 0.00 0.00 0.01 0.01 0.00 0.00 0.00 0.00 0.00 0.00 0.02 0.04 0.05 0.08 0.02 0.01
0.03 0.01 0.00 0.00 0.01 0.02 0.07 0.10 0.12 0.06 0.06 0.06 0.17 0.19 0.12 0.02 0.00 0.01 0.00 0.00 0.00 0.00 0.00 0.00 0.00 0.00 0.00 0.00 0.00 0.00 0.01 0.01 0.01 0.00 0.00 0.00 0.01 0.00 0.02 0.03 0.02 0.03 0.01 0.00
0.03 0.01 0.00 0.00 0.01 0.03 0.07 0.06 0.06 0.06 0.02 0.01 0.01 0.01 0.01 0.01 0.01 0.01 0.00 0.00 0.00 0.00 0.00 0.00 0.00 0.00 0.00 0.00 0.00 0.00 0.01 0.02 0.02 0.01 0.00 0.00 0.00 0.00 0.00 0.01 0.01 0.02 0.00 0.00
0.02 0.01 0.00 0.00 0.01 0.01 0.02 0.04 0.04 0.06 0.04 0.01 0.01 0.01 0.01 0.03 0.01 0.00 0.00 0.00 0.00 0.00 0.00 0.00 0.00 0.01 0.01 0.00 0.00 0.00 0.01 0.04 0.04 0.02 0.01 0.00 0.00 0.00 0.00 0.00 0.02 0.01 0.01 0.01
0.02 0.01 0.00 0.00 0.01 0.01 0.01 0.04 0.07 0.07 0.09 0.02 0.00 0.00 0.01 0.03 0.02 0.01 0.00 0.00 0.00 0.00 0.00 0.00 0.01 0.01 0.00 0.01 0.01 0.00 0.02 0.02 0.05 0.03 0.02 0.00 0.00 0.00 0.00 0.00 0.13 0.01 0.04 0.02
0.01 0.01 0.00 0.01 0.01 0.00 0.01 0.03 0.05 0.10 0.16 0.03 0.00 0.01 0.01 0.02 0.01 0.03 0.01 0.01 0.01 0.01 0.01 0.01 0.01 0.00 0.00 0.00 0.01 0.01 0.05 0.08 0.09 0.05 0.06 0.00 0.00 0.00 0.00 0.04 0.06 0.00 0.03 0.04
0.01 0.01 0.01 0.01 0.01 0.00 0.01 0.02 0.04 0.11 0.15 0.02 0.01 0.02 0.03 0.00 0.01 0.03 0.01 0.00 0.01 0.02 0.02 0.02 0.01 0.00 0.00 0.00 0.00 0.00 0.01 0.02 0.04 0.07 0.06 0.00 0.00 0.00 0.00 0.00 0.01 0.01 0.08 0.02
0.01 0.01 0.02 0.01 0.01 0.01 0.01 0.02 0.04 0.08 0.13 0.04 0.02 0.00 0.01 0.00 0.01 0.03 0.01 0.02 0.00 0.00 0.01 0.01 0.02 0.01 0.01 0.00 0.00 0.00 0.00 0.00 0.00 0.00 0.00 0.00 0.00 0.00 0.00 0.00 0.00 0.00 0.01 0.09
0.01 0.01 0.02 0.01 0.02 0.01 0.02 0.01 0.02 0.04 0.08 0.04 0.02 0.02 0.00 0.00 0.00 0.00 0.01 0.00 0.00 0.00 0.01 0.03 0.02 0.03 0.01 0.01 0.00 0.00 0.00 0.00 0.00 0.00 0.00 0.00 0.00 0.00 0.00 0.00 0.00 0.00 0.00 0.01
0.02 0.01 0.01 0.01 0.01 0.02 0.02 0.01 0.01 0.03 0.05 0.04 0.06 0.01 0.01 0.00 0.00 0.00 0.00 0.01 0.01 0.02 0.02 0.03 0.05 0.04 0.02 0.01 0.00 0.00 0.01 0.00 0.00 0.00 0.00 0.00 0.00 0.00 0.00 0.00 0.00 0.00 0.00 0.00
0.01 0.01 0.02 0.02 0.02 0.03 0.02 0.00 0.00 0.01 0.07 0.09 0.05 0.01 0.00 0.01 0.01 0.00 0.01 0.03 0.05 0.05 0.07 0.07 0.05 0.04 0.03 0.01 0.00 0.00 0.00 0.00 0.00 0.00 0.00 0.00 0.00 0.00 0.00 0.00 0.00 0.00 0.00 0.00
0.02 0.02 0.03 0.03 0.04 0.06 0.05 0.02 0.02 0.02 0.05 0.12 0.04 0.01 0.00 0.00 0.04 0.09 0.08 0.10 0.13 0.09 0.11 0.10 0.06 0.03 0.07 0.07 0.01 0.00 0.00 0.00 0.00 0.00 0.00 0.00 0.00 0.00 0.00 0.00 0.00 0.00 0.00 0.00
0.01 0.01 0.01 0.02 0.05 0.09 0.04 0.04 0.26 0.10 0.06 0.17 0.10 0.03 0.02 0.06 0.07 0.10 0.16 0.17 0.18 0.18 0.23 0.14 0.07 0.06 0.16 0.12 0.01 0.00 0.00 0.00 0.00 0.00 0.00 0.00 0.00 0.00 0.00 0.00 0.00 0.01 0.01 0.00
0.01 0.01 0.02 0.09 0.13 0.12 0.04 0.03 0.15 0.20 0.20 0.26 0.24 0.13 0.12 0.10 0.20 0.20 0.26 0.40 0.32 0.25 0.19 0.13 0.07 0.08 0.17 0.13 0.00 0.00 0.00 0.00 0.00 0.00 0.00 0.00 0.00 0.00 0.00 0.00 0.00 0.00 0.00 0.00
0.00 0.00 0.02 0.04 0.01 0.01 0.05 0.23 0.31 0.24 0.39 0.38 0.18 0.24 0.20 0.14 0.25 0.20 0.34 0.34 0.37 0.28 0.20 0.11 0.17 0.17 0.13 0.02 0.00 0.00 0.00 0.00 0.00 0.00 0.00 0.00 0.00 0.00 0.00 0.00 0.01 0.00 0.00 0.00
0.00 0.00 0.03 0.02 0.02 0.15 0.34 0.46 0.47 0.37 0.29 0.23 0.14 0.18 0.31 0.26 0.27 0.20 0.33 0.45 0.40 0.29 0.23 0.24 0.24 0.09 0.03 0.01 0.00 0.00 0.00 0.00 0.00 0.00 0.00 0.00 0.00 0.00 0.00 0.01 0.02 0.00 0.00 0.00
0.00 0.00 0.00 0.00 0.12 0.44 0.49 0.40 0.32 0.23 0.12 0.06 0.04 0.06 0.19 0.28 0.31 0.23 0.25 0.28 0.36 0.26 0.20 0.33 0.24 0.16 0.06 0.01 0.00 0.00 0.00 0.00 0.00 0.00 0.00 0.02 0.01 0.00 0.00 0.00 0.02 0.01 0.00 0.00
0.01 0.00 0.01 0.05 0.19 0.41 0.28 0.22 0.12 0.14 0.04 0.05 0.07 0.07 0.05 0.09 0.04 0.13 0.30 0.34 0.42 0.29 0.34 0.37 0.12 0.04 0.00 0.00 0.00 0.00 0.00 0.00 0.00 0.00 0.00 0.01 0.01 0.02 0.02 0.01 0.01 0.01 0.00 0.00
0.01 0.01 0.02 0.07 0.13 0.25 0.17 0.10 0.08 0.03 0.02 0.06 0.09 0.12 0.04 0.03 0.01 0.08 0.14 0.28 0.28 0.33 0.41 0.29 0.11 0.05 0.01 0.00 0.00 0.00 0.00 0.00 0.00 0.00 0.00 0.03 0.03 0.00 0.00 0.02 0.05 0.04 0.02 0.02
0.02 0.01 0.02 0.04 0.11 0.06 0.10 0.02 0.01 0.01 0.00 0.06 0.09 0.04 0.02 0.03 0.07 0.06 0.07 0.04 0.07 0.16 0.26 0.14 0.05 0.04 0.01 0.01 0.02 0.03 0.07 0.12 0.04 0.03 0.03 0.12 0.06 0.01 0.01 0.01 0.03 0.05 0.02 0.01
0.00 0.01 0.01 0.01 0.03 0.03 0.02 0.02 0.01 0.01 0.01 0.06 0.03 0.01 0.00 0.03 0.05 0.04 0.04 0.03 0.02 0.03 0.08 0.03 0.00 0.00 0.00 0.03 0.05 0.09 0.36 0.53 0.34 0.20 0.19 0.20 0.13 0.10 0.08 0.04 0.01 0.00 0.01 0.00
0.00 0.01 0.01 0.01 0.01 0.00 0.01 0.02 0.01 0.02 0.04 0.15 0.13 0.04 0.03 0.00 0.02 0.05 0.01 0.01 0.00 0.01 0.00 0.00 0.00 0.00 0.00 0.01 0.04 0.07 0.20 0.34 0.40 0.27 0.21 0.25 0.30 0.29 0.24 0.14 0.12 0.09 0.05 0.02
0.00 0.00 0.00 0.00 0.01 0.00 0.01 0.01 0.01 0.01 0.03 0.13 0.34 0.22 0.03 0.03 0.07 0.02 0.00 0.00 0.00 0.00 0.00 0.00 0.00 0.00 0.00 0.00 0.00 0.00 0.00 0.01 0.07 0.06 0.05 0.06 0.11 0.22 0.21 0.12 0.13 0.15 0.14 0.05

GFSNW_prec_precacc24_069.txt.gz
Total_Precipitation_Accumulation
0.03 0.01 0.00 0.00 0.01 0.04 0.07 0.15 0.25 0.17 0.11 0.02 0.03 0.16 0.32 0.78 0.53 0.11 0.01 0.00 0.00 0.00 0.00 0.00 0.00 0.00 0.00 0.00 0.00 0.00 0.00 0.00 0.02 0.01 0.00 0.00 0.00 0.00 0.00 0.00 0.00 0.01 0.01 0.00
0.03 0.01 0.00 0.00 0.00 0.05 0.13 0.08 0.04 0.07 0.08 0.07 0.09 0.20 0.36 0.55 0.16 0.02 0.01 0.00 0.00 0.00 0.00 0.00 0.00 0.00 0.00 0.00 0.00 0.00 0.00 0.00 0.00 0.01 0.00 0.00 0.00 0.00 0.00 0.01 0.04 0.02 0.03 0.01
0.03 0.01 0.00 0.00 0.00 0.04 0.10 0.02 0.03 0.04 0.12 0.09 0.22 0.49 0.61 0.35 0.08 0.02 0.00 0.00 0.00 0.00 0.00 0.00 0.00 0.00 0.00 0.00 0.00 0.00 0.00 0.00 0.00 0.00 0.00 0.00 0.00 0.00 0.00 0.03 0.08 0.02 0.01 0.00
0.02 0.00 0.00 0.00 0.00 0.05 0.03 0.01 0.02 0.04 0.03 0.10 0.07 0.24 0.23 0.07 0.02 0.00 0.00 0.00 0.00 0.00 0.00 0.00 0.00 0.00 0.00 0.00 0.00 0.00 0.00 0.00 0.00 0.00 0.00 0.00 0.00 0.00 0.00 0.05 0.03 0.11 0.03 0.00
0.02 0.01 0.01 0.00 0.00 0.01 0.01 0.01 0.12 0.09 0.10 0.11 0.05 0.17 0.25 0.06 0.00 0.00 0.00 0.00 0.00 0.00 0.00 0.00 0.00 0.00 0.00 0.00 0.00 0.00 0.00 0.00 0.00 0.00 0.00 0.00 0.00 0.00 0.00 0.00 0.02 0.04 0.01 0.01
0.03 0.01 0.00 0.00 0.01 0.01 0.03 0.02 0.02 0.02 0.05 0.06 0.17 0.19 0.12 0.02 0.00 0.01 0.00 0.00 0.00 0.00 0.00 0.00 0.00 0.00 0.00 0.00 0.00 0.00 0.00 0.00 0.01 0.00 0.00 0.00 0.00 0.00 0.00 0.00 0.01 0.02 0.01 0.00
0.02 0.01 0.00 0.00 0.01 0.02 0.04 0.03 0.02 0.02 0.00 0.00 0.00 0.00 0.01 0.01 0.01 0.01 0.00 0.00 0.00 0.00 0.00 0.00 0.00 0.00 0.00 0.00 0.00 0.00 0.00 0.01 0.01 0.00 0.00 0.00 0.00 0.00 0.00 0.00 0.00 0.02 0.00 0.00
0.02 0.00 0.00 0.00 0.01 0.00 0.01 0.04 0.03 0.04 0.02 0.00 0.00 0.00 0.01 0.02 0.01 0.00 0.00 0.00 0.00 0.00 0.00 0.00 0.00 0.00 0.00 0.00 0.00 0.00 0.00 0.03 0.03 0.01 0.00 0.00 0.00 0.00 0.00 0.00 0.02 0.01 0.01 0.01
0.02 0.01 0.00 0.00 0.00 0.00 0.00 0.02 0.03 0.04 0.05 0.00 0.00 0.00 0.00 0.02 0.01 0.00 0.00 0.00 0.00 0.00 0.00 0.00 0.00 0.00 0.00 0.01 0.01 0.00 0.01 0.02 0.04 0.02 0.00 0.00 0.00 0.00 0.00 0.00 0.11 0.00 0.03 0.01
0.01 0.01 0.00 0.01 0.01 0.00 0.00 0.02 0.03 0.08 0.09 0.01 0.00 0.00 0.00 0.01 0.01 0.02 0.01 0.00 0.00 0.00 0.01 0.01 0.00 0.00 0.00 0.00 0.01 0.01 0.04 0.07 0.08 0.03 0.02 0.00 0.00 0.00 0.00 0.03 0.04 0.00 0.02 0.04
0.01 0.01 0.01 0.01 0.01 0.00 0.00 0.01 0.02 0.08 0.08 0.01 0.00 0.01 0.02 0.00 0.01 0.02 0.01 0.00 0.00 0.00 0.01 0.01 0.01 0.00 0.00 0.00 0.00 0.00 0.01 0.02 0.03 0.05 0.03 0.00 0.00 0.00 0.00 0.01 0.00 0.00 0.02 0.01
0.01 0.01 0.01 0.01 0.01 0.01 0.01 0.01 0.02 0.05 0.11 0.02 0.01 0.00 0.01 0.00 0.01 0.02 0.01 0.01 0.00 0.00 0.01 0.00 0.01 0.00 0.00 0.00 0.00 0.00 0.00 0.00 0.00 0.00 0.00 0.00 0.00 0.00 0.00 0.00 0.00 0.00 0.00 0.01
0.01 0.01 0.01 0.01 0.02 0.01 0.01 0.01 0.01 0.03 0.07 0.02 0.01 0.02 0.00 0.00 0.00 0.00 0.01 0.01 0.00 0.00 0.00 0.01 0.01 0.01 0.00 0.00 0.00 0.00 0.00 0.00 0.00 0.00 0.00 0.00 0.00 0.00 0.00 0.00 0.00 0.00 0.00 0.00
0.02 0.01 0.01 0.01 0.01 0.02 0.02 0.02 0.01 0.02 0.04 0.03 0.05 0.01 0.01 0.00 0.00 0.00 0.00 0.00 0.00 0.00 0.00 0.02 0.03 0.02 0.01 0.00 0.00 0.00 0.01 0.00 0.00 0.00 0.00 0.00 0.00 0.00 0.00 0.00 0.00 0.00 0.00 0.00
0.01 0.01 0.02 0.02 0.02 0.04 0.03 0.01 0.01 0.01 0.06 0.08 0.04 0.00 0.00 0.01 0.01 0.00 0.00 0.00 0.01 0.02 0.06 0.06 0.04 0.03 0.01 0.01 0.00 0.00 0.00 0.00 0.00 0.00 0.00 0.00 0.00 0.00 0.00 0.00 0.00 0.00 0.00 0.00
0.02 0.02 0.03 0.03 0.03 0.07 0.06 0.02 0.02 0.01 0.04 0.11 0.04 0.01 0.00 0.00 0.02 0.05 0.02 0.03 0.05 0.07 0.12 0.11 0.05 0.02 0.06 0.06 0.01 0.00 0.00 0.00 0.00 0.00 0.00 0.00 0.00 0.00 0.00 0.00 0.00 0.00 0.00 0.00
0.02 0.02 0.01 0.02 0.05 0.10 0.04 0.03 0.25 0.08 0.06 0.17 0.11 0.03 0.02 0.03 0.04 0.09 0.13 0.12 0.13 0.16 0.25 0.14 0.06 0.05 0.16 0.12 0.01 0.00 0.00 0.00 0.00 0.00 0.00 0.00 0.00 0.00 0.00 0.00 0.00 0.00 0.00 0.00
0.05 0.03 0.03 0.10 0.14 0.13 0.06 0.03 0.15 0.20 0.19 0.26 0.26 0.13 0.15 0.12 0.19 0.22 0.24 0.36 0.29 0.23 0.20 0.13 0.08 0.09 0.18 0.13 0.00 0.00 0.00 0.00 0.00 0.00 0.00 0.00 0.00 0.00 0.00 0.00 0.00 0.00 0.00 0.00
0.04 0.02 0.04 0.05 0.02 0.02 0.04 0.22 0.32 0.25 0.38 0.40 0.21 0.28 0.31 0.24 0.33 0.20 0.40 0.35 0.47 0.28 0.19 0.10 0.18 0.17 0.13 0.02 0.00 0.00 0.00 0.00 0.00 0.00 0.00 0.00 0.00 0.00 0.00 0.00 0.01 0.00 0.00 0.00
0.07 0.03 0.06 0.04 0.02 0.13 0.30 0.46 0.50 0.41 0.31 0.24 0.15 0.21 0.44 0.38 0.42 0.29 0.45 0.42 0.37 0.27 0.20 0.23 0.24 0.10 0.03 0.01 0.00 0.00 0.00 0.00 0.00 0.00 0.00 0.00 0.00 0.00 0.00 0.00 0.00 0.00 0.00 0.00
0.05 0.05 0.04 0.01 0.11 0.41 0.50 0.45 0.36 0.25 0.14 0.07 0.04 0.07 0.24 0.45 0.55 0.38 0.37 0.39 0.38 0.26 0.21 0.35 0.25 0.16 0.06 0.01 0.00 0.00 0.00 0.00 0.00 0.00 0.00 0.00 0.00 0.00 0.00 0.00 0.01 0.01 0.00 0.00
0.06 0.05 0.03 0.05 0.18 0.39 0.32 0.25 0.15 0.15 0.04 0.06 0.08 0.12 0.11 0.24 0.35 0.25 0.37 0.36 0.44 0.29 0.35 0.39 0.12 0.04 0.00 0.00 0.00 0.00 0.00 0.00 0.00 0.00 0.00 0.00 0.01 0.02 0.02 0.01 0.01 0.01 0.00 0.00
0.05 0.03 0.04 0.07 0.14 0.27 0.21 0.12 0.11 0.04 0.02 0.08 0.12 0.27 0.13 0.09 0.10 0.12 0.14 0.28 0.29 0.35 0.43 0.30 0.11 0.05 0.02 0.00 0.00 0.00 0.00 0.00 0.00 0.00 0.00 0.03 0.03 0.00 0.00 0.02 0.05 0.04 0.02 0.02
0.05 0.02 0.03 0.05 0.11 0.06 0.09 0.02 0.01 0.01 0.01 0.09 0.21 0.15 0.06 0.08 0.10 0.08 0.07 0.04 0.10 0.19 0.27 0.15 0.09 0.11 0.05 0.04 0.04 0.04 0.07 0.12 0.04 0.03 0.04 0.13 0.07 0.02 0.01 0.01 0.03 0.05 0.02 0.01
0.04 0.02 0.01 0.01 0.03 0.04 0.03 0.03 0.02 0.01 0.02 0.08 0.09 0.08 0.03 0.04 0.05 0.04 0.05 0.04 0.02 0.03 0.08 0.03 0.01 0.01 0.02 0.08 0.08 0.09 0.37 0.53 0.35 0.21 0.22 0.22 0.14 0.11 0.08 0.05 0.03 0.01 0.01 0.00
0.00 0.01 0.01 0.00 0.01 0.00 0.01 0.02 0.03 0.03 0.05 0.15 0.19 0.09 0.05 0.01 0.02 0.06 0.01 0.01 0.00 0.01 0.00 0.00 0.00 0.00 0.00 0.02 0.06 0.09 0.21 0.34 0.40 0.27 0.22 0.28 0.33 0.32 0.27 0.17 0.17 0.14 0.08 0.05
0.00 0.00 0.00 0.00 0.01 0.00 0.01 0.01 0.01 0.01 0.03 0.13 0.34 0.28 0.04 0.03 0.07 0.02 0.00 0.00 0.00 0.00 0.00 0.00 0.00 0.00 0.00 0.00 0.00 0.00 0.00 0.01 0.07 0.06 0.05 0.06 0.11 0.23 0.24 0.16 0.21 0.23 0.20 0.08

GFSNW_prec_precacc24_072.txt.gz
Total_Precipitation_Accumulation
0.02 0.01 0.00 0.00 0.01 0.03 0.02 0.01 0.09 0.06 0.05 0.01 0.02 0.14 0.28 0.60 0.44 0.10 0.01 0.00 0.00 0.00 0.00 0.00 0.00 0.00 0.00 0.00 0.00 0.00 0.00 0.00 0.02 0.01 0.00 0.00 0.00 0.00 0.00 0.00 0.00 0.00 0.00 0.00
0.02 0.01 0.00 0.00 0.00 0.04 0.03 0.00 0.01 0.02 0.01 0.03 0.07 0.17 0.28 0.42 0.13 0.02 0.01 0.00 0.00 0.00 0.00 0.00 0.00 0.00 0.00 0.00 0.00 0.00 0.00 0.00 0.00 0.01 0.00 0.00 0.00 0.00 0.00 0.00 0.00 0.00 0.00 0.00
0.02 0.00 0.00 0.00 0.00 0.01 0.01 0.00 0.02 0.01 0.02 0.02 0.20 0.44 0.47 0.30 0.06 0.01 0.00 0.00 0.00 0.00 0.00 0.00 0.00 0.00 0.00 0.00 0.00 0.00 0.00 0.00 0.00 0.00 0.00 0.00 0.00 0.00 0.00 0.00 0.01 0.00 0.00 0.00
0.02 0.00 0.00 0.00 0.00 0.00 0.00 0.00 0.00 0.01 0.02 0.02 0.05 0.19 0.17 0.04 0.01 0.00 0.00 0.00 0.00 0.00 0.00 0.00 0.00 0.00 0.00 0.00 0.00 0.00 0.00 0.00 0.00 0.00 0.00 0.00 0.00 0.00 0.00 0.00 0.00 0.02 0.00 0.00
0.02 0.00 0.00 0.00 0.00 0.00 0.00 0.00 0.04 0.01 0.07 0.04 0.03 0.15 0.15 0.04 0.00 0.00 0.00 0.00 0.00 0.00 0.00 0.00 0.00 0.00 0.00 0.00 0.00 0.00 0.00 0.00 0.00 0.00 0.00 0.00 0.00 0.00 0.00 0.00 0.00 0.01 0.00 0.00
0.02 0.00 0.00 0.00 0.01 0.00 0.01 0.01 0.01 0.02 0.04 0.04 0.16 0.17 0.09 0.01 0.00 0.01 0.00 0.00 0.00 0.00 0.00 0.00 0.00 0.00 0.00 0.00 0.00 0.00 0.00 0.00 0.00 0.00 0.00 0.00 0.00 0.00 0.00 0.00 0.00 0.00 0.00 0.00
0.01 0.00 0.00 0.00 0.00 0.00 0.01 0.02 0.02 0.02 0.00 0.00 0.00 0.00 0.01 0.01 0.00 0.01 0.00 0.00 0.00 0.00 0.00 0.00 0.00 0.00 0.00 0.00 0.00 0.00 0.00 0.00 0.00 0.00 0.00 0.00 0.00 0.00 0.00 0.00 0.00 0.00 0.00 0.00
0.01 0.00 0.00 0.00 0.00 0.00 0.00 0.03 0.03 0.03 0.01 0.00 0.00 0.00 0.01 0.01 0.00 0.00 0.00 0.00 0.00 0.00 0.00 0.00 0.00 0.00 0.00 0.00 0.00 0.00 0.00 0.01 0.01 0.01 0.00 0.00 0.00 0.00 0.00 0.00 0.00 0.00 0.00 0.00
0.01 0.01 0.00 0.00 0.00 0.00 0.00 0.02 0.02 0.04 0.04 0.00 0.00 0.00 0.00 0.01 0.00 0.00 0.00 0.00 0.00 0.00 0.01 0.01 0.00 0.00 0.00 0.01 0.01 0.00 0.01 0.01 0.01 0.01 0.00 0.00 0.00 0.00 0.00 0.00 0.04 0.00 0.00 0.01
0.01 0.01 0.00 0.01 0.00 0.00 0.00 0.01 0.01 0.04 0.04 0.00 0.00 0.00 0.00 0.01 0.00 0.01 0.00 0.00 0.00 0.00 0.01 0.02 0.01 0.00 0.00 0.00 0.00 0.01 0.03 0.04 0.05 0.02 0.01 0.00 0.00 0.00 0.00 0.03 0.04 0.00 0.00 0.02
0.01 0.01 0.01 0.01 0.01 0.00 0.00 0.00 0.01 0.02 0.03 0.00 0.00 0.00 0.01 0.00 0.00 0.01 0.00 0.00 0.00 0.00 0.01 0.02 0.01 0.00 0.00 0.00 0.00 0.00 0.01 0.02 0.02 0.04 0.02 0.00 0.00 0.00 0.00 0.01 0.00 0.00 0.00 0.00
0.01 0.01 0.01 0.01 0.01 0.01 0.00 0.00 0.01 0.02 0.06 0.00 0.00 0.00 0.00 0.00 0.00 0.01 0.00 0.01 0.00 0.00 0.01 0.01 0.01 0.00 0.00 0.00 0.00 0.00 0.00 0.00 0.00 0.00 0.00 0.00 0.00 0.00 0.00 0.00 0.00 0.00 0.00 0.00
0.01 0.01 0.01 0.01 0.01 0.01 0.01 0.00 0.01 0.02 0.06 0.00 0.00 0.01 0.00 0.00 0.00 0.00 0.00 0.01 0.01 0.01 0.00 0.02 0.01 0.00 0.00 0.00 0.00 0.00 0.00 0.00 0.00 0.00 0.00 0.00 0.00 0.00 0.00 0.00 0.00 0.00 0.00 0.00
0.02 0.01 0.01 0.01 0.01 0.01 0.02 0.02 0.02 0.03 0.04 0.02 0.03 0.01 0.01 0.00 0.00 0.00 0.00 0.00 0.00 0.00 0.00 0.02 0.02 0.01 0.00 0.00 0.00 0.00 0.00 0.00 0.00 0.00 0.00 0.00 0.00 0.00 0.00 0.00 0.00 0.00 0.00 0.00
0.03 0.04 0.04 0.02 0.02 0.03 0.04 0.02 0.01 0.02 0.06 0.07 0.04 0.00 0.00 0.01 0.01 0.00 0.00 0.00 0.01 0.01 0.06 0.07 0.03 0.01 0.00 0.00 0.00 0.00 0.00 0.00 0.00 0.00 0.00 0.00 0.00 0.00 0.00 0.00 0.00 0.00 0.00 0.00
0.08 0.09 0.06 0.03 0.03 0.07 0.07 0.01 0.02 0.00 0.04 0.14 0.04 0.01 0.00 0.00 0.02 0.05 0.02 0.01 0.02 0.05 0.16 0.13 0.06 0.01 0.03 0.04 0.01 0.00 0.00 0.00 0.00 0.00 0.00 0.00 0.00 0.00 0.00 0.00 0.00 0.00 0.00 0.00
0.17 0.12 0.04 0.03 0.06 0.12 0.07 0.04 0.26 0.07 0.06 0.18 0.11 0.03 0.02 0.03 0.04 0.08 0.11 0.07 0.08 0.13 0.23 0.15 0.07 0.04 0.12 0.10 0.01 0.00 0.00 0.00 0.00 0.00 0.00 0.00 0.00 0.00 0.00 0.00 0.00 0.00 0.00 0.00
0.20 0.09 0.06 0.13 0.17 0.17 0.08 0.03 0.15 0.20 0.22 0.26 0.26 0.14 0.16 0.15 0.18 0.19 0.19 0.29 0.23 0.24 0.20 0.14 0.07 0.09 0.17 0.13 0.00 0.00 0.00 0.00 0.00 0.00 0.00 0.00 0.00 0.00 0.00 0.00 0.00 0.00 0.00 0.00
0.07 0.05 0.06 0.07 0.03 0.04 0.05 0.21 0.32 0.25 0.38 0.39 0.22 0.29 0.32 0.34 0.38 0.21 0.49 0.31 0.44 0.26 0.18 0.09 0.16 0.16 0.14 0.02 0.00 0.00 0.00 0.00 0.00 0.00 0.00 0.00 0.00 0.00 0.00 0.00 0.00 0.00 0.00 0.00
0.15 0.10 0.09 0.07 0.03 0.12 0.26 0.46 0.54 0.46 0.36 0.25 0.15 0.21 0.45 0.44 0.47 0.36 0.64 0.47 0.35 0.30 0.17 0.20 0.24 0.09 0.03 0.01 0.00 0.00 0.00 0.00 0.00 0.00 0.00 0.00 0.00 0.00 0.00 0.00 0.00 0.00 0.00 0.00
0.12 0.09 0.08 0.04 0.09 0.36 0.51 0.51 0.40 0.28 0.16 0.07 0.05 0.07 0.25 0.47 0.61 0.54 0.38 0.55 0.37 0.24 0.20 0.36 0.26 0.16 0.06 0.01 0.00 0.00 0.00 0.00 0.00 0.00 0.00 0.00 0.00 0.00 0.00 0.00 0.00 0.00 0.00 0.00
0.12 0.09 0.06 0.04 0.16 0.38 0.37 0.30 0.18 0.17 0.04 0.06 0.08 0.15 0.20 0.32 0.45 0.40 0.47 0.41 0.50 0.30 0.35 0.40 0.12 0.04 0.00 0.00 0.00 0.00 0.00 0.00 0.00 0.00 0.00 0.00 0.00 0.00 0.01 0.01 0.00 0.00 0.00 0.00
0.06 0.03 0.06 0.10 0.15 0.27 0.22 0.13 0.13 0.05 0.03 0.09 0.18 0.35 0.25 0.22 0.25 0.20 0.22 0.30 0.27 0.33 0.42 0.30 0.11 0.06 0.02 0.00 0.00 0.00 0.00 0.00 0.00 0.00 0.00 0.02 0.02 0.00 0.00 0.02 0.05 0.03 0.02 0.02
0.05 0.02 0.03 0.05 0.11 0.06 0.08 0.03 0.05 0.05 0.01 0.10 0.26 0.27 0.15 0.17 0.22 0.16 0.13 0.07 0.11 0.20 0.26 0.15 0.11 0.19 0.11 0.07 0.06 0.06 0.07 0.12 0.04 0.03 0.04 0.13 0.07 0.02 0.01 0.01 0.03 0.05 0.02 0.01
0.05 0.02 0.02 0.01 0.02 0.04 0.04 0.04 0.02 0.02 0.03 0.08 0.11 0.13 0.08 0.08 0.11 0.08 0.07 0.07 0.03 0.04 0.09 0.03 0.01 0.13 0.05 0.14 0.18 0.18 0.41 0.54 0.35 0.22 0.22 0.22 0.15 0.12 0.09 0.06 0.04 0.02 0.02 0.01
0.01 0.01 0.01 0.01 0.01 0.00 0.01 0.02 0.03 0.03 0.05 0.16 0.20 0.10 0.06 0.03 0.03 0.07 0.02 0.02 0.02 0.01 0.00 0.00 0.00 0.01 0.00 0.02 0.08 0.12 0.23 0.35 0.42 0.27 0.22 0.28 0.33 0.32 0.28 0.18 0.18 0.16 0.12 0.08
0.00 0.00 0.00 0.00 0.00 0.00 0.00 0.01 0.01 0.01 0.04 0.14 0.34 0.31 0.07 0.05 0.08 0.02 0.00 0.01 0.01 0.00 0.00 0.00 0.00 0.00 0.00 0.00 0.00 0.00 0.00 0.01 0.07 0.06 0.05 0.06 0.11 0.23 0.24 0.17 0.22 0.27 0.24 0.11

GFSNW_prec_precacc24_075.txt.gz
Total_Precipitation_Accumulation
0.02 0.01 0.00 0.00 0.01 0.02 0.00 0.00 0.00 0.01 0.00 0.00 0.01 0.12 0.24 0.31 0.24 0.06 0.00 0.00 0.00 0.00 0.00 0.00 0.00 0.00 0.00 0.00 0.00 0.00 0.00 0.00 0.02 0.02 0.00 0.00 0.00 0.02 0.00 0.00 0.01 0.00 0.00 0.00
0.01 0.00 0.00 0.00 0.00 0.01 0.00 0.00 0.00 0.00 0.00 0.02 0.06 0.14 0.18 0.21 0.08 0.01 0.00 0.00 0.00 0.00 0.00 0.00 0.00 0.00 0.00 0.00 0.00 0.00 0.00 0.00 0.00 0.01 0.00 0.00 0.00 0.00 0.00 0.00 0.00 0.00 0.00 0.00
0.01 0.00 0.00 0.00 0.00 0.00 0.00 0.00 0.00 0.00 0.00 0.01 0.17 0.36 0.31 0.17 0.01 0.00 0.00 0.00 0.00 0.00 0.00 0.00 0.00 0.00 0.00 0.00 0.00 0.00 0.00 0.00 0.00 0.00 0.00 0.00 0.00 0.00 0.00 0.00 0.00 0.00 0.00 0.00
0.01 0.00 0.00 0.00 0.00 0.00 0.00 0.00 0.00 0.00 0.00 0.00 0.04 0.12 0.09 0.01 0.00 0.00 0.00 0.00 0.00 0.00 0.00 0.00 0.00 0.00 0.00 0.00 0.00 0.00 0.00 0.00 0.00 0.00 0.00 0.00 0.00 0.00 0.00 0.00 0.00 0.00 0.00 0.00
0.00 0.00 0.00 0.00 0.00 0.00 0.00 0.00 0.01 0.01 0.00 0.00 0.02 0.04 0.01 0.00 0.00 0.00 0.00 0.00 0.00 0.00 0.00 0.00 0.00 0.00 0.00 0.00 0.00 0.00 0.00 0.00 0.00 0.00 0.00 0.00 0.00 0.00 0.00 0.00 0.00 0.00 0.00 0.00
0.01 0.00 0.00 0.00 0.00 0.00 0.00 0.01 0.01 0.01 0.00 0.03 0.09 0.06 0.01 0.00 0.01 0.01 0.00 0.00 0.00 0.00 0.00 0.00 0.00 0.00 0.00 0.00 0.00 0.00 0.00 0.00 0.00 0.00 0.00 0.00 0.00 0.00 0.00 0.00 0.00 0.00 0.00 0.00
0.01 0.00 0.00 0.00 0.00 0.00 0.00 0.01 0.01 0.01 0.00 0.00 0.00 0.00 0.00 0.00 0.00 0.01 0.00 0.00 0.00 0.00 0.00 0.00 0.00 0.00 0.00 0.00 0.00 0.00 0.00 0.00 0.00 0.00 0.00 0.00 0.00 0.00 0.00 0.00 0.00 0.00 0.00 0.00
0.01 0.00 0.00 0.00 0.00 0.00 0.00 0.01 0.02 0.03 0.01 0.00 0.00 0.00 0.00 0.00 0.00 0.00 0.00 0.00 0.00 0.00 0.00 0.00 0.00 0.00 0.00 0.00 0.00 0.00 0.00 0.00 0.00 0.01 0.00 0.00 0.00 0.00 0.00 0.00 0.00 0.00 0.00 0.00
0.01 0.00 0.00 0.00 0.00 0.00 0.00 0.00 0.01 0.03 0.03 0.00 0.00 0.00 0.00 0.00 0.00 0.00 0.00 0.00 0.00 0.00 0.01 0.02 0.00 0.00 0.00 0.01 0.01 0.00 0.00 0.00 0.01 0.00 0.00 0.00 0.00 0.00 0.00 0.00 0.04 0.00 0.00 0.00
0.01 0.00 0.00 0.01 0.00 0.00 0.00 0.00 0.00 0.02 0.03 0.00 0.00 0.00 0.00 0.00 0.00 0.00 0.00 0.00 0.00 0.00 0.01 0.02 0.01 0.01 0.00 0.00 0.00 0.01 0.02 0.03 0.04 0.01 0.00 0.00 0.00 0.00 0.00 0.03 0.04 0.00 0.00 0.00
0.01 0.01 0.01 0.01 0.01 0.00 0.00 0.00 0.00 0.00 0.01 0.00 0.00 0.00 0.00 0.00 0.01 0.01 0.00 0.01 0.00 0.00 0.01 0.02 0.01 0.01 0.00 0.00 0.00 0.00 0.00 0.01 0.02 0.03 0.01 0.00 0.00 0.00 0.00 0.01 0.00 0.00 0.00 0.00
0.01 0.01 0.01 0.01 0.01 0.01 0.00 0.00 0.00 0.01 0.02 0.00 0.00 0.00 0.00 0.00 0.00 0.00 0.00 0.01 0.00 0.01 0.01 0.01 0.01 0.00 0.00 0.00 0.00 0.00 0.00 0.00 0.00 0.00 0.00 0.00 0.00 0.00 0.00 0.00 0.00 0.00 0.00 0.00
0.03 0.03 0.03 0.01 0.01 0.01 0.01 0.00 0.00 0.02 0.04 0.00 0.00 0.00 0.00 0.00 0.00 0.00 0.00 0.01 0.02 0.03 0.01 0.03 0.01 0.00 0.00 0.00 0.00 0.00 0.00 0.00 0.00 0.00 0.00 0.00 0.00 0.00 0.00 0.00 0.00 0.00 0.00 0.00
0.05 0.06 0.06 0.04 0.02 0.02 0.02 0.02 0.02 0.06 0.07 0.04 0.01 0.01 0.01 0.00 0.00 0.00 0.00 0.00 0.00 0.00 0.00 0.03 0.02 0.01 0.00 0.00 0.00 0.00 0.00 0.00 0.00 0.00 0.00 0.00 0.00 0.00 0.00 0.00 0.00 0.00 0.00 0.00
0.05 0.09 0.12 0.07 0.07 0.05 0.03 0.02 0.02 0.04 0.09 0.09 0.04 0.00 0.00 0.01 0.01 0.00 0.00 0.00 0.01 0.02 0.06 0.07 0.02 0.01 0.00 0.00 0.00 0.00 0.00 0.00 0.00 0.00 0.00 0.00 0.00 0.00 0.00 0.00 0.00 0.00 0.00 0.00
0.09 0.15 0.16 0.15 0.09 0.08 0.08 0.02 0.02 0.01 0.05 0.16 0.05 0.01 0.00 0.00 0.02 0.05 0.02 0.01 0.01 0.05 0.16 0.13 0.05 0.01 0.02 0.02 0.01 0.00 0.00 0.00 0.00 0.00 0.00 0.00 0.00 0.00 0.00 0.00 0.00 0.00 0.00 0.00
0.19 0.23 0.20 0.16 0.15 0.13 0.08 0.05 0.25 0.06 0.06 0.19 0.12 0.03 0.02 0.03 0.04 0.08 0.12 0.07 0.06 0.11 0.21 0.14 0.06 0.04 0.10 0.08 0.01 0.00 0.00 0.00 0.00 0.00 0.00 0.00 0.00 0.00 0.00 0.00 0.00 0.00 0.00 0.00
0.22 0.14 0.12 0.15 0.16 0.17 0.09 0.03 0.15 0.21 0.22 0.26 0.26 0.14 0.16 0.20 0.21 0.20 0.17 0.27 0.20 0.23 0.20 0.14 0.06 0.08 0.16 0.12 0.00 0.00 0.00 0.00 0.00 0.00 0.00 0.00 0.00 0.00 0.00 0.00 0.00 0.00 0.00 0.00
0.09 0.06 0.07 0.07 0.03 0.05 0.05 0.19 0.30 0.24 0.37 0.37 0.22 0.30 0.32 0.36 0.49 0.28 0.51 0.31 0.47 0.24 0.22 0.11 0.16 0.15 0.13 0.02 0.00 0.00 0.00 0.00 0.00 0.00 0.00 0.00 0.00 0.00 0.00 0.00 0.00 0.00 0.00 0.00
0.16 0.11 0.11 0.09 0.04 0.12 0.25 0.46 0.54 0.47 0.38 0.25 0.15 0.21 0.45 0.44 0.49 0.45 0.66 0.47 0.31 0.30 0.13 0.18 0.23 0.09 0.03 0.01 0.00 0.00 0.00 0.00 0.00 0.00 0.00 0.00 0.00 0.00 0.00 0.00 0.00 0.00 0.00 0.00
0.12 0.10 0.09 0.04 0.07 0.28 0.43 0.50 0.38 0.27 0.16 0.07 0.05 0.08 0.31 0.52 0.65 0.58 0.42 0.63 0.35 0.20 0.17 0.31 0.22 0.13 0.05 0.01 0.00 0.00 0.00 0.00 0.00 0.00 0.00 0.00 0.00 0.00 0.00 0.00 0.00 0.00 0.00 0.00
0.12 0.09 0.06 0.03 0.08 0.28 0.37 0.32 0.19 0.18 0.04 0.07 0.12 0.22 0.31 0.43 0.53 0.45 0.54 0.41 0.52 0.28 0.30 0.35 0.11 0.04 0.00 0.00 0.00 0.00 0.00 0.00 0.00 0.00 0.00 0.00 0.00 0.00 0.00 0.00 0.00 0.00 0.00 0.00
0.06 0.03 0.06 0.09 0.13 0.24 0.21 0.13 0.14 0.08 0.10 0.15 0.24 0.41 0.35 0.36 0.41 0.27 0.27 0.35 0.28 0.31 0.35 0.19 0.08 0.05 0.02 0.00 0.00 0.00 0.00 0.00 0.00 0.00 0.00 0.00 0.01 0.00 0.00 0.00 0.01 0.02 0.02 0.02
0.05 0.02 0.03 0.06 0.11 0.05 0.06 0.03 0.08 0.09 0.03 0.10 0.26 0.29 0.22 0.25 0.34 0.26 0.19 0.14 0.15 0.20 0.18 0.10 0.11 0.23 0.16 0.09 0.06 0.06 0.06 0.08 0.04 0.03 0.03 0.11 0.06 0.02 0.01 0.01 0.03 0.05 0.02 0.01
0.05 0.02 0.02 0.01 0.01 0.03 0.04 0.04 0.02 0.02 0.03 0.08 0.12 0.14 0.10 0.09 0.14 0.11 0.14 0.12 0.06 0.04 0.09 0.03 0.04 0.31 0.16 0.18 0.26 0.31 0.49 0.58 0.38 0.23 0.22 0.22 0.15 0.12 0.10 0.06 0.05 0.03 0.03 0.02
0.01 0.01 0.01 0.01 0.01 0.00 0.01 0.02 0.03 0.03 0.05 0.16 0.21 0.11 0.07 0.03 0.03 0.07 0.04 0.06 0.14 0.10 0.02 0.00 0.00 0.02 0.02 0.03 0.09 0.16 0.30 0.41 0.44 0.28 0.22 0.28 0.33 0.32 0.28 0.18 0.17 0.15 0.13 0.09
0.00 0.00 0.00 0.00 0.00 0.00 0.00 0.01 0.02 0.01 0.04 0.14 0.34 0.31 0.07 0.06 0.08 0.02 0.01 0.06 0.11 0.05 0.00 0.00 0.00 0.00 0.00 0.00 0.00 0.00 0.00 0.01 0.07 0.06 0.05 0.06 0.11 0.23 0.24 0.17 0.22 0.26 0.25 0.12

GFSNW_prec_precacc24_078.txt.gz
Total_Precipitation_Accumulation
0.01 0.01 0.00 0.00 0.01 0.01 0.00 0.00 0.00 0.00 0.00 0.00 0.01 0.07 0.15 0.12 0.04 0.00 0.00 0.00 0.00 0.00 0.00 0.00 0.00 0.01 0.00 0.00 0.00 0.00 0.00 0.00 0.03 0.03 0.00 0.00 0.00 0.02 0.00 0.00 0.01 0.00 0.00 0.00
0.01 0.00 0.00 0.00 0.00 0.00 0.00 0.00 0.00 0.00 0.00 0.02 0.04 0.08 0.07 0.03 0.00 0.00 0.00 0.00 0.00 0.00 0.00 0.00 0.00 0.00 0.00 0.00 0.00 0.00 0.00 0.00 0.01 0.03 0.01 0.01 0.00 0.00 0.00 0.00 0.00 0.00 0.00 0.00
0.01 0.00 0.00 0.00 0.00 0.00 0.00 0.00 0.00 0.00 0.00 0.01 0.11 0.20 0.08 0.01 0.00 0.00 0.00 0.00 0.00 0.00 0.00 0.00 0.00 0.00 0.00 0.00 0.00 0.00 0.00 0.00 0.00 0.00 0.00 0.00 0.00 0.00 0.00 0.00 0.00 0.00 0.00 0.00
0.00 0.00 0.00 0.00 0.00 0.00 0.00 0.00 0.00 0.00 0.00 0.00 0.02 0.03 0.03 0.00 0.00 0.00 0.00 0.00 0.00 0.00 0.00 0.00 0.00 0.00 0.00 0.00 0.00 0.00 0.00 0.00 0.00 0.00 0.00 0.00 0.00 0.00 0.00 0.00 0.00 0.00 0.00 0.00
0.00 0.00 0.00 0.00 0.00 0.00 0.00 0.00 0.01 0.00 0.00 0.00 0.00 0.00 0.00 0.00 0.00 0.00 0.00 0.00 0.00 0.00 0.00 0.00 0.00 0.00 0.00 0.00 0.00 0.00 0.00 0.00 0.00 0.00 0.00 0.00 0.00 0.00 0.00 0.00 0.00 0.00 0.00 0.00
0.01 0.00 0.00 0.00 0.00 0.00 0.00 0.00 0.01 0.01 0.00 0.00 0.00 0.00 0.00 0.00 0.00 0.01 0.01 0.00 0.00 0.00 0.00 0.00 0.00 0.00 0.00 0.00 0.00 0.00 0.00 0.00 0.00 0.00 0.00 0.00 0.00 0.00 0.00 0.00 0.00 0.00 0.00 0.00
0.01 0.00 0.00 0.00 0.00 0.00 0.00 0.00 0.01 0.01 0.00 0.00 0.00 0.00 0.00 0.00 0.00 0.01 0.00 0.00 0.00 0.00 0.00 0.00 0.00 0.00 0.00 0.00 0.00 0.00 0.00 0.00 0.00 0.00 0.00 0.00 0.00 0.00 0.00 0.00 0.00 0.00 0.00 0.00
0.01 0.00 0.00 0.00 0.00 0.00 0.00 0.00 0.01 0.02 0.01 0.00 0.00 0.00 0.00 0.00 0.00 0.00 0.00 0.00 0.00 0.00 0.00 0.01 0.00 0.01 0.00 0.00 0.00 0.00 0.00 0.00 0.00 0.00 0.00 0.00 0.00 0.00 0.00 0.00 0.00 0.00 0.00 0.00
0.01 0.00 0.00 0.00 0.00 0.00 0.00 0.00 0.00 0.02 0.02 0.00 0.00 0.00 0.00 0.00 0.00 0.00 0.01 0.00 0.00 0.00 0.02 0.03 0.00 0.00 0.00 0.01 0.00 0.00 0.00 0.00 0.00 0.00 0.00 0.00 0.00 0.00 0.00 0.00 0.04 0.00 0.00 0.00
0.01 0.00 0.00 0.01 0.00 0.00 0.00 0.00 0.00 0.01 0.02 0.00 0.00 0.00 0.00 0.00 0.01 0.01 0.01 0.01 0.01 0.01 0.01 0.03 0.01 0.01 0.00 0.00 0.00 0.01 0.01 0.02 0.02 0.01 0.00 0.00 0.00 0.00 0.00 0.03 0.04 0.00 0.00 0.00
0.02 0.01 0.01 0.01 0.00 0.00 0.00 0.00 0.00 0.00 0.00 0.00 0.00 0.00 0.00 0.00 0.01 0.01 0.01 0.02 0.01 0.01 0.01 0.01 0.02 0.01 0.00 0.00 0.00 0.00 0.00 0.01 0.01 0.02 0.01 0.00 0.00 0.00 0.00 0.01 0.00 0.00 0.00 0.00
0.03 0.03 0.03 0.02 0.01 0.01 0.00 0.00 0.00 0.00 0.01 0.00 0.00 0.00 0.00 0.00 0.00 0.00 0.00 0.02 0.02 0.05 0.02 0.02 0.01 0.01 0.00 0.00 0.00 0.00 0.00 0.00 0.00 0.00 0.00 0.00 0.00 0.00 0.00 0.00 0.00 0.00 0.00 0.00
0.04 0.04 0.05 0.05 0.07 0.04 0.02 0.01 0.01 0.02 0.03 0.00 0.00 0.00 0.00 0.00 0.00 0.00 0.00 0.01 0.02 0.06 0.05 0.04 0.02 0.01 0.00 0.00 0.00 0.00 0.00 0.00 0.00 0.00 0.00 0.00 0.00 0.00 0.00 0.00 0.00 0.00 0.00 0.00
0.05 0.07 0.08 0.10 0.10 0.06 0.03 0.03 0.02 0.06 0.09 0.07 0.00 0.00 0.00 0.00 0.00 0.00 0.00 0.00 0.00 0.00 0.03 0.07 0.02 0.01 0.00 0.00 0.00 0.00 0.00 0.00 0.00 0.00 0.00 0.00 0.00 0.00 0.00 0.00 0.00 0.00 0.00 0.00
0.05 0.09 0.12 0.11 0.11 0.08 0.05 0.03 0.02 0.04 0.11 0.10 0.02 0.00 0.00 0.01 0.01 0.00 0.00 0.00 0.01 0.02 0.07 0.08 0.03 0.01 0.00 0.00 0.00 0.00 0.00 0.00 0.00 0.00 0.00 0.00 0.00 0.00 0.00 0.00 0.00 0.00 0.00 0.00
0.09 0.14 0.16 0.15 0.13 0.14 0.12 0.02 0.02 0.01 0.05 0.18 0.05 0.01 0.00 0.00 0.02 0.05 0.02 0.01 0.01 0.05 0.17 0.15 0.06 0.01 0.02 0.02 0.00 0.00 0.00 0.00 0.00 0.00 0.00 0.00 0.00 0.00 0.00 0.00 0.00 0.00 0.00 0.00
0.19 0.23 0.20 0.17 0.16 0.14 0.08 0.04 0.21 0.04 0.06 0.19 0.11 0.03 0.02 0.04 0.04 0.08 0.12 0.07 0.05 0.09 0.19 0.14 0.08 0.04 0.10 0.07 0.01 0.00 0.00 0.00 0.00 0.00 0.00 0.00 0.00 0.00 0.00 0.00 0.00 0.00 0.00 0.00
0.22 0.14 0.12 0.14 0.15 0.16 0.10 0.03 0.15 0.21 0.22 0.26 0.26 0.13 0.16 0.22 0.26 0.20 0.17 0.27 0.16 0.21 0.17 0.12 0.06 0.08 0.16 0.13 0.00 0.00 0.00 0.00 0.00 0.00 0.00 0.00 0.00 0.00 0.00 0.00 0.00 0.00 0.00 0.00
0.09 0.06 0.07 0.06 0.04 0.05 0.05 0.18 0.30 0.24 0.36 0.35 0.22 0.30 0.32 0.36 0.53 0.32 0.54 0.30 0.48 0.20 0.19 0.10 0.14 0.14 0.12 0.02 0.00 0.00 0.00 0.00 0.00 0.00 0.00 0.00 0.00 0.00 0.00 0.00 0.00 0.00 0.00 0.00
0.16 0.12 0.11 0.09 0.03 0.08 0.21 0.43 0.51 0.46 0.37 0.23 0.14 0.21 0.46 0.45 0.50 0.47 0.72 0.43 0.29 0.29 0.09 0.15 0.23 0.08 0.02 0.00 0.00 0.00 0.00 0.00 0.00 0.00 0.00 0.00 0.00 0.00 0.00 0.00 0.00 0.00 0.00 0.00
0.12 0.10 0.09 0.04 0.07 0.25 0.40 0.48 0.37 0.25 0.16 0.07 0.04 0.09 0.33 0.55 0.68 0.59 0.45 0.67 0.30 0.17 0.12 0.24 0.16 0.07 0.02 0.00 0.00 0.00 0.00 0.00 0.00 0.00 0.00 0.00 0.00 0.00 0.00 0.00 0.00 0.00 0.00 0.00
0.12 0.09 0.06 0.03 0.08 0.21 0.32 0.29 0.18 0.16 0.04 0.07 0.14 0.24 0.38 0.52 0.61 0.47 0.59 0.44 0.51 0.25 0.22 0.29 0.08 0.03 0.00 0.00 0.00 0.00 0.00 0.00 0.00 0.00 0.00 0.00 0.00 0.00 0.00 0.00 0.00 0.00 0.00 0.00
0.06 0.03 0.06 0.08 0.10 0.19 0.20 0.11 0.13 0.09 0.13 0.18 0.25 0.42 0.39 0.46 0.54 0.34 0.31 0.38 0.28 0.31 0.32 0.13 0.05 0.05 0.04 0.00 0.00 0.00 0.00 0.00 0.00 0.00 0.00 0.00 0.00 0.00 0.00 0.00 0.00 0.00 0.01 0.01
0.05 0.02 0.03 0.05 0.10 0.05 0.05 0.03 0.08 0.10 0.03 0.11 0.27 0.30 0.22 0.28 0.40 0.35 0.25 0.19 0.17 0.18 0.11 0.05 0.11 0.25 0.19 0.10 0.08 0.07 0.07 0.04 0.04 0.03 0.02 0.05 0.03 0.02 0.02 0.01 0.00 0.02 0.01 0.01
0.05 0.02 0.01 0.01 0.01 0.03 0.04 0.04 0.02 0.02 0.03 0.09 0.12 0.14 0.10 0.10 0.15 0.12 0.16 0.16 0.08 0.05 0.10 0.03 0.07 0.43 0.31 0.20 0.30 0.37 0.40 0.39 0.36 0.24 0.21 0.22 0.15 0.12 0.09 0.06 0.05 0.03 0.03 0.02
0.01 0.01 0.01 0.00 0.01 0.00 0.01 0.02 0.03 0.04 0.05 0.16 0.21 0.11 0.07 0.04 0.04 0.07 0.04 0.08 0.23 0.22 0.08 0.01 0.01 0.06 0.05 0.05 0.12 0.20 0.31 0.42 0.46 0.29 0.22 0.27 0.31 0.32 0.28 0.17 0.16 0.12 0.11 0.09
0.00 0.00 0.00 0.00 0.00 0.00 0.00 0.01 0.01 0.01 0.04 0.13 0.32 0.31 0.08 0.06 0.08 0.02 0.02 0.08 0.15 0.13 0.04 0.00 0.00 0.00 0.00 0.00 0.00 0.01 0.02 0.03 0.08 0.06 0.05 0.06 0.11 0.23 0.24 0.17 0.22 0.23 0.20 0.11

GFSNW_prec_precacc24_081.txt.gz
Total_Precipitation_Accumulation
0.01 0.00 0.00 0.00 0.00 0.01 0.00 0.00 0.00 0.00 0.00 0.00 0.00 0.03 0.04 0.03 0.00 0.00 0.00 0.00 0.00 0.00 0.00 0.00 0.01 0.02 0.01 0.00 0.00 0.00 0.00 0.00 0.04 0.03 0.00 0.00 0.00 0.02 0.00 0.00 0.02 0.00 0.00 0.00
0.00 0.00 0.00 0.00 0.00 0.00 0.00 0.00 0.00 0.00 0.00 0.01 0.01 0.00 0.00 0.00 0.00 0.00 0.00 0.00 0.00 0.00 0.00 0.00 0.00 0.00 0.00 0.00 0.00 0.00 0.00 0.00 0.02 0.04 0.02 0.01 0.01 0.00 0.00 0.00 0.00 0.00 0.00 0.00
0.01 0.00 0.00 0.00 0.00 0.00 0.00 0.00 0.00 0.00 0.00 0.00 0.01 0.01 0.00 0.00 0.00 0.00 0.00 0.00 0.00 0.00 0.00 0.00 0.00 0.00 0.00 0.00 0.00 0.00 0.00 0.00 0.00 0.00 0.00 0.00 0.00 0.00 0.00 0.00 0.00 0.00 0.00 0.00
0.00 0.00 0.00 0.00 0.00 0.00 0.00 0.00 0.00 0.00 0.00 0.00 0.00 0.00 0.00 0.00 0.00 0.00 0.00 0.00 0.00 0.00 0.00 0.00 0.00 0.00 0.00 0.00 0.00 0.00 0.00 0.00 0.00 0.00 0.00 0.00 0.00 0.00 0.00 0.00 0.00 0.00 0.00 0.00
0.00 0.00 0.00 0.00 0.00 0.00 0.00 0.00 0.01 0.00 0.00 0.00 0.00 0.00 0.00 0.00 0.00 0.00 0.01 0.00 0.00 0.00 0.00 0.00 0.00 0.00 0.00 0.00 0.00 0.00 0.00 0.00 0.00 0.00 0.00 0.00 0.00 0.00 0.00 0.00 0.00 0.00 0.00 0.00
0.01 0.00 0.00 0.00 0.00 0.00 0.00 0.00 0.01 0.01 0.00 0.00 0.00 0.00 0.00 0.00 0.01 0.02 0.03 0.01 0.00 0.00 0.00 0.00 0.00 0.00 0.00 0.00 0.00 0.00 0.00 0.00 0.00 0.00 0.00 0.00 0.00 0.00 0.00 0.00 0.00 0.00 0.00 0.00
0.01 0.00 0.00 0.00 0.00 0.00 0.00 0.00 0.01 0.01 0.00 0.00 0.00 0.00 0.00 0.00 0.00 0.03 0.02 0.02 0.00 0.00 0.00 0.00 0.00 0.00 0.00 0.00 0.00 0.00 0.00 0.00 0.00 0.00 0.00 0.00 0.00 0.00 0.00 0.00 0.00 0.00 0.00 0.00
0.01 0.00 0.00 0.00 0.00 0.00 0.00 0.00 0.01 0.02 0.01 0.00 0.00 0.00 0.00 0.00 0.00 0.01 0.02 0.03 0.02 0.00 0.00 0.01 0.01 0.01 0.00 0.00 0.00 0.00 0.00 0.00 0.00 0.00 0.00 0.00 0.00 0.00 0.00 0.00 0.00 0.00 0.00 0.00
0.01 0.00 0.00 0.00 0.00 0.00 0.00 0.00 0.00 0.02 0.02 0.00 0.00 0.00 0.00 0.00 0.00 0.01 0.07 0.11 0.03 0.00 0.02 0.06 0.01 0.01 0.00 0.01 0.00 0.00 0.00 0.00 0.00 0.00 0.00 0.00 0.00 0.00 0.00 0.00 0.04 0.00 0.00 0.00
0.01 0.01 0.00 0.01 0.00 0.00 0.00 0.00 0.00 0.01 0.02 0.00 0.00 0.00 0.00 0.00 0.01 0.01 0.04 0.07 0.04 0.03 0.02 0.06 0.05 0.01 0.00 0.00 0.00 0.00 0.01 0.01 0.01 0.00 0.00 0.00 0.00 0.00 0.00 0.03 0.04 0.00 0.00 0.00
0.02 0.02 0.03 0.02 0.01 0.00 0.00 0.00 0.00 0.00 0.00 0.00 0.00 0.00 0.00 0.00 0.01 0.01 0.01 0.04 0.12 0.04 0.03 0.02 0.02 0.01 0.00 0.00 0.00 0.00 0.00 0.01 0.01 0.01 0.01 0.00 0.00 0.00 0.00 0.01 0.00 0.00 0.00 0.00
0.03 0.04 0.06 0.05 0.03 0.02 0.01 0.00 0.00 0.00 0.01 0.00 0.00 0.00 0.00 0.00 0.00 0.00 0.00 0.04 0.07 0.11 0.07 0.03 0.02 0.01 0.00 0.00 0.00 0.00 0.00 0.00 0.00 0.00 0.00 0.00 0.00 0.00 0.00 0.00 0.00 0.00 0.00 0.00
0.04 0.04 0.05 0.06 0.10 0.09 0.05 0.01 0.01 0.02 0.03 0.00 0.00 0.00 0.00 0.00 0.00 0.00 0.00 0.01 0.02 0.14 0.29 0.14 0.06 0.02 0.00 0.00 0.00 0.00 0.00 0.00 0.00 0.00 0.00 0.00 0.00 0.00 0.00 0.00 0.00 0.00 0.00 0.00
0.05 0.06 0.08 0.10 0.11 0.07 0.04 0.03 0.02 0.05 0.09 0.08 0.00 0.00 0.00 0.00 0.00 0.00 0.00 0.00 0.00 0.00 0.04 0.16 0.11 0.03 0.00 0.00 0.00 0.00 0.00 0.00 0.00 0.00 0.00 0.00 0.00 0.00 0.00 0.00 0.00 0.00 0.00 0.00
0.05 0.08 0.12 0.11 0.11 0.10 0.05 0.02 0.02 0.04 0.10 0.10 0.01 0.00 0.00 0.01 0.01 0.00 0.00 0.00 0.01 0.02 0.07 0.09 0.07 0.02 0.00 0.00 0.00 0.00 0.00 0.00 0.00 0.00 0.00 0.00 0.00 0.00 0.00 0.00 0.00 0.00 0.00 0.00
0.09 0.14 0.16 0.16 0.13 0.13 0.11 0.02 0.02 0.01 0.05 0.19 0.05 0.01 0.00 0.00 0.02 0.05 0.02 0.01 0.01 0.05 0.16 0.14 0.06 0.01 0.02 0.01 0.00 0.00 0.00 0.00 0.00 0.00 0.00 0.00 0.00 0.00 0.00 0.00 0.00 0.00 0.00 0.00
0.19 0.23 0.21 0.17 0.16 0.12 0.07 0.03 0.16 0.03 0.05 0.18 0.11 0.03 0.02 0.04 0.04 0.08 0.12 0.07 0.05 0.09 0.17 0.11 0.07 0.04 0.09 0.07 0.01 0.00 0.00 0.00 0.00 0.00 0.00 0.00 0.00 0.00 0.00 0.00 0.00 0.00 0.00 0.00
0.23 0.14 0.11 0.11 0.12 0.14 0.09 0.03 0.10 0.18 0.21 0.25 0.25 0.13 0.16 0.22 0.27 0.21 0.17 0.27 0.16 0.20 0.15 0.10 0.05 0.06 0.11 0.10 0.00 0.00 0.00 0.00 0.00 0.00 0.00 0.00 0.00 0.00 0.00 0.00 0.00 0.00 0.00 0.00
0.09 0.06 0.06 0.05 0.04 0.05 0.04 0.11 0.20 0.21 0.32 0.31 0.21 0.30 0.32 0.36 0.53 0.34 0.57 0.31 0.50 0.19 0.19 0.09 0.13 0.11 0.09 0.01 0.00 0.00 0.00 0.00 0.00 0.00 0.00 0.00 0.00 0.00 0.00 0.00 0.00 0.00 0.00 0.00
0.17 0.12 0.11 0.09 0.02 0.05 0.15 0.34 0.44 0.42 0.34 0.20 0.13 0.21 0.46 0.46 0.50 0.47 0.75 0.43 0.28 0.30 0.08 0.11 0.19 0.07 0.01 0.00 0.00 0.00 0.00 0.00 0.00 0.00 0.00 0.00 0.00 0.00 0.00 0.00 0.00 0.00 0.00 0.00
0.12 0.10 0.09 0.04 0.02 0.14 0.34 0.42 0.30 0.21 0.15 0.07 0.04 0.09 0.34 0.56 0.68 0.58 0.43 0.69 0.27 0.14 0.07 0.17 0.12 0.03 0.01 0.00 0.00 0.00 0.00 0.00 0.00 0.00 0.00 0.00 0.00 0.00 0.00 0.00 0.00 0.00 0.00 0.00
0.12 0.09 0.06 0.03 0.05 0.15 0.30 0.26 0.17 0.14 0.03 0.07 0.15 0.25 0.39 0.55 0.64 0.46 0.54 0.46 0.49 0.21 0.18 0.23 0.05 0.01 0.00 0.00 0.00 0.00 0.00 0.00 0.00 0.00 0.00 0.00 0.00 0.00 0.00 0.00 0.00 0.00 0.00 0.00
0.06 0.03 0.06 0.07 0.08 0.16 0.16 0.10 0.12 0.09 0.13 0.19 0.25 0.42 0.40 0.48 0.61 0.38 0.35 0.39 0.25 0.30 0.33 0.13 0.04 0.06 0.06 0.01 0.00 0.00 0.00 0.00 0.00 0.00 0.00 0.00 0.00 0.00 0.00 0.00 0.00 0.00 0.00 0.00
0.05 0.02 0.03 0.04 0.07 0.04 0.04 0.03 0.08 0.10 0.03 0.11 0.27 0.30 0.22 0.28 0.41 0.39 0.29 0.21 0.18 0.16 0.07 0.05 0.11 0.26 0.20 0.11 0.09 0.09 0.08 0.03 0.03 0.03 0.02 0.03 0.02 0.02 0.02 0.01 0.00 0.00 0.00 0.00
0.05 0.02 0.01 0.01 0.01 0.02 0.04 0.04 0.02 0.02 0.03 0.09 0.12 0.14 0.11 0.09 0.15 0.14 0.18 0.18 0.11 0.09 0.15 0.07 0.11 0.49 0.37 0.21 0.31 0.38 0.37 0.26 0.23 0.21 0.16 0.15 0.14 0.11 0.08 0.06 0.04 0.03 0.03 0.02
0.01 0.01 0.01 0.00 0.01 0.00 0.01 0.02 0.03 0.04 0.05 0.16 0.21 0.11 0.08 0.04 0.05 0.08 0.05 0.11 0.28 0.28 0.15 0.05 0.04 0.14 0.15 0.07 0.14 0.23 0.32 0.34 0.34 0.27 0.21 0.23 0.26 0.28 0.27 0.17 0.15 0.12 0.10 0.09
0.00 0.00 0.00 0.00 0.00 0.00 0.00 0.01 0.01 0.01 0.03 0.11 0.29 0.29 0.08 0.06 0.07 0.02 0.02 0.09 0.17 0.19 0.13 0.06 0.02 0.00 0.00 0.01 0.01 0.02 0.04 0.04 0.07 0.06 0.05 0.05 0.06 0.13 0.20 0.17 0.21 0.21 0.15 0.09

GFSNW_prec_precacc24_084.txt.gz
Total_Precipitation_Accumulation
0.01 0.00 0.00 0.00 0.00 0.00 0.00 0.00 0.00 0.00 0.00 0.00 0.00 0.01 0.01 0.00 0.00 0.00 0.00 0.00 0.00 0.00 0.00 0.00 0.03 0.05 0.02 0.04 0.02 0.00 0.00 0.00 0.04 0.05 0.00 0.01 0.00 0.02 0.00 0.00 0.02 0.00 0.00 0.00
0.00 0.00 0.00 0.00 0.00 0.00 0.00 0.00 0.00 0.00 0.00 0.00 0.00 0.00 0.00 0.00 0.00 0.00 0.00 0.00 0.00 0.00 0.00 0.00 0.00 0.00 0.00 0.00 0.00 0.00 0.00 0.00 0.02 0.04 0.03 0.01 0.01 0.00 0.00 0.00 0.00 0.00 0.00 0.00
0.01 0.00 0.00 0.00 0.00 0.00 0.00 0.00 0.00 0.00 0.00 0.00 0.00 0.00 0.00 0.00 0.00 0.00 0.00 0.01 0.00 0.00 0.00 0.00 0.00 0.03 0.03 0.00 0.00 0.00 0.00 0.00 0.00 0.00 0.00 0.00 0.00 0.00 0.00 0.00 0.00 0.00 0.00 0.00
0.00 0.00 0.00 0.00 0.00 0.00 0.00 0.00 0.00 0.00 0.00 0.00 0.00 0.00 0.00 0.00 0.00 0.00 0.01 0.01 0.02 0.00 0.00 0.00 0.00 0.00 0.01 0.00 0.00 0.00 0.00 0.00 0.00 0.00 0.00 0.00 0.00 0.00 0.00 0.00 0.00 0.00 0.00 0.00
0.00 0.00 0.00 0.00 0.00 0.00 0.00 0.00 0.01 0.00 0.00 0.00 0.00 0.00 0.00 0.00 0.01 0.01 0.02 0.04 0.05 0.00 0.00 0.00 0.00 0.00 0.00 0.00 0.00 0.00 0.00 0.00 0.00 0.00 0.00 0.00 0.00 0.00 0.00 0.00 0.00 0.00 0.00 0.00
0.01 0.00 0.00 0.00 0.00 0.00 0.00 0.00 0.00 0.01 0.00 0.00 0.00 0.00 0.00 0.00 0.01 0.02 0.04 0.09 0.12 0.02 0.00 0.00 0.00 0.00 0.00 0.00 0.00 0.00 0.00 0.00 0.00 0.00 0.00 0.00 0.00 0.00 0.00 0.00 0.00 0.00 0.00 0.00
0.01 0.00 0.00 0.00 0.00 0.00 0.00 0.00 0.01 0.01 0.00 0.00 0.00 0.00 0.00 0.00 0.00 0.03 0.02 0.09 0.15 0.04 0.01 0.00 0.00 0.00 0.00 0.00 0.00 0.00 0.00 0.00 0.00 0.00 0.00 0.00 0.00 0.00 0.00 0.00 0.00 0.00 0.00 0.00
0.01 0.00 0.00 0.00 0.00 0.00 0.00 0.00 0.01 0.02 0.00 0.00 0.00 0.00 0.00 0.00 0.00 0.01 0.02 0.05 0.11 0.05 0.05 0.02 0.01 0.01 0.00 0.00 0.00 0.00 0.00 0.00 0.00 0.00 0.00 0.00 0.00 0.00 0.00 0.00 0.00 0.00 0.00 0.00
0.01 0.00 0.00 0.00 0.00 0.00 0.00 0.00 0.00 0.01 0.01 0.00 0.00 0.00 0.00 0.00 0.00 0.01 0.08 0.15 0.21 0.08 0.03 0.09 0.01 0.01 0.00 0.00 0.00 0.00 0.00 0.00 0.00 0.00 0.00 0.00 0.00 0.00 0.00 0.00 0.03 0.00 0.00 0.00
0.01 0.01 0.00 0.00 0.00 0.00 0.00 0.00 0.00 0.01 0.01 0.00 0.00 0.00 0.00 0.00 0.01 0.01 0.05 0.13 0.23 0.07 0.02 0.11 0.10 0.01 0.00 0.00 0.00 0.00 0.00 0.00 0.00 0.00 0.00 0.00 0.00 0.00 0.00 0.03 0.04 0.00 0.00 0.00
0.02 0.03 0.04 0.03 0.01 0.02 0.00 0.00 0.00 0.00 0.00 0.00 0.00 0.00 0.00 0.00 0.01 0.01 0.01 0.06 0.25 0.24 0.06 0.05 0.06 0.03 0.00 0.00 0.00 0.00 0.00 0.00 0.01 0.01 0.00 0.00 0.00 0.00 0.00 0.01 0.00 0.00 0.00 0.00
0.03 0.04 0.05 0.05 0.04 0.03 0.02 0.01 0.00 0.00 0.01 0.00 0.00 0.00 0.00 0.00 0.00 0.00 0.00 0.05 0.11 0.17 0.14 0.11 0.02 0.03 0.03 0.00 0.00 0.00 0.00 0.00 0.00 0.00 0.00 0.00 0.00 0.00 0.00 0.00 0.00 0.00 0.00 0.00
0.03 0.04 0.05 0.06 0.10 0.10 0.04 0.01 0.01 0.02 0.03 0.00 0.00 0.00 0.00 0.00 0.00 0.00 0.00 0.01 0.02 0.14 0.31 0.22 0.11 0.02 0.00 0.02 0.01 0.00 0.00 0.00 0.00 0.00 0.00 0.00 0.00 0.00 0.00 0.00 0.00 0.00 0.00 0.00
0.04 0.06 0.08 0.10 0.10 0.07 0.04 0.03 0.02 0.05 0.08 0.07 0.00 0.00 0.00 0.00 0.00 0.00 0.00 0.00 0.00 0.00 0.04 0.17 0.17 0.13 0.03 0.00 0.00 0.00 0.00 0.00 0.00 0.00 0.00 0.00 0.00 0.00 0.00 0.00 0.00 0.00 0.00 0.00
0.04 0.08 0.11 0.10 0.11 0.11 0.06 0.03 0.02 0.04 0.08 0.07 0.01 0.00 0.00 0.00 0.01 0.00 0.00 0.00 0.01 0.02 0.07 0.10 0.09 0.07 0.00 0.00 0.00 0.00 0.00 0.00 0.00 0.00 0.00 0.00 0.00 0.00 0.00 0.00 0.00 0.00 0.00 0.00
0.08 0.13 0.15 0.16 0.13 0.13 0.09 0.02 0.02 0.01 0.05 0.15 0.04 0.01 0.00 0.00 0.02 0.05 0.02 0.01 0.01 0.05 0.16 0.13 0.06 0.01 0.02 0.01 0.00 0.00 0.00 0.00 0.00 0.00 0.00 0.00 0.00 0.00 0.00 0.00 0.00 0.00 0.00 0.00
0.18 0.22 0.21 0.18 0.16 0.10 0.05 0.02 0.09 0.02 0.02 0.10 0.09 0.03 0.02 0.03 0.05 0.08 0.12 0.07 0.05 0.08 0.16 0.10 0.06 0.04 0.08 0.05 0.01 0.00 0.00 0.00 0.00 0.00 0.00 0.00 0.00 0.00 0.00 0.00 0.00 0.00 0.00 0.00
0.22 0.15 0.12 0.10 0.08 0.10 0.08 0.02 0.06 0.06 0.10 0.16 0.21 0.13 0.16 0.21 0.26 0.21 0.17 0.26 0.15 0.19 0.15 0.10 0.05 0.05 0.06 0.06 0.00 0.00 0.00 0.00 0.00 0.00 0.00 0.00 0.00 0.00 0.00 0.00 0.00 0.00 0.00 0.00
0.10 0.06 0.05 0.04 0.03 0.05 0.03 0.03 0.07 0.08 0.19 0.25 0.20 0.29 0.32 0.36 0.52 0.34 0.57 0.31 0.51 0.18 0.18 0.07 0.11 0.08 0.05 0.00 0.00 0.00 0.00 0.00 0.00 0.00 0.00 0.00 0.00 0.00 0.00 0.00 0.00 0.00 0.00 0.00
0.17 0.12 0.11 0.09 0.02 0.04 0.09 0.21 0.29 0.29 0.26 0.16 0.12 0.21 0.46 0.45 0.46 0.46 0.75 0.41 0.28 0.31 0.08 0.10 0.15 0.05 0.00 0.00 0.00 0.00 0.00 0.00 0.00 0.00 0.00 0.00 0.00 0.00 0.00 0.00 0.00 0.00 0.00 0.00
0.12 0.10 0.09 0.04 0.02 0.12 0.23 0.31 0.24 0.17 0.13 0.06 0.04 0.09 0.34 0.56 0.69 0.57 0.40 0.67 0.24 0.14 0.06 0.12 0.10 0.02 0.00 0.00 0.00 0.00 0.00 0.00 0.00 0.00 0.00 0.00 0.00 0.00 0.00 0.00 0.00 0.00 0.00 0.00
0.12 0.09 0.06 0.03 0.03 0.11 0.27 0.22 0.15 0.11 0.03 0.07 0.15 0.25 0.39 0.55 0.65 0.46 0.46 0.41 0.47 0.20 0.16 0.17 0.03 0.00 0.00 0.00 0.00 0.00 0.00 0.00 0.00 0.00 0.00 0.00 0.00 0.00 0.00 0.00 0.00 0.00 0.00 0.00
0.05 0.03 0.06 0.07 0.07 0.13 0.14 0.08 0.10 0.08 0.13 0.19 0.25 0.42 0.39 0.49 0.62 0.36 0.32 0.37 0.22 0.30 0.37 0.12 0.06 0.08 0.07 0.02 0.01 0.01 0.00 0.00 0.00 0.00 0.00 0.00 0.00 0.00 0.00 0.00 0.00 0.00 0.00 0.00
0.05 0.02 0.02 0.04 0.06 0.04 0.03 0.03 0.08 0.10 0.03 0.11 0.27 0.30 0.22 0.28 0.40 0.39 0.29 0.21 0.19 0.17 0.07 0.06 0.13 0.27 0.22 0.14 0.10 0.11 0.09 0.03 0.02 0.02 0.02 0.02 0.02 0.02 0.02 0.01 0.00 0.00 0.00 0.00
0.05 0.02 0.01 0.01 0.01 0.02 0.04 0.04 0.02 0.02 0.03 0.09 0.12 0.14 0.11 0.09 0.13 0.14 0.19 0.19 0.13 0.13 0.19 0.10 0.15 0.55 0.43 0.26 0.32 0.40 0.36 0.26 0.23 0.18 0.12 0.09 0.09 0.10 0.08 0.06 0.04 0.03 0.02 0.02
0.00 0.01 0.01 0.00 0.01 0.00 0.01 0.02 0.03 0.03 0.02 0.11 0.21 0.10 0.07 0.05 0.05 0.08 0.06 0.12 0.29 0.30 0.19 0.09 0.09 0.23 0.28 0.14 0.18 0.27 0.34 0.36 0.34 0.24 0.13 0.13 0.16 0.22 0.24 0.17 0.14 0.12 0.10 0.09
0.00 0.00 0.00 0.00 0.00 0.00 0.00 0.01 0.01 0.01 0.03 0.09 0.26 0.27 0.08 0.05 0.06 0.02 0.02 0.10 0.18 0.20 0.16 0.10 0.05 0.03 0.03 0.05 0.04 0.05 0.07 0.06 0.04 0.05 0.05 0.04 0.03 0.06 0.12 0.15 0.19 0.19 0.15 0.08

GFSNW_prec_precacc24_087.txt.gz
Total_Precipitation_Accumulation
0.01 0.00 0.00 0.00 0.00 0.00 0.00 0.00 0.00 0.00 0.00 0.00 0.00 0.01 0.00 0.00 0.00 0.01 0.01 0.01 0.01 0.00 0.00 0.01 0.10 0.18 0.07 0.04 0.02 0.00 0.00 0.00 0.07 0.06 0.01 0.04 0.00 0.02 0.00 0.00 0.02 0.00 0.00 0.00
0.00 0.00 0.00 0.00 0.00 0.00 0.00 0.00 0.00 0.00 0.00 0.00 0.00 0.00 0.00 0.00 0.00 0.01 0.03 0.02 0.02 0.01 0.00 0.00 0.02 0.07 0.01 0.01 0.00 0.00 0.00 0.00 0.03 0.06 0.03 0.03 0.03 0.00 0.00 0.00 0.00 0.00 0.00 0.00
0.01 0.00 0.00 0.00 0.00 0.00 0.00 0.00 0.00 0.00 0.00 0.00 0.00 0.00 0.00 0.00 0.00 0.01 0.05 0.04 0.04 0.01 0.00 0.00 0.00 0.25 0.04 0.01 0.04 0.00 0.00 0.00 0.00 0.01 0.00 0.00 0.00 0.00 0.00 0.00 0.00 0.00 0.00 0.00
0.00 0.00 0.00 0.00 0.00 0.00 0.00 0.00 0.00 0.00 0.00 0.00 0.00 0.00 0.00 0.00 0.01 0.01 0.02 0.05 0.13 0.20 0.02 0.00 0.00 0.15 0.21 0.05 0.02 0.01 0.00 0.00 0.00 0.00 0.00 0.00 0.00 0.00 0.00 0.00 0.00 0.00 0.00 0.00
0.00 0.00 0.00 0.00 0.00 0.00 0.00 0.00 0.01 0.00 0.00 0.00 0.00 0.00 0.00 0.00 0.01 0.01 0.02 0.10 0.12 0.15 0.08 0.04 0.02 0.01 0.09 0.06 0.02 0.00 0.00 0.00 0.00 0.00 0.00 0.00 0.00 0.00 0.00 0.00 0.00 0.00 0.00 0.00
0.01 0.00 0.00 0.00 0.00 0.00 0.00 0.00 0.00 0.01 0.00 0.00 0.00 0.00 0.00 0.00 0.01 0.02 0.05 0.10 0.16 0.11 0.05 0.03 0.00 0.00 0.00 0.00 0.02 0.00 0.00 0.00 0.00 0.00 0.00 0.00 0.00 0.00 0.00 0.00 0.00 0.00 0.00 0.00
0.01 0.00 0.00 0.00 0.00 0.00 0.00 0.00 0.01 0.01 0.00 0.00 0.00 0.00 0.00 0.00 0.00 0.03 0.02 0.09 0.16 0.09 0.14 0.03 0.00 0.00 0.00 0.00 0.00 0.00 0.00 0.00 0.00 0.00 0.00 0.00 0.00 0.00 0.00 0.00 0.00 0.00 0.00 0.00
0.01 0.00 0.00 0.00 0.00 0.00 0.00 0.00 0.00 0.01 0.00 0.00 0.00 0.00 0.00 0.00 0.00 0.01 0.02 0.05 0.11 0.07 0.14 0.04 0.01 0.01 0.00 0.00 0.00 0.00 0.00 0.00 0.00 0.00 0.00 0.00 0.00 0.00 0.00 0.00 0.00 0.00 0.00 0.00
0.00 0.00 0.00 0.00 0.00 0.00 0.00 0.00 0.00 0.01 0.01 0.00 0.00 0.00 0.00 0.00 0.00 0.01 0.08 0.15 0.21 0.17 0.11 0.13 0.01 0.01 0.00 0.00 0.00 0.00 0.00 0.00 0.00 0.00 0.00 0.00 0.00 0.00 0.00 0.00 0.03 0.00 0.00 0.00
0.01 0.01 0.00 0.00 0.00 0.00 0.00 0.00 0.00 0.01 0.01 0.00 0.00 0.00 0.00 0.00 0.01 0.01 0.05 0.14 0.36 0.20 0.05 0.15 0.16 0.01 0.00 0.00 0.00 0.00 0.00 0.00 0.00 0.00 0.00 0.00 0.00 0.00 0.00 0.02 0.03 0.00 0.00 0.00
0.02 0.03 0.04 0.04 0.02 0.02 0.01 0.00 0.00 0.00 0.00 0.00 0.00 0.00 0.00 0.00 0.01 0.01 0.01 0.07 0.27 0.27 0.08 0.07 0.11 0.05 0.01 0.00 0.00 0.00 0.00 0.00 0.00 0.00 0.00 0.00 0.00 0.00 0.00 0.01 0.00 0.00 0.00 0.00
0.03 0.03 0.05 0.05 0.04 0.03 0.02 0.01 0.00 0.00 0.01 0.00 0.00 0.00 0.00 0.00 0.00 0.00 0.00 0.05 0.11 0.18 0.16 0.15 0.04 0.06 0.11 0.01 0.00 0.00 0.00 0.00 0.00 0.00 0.00 0.00 0.00 0.00 0.00 0.00 0.00 0.00 0.00 0.00
0.03 0.03 0.04 0.05 0.10 0.10 0.04 0.01 0.01 0.01 0.02 0.00 0.00 0.00 0.00 0.00 0.00 0.00 0.00 0.01 0.02 0.15 0.31 0.22 0.13 0.04 0.00 0.03 0.03 0.00 0.00 0.00 0.00 0.00 0.00 0.00 0.00 0.00 0.00 0.00 0.00 0.00 0.00 0.00
0.04 0.06 0.07 0.10 0.10 0.07 0.04 0.03 0.02 0.04 0.07 0.07 0.00 0.00 0.00 0.00 0.00 0.00 0.00 0.00 0.00 0.00 0.04 0.17 0.18 0.15 0.07 0.00 0.00 0.00 0.00 0.00 0.00 0.00 0.00 0.00 0.00 0.00 0.00 0.00 0.00 0.00 0.00 0.00
0.04 0.08 0.11 0.10 0.11 0.11 0.05 0.03 0.02 0.04 0.07 0.05 0.01 0.00 0.00 0.00 0.00 0.00 0.00 0.00 0.00 0.02 0.07 0.09 0.08 0.08 0.01 0.00 0.00 0.00 0.00 0.00 0.00 0.00 0.00 0.00 0.00 0.00 0.00 0.00 0.00 0.00 0.00 0.00
0.08 0.13 0.15 0.15 0.13 0.12 0.09 0.02 0.01 0.01 0.04 0.13 0.03 0.00 0.00 0.00 0.01 0.02 0.01 0.01 0.01 0.04 0.14 0.12 0.05 0.01 0.02 0.01 0.00 0.00 0.00 0.00 0.00 0.00 0.00 0.00 0.00 0.00 0.00 0.00 0.00 0.00 0.00 0.00
0.18 0.22 0.21 0.18 0.16 0.09 0.05 0.02 0.05 0.01 0.01 0.06 0.04 0.01 0.01 0.02 0.04 0.08 0.11 0.06 0.05 0.07 0.13 0.09 0.06 0.03 0.08 0.05 0.01 0.00 0.00 0.00 0.00 0.00 0.00 0.00 0.00 0.00 0.00 0.00 0.00 0.00 0.00 0.00
0.22 0.15 0.12 0.09 0.06 0.07 0.07 0.02 0.04 0.03 0.05 0.05 0.09 0.06 0.12 0.19 0.23 0.20 0.16 0.26 0.14 0.17 0.14 0.09 0.04 0.04 0.05 0.05 0.00 0.00 0.00 0.00 0.00 0.00 0.00 0.00 0.00 0.00 0.00 0.00 0.00 0.00 0.00 0.00
0.10 0.06 0.05 0.04 0.03 0.05 0.03 0.02 0.05 0.03 0.07 0.12 0.11 0.19 0.28 0.32 0.52 0.34 0.58 0.31 0.51 0.18 0.17 0.06 0.10 0.05 0.04 0.00 0.00 0.00 0.00 0.00 0.00 0.00 0.00 0.00 0.00 0.00 0.00 0.00 0.00 0.00 0.00 0.00
0.17 0.12 0.11 0.09 0.02 0.04 0.06 0.11 0.20 0.21 0.17 0.09 0.05 0.14 0.40 0.42 0.43 0.44 0.75 0.39 0.28 0.32 0.08 0.09 0.14 0.04 0.00 0.00 0.00 0.00 0.00 0.00 0.00 0.00 0.00 0.00 0.00 0.00 0.00 0.00 0.00 0.00 0.00 0.00
0.12 0.10 0.09 0.04 0.02 0.10 0.16 0.23 0.18 0.12 0.08 0.03 0.02 0.07 0.31 0.54 0.65 0.54 0.39 0.67 0.22 0.14 0.06 0.10 0.09 0.01 0.00 0.00 0.00 0.00 0.00 0.00 0.00 0.00 0.00 0.00 0.00 0.00 0.00 0.00 0.00 0.00 0.00 0.00
0.12 0.09 0.06 0.03 0.03 0.09 0.21 0.16 0.12 0.08 0.01 0.04 0.12 0.24 0.39 0.55 0.66 0.47 0.45 0.39 0.42 0.20 0.15 0.15 0.03 0.01 0.01 0.00 0.01 0.01 0.00 0.00 0.00 0.00 0.00 0.00 0.00 0.00 0.00 0.00 0.00 0.00 0.00 0.00
0.05 0.02 0.05 0.07 0.06 0.10 0.12 0.06 0.09 0.07 0.12 0.16 0.23 0.41 0.37 0.47 0.63 0.36 0.29 0.32 0.18 0.27 0.38 0.14 0.08 0.08 0.07 0.02 0.01 0.02 0.02 0.02 0.01 0.01 0.00 0.00 0.00 0.00 0.00 0.00 0.00 0.00 0.00 0.00
0.04 0.01 0.02 0.03 0.04 0.03 0.02 0.02 0.08 0.10 0.03 0.10 0.26 0.28 0.21 0.27 0.38 0.39 0.29 0.20 0.18 0.18 0.08 0.08 0.15 0.27 0.22 0.16 0.12 0.11 0.11 0.06 0.05 0.05 0.02 0.01 0.01 0.01 0.01 0.01 0.00 0.00 0.00 0.00
0.05 0.02 0.01 0.00 0.00 0.02 0.04 0.03 0.02 0.02 0.02 0.07 0.12 0.14 0.11 0.08 0.12 0.13 0.19 0.19 0.14 0.15 0.20 0.11 0.15 0.56 0.46 0.29 0.33 0.37 0.35 0.28 0.25 0.20 0.14 0.10 0.05 0.04 0.05 0.05 0.04 0.03 0.02 0.02
0.00 0.01 0.00 0.00 0.00 0.00 0.01 0.02 0.02 0.02 0.01 0.07 0.18 0.10 0.07 0.05 0.05 0.07 0.07 0.13 0.30 0.31 0.19 0.10 0.10 0.24 0.33 0.21 0.23 0.31 0.35 0.37 0.32 0.23 0.14 0.09 0.06 0.09 0.13 0.14 0.12 0.11 0.10 0.09
0.00 0.00 0.00 0.00 0.00 0.00 0.00 0.01 0.01 0.00 0.02 0.06 0.18 0.22 0.07 0.05 0.05 0.02 0.02 0.10 0.18 0.21 0.16 0.10 0.06 0.04 0.05 0.08 0.10 0.13 0.14 0.12 0.06 0.01 0.00 0.02 0.03 0.04 0.08 0.12 0.18 0.18 0.14 0.08

GFSNW_prec_precacc24_090.txt.gz
Total_Precipitation_Accumulation
0.00 0.00 0.00 0.00 0.00 0.00 0.00 0.00 0.00 0.00 0.00 0.00 0.00 0.00 0.00 0.00 0.00 0.02 0.02 0.02 0.08 0.06 0.02 0.01 0.22 0.41 0.15 0.04 0.02 0.00 0.00 0.05 0.10 0.09 0.01 0.04 0.04 0.02 0.00 0.00 0.02 0.00 0.00 0.00
0.00 0.00 0.00 0.00 0.00 0.00 0.00 0.00 0.00 0.00 0.00 0.00 0.00 0.00 0.00 0.00 0.01 0.03 0.06 0.06 0.08 0.14 0.05 0.01 0.04 0.27 0.10 0.01 0.00 0.00 0.00 0.01 0.06 0.08 0.04 0.03 0.04 0.00 0.00 0.00 0.00 0.00 0.00 0.00
0.00 0.00 0.00 0.00 0.00 0.00 0.00 0.00 0.00 0.00 0.00 0.00 0.00 0.00 0.00 0.00 0.00 0.02 0.06 0.07 0.11 0.10 0.02 0.00 0.01 0.46 0.11 0.02 0.05 0.02 0.00 0.00 0.00 0.01 0.01 0.00 0.00 0.00 0.00 0.00 0.00 0.00 0.00 0.00
0.00 0.00 0.00 0.00 0.00 0.00 0.00 0.00 0.00 0.00 0.00 0.00 0.00 0.00 0.00 0.00 0.01 0.01 0.02 0.08 0.21 0.39 0.16 0.04 0.02 0.36 0.32 0.14 0.13 0.02 0.01 0.00 0.00 0.00 0.00 0.00 0.00 0.00 0.00 0.00 0.00 0.00 0.00 0.00
0.00 0.00 0.00 0.00 0.00 0.00 0.00 0.00 0.00 0.00 0.00 0.00 0.00 0.00 0.00 0.00 0.01 0.01 0.02 0.10 0.12 0.21 0.20 0.21 0.09 0.09 0.30 0.23 0.06 0.07 0.02 0.00 0.00 0.00 0.00 0.00 0.00 0.00 0.00 0.00 0.00 0.00 0.00 0.00
0.00 0.00 0.00 0.00 0.00 0.00 0.00 0.00 0.00 0.01 0.00 0.00 0.00 0.00 0.00 0.00 0.01 0.02 0.05 0.10 0.16 0.12 0.06 0.06 0.01 0.00 0.01 0.04 0.07 0.01 0.00 0.00 0.00 0.00 0.00 0.00 0.00 0.00 0.00 0.00 0.00 0.00 0.00 0.00
0.00 0.00 0.00 0.00 0.00 0.00 0.00 0.00 0.01 0.01 0.00 0.00 0.00 0.00 0.00 0.00 0.00 0.03 0.02 0.09 0.16 0.09 0.14 0.03 0.00 0.00 0.00 0.00 0.00 0.00 0.00 0.00 0.00 0.00 0.00 0.00 0.00 0.00 0.00 0.00 0.00 0.00 0.00 0.00
0.00 0.00 0.00 0.00 0.00 0.00 0.00 0.00 0.00 0.01 0.00 0.00 0.00 0.00 0.00 0.00 0.00 0.01 0.02 0.05 0.11 0.07 0.15 0.05 0.01 0.01 0.00 0.00 0.00 0.00 0.00 0.00 0.00 0.00 0.00 0.00 0.00 0.00 0.00 0.00 0.00 0.00 0.00 0.00
0.00 0.00 0.00 0.00 0.00 0.00 0.00 0.00 0.00 0.01 0.01 0.00 0.00 0.00 0.00 0.00 0.00 0.01 0.08 0.15 0.21 0.17 0.12 0.14 0.01 0.01 0.00 0.00 0.00 0.00 0.00 0.00 0.00 0.00 0.00 0.00 0.00 0.00 0.00 0.00 0.02 0.00 0.00 0.00
0.00 0.01 0.00 0.00 0.00 0.00 0.00 0.00 0.00 0.01 0.00 0.00 0.00 0.00 0.00 0.00 0.01 0.01 0.05 0.14 0.36 0.20 0.05 0.16 0.16 0.01 0.00 0.00 0.00 0.00 0.00 0.00 0.00 0.00 0.00 0.00 0.00 0.00 0.00 0.01 0.02 0.00 0.00 0.00
0.02 0.03 0.04 0.04 0.02 0.02 0.01 0.00 0.00 0.00 0.00 0.00 0.00 0.00 0.00 0.00 0.01 0.02 0.01 0.07 0.27 0.27 0.08 0.07 0.12 0.06 0.01 0.00 0.00 0.00 0.00 0.00 0.00 0.00 0.00 0.00 0.00 0.00 0.00 0.00 0.00 0.00 0.00 0.00
0.03 0.03 0.05 0.05 0.04 0.03 0.02 0.01 0.00 0.00 0.00 0.00 0.00 0.00 0.00 0.00 0.00 0.00 0.00 0.05 0.11 0.18 0.16 0.15 0.05 0.07 0.13 0.01 0.00 0.00 0.00 0.00 0.00 0.00 0.00 0.00 0.00 0.00 0.00 0.00 0.00 0.00 0.00 0.00
0.03 0.03 0.04 0.05 0.10 0.10 0.04 0.01 0.01 0.01 0.02 0.00 0.00 0.00 0.00 0.00 0.00 0.00 0.00 0.01 0.02 0.15 0.31 0.22 0.13 0.05 0.00 0.03 0.04 0.00 0.00 0.00 0.00 0.00 0.00 0.00 0.00 0.00 0.00 0.00 0.00 0.00 0.00 0.00
0.04 0.06 0.07 0.09 0.11 0.07 0.03 0.03 0.02 0.04 0.07 0.06 0.00 0.00 0.00 0.00 0.00 0.00 0.00 0.00 0.00 0.00 0.04 0.17 0.17 0.15 0.08 0.00 0.00 0.00 0.00 0.00 0.00 0.00 0.00 0.00 0.00 0.00 0.00 0.01 0.01 0.00 0.00 0.00
0.04 0.08 0.11 0.10 0.11 0.10 0.05 0.03 0.02 0.03 0.07 0.05 0.01 0.00 0.00 0.00 0.00 0.00 0.00 0.00 0.00 0.01 0.06 0.08 0.08 0.08 0.01 0.00 0.00 0.00 0.00 0.00 0.00 0.00 0.00 0.00 0.00 0.00 0.00 0.00 0.00 0.00 0.00 0.00
0.08 0.13 0.15 0.15 0.12 0.12 0.08 0.02 0.01 0.01 0.04 0.12 0.03 0.00 0.00 0.00 0.00 0.00 0.00 0.00 0.00 0.03 0.12 0.10 0.04 0.01 0.03 0.01 0.00 0.00 0.00 0.00 0.00 0.00 0.00 0.00 0.00 0.00 0.00 0.00 0.00 0.00 0.00 0.00
0.18 0.22 0.22 0.18 0.15 0.08 0.05 0.02 0.04 0.01 0.01 0.06 0.03 0.00 0.00 0.01 0.03 0.04 0.04 0.03 0.03 0.05 0.09 0.07 0.06 0.03 0.07 0.05 0.01 0.00 0.00 0.00 0.00 0.00 0.00 0.00 0.00 0.00 0.00 0.00 0.00 0.00 0.00 0.00
0.22 0.15 0.12 0.10 0.06 0.06 0.05 0.02 0.03 0.03 0.05 0.04 0.05 0.01 0.04 0.14 0.16 0.16 0.11 0.16 0.11 0.15 0.13 0.08 0.03 0.03 0.05 0.04 0.00 0.00 0.00 0.00 0.00 0.00 0.00 0.00 0.00 0.00 0.00 0.00 0.00 0.00 0.00 0.00
0.10 0.06 0.06 0.04 0.03 0.04 0.03 0.02 0.05 0.02 0.04 0.07 0.05 0.06 0.13 0.23 0.35 0.31 0.52 0.30 0.49 0.17 0.17 0.06 0.09 0.05 0.03 0.00 0.00 0.00 0.00 0.00 0.00 0.00 0.00 0.00 0.00 0.00 0.00 0.00 0.00 0.00 0.00 0.00
0.16 0.12 0.11 0.09 0.03 0.04 0.04 0.06 0.13 0.16 0.14 0.06 0.03 0.04 0.16 0.21 0.29 0.38 0.67 0.36 0.27 0.32 0.07 0.09 0.13 0.03 0.00 0.00 0.00 0.00 0.00 0.00 0.00 0.00 0.00 0.00 0.00 0.00 0.00 0.00 0.00 0.00 0.00 0.00
0.12 0.10 0.10 0.06 0.03 0.08 0.11 0.17 0.13 0.08 0.06 0.02 0.01 0.03 0.16 0.29 0.44 0.45 0.35 0.66 0.21 0.14 0.06 0.10 0.09 0.02 0.00 0.00 0.00 0.01 0.00 0.00 0.00 0.00 0.00 0.00 0.00 0.00 0.00 0.00 0.00 0.00 0.00 0.00
0.12 0.09 0.08 0.04 0.04 0.07 0.16 0.13 0.09 0.05 0.01 0.02 0.09 0.18 0.35 0.47 0.63 0.46 0.44 0.39 0.41 0.19 0.14 0.15 0.03 0.01 0.01 0.01 0.01 0.01 0.01 0.01 0.01 0.00 0.00 0.00 0.00 0.00 0.00 0.00 0.00 0.00 0.00 0.00
0.05 0.03 0.07 0.07 0.06 0.07 0.09 0.05 0.08 0.07 0.12 0.14 0.16 0.30 0.35 0.46 0.63 0.36 0.29 0.29 0.14 0.23 0.35 0.14 0.08 0.08 0.06 0.02 0.01 0.02 0.02 0.04 0.04 0.04 0.03 0.01 0.00 0.00 0.00 0.00 0.00 0.00 0.00 0.00
0.04 0.03 0.05 0.04 0.04 0.02 0.02 0.02 0.08 0.09 0.03 0.04 0.18 0.26 0.20 0.26 0.37 0.38 0.28 0.20 0.16 0.16 0.08 0.08 0.15 0.25 0.22 0.15 0.11 0.10 0.11 0.08 0.07 0.07 0.05 0.03 0.02 0.01 0.01 0.01 0.00 0.00 0.00 0.00
0.06 0.03 0.03 0.01 0.00 0.01 0.01 0.01 0.01 0.01 0.02 0.03 0.10 0.13 0.11 0.08 0.12 0.11 0.18 0.18 0.15 0.15 0.20 0.11 0.15 0.56 0.45 0.26 0.30 0.36 0.36 0.30 0.26 0.21 0.17 0.14 0.09 0.04 0.03 0.03 0.03 0.03 0.02 0.02
0.02 0.02 0.01 0.00 0.00 0.00 0.00 0.00 0.01 0.02 0.01 0.02 0.10 0.09 0.06 0.05 0.05 0.05 0.06 0.13 0.30 0.31 0.19 0.10 0.10 0.24 0.33 0.20 0.21 0.31 0.39 0.41 0.35 0.24 0.13 0.06 0.04 0.04 0.05 0.04 0.06 0.08 0.07 0.07
0.02 0.00 0.00 0.00 0.00 0.00 0.00 0.00 0.01 0.00 0.01 0.02 0.08 0.15 0.07 0.04 0.04 0.01 0.02 0.10 0.18 0.21 0.16 0.10 0.06 0.04 0.05 0.08 0.10 0.14 0.18 0.17 0.12 0.07 0.03 0.01 0.01 0.01 0.03 0.05 0.09 0.12 0.11 0.07

GFSNW_prec_precacc24_093.txt.gz
Total_Precipitation_Accumulation
0.00 0.00 0.00 0.00 0.00 0.00 0.00 0.00 0.00 0.00 0.00 0.00 0.00 0.00 0.00 0.00 0.01 0.03 0.04 0.04 0.13 0.14 0.11 0.03 0.39 0.58 0.16 0.04 0.02 0.00 0.02 0.09 0.16 0.18 0.04 0.05 0.05 0.03 0.02 0.03 0.02 0.00 0.00 0.00
0.00 0.00 0.00 0.00 0.00 0.00 0.00 0.00 0.00 0.00 0.00 0.00 0.00 0.00 0.00 0.00 0.01 0.03 0.06 0.10 0.13 0.16 0.09 0.03 0.10 0.55 0.15 0.01 0.00 0.01 0.03 0.08 0.14 0.16 0.06 0.04 0.05 0.01 0.01 0.00 0.00 0.00 0.00 0.00
0.00 0.00 0.00 0.00 0.00 0.00 0.00 0.00 0.00 0.00 0.00 0.00 0.00 0.00 0.00 0.00 0.00 0.02 0.06 0.08 0.11 0.10 0.03 0.01 0.04 0.66 0.18 0.02 0.05 0.02 0.02 0.05 0.04 0.03 0.01 0.00 0.00 0.00 0.00 0.00 0.00 0.00 0.00 0.00
0.00 0.00 0.00 0.00 0.00 0.00 0.00 0.00 0.00 0.00 0.00 0.00 0.00 0.00 0.00 0.00 0.01 0.01 0.02 0.08 0.21 0.39 0.16 0.04 0.03 0.47 0.40 0.17 0.14 0.03 0.02 0.03 0.00 0.00 0.00 0.00 0.00 0.00 0.00 0.00 0.00 0.00 0.00 0.00
0.00 0.00 0.00 0.00 0.00 0.00 0.00 0.00 0.00 0.00 0.00 0.00 0.00 0.00 0.00 0.00 0.01 0.01 0.02 0.10 0.12 0.21 0.20 0.22 0.10 0.11 0.36 0.33 0.08 0.11 0.02 0.00 0.00 0.00 0.00 0.00 0.00 0.00 0.00 0.00 0.00 0.00 0.00 0.00
0.00 0.00 0.00 0.00 0.00 0.00 0.00 0.00 0.00 0.01 0.00 0.00 0.00 0.00 0.00 0.00 0.01 0.02 0.05 0.10 0.16 0.12 0.06 0.06 0.01 0.00 0.01 0.07 0.12 0.03 0.00 0.00 0.00 0.00 0.00 0.00 0.00 0.00 0.00 0.00 0.00 0.00 0.00 0.00
0.00 0.00 0.00 0.00 0.00 0.00 0.00 0.00 0.00 0.00 0.00 0.00 0.00 0.00 0.00 0.00 0.00 0.03 0.02 0.09 0.16 0.09 0.14 0.03 0.00 0.00 0.00 0.00 0.00 0.00 0.00 0.00 0.00 0.00 0.00 0.00 0.00 0.00 0.00 0.00 0.00 0.00 0.00 0.00
0.00 0.00 0.00 0.00 0.00 0.00 0.00 0.00 0.00 0.00 0.00 0.00 0.00 0.00 0.00 0.00 0.00 0.01 0.02 0.05 0.11 0.07 0.15 0.05 0.01 0.01 0.00 0.00 0.00 0.00 0.00 0.00 0.00 0.00 0.00 0.00 0.00 0.00 0.00 0.00 0.00 0.00 0.00 0.00
0.00 0.00 0.00 0.00 0.00 0.00 0.00 0.00 0.00 0.00 0.00 0.00 0.00 0.00 0.00 0.00 0.00 0.01 0.08 0.15 0.21 0.17 0.12 0.14 0.02 0.01 0.00 0.00 0.00 0.00 0.00 0.00 0.00 0.00 0.00 0.00 0.00 0.00 0.00 0.00 0.01 0.00 0.00 0.00
0.00 0.01 0.00 0.00 0.00 0.00 0.00 0.00 0.00 0.00 0.00 0.00 0.00 0.00 0.00 0.00 0.01 0.01 0.05 0.14 0.36 0.20 0.04 0.16 0.17 0.02 0.00 0.00 0.00 0.00 0.00 0.00 0.00 0.00 0.00 0.00 0.00 0.00 0.00 0.01 0.01 0.00 0.00 0.00
0.02 0.03 0.04 0.04 0.02 0.02 0.01 0.00 0.00 0.00 0.00 0.00 0.00 0.00 0.00 0.00 0.01 0.02 0.01 0.07 0.27 0.27 0.07 0.07 0.12 0.06 0.01 0.00 0.00 0.00 0.00 0.00 0.00 0.00 0.00 0.00 0.00 0.00 0.00 0.00 0.00 0.00 0.00 0.00
0.03 0.03 0.05 0.05 0.04 0.03 0.02 0.01 0.00 0.00 0.00 0.00 0.00 0.00 0.00 0.00 0.00 0.00 0.00 0.05 0.11 0.18 0.16 0.15 0.05 0.08 0.13 0.01 0.00 0.00 0.00 0.00 0.00 0.00 0.00 0.00 0.00 0.00 0.00 0.00 0.00 0.00 0.00 0.00
0.03 0.03 0.04 0.06 0.10 0.10 0.04 0.01 0.01 0.01 0.02 0.00 0.00 0.00 0.00 0.00 0.00 0.00 0.00 0.01 0.02 0.15 0.31 0.22 0.13 0.05 0.01 0.03 0.04 0.00 0.00 0.00 0.00 0.00 0.00 0.00 0.00 0.00 0.00 0.00 0.00 0.00 0.00 0.00
0.04 0.06 0.07 0.10 0.12 0.07 0.03 0.02 0.01 0.04 0.07 0.06 0.00 0.00 0.00 0.00 0.00 0.00 0.00 0.00 0.00 0.00 0.04 0.16 0.17 0.15 0.08 0.01 0.00 0.00 0.00 0.00 0.00 0.00 0.00 0.00 0.00 0.00 0.00 0.01 0.02 0.00 0.00 0.00
0.04 0.08 0.11 0.10 0.11 0.10 0.04 0.02 0.01 0.03 0.07 0.04 0.01 0.00 0.00 0.00 0.00 0.00 0.00 0.00 0.00 0.01 0.04 0.07 0.07 0.08 0.02 0.00 0.00 0.00 0.00 0.00 0.00 0.01 0.00 0.00 0.00 0.00 0.00 0.00 0.00 0.00 0.00 0.00
0.08 0.13 0.14 0.15 0.12 0.11 0.08 0.01 0.01 0.01 0.03 0.11 0.02 0.00 0.00 0.00 0.00 0.00 0.00 0.00 0.00 0.01 0.08 0.07 0.03 0.01 0.02 0.01 0.00 0.00 0.00 0.00 0.00 0.00 0.00 0.00 0.00 0.00 0.00 0.00 0.00 0.00 0.00 0.00
0.17 0.21 0.21 0.18 0.14 0.06 0.04 0.02 0.03 0.01 0.01 0.05 0.02 0.00 0.00 0.01 0.01 0.01 0.02 0.02 0.01 0.03 0.04 0.04 0.04 0.03 0.07 0.05 0.01 0.00 0.00 0.00 0.00 0.00 0.00 0.00 0.00 0.00 0.00 0.00 0.00 0.00 0.00 0.00
0.18 0.13 0.11 0.08 0.05 0.05 0.04 0.01 0.03 0.03 0.04 0.02 0.02 0.00 0.00 0.10 0.12 0.08 0.05 0.09 0.06 0.12 0.09 0.07 0.02 0.02 0.03 0.04 0.00 0.00 0.00 0.00 0.00 0.00 0.00 0.00 0.00 0.00 0.00 0.00 0.00 0.00 0.00 0.00
0.08 0.04 0.04 0.03 0.02 0.03 0.02 0.02 0.04 0.02 0.03 0.04 0.02 0.01 0.02 0.12 0.23 0.25 0.38 0.19 0.29 0.09 0.14 0.05 0.07 0.04 0.02 0.00 0.00 0.00 0.00 0.00 0.00 0.00 0.00 0.00 0.00 0.00 0.00 0.00 0.00 0.00 0.00 0.00
0.11 0.09 0.08 0.07 0.03 0.03 0.03 0.03 0.09 0.11 0.11 0.05 0.02 0.01 0.02 0.08 0.11 0.28 0.50 0.30 0.24 0.29 0.07 0.08 0.12 0.03 0.00 0.00 0.00 0.00 0.00 0.00 0.00 0.00 0.00 0.00 0.00 0.00 0.00 0.00 0.00 0.00 0.00 0.00
0.07 0.05 0.07 0.07 0.04 0.06 0.06 0.11 0.08 0.06 0.04 0.02 0.01 0.03 0.11 0.13 0.17 0.28 0.22 0.52 0.17 0.14 0.05 0.09 0.08 0.02 0.00 0.00 0.00 0.01 0.01 0.00 0.00 0.00 0.00 0.00 0.00 0.00 0.00 0.00 0.00 0.00 0.00 0.00
0.06 0.04 0.05 0.05 0.04 0.04 0.10 0.09 0.06 0.03 0.00 0.02 0.07 0.14 0.29 0.32 0.31 0.29 0.35 0.36 0.39 0.19 0.14 0.14 0.03 0.01 0.01 0.01 0.01 0.01 0.01 0.02 0.02 0.01 0.00 0.00 0.01 0.01 0.00 0.00 0.00 0.00 0.00 0.00
0.02 0.01 0.06 0.07 0.05 0.04 0.05 0.03 0.05 0.06 0.11 0.12 0.13 0.15 0.26 0.40 0.55 0.32 0.29 0.29 0.14 0.22 0.34 0.13 0.08 0.08 0.06 0.02 0.01 0.02 0.03 0.04 0.04 0.05 0.05 0.02 0.02 0.02 0.02 0.01 0.00 0.00 0.00 0.00
0.01 0.02 0.05 0.04 0.04 0.01 0.02 0.01 0.07 0.09 0.03 0.02 0.06 0.15 0.16 0.22 0.35 0.37 0.28 0.19 0.14 0.14 0.08 0.07 0.11 0.18 0.17 0.12 0.09 0.09 0.11 0.08 0.09 0.08 0.07 0.04 0.01 0.01 0.00 0.00 0.00 0.00 0.00 0.00
0.03 0.02 0.03 0.01 0.00 0.01 0.01 0.00 0.00 0.01 0.01 0.01 0.03 0.07 0.08 0.07 0.12 0.11 0.17 0.17 0.14 0.15 0.20 0.11 0.15 0.55 0.43 0.21 0.28 0.35 0.36 0.30 0.27 0.22 0.17 0.16 0.11 0.07 0.04 0.02 0.02 0.02 0.02 0.02
0.02 0.02 0.02 0.02 0.02 0.02 0.00 0.00 0.00 0.01 0.00 0.01 0.03 0.04 0.05 0.05 0.05 0.05 0.06 0.13 0.29 0.31 0.19 0.10 0.10 0.24 0.33 0.19 0.18 0.28 0.39 0.43 0.37 0.26 0.16 0.10 0.06 0.03 0.02 0.01 0.02 0.03 0.04 0.05
0.03 0.01 0.02 0.02 0.01 0.01 0.00 0.00 0.00 0.00 0.01 0.02 0.03 0.06 0.05 0.04 0.03 0.01 0.02 0.10 0.18 0.21 0.16 0.10 0.06 0.04 0.05 0.08 0.10 0.14 0.18 0.18 0.14 0.10 0.07 0.06 0.04 0.03 0.01 0.00 0.01 0.03 0.05 0.04

GFSNW_prec_precacc24_096.txt.gz
Total_Precipitation_Accumulation
0.00 0.00 0.00 0.00 0.00 0.00 0.00 0.00 0.00 0.00 0.00 0.00 0.00 0.00 0.00 0.00 0.01 0.03 0.04 0.05 0.14 0.14 0.12 0.06 0.50 0.59 0.17 0.04 0.02 0.00 0.04 0.11 0.18 0.20 0.04 0.05 0.05 0.03 0.04 0.06 0.03 0.02 0.01 0.00
0.00 0.00 0.00 0.00 0.00 0.00 0.00 0.00 0.00 0.00 0.00 0.00 0.00 0.00 0.00 0.00 0.01 0.03 0.06 0.10 0.13 0.16 0.09 0.06 0.15 0.57 0.15 0.01 0.00 0.10 0.11 0.11 0.21 0.20 0.08 0.05 0.05 0.01 0.01 0.01 0.01 0.02 0.03 0.00
0.00 0.00 0.00 0.00 0.00 0.00 0.00 0.00 0.00 0.00 0.00 0.00 0.00 0.00 0.00 0.00 0.00 0.02 0.06 0.08 0.11 0.10 0.03 0.01 0.06 0.68 0.18 0.02 0.06 0.04 0.06 0.09 0.09 0.06 0.02 0.01 0.00 0.00 0.00 0.00 0.01 0.01 0.02 0.00
0.00 0.00 0.00 0.00 0.00 0.00 0.00 0.00 0.00 0.00 0.00 0.00 0.00 0.00 0.00 0.00 0.01 0.01 0.02 0.08 0.21 0.39 0.16 0.04 0.03 0.48 0.41 0.18 0.14 0.03 0.02 0.10 0.02 0.00 0.00 0.00 0.00 0.00 0.00 0.00 0.00 0.00 0.00 0.00
0.00 0.00 0.00 0.00 0.00 0.00 0.00 0.00 0.00 0.00 0.00 0.00 0.00 0.00 0.00 0.00 0.01 0.01 0.02 0.10 0.12 0.21 0.20 0.22 0.10 0.11 0.37 0.34 0.09 0.11 0.02 0.01 0.00 0.00 0.00 0.00 0.00 0.00 0.00 0.00 0.00 0.00 0.00 0.00
0.00 0.00 0.00 0.00 0.00 0.00 0.00 0.00 0.00 0.00 0.00 0.00 0.00 0.00 0.00 0.00 0.01 0.02 0.05 0.10 0.16 0.12 0.06 0.06 0.01 0.00 0.01 0.07 0.13 0.04 0.00 0.00 0.01 0.02 0.00 0.00 0.00 0.00 0.00 0.00 0.00 0.00 0.00 0.00
0.00 0.00 0.00 0.00 0.00 0.00 0.00 0.00 0.00 0.00 0.00 0.00 0.00 0.00 0.00 0.00 0.00 0.03 0.02 0.09 0.16 0.09 0.14 0.03 0.00 0.00 0.00 0.00 0.00 0.00 0.00 0.00 0.00 0.00 0.00 0.00 0.00 0.00 0.00 0.00 0.00 0.00 0.00 0.00
0.00 0.00 0.00 0.00 0.00 0.00 0.00 0.00 0.00 0.00 0.00 0.00 0.00 0.00 0.00 0.00 0.00 0.01 0.02 0.05 0.11 0.07 0.15 0.05 0.01 0.01 0.00 0.00 0.00 0.00 0.00 0.00 0.00 0.00 0.00 0.00 0.00 0.00 0.00 0.00 0.00 0.00 0.00 0.00
0.00 0.00 0.00 0.00 0.00 0.00 0.00 0.00 0.00 0.00 0.00 0.00 0.00 0.00 0.00 0.00 0.00 0.00 0.08 0.15 0.21 0.17 0.11 0.13 0.02 0.01 0.01 0.00 0.00 0.00 0.00 0.00 0.00 0.00 0.00 0.00 0.00 0.00 0.00 0.00 0.00 0.00 0.00 0.00
0.00 0.01 0.00 0.00 0.00 0.00 0.00 0.00 0.00 0.00 0.00 0.00 0.00 0.00 0.00 0.00 0.01 0.01 0.04 0.14 0.36 0.20 0.04 0.15 0.16 0.01 0.00 0.00 0.00 0.00 0.00 0.00 0.00 0.00 0.00 0.00 0.00 0.00 0.00 0.00 0.01 0.00 0.00 0.00
0.02 0.03 0.04 0.04 0.02 0.02 0.01 0.00 0.00 0.00 0.00 0.00 0.00 0.00 0.00 0.00 0.00 0.01 0.01 0.07 0.27 0.26 0.06 0.06 0.11 0.06 0.01 0.00 0.00 0.00 0.00 0.00 0.00 0.00 0.00 0.00 0.00 0.00 0.00 0.00 0.00 0.00 0.00 0.00
0.04 0.04 0.05 0.05 0.04 0.03 0.02 0.01 0.00 0.00 0.00 0.00 0.00 0.00 0.00 0.00 0.00 0.00 0.00 0.05 0.11 0.18 0.16 0.14 0.04 0.07 0.13 0.01 0.01 0.00 0.00 0.00 0.00 0.00 0.00 0.00 0.00 0.00 0.00 0.00 0.00 0.00 0.00 0.00
0.09 0.05 0.04 0.06 0.10 0.10 0.04 0.01 0.00 0.01 0.02 0.00 0.00 0.00 0.00 0.00 0.00 0.00 0.00 0.00 0.01 0.14 0.31 0.20 0.12 0.05 0.01 0.03 0.04 0.00 0.00 0.00 0.00 0.00 0.00 0.00 0.00 0.00 0.00 0.00 0.00 0.00 0.00 0.00
0.10 0.06 0.08 0.10 0.12 0.07 0.03 0.01 0.00 0.03 0.07 0.06 0.00 0.00 0.00 0.00 0.00 0.00 0.00 0.00 0.00 0.00 0.03 0.15 0.16 0.15 0.08 0.01 0.00 0.00 0.00 0.00 0.00 0.00 0.00 0.00 0.00 0.00 0.00 0.01 0.02 0.00 0.00 0.00
0.06 0.06 0.09 0.11 0.11 0.10 0.03 0.01 0.00 0.02 0.06 0.04 0.01 0.00 0.00 0.00 0.00 0.00 0.00 0.00 0.00 0.00 0.02 0.05 0.07 0.07 0.02 0.00 0.00 0.00 0.00 0.00 0.01 0.02 0.00 0.00 0.00 0.00 0.00 0.00 0.00 0.00 0.00 0.00
0.03 0.06 0.12 0.15 0.11 0.10 0.06 0.01 0.00 0.01 0.02 0.08 0.02 0.00 0.00 0.00 0.00 0.00 0.00 0.00 0.00 0.00 0.03 0.04 0.01 0.01 0.02 0.00 0.00 0.00 0.00 0.00 0.00 0.00 0.00 0.00 0.00 0.00 0.00 0.00 0.00 0.00 0.00 0.00
0.03 0.12 0.19 0.16 0.12 0.04 0.01 0.00 0.02 0.01 0.00 0.03 0.02 0.00 0.00 0.00 0.00 0.00 0.01 0.02 0.01 0.01 0.02 0.02 0.02 0.01 0.06 0.04 0.00 0.00 0.00 0.00 0.00 0.00 0.00 0.00 0.00 0.00 0.00 0.00 0.00 0.00 0.00 0.00
0.04 0.08 0.07 0.04 0.01 0.01 0.02 0.01 0.02 0.02 0.02 0.02 0.01 0.00 0.00 0.07 0.09 0.03 0.02 0.05 0.04 0.06 0.05 0.04 0.01 0.01 0.02 0.03 0.00 0.00 0.00 0.00 0.00 0.00 0.00 0.00 0.00 0.00 0.00 0.00 0.00 0.00 0.00 0.00
0.06 0.02 0.01 0.01 0.01 0.00 0.01 0.01 0.03 0.01 0.02 0.02 0.01 0.00 0.00 0.02 0.15 0.17 0.19 0.14 0.22 0.05 0.10 0.04 0.06 0.03 0.02 0.00 0.00 0.00 0.00 0.00 0.00 0.00 0.00 0.00 0.00 0.00 0.00 0.00 0.00 0.00 0.00 0.00
0.04 0.02 0.03 0.03 0.01 0.02 0.03 0.01 0.04 0.06 0.06 0.03 0.01 0.00 0.01 0.02 0.04 0.16 0.26 0.16 0.16 0.18 0.03 0.07 0.11 0.03 0.00 0.00 0.00 0.00 0.00 0.00 0.00 0.00 0.00 0.00 0.00 0.00 0.00 0.00 0.00 0.00 0.00 0.00
0.01 0.01 0.03 0.05 0.04 0.03 0.01 0.04 0.04 0.02 0.02 0.01 0.00 0.03 0.09 0.10 0.11 0.09 0.16 0.32 0.13 0.10 0.04 0.07 0.07 0.02 0.00 0.00 0.00 0.01 0.01 0.00 0.00 0.00 0.00 0.00 0.00 0.00 0.01 0.01 0.01 0.00 0.00 0.00
0.00 0.01 0.03 0.05 0.04 0.01 0.04 0.04 0.03 0.01 0.00 0.01 0.07 0.10 0.19 0.24 0.21 0.12 0.19 0.26 0.30 0.16 0.13 0.14 0.03 0.01 0.01 0.01 0.01 0.01 0.02 0.02 0.02 0.01 0.00 0.01 0.02 0.01 0.01 0.02 0.02 0.02 0.01 0.00
0.02 0.03 0.04 0.03 0.04 0.01 0.02 0.01 0.02 0.04 0.10 0.10 0.07 0.06 0.14 0.28 0.40 0.24 0.20 0.24 0.13 0.21 0.33 0.13 0.08 0.08 0.06 0.02 0.01 0.02 0.03 0.04 0.05 0.06 0.05 0.02 0.02 0.03 0.04 0.04 0.01 0.01 0.00 0.00
0.03 0.03 0.04 0.03 0.02 0.00 0.00 0.01 0.03 0.05 0.02 0.01 0.01 0.03 0.07 0.12 0.22 0.28 0.23 0.16 0.13 0.13 0.07 0.07 0.09 0.10 0.11 0.09 0.07 0.07 0.10 0.09 0.09 0.09 0.07 0.04 0.02 0.01 0.00 0.00 0.00 0.00 0.00 0.00
0.02 0.02 0.03 0.01 0.00 0.01 0.01 0.01 0.00 0.00 0.00 0.01 0.01 0.01 0.03 0.03 0.06 0.08 0.15 0.16 0.13 0.15 0.20 0.11 0.14 0.44 0.40 0.15 0.17 0.27 0.31 0.29 0.26 0.22 0.18 0.16 0.11 0.08 0.06 0.03 0.01 0.01 0.01 0.01
0.02 0.02 0.02 0.02 0.02 0.03 0.02 0.01 0.00 0.00 0.00 0.01 0.02 0.03 0.04 0.03 0.05 0.04 0.05 0.12 0.28 0.30 0.19 0.10 0.10 0.23 0.32 0.18 0.17 0.26 0.38 0.42 0.36 0.26 0.16 0.10 0.07 0.05 0.03 0.03 0.04 0.03 0.03 0.02
0.03 0.01 0.02 0.03 0.03 0.03 0.01 0.00 0.00 0.00 0.00 0.01 0.02 0.02 0.02 0.02 0.03 0.01 0.02 0.09 0.17 0.21 0.16 0.10 0.06 0.04 0.05 0.08 0.10 0.14 0.18 0.18 0.15 0.10 0.08 0.07 0.05 0.04 0.03 0.03 0.00 0.00 0.00 0.01

GFSNW_prec_precacc24_102.txt.gz
Total_Precipitation_Accumulation
0.37 0.09 0.00 0.00 0.00 0.00 0.00 0.00 0.00 0.00 0.00 0.00 0.00 0.00 0.00 0.00 0.01 0.03 0.04 0.05 0.14 0.14 0.13 0.14 0.53 0.59 0.16 0.04 0.02 0.00 0.04 0.11 0.16 0.18 0.05 0.05 0.05 0.01 0.04 0.06 0.02 0.02 0.02 0.00
0.40 0.06 0.00 0.00 0.00 0.00 0.00 0.00 0.00 0.00 0.00 0.00 0.00 0.00 0.00 0.00 0.01 0.03 0.06 0.10 0.13 0.16 0.10 0.12 0.15 0.57 0.15 0.01 0.01 0.21 0.14 0.13 0.22 0.19 0.07 0.04 0.05 0.00 0.01 0.01 0.01 0.03 0.14 0.01
0.29 0.04 0.00 0.00 0.00 0.00 0.00 0.00 0.00 0.00 0.00 0.00 0.00 0.00 0.00 0.00 0.00 0.02 0.06 0.08 0.11 0.10 0.04 0.02 0.07 0.68 0.18 0.03 0.06 0.06 0.09 0.11 0.15 0.09 0.02 0.00 0.00 0.00 0.00 0.00 0.01 0.04 0.08 0.02
0.20 0.02 0.00 0.00 0.00 0.00 0.00 0.00 0.00 0.00 0.00 0.00 0.00 0.00 0.00 0.00 0.01 0.01 0.02 0.08 0.21 0.39 0.16 0.04 0.04 0.49 0.41 0.18 0.14 0.03 0.06 0.18 0.03 0.00 0.00 0.00 0.00 0.00 0.00 0.00 0.00 0.06 0.02 0.00
0.19 0.01 0.00 0.00 0.00 0.00 0.00 0.00 0.00 0.00 0.00 0.00 0.00 0.00 0.00 0.00 0.01 0.01 0.02 0.10 0.12 0.21 0.20 0.22 0.10 0.11 0.37 0.34 0.09 0.11 0.02 0.01 0.00 0.00 0.00 0.00 0.00 0.00 0.00 0.00 0.00 0.01 0.01 0.00
0.16 0.01 0.00 0.00 0.00 0.00 0.00 0.00 0.00 0.00 0.00 0.00 0.00 0.00 0.00 0.00 0.01 0.02 0.04 0.10 0.16 0.12 0.06 0.06 0.01 0.00 0.01 0.08 0.13 0.04 0.00 0.00 0.02 0.03 0.00 0.00 0.00 0.00 0.00 0.00 0.00 0.00 0.00 0.00
0.15 0.01 0.00 0.00 0.00 0.00 0.00 0.00 0.00 0.00 0.00 0.00 0.00 0.00 0.00 0.00 0.00 0.03 0.01 0.09 0.16 0.09 0.14 0.03 0.00 0.00 0.00 0.00 0.00 0.00 0.00 0.00 0.00 0.00 0.00 0.00 0.00 0.00 0.00 0.00 0.00 0.00 0.00 0.00
0.10 0.00 0.00 0.00 0.00 0.00 0.00 0.00 0.00 0.00 0.00 0.00 0.00 0.00 0.00 0.00 0.00 0.00 0.01 0.05 0.11 0.07 0.15 0.04 0.00 0.00 0.00 0.00 0.00 0.00 0.00 0.00 0.00 0.00 0.00 0.00 0.00 0.00 0.00 0.00 0.00 0.00 0.00 0.00
0.05 0.00 0.00 0.00 0.00 0.00 0.00 0.00 0.00 0.00 0.00 0.00 0.00 0.00 0.00 0.00 0.00 0.00 0.07 0.15 0.21 0.17 0.10 0.11 0.01 0.01 0.01 0.00 0.00 0.00 0.00 0.00 0.00 0.00 0.00 0.00 0.00 0.00 0.00 0.00 0.00 0.00 0.00 0.00
0.07 0.01 0.00 0.00 0.00 0.00 0.00 0.00 0.00 0.00 0.00 0.00 0.00 0.00 0.00 0.00 0.00 0.00 0.04 0.13 0.35 0.19 0.03 0.13 0.16 0.01 0.00 0.00 0.00 0.00 0.00 0.00 0.00 0.00 0.00 0.00 0.00 0.00 0.00 0.00 0.01 0.00 0.00 0.00
0.09 0.04 0.03 0.04 0.02 0.02 0.01 0.00 0.00 0.00 0.00 0.00 0.00 0.00 0.00 0.00 0.00 0.01 0.00 0.05 0.26 0.26 0.06 0.06 0.10 0.05 0.01 0.00 0.00 0.00 0.00 0.00 0.00 0.00 0.00 0.00 0.00 0.00 0.00 0.00 0.00 0.00 0.00 0.00
0.11 0.04 0.03 0.04 0.04 0.02 0.01 0.01 0.00 0.00 0.00 0.00 0.00 0.00 0.00 0.00 0.00 0.00 0.00 0.03 0.09 0.14 0.14 0.13 0.04 0.07 0.13 0.01 0.01 0.00 0.00 0.00 0.00 0.00 0.00 0.00 0.00 0.00 0.00 0.00 0.00 0.00 0.00 0.00
0.13 0.04 0.03 0.02 0.04 0.06 0.03 0.00 0.00 0.00 0.00 0.00 0.00 0.00 0.00 0.00 0.00 0.00 0.00 0.00 0.00 0.09 0.27 0.18 0.11 0.04 0.01 0.03 0.04 0.00 0.00 0.00 0.00 0.00 0.00 0.00 0.00 0.00 0.00 0.00 0.00 0.00 0.00 0.00
0.17 0.10 0.09 0.02 0.02 0.02 0.01 0.00 0.00 0.00 0.00 0.01 0.00 0.00 0.00 0.00 0.00 0.00 0.00 0.00 0.00 0.00 0.01 0.10 0.16 0.15 0.08 0.01 0.00 0.00 0.00 0.00 0.00 0.01 0.00 0.00 0.00 0.00 0.00 0.01 0.02 0.00 0.00 0.00
0.25 0.20 0.13 0.03 0.02 0.03 0.01 0.00 0.00 0.00 0.00 0.00 0.00 0.00 0.00 0.00 0.00 0.00 0.00 0.00 0.00 0.00 0.00 0.02 0.06 0.07 0.02 0.00 0.00 0.00 0.00 0.00 0.01 0.03 0.01 0.02 0.02 0.01 0.00 0.00 0.00 0.00 0.02 0.01
0.31 0.28 0.14 0.05 0.01 0.01 0.00 0.00 0.00 0.00 0.00 0.03 0.00 0.00 0.00 0.00 0.00 0.00 0.00 0.00 0.00 0.00 0.00 0.00 0.00 0.00 0.01 0.00 0.00 0.00 0.00 0.00 0.00 0.00 0.00 0.01 0.01 0.01 0.00 0.00 0.00 0.00 0.00 0.01
0.30 0.26 0.11 0.03 0.00 0.00 0.00 0.00 0.00 0.00 0.00 0.01 0.00 0.00 0.00 0.00 0.00 0.00 0.00 0.00 0.00 0.00 0.00 0.00 0.00 0.00 0.02 0.03 0.00 0.00 0.00 0.00 0.00 0.00 0.00 0.00 0.00 0.00 0.00 0.00 0.00 0.00 0.00 0.01
0.26 0.20 0.05 0.01 0.00 0.00 0.00 0.00 0.01 0.01 0.01 0.00 0.00 0.00 0.00 0.00 0.00 0.01 0.00 0.00 0.00 0.01 0.00 0.00 0.00 0.00 0.00 0.01 0.00 0.00 0.00 0.00 0.00 0.00 0.00 0.00 0.00 0.00 0.00 0.00 0.00 0.00 0.00 0.00
0.20 0.11 0.02 0.01 0.00 0.00 0.00 0.01 0.02 0.01 0.00 0.00 0.00 0.00 0.00 0.00 0.00 0.03 0.06 0.03 0.07 0.01 0.04 0.01 0.03 0.02 0.00 0.00 0.00 0.00 0.00 0.00 0.00 0.00 0.00 0.00 0.00 0.00 0.00 0.00 0.00 0.00 0.00 0.00
0.14 0.05 0.02 0.02 0.01 0.01 0.01 0.00 0.00 0.01 0.01 0.00 0.00 0.00 0.00 0.01 0.01 0.01 0.10 0.06 0.07 0.10 0.01 0.02 0.05 0.01 0.00 0.00 0.00 0.00 0.00 0.00 0.00 0.00 0.00 0.00 0.00 0.00 0.00 0.00 0.00 0.00 0.00 0.00
0.08 0.05 0.05 0.05 0.03 0.01 0.01 0.00 0.01 0.00 0.00 0.00 0.00 0.00 0.01 0.01 0.03 0.02 0.04 0.09 0.07 0.07 0.01 0.05 0.05 0.01 0.00 0.00 0.00 0.01 0.01 0.01 0.00 0.00 0.01 0.00 0.00 0.00 0.01 0.01 0.01 0.01 0.02 0.03
0.02 0.02 0.04 0.06 0.05 0.04 0.03 0.00 0.00 0.00 0.00 0.00 0.01 0.01 0.02 0.04 0.06 0.04 0.04 0.12 0.13 0.07 0.11 0.11 0.02 0.01 0.01 0.01 0.01 0.01 0.02 0.02 0.02 0.01 0.01 0.01 0.02 0.02 0.02 0.03 0.06 0.07 0.07 0.05
0.10 0.12 0.13 0.09 0.09 0.06 0.02 0.00 0.00 0.00 0.00 0.01 0.00 0.00 0.00 0.03 0.11 0.09 0.10 0.12 0.05 0.13 0.23 0.11 0.08 0.07 0.04 0.02 0.01 0.02 0.03 0.04 0.05 0.06 0.06 0.03 0.02 0.03 0.04 0.04 0.02 0.02 0.01 0.00
0.21 0.13 0.09 0.06 0.04 0.00 0.00 0.00 0.00 0.00 0.00 0.00 0.00 0.00 0.00 0.01 0.04 0.09 0.10 0.05 0.07 0.09 0.05 0.06 0.08 0.04 0.03 0.05 0.04 0.06 0.08 0.08 0.09 0.09 0.07 0.04 0.02 0.01 0.00 0.00 0.00 0.00 0.00 0.00
0.17 0.05 0.04 0.01 0.00 0.01 0.01 0.02 0.02 0.00 0.00 0.00 0.00 0.00 0.01 0.01 0.02 0.03 0.06 0.07 0.08 0.11 0.12 0.09 0.09 0.13 0.15 0.09 0.06 0.08 0.12 0.16 0.18 0.19 0.18 0.16 0.12 0.08 0.05 0.03 0.00 0.00 0.01 0.01
0.13 0.05 0.02 0.02 0.02 0.04 0.03 0.04 0.04 0.00 0.00 0.00 0.00 0.01 0.02 0.02 0.04 0.04 0.03 0.06 0.06 0.08 0.12 0.09 0.09 0.18 0.27 0.16 0.13 0.17 0.22 0.25 0.27 0.24 0.16 0.11 0.07 0.05 0.03 0.03 0.04 0.03 0.03 0.02
0.16 0.03 0.02 0.03 0.03 0.04 0.05 0.03 0.00 0.00 0.00 0.00 0.00 0.00 0.00 0.01 0.02 0.01 0.01 0.02 0.03 0.07 0.12 0.10 0.06 0.04 0.05 0.08 0.10 0.13 0.16 0.16 0.14 0.10 0.08 0.07 0.05 0.05 0.04 0.04 0.01 0.01 0.00 0.00

GFSNW_prec_precacc24_108.txt.gz
Total_Precipitation_Accumulation
0.81 0.65 0.44 0.26 0.30 0.13 0.01 0.00 0.01 0.01 0.00 0.00 0.00 0.00 0.00 0.00 0.01 0.03 0.04 0.05 0.14 0.14 0.13 0.14 0.50 0.54 0.15 0.01 0.00 0.00 0.04 0.11 0.15 0.16 0.04 0.04 0.05 0.01 0.04 0.06 0.02 0.02 0.02 0.00
0.94 0.81 0.74 0.36 0.10 0.04 0.01 0.00 0.01 0.02 0.00 0.00 0.00 0.00 0.00 0.00 0.01 0.03 0.06 0.10 0.13 0.16 0.10 0.13 0.15 0.56 0.15 0.01 0.00 0.21 0.14 0.13 0.21 0.18 0.06 0.04 0.05 0.00 0.01 0.01 0.01 0.03 0.14 0.01
0.67 0.56 0.48 0.56 0.23 0.01 0.00 0.00 0.01 0.01 0.00 0.00 0.00 0.00 0.00 0.00 0.00 0.02 0.05 0.07 0.10 0.10 0.04 0.02 0.07 0.65 0.16 0.02 0.07 0.06 0.09 0.12 0.15 0.10 0.02 0.00 0.00 0.00 0.00 0.00 0.01 0.04 0.08 0.02
0.73 0.47 0.19 0.10 0.19 0.01 0.00 0.00 0.00 0.00 0.00 0.00 0.00 0.00 0.00 0.00 0.00 0.01 0.01 0.06 0.19 0.39 0.16 0.04 0.04 0.48 0.39 0.17 0.14 0.03 0.06 0.19 0.03 0.00 0.00 0.00 0.00 0.00 0.00 0.00 0.00 0.06 0.02 0.00
0.97 0.93 0.38 0.03 0.08 0.00 0.00 0.00 0.00 0.00 0.00 0.00 0.00 0.00 0.00 0.00 0.00 0.00 0.00 0.06 0.06 0.21 0.20 0.22 0.10 0.11 0.37 0.34 0.09 0.11 0.02 0.01 0.00 0.00 0.00 0.00 0.00 0.00 0.00 0.00 0.00 0.01 0.01 0.00
0.66 0.43 0.40 0.09 0.04 0.00 0.00 0.00 0.00 0.00 0.00 0.00 0.00 0.00 0.00 0.00 0.00 0.00 0.00 0.01 0.04 0.10 0.06 0.06 0.01 0.00 0.01 0.08 0.13 0.04 0.00 0.00 0.02 0.03 0.00 0.00 0.00 0.00 0.00 0.00 0.00 0.00 0.00 0.00
1.20 0.38 0.08 0.06 0.01 0.00 0.00 0.00 0.00 0.00 0.00 0.00 0.00 0.00 0.00 0.00 0.00 0.00 0.00 0.00 0.01 0.05 0.13 0.03 0.00 0.00 0.00 0.00 0.00 0.00 0.00 0.00 0.00 0.00 0.00 0.00 0.00 0.00 0.00 0.00 0.00 0.00 0.00 0.00
1.18 0.64 0.06 0.01 0.00 0.00 0.00 0.00 0.00 0.00 0.00 0.00 0.00 0.00 0.00 0.00 0.00 0.00 0.00 0.00 0.00 0.01 0.10 0.03 0.00 0.00 0.00 0.00 0.00 0.00 0.00 0.00 0.00 0.00 0.00 0.00 0.00 0.00 0.00 0.00 0.00 0.00 0.00 0.00
0.27 0.47 0.11 0.00 0.00 0.00 0.00 0.00 0.00 0.00 0.00 0.00 0.00 0.00 0.00 0.00 0.00 0.00 0.00 0.00 0.00 0.09 0.09 0.05 0.01 0.00 0.00 0.00 0.00 0.00 0.00 0.00 0.00 0.00 0.00 0.00 0.00 0.00 0.00 0.00 0.00 0.00 0.00 0.00
0.12 0.05 0.04 0.00 0.00 0.00 0.00 0.00 0.00 0.00 0.00 0.00 0.00 0.00 0.00 0.00 0.00 0.00 0.00 0.00 0.13 0.13 0.03 0.05 0.07 0.01 0.00 0.00 0.00 0.00 0.00 0.00 0.00 0.00 0.00 0.00 0.00 0.00 0.00 0.00 0.01 0.00 0.00 0.00
0.19 0.04 0.00 0.01 0.01 0.00 0.00 0.00 0.00 0.00 0.00 0.00 0.00 0.00 0.00 0.00 0.00 0.00 0.00 0.01 0.02 0.02 0.02 0.02 0.05 0.03 0.01 0.00 0.00 0.00 0.00 0.00 0.00 0.00 0.00 0.00 0.00 0.00 0.00 0.00 0.01 0.01 0.00 0.00
0.27 0.06 0.00 0.00 0.01 0.00 0.00 0.00 0.00 0.00 0.00 0.00 0.00 0.00 0.00 0.00 0.00 0.00 0.00 0.00 0.00 0.02 0.02 0.04 0.02 0.04 0.10 0.01 0.01 0.00 0.00 0.00 0.00 0.00 0.00 0.00 0.00 0.00 0.00 0.00 0.00 0.00 0.00 0.00
0.26 0.06 0.03 0.01 0.01 0.00 0.00 0.00 0.00 0.00 0.00 0.00 0.00 0.00 0.00 0.00 0.00 0.00 0.00 0.00 0.00 0.00 0.00 0.00 0.02 0.02 0.00 0.01 0.04 0.00 0.00 0.00 0.00 0.00 0.00 0.00 0.00 0.00 0.00 0.00 0.00 0.00 0.00 0.00
0.27 0.12 0.09 0.02 0.02 0.01 0.00 0.00 0.00 0.00 0.00 0.00 0.00 0.00 0.00 0.00 0.00 0.00 0.00 0.00 0.00 0.00 0.00 0.00 0.00 0.02 0.05 0.01 0.00 0.00 0.00 0.00 0.00 0.01 0.00 0.00 0.00 0.00 0.00 0.01 0.02 0.00 0.00 0.01
0.32 0.22 0.18 0.04 0.01 0.00 0.00 0.00 0.00 0.00 0.00 0.00 0.00 0.00 0.00 0.00 0.00 0.00 0.00 0.00 0.00 0.00 0.00 0.00 0.00 0.01 0.01 0.00 0.00 0.00 0.00 0.00 0.01 0.03 0.01 0.02 0.02 0.01 0.00 0.00 0.00 0.00 0.02 0.01
0.36 0.34 0.22 0.04 0.00 0.00 0.00 0.00 0.00 0.00 0.00 0.00 0.00 0.00 0.00 0.00 0.00 0.00 0.00 0.00 0.00 0.00 0.00 0.00 0.00 0.00 0.00 0.00 0.00 0.00 0.00 0.00 0.00 0.00 0.00 0.01 0.01 0.01 0.01 0.00 0.00 0.00 0.00 0.01
0.39 0.41 0.21 0.02 0.00 0.00 0.00 0.00 0.00 0.00 0.00 0.00 0.00 0.00 0.00 0.00 0.00 0.00 0.00 0.00 0.00 0.00 0.00 0.00 0.00 0.00 0.01 0.01 0.00 0.00 0.00 0.00 0.00 0.00 0.00 0.00 0.00 0.00 0.00 0.00 0.00 0.00 0.00 0.01
0.44 0.39 0.13 0.01 0.00 0.00 0.00 0.00 0.00 0.00 0.00 0.00 0.00 0.00 0.00 0.00 0.00 0.00 0.00 0.00 0.00 0.00 0.00 0.00 0.00 0.00 0.00 0.00 0.00 0.00 0.00 0.00 0.00 0.00 0.00 0.00 0.00 0.00 0.00 0.00 0.00 0.00 0.00 0.00
0.39 0.25 0.06 0.01 0.00 0.00 0.00 0.01 0.00 0.00 0.00 0.00 0.00 0.00 0.00 0.00 0.00 0.00 0.02 0.00 0.02 0.01 0.01 0.00 0.01 0.00 0.00 0.00 0.00 0.00 0.00 0.00 0.00 0.00 0.00 0.00 0.00 0.00 0.00 0.00 0.00 0.00 0.00 0.00
0.29 0.18 0.05 0.02 0.01 0.00 0.00 0.00 0.00 0.00 0.00 0.00 0.00 0.00 0.00 0.00 0.00 0.00 0.03 0.03 0.02 0.03 0.00 0.01 0.03 0.01 0.00 0.00 0.00 0.00 0.00 0.00 0.00 0.00 0.00 0.00 0.00 0.00 0.00 0.00 0.00 0.00 0.00 0.01
0.22 0.12 0.07 0.05 0.03 0.01 0.00 0.00 0.00 0.00 0.00 0.00 0.00 0.00 0.00 0.00 0.00 0.00 0.00 0.03 0.03 0.04 0.01 0.02 0.02 0.01 0.00 0.00 0.00 0.01 0.01 0.01 0.00 0.00 0.01 0.00 0.00 0.00 0.01 0.02 0.02 0.02 0.03 0.04
0.05 0.02 0.04 0.06 0.05 0.04 0.02 0.00 0.00 0.00 0.00 0.00 0.00 0.00 0.00 0.00 0.01 0.01 0.01 0.03 0.03 0.02 0.04 0.07 0.01 0.01 0.01 0.00 0.01 0.01 0.02 0.02 0.02 0.01 0.01 0.01 0.02 0.02 0.02 0.03 0.07 0.08 0.08 0.06
0.11 0.18 0.20 0.11 0.09 0.06 0.02 0.00 0.00 0.00 0.00 0.00 0.00 0.00 0.00 0.01 0.02 0.02 0.02 0.03 0.02 0.04 0.08 0.05 0.02 0.02 0.01 0.00 0.00 0.01 0.02 0.04 0.05 0.06 0.06 0.03 0.02 0.03 0.04 0.04 0.02 0.02 0.01 0.00
0.39 0.24 0.17 0.11 0.05 0.00 0.00 0.00 0.00 0.00 0.00 0.00 0.00 0.00 0.00 0.00 0.01 0.02 0.04 0.01 0.04 0.05 0.03 0.02 0.02 0.01 0.00 0.01 0.02 0.02 0.04 0.06 0.08 0.08 0.07 0.04 0.02 0.01 0.00 0.00 0.00 0.00 0.00 0.00
0.36 0.13 0.08 0.03 0.00 0.01 0.01 0.02 0.02 0.00 0.00 0.00 0.00 0.00 0.00 0.00 0.01 0.01 0.03 0.03 0.03 0.02 0.01 0.01 0.00 0.01 0.02 0.03 0.03 0.04 0.07 0.09 0.11 0.13 0.14 0.15 0.12 0.08 0.06 0.03 0.00 0.00 0.01 0.01
0.28 0.14 0.04 0.02 0.02 0.04 0.03 0.04 0.04 0.00 0.00 0.00 0.00 0.00 0.00 0.01 0.01 0.02 0.01 0.02 0.01 0.00 0.00 0.01 0.01 0.01 0.04 0.07 0.07 0.09 0.12 0.13 0.14 0.14 0.13 0.10 0.07 0.05 0.03 0.03 0.04 0.03 0.03 0.02
0.33 0.08 0.02 0.03 0.03 0.04 0.05 0.03 0.01 0.00 0.00 0.00 0.00 0.00 0.00 0.00 0.01 0.00 0.00 0.00 0.00 0.00 0.00 0.00 0.00 0.01 0.02 0.04 0.06 0.09 0.11 0.12 0.12 0.10 0.08 0.07 0.05 0.05 0.04 0.04 0.01 0.01 0.00 0.00

GFSNW_prec_precacc24_111.txt.gz
Total_Precipitation_Accumulation
0.87 0.69 0.44 0.26 0.38 0.72 0.10 0.01 0.02 0.03 0.02 0.00 0.00 0.00 0.00 0.00 0.01 0.02 0.03 0.03 0.14 0.14 0.13 0.14 0.42 0.41 0.10 0.00 0.00 0.00 0.04 0.11 0.12 0.15 0.04 0.01 0.05 0.02 0.04 0.06 0.02 0.02 0.02 0.01
0.99 0.84 0.74 0.37 0.18 0.30 0.08 0.01 0.05 0.07 0.01 0.00 0.00 0.00 0.00 0.00 0.00 0.01 0.03 0.08 0.11 0.16 0.10 0.12 0.14 0.49 0.14 0.01 0.00 0.21 0.14 0.13 0.20 0.16 0.05 0.02 0.02 0.00 0.01 0.01 0.01 0.03 0.14 0.01
0.73 0.58 0.49 0.66 0.35 0.12 0.01 0.01 0.04 0.05 0.01 0.00 0.00 0.00 0.00 0.00 0.00 0.00 0.00 0.04 0.07 0.09 0.04 0.02 0.06 0.43 0.14 0.02 0.03 0.06 0.09 0.12 0.15 0.10 0.02 0.00 0.00 0.00 0.00 0.00 0.01 0.04 0.08 0.02
0.79 0.51 0.22 0.16 0.53 0.12 0.01 0.01 0.01 0.01 0.00 0.00 0.00 0.00 0.00 0.00 0.00 0.00 0.00 0.02 0.08 0.19 0.14 0.04 0.04 0.34 0.19 0.13 0.12 0.03 0.06 0.19 0.03 0.00 0.00 0.00 0.00 0.00 0.00 0.00 0.00 0.06 0.02 0.00
1.08 1.03 0.45 0.05 0.21 0.18 0.03 0.01 0.01 0.00 0.00 0.00 0.00 0.00 0.00 0.00 0.00 0.00 0.00 0.00 0.00 0.06 0.12 0.17 0.08 0.10 0.29 0.28 0.07 0.11 0.02 0.01 0.00 0.00 0.00 0.00 0.00 0.00 0.00 0.00 0.00 0.01 0.01 0.00
0.77 0.54 0.64 0.21 0.07 0.04 0.01 0.00 0.00 0.00 0.00 0.00 0.00 0.00 0.00 0.00 0.00 0.00 0.00 0.00 0.00 0.01 0.01 0.03 0.01 0.00 0.01 0.07 0.11 0.04 0.00 0.00 0.02 0.03 0.00 0.00 0.00 0.00 0.00 0.00 0.00 0.00 0.00 0.00
1.27 0.43 0.15 0.28 0.04 0.00 0.00 0.00 0.00 0.00 0.00 0.00 0.00 0.00 0.00 0.00 0.00 0.00 0.00 0.00 0.00 0.00 0.00 0.00 0.00 0.00 0.00 0.00 0.00 0.00 0.00 0.00 0.00 0.00 0.00 0.00 0.00 0.00 0.00 0.00 0.00 0.00 0.00 0.00
1.35 0.70 0.06 0.07 0.03 0.00 0.00 0.00 0.00 0.00 0.00 0.00 0.00 0.00 0.00 0.00 0.00 0.00 0.00 0.00 0.00 0.00 0.00 0.00 0.00 0.00 0.00 0.00 0.00 0.00 0.00 0.00 0.00 0.00 0.00 0.00 0.00 0.00 0.00 0.00 0.00 0.00 0.00 0.00
0.46 0.78 0.16 0.02 0.01 0.00 0.00 0.00 0.00 0.00 0.00 0.00 0.00 0.00 0.00 0.00 0.00 0.00 0.00 0.00 0.00 0.00 0.01 0.01 0.01 0.00 0.00 0.00 0.00 0.00 0.00 0.00 0.00 0.00 0.00 0.00 0.00 0.00 0.00 0.00 0.00 0.00 0.00 0.00
0.21 0.27 0.25 0.04 0.00 0.00 0.00 0.00 0.00 0.00 0.00 0.00 0.00 0.00 0.00 0.00 0.00 0.00 0.00 0.00 0.00 0.00 0.00 0.01 0.01 0.00 0.00 0.00 0.00 0.00 0.00 0.00 0.00 0.00 0.00 0.00 0.00 0.00 0.00 0.00 0.01 0.00 0.00 0.00
0.20 0.06 0.06 0.03 0.01 0.00 0.00 0.00 0.00 0.00 0.00 0.00 0.00 0.00 0.00 0.00 0.00 0.00 0.00 0.00 0.00 0.00 0.00 0.00 0.01 0.01 0.00 0.00 0.00 0.00 0.00 0.00 0.00 0.00 0.00 0.00 0.00 0.00 0.00 0.00 0.01 0.01 0.00 0.00
0.30 0.10 0.01 0.01 0.00 0.00 0.00 0.00 0.00 0.00 0.00 0.00 0.00 0.00 0.00 0.00 0.00 0.00 0.00 0.00 0.00 0.00 0.00 0.00 0.01 0.01 0.02 0.00 0.01 0.00 0.00 0.00 0.00 0.00 0.00 0.00 0.00 0.00 0.00 0.00 0.00 0.00 0.00 0.00
0.31 0.13 0.04 0.01 0.00 0.00 0.00 0.00 0.00 0.00 0.00 0.00 0.00 0.00 0.00 0.00 0.00 0.00 0.00 0.00 0.00 0.00 0.00 0.00 0.00 0.01 0.00 0.00 0.01 0.00 0.00 0.00 0.00 0.00 0.00 0.00 0.00 0.00 0.00 0.00 0.00 0.00 0.00 0.00
0.35 0.17 0.10 0.02 0.01 0.00 0.00 0.00 0.00 0.00 0.00 0.00 0.00 0.00 0.00 0.00 0.00 0.00 0.00 0.00 0.00 0.00 0.00 0.00 0.00 0.00 0.01 0.00 0.00 0.00 0.00 0.00 0.00 0.01 0.00 0.00 0.00 0.00 0.00 0.01 0.01 0.00 0.00 0.01
0.38 0.25 0.18 0.04 0.01 0.00 0.00 0.00 0.00 0.00 0.00 0.00 0.00 0.00 0.00 0.00 0.00 0.00 0.00 0.00 0.00 0.00 0.00 0.00 0.00 0.00 0.00 0.00 0.00 0.00 0.00 0.00 0.01 0.03 0.01 0.02 0.02 0.01 0.00 0.00 0.00 0.00 0.02 0.01
0.38 0.36 0.22 0.04 0.00 0.00 0.00 0.00 0.00 0.00 0.00 0.00 0.00 0.00 0.00 0.00 0.00 0.00 0.00 0.00 0.00 0.00 0.00 0.00 0.00 0.00 0.00 0.00 0.00 0.00 0.00 0.00 0.00 0.00 0.00 0.01 0.01 0.01 0.01 0.00 0.00 0.00 0.00 0.01
0.40 0.42 0.21 0.02 0.00 0.00 0.00 0.00 0.00 0.00 0.00 0.00 0.00 0.00 0.00 0.00 0.00 0.00 0.00 0.00 0.00 0.00 0.00 0.00 0.00 0.00 0.00 0.00 0.00 0.00 0.00 0.00 0.00 0.00 0.00 0.00 0.00 0.00 0.00 0.00 0.00 0.00 0.00 0.01
0.45 0.39 0.13 0.01 0.00 0.00 0.00 0.00 0.00 0.00 0.00 0.00 0.00 0.00 0.00 0.00 0.00 0.00 0.00 0.00 0.00 0.00 0.00 0.00 0.00 0.00 0.00 0.00 0.00 0.00 0.00 0.00 0.00 0.00 0.00 0.00 0.00 0.00 0.00 0.00 0.00 0.00 0.00 0.00
0.44 0.27 0.06 0.01 0.00 0.00 0.00 0.00 0.00 0.00 0.00 0.00 0.00 0.00 0.00 0.00 0.00 0.00 0.01 0.00 0.01 0.00 0.00 0.00 0.00 0.00 0.00 0.00 0.00 0.00 0.00 0.00 0.00 0.00 0.00 0.00 0.00 0.00 0.00 0.00 0.00 0.00 0.00 0.00
0.37 0.22 0.07 0.03 0.01 0.00 0.00 0.00 0.00 0.00 0.00 0.00 0.00 0.00 0.00 0.00 0.00 0.00 0.01 0.01 0.01 0.01 0.00 0.01 0.02 0.00 0.00 0.00 0.00 0.00 0.00 0.00 0.00 0.00 0.00 0.00 0.00 0.00 0.00 0.00 0.00 0.00 0.00 0.01
0.31 0.18 0.07 0.05 0.02 0.00 0.00 0.00 0.00 0.00 0.00 0.00 0.00 0.00 0.00 0.00 0.00 0.00 0.00 0.01 0.01 0.02 0.00 0.02 0.01 0.01 0.00 0.00 0.00 0.01 0.01 0.01 0.00 0.00 0.01 0.00 0.00 0.00 0.01 0.02 0.02 0.02 0.03 0.04
0.09 0.03 0.04 0.06 0.05 0.04 0.02 0.00 0.00 0.00 0.00 0.00 0.00 0.00 0.00 0.00 0.00 0.00 0.00 0.01 0.01 0.01 0.01 0.04 0.00 0.00 0.00 0.00 0.00 0.00 0.02 0.02 0.02 0.01 0.01 0.01 0.02 0.02 0.02 0.03 0.07 0.08 0.08 0.06
0.11 0.19 0.21 0.11 0.09 0.06 0.02 0.00 0.00 0.00 0.00 0.00 0.00 0.00 0.00 0.00 0.01 0.00 0.01 0.01 0.01 0.02 0.04 0.02 0.00 0.00 0.00 0.00 0.00 0.00 0.01 0.02 0.04 0.06 0.05 0.03 0.02 0.03 0.04 0.04 0.02 0.02 0.01 0.00
0.41 0.24 0.17 0.11 0.05 0.00 0.00 0.00 0.00 0.00 0.00 0.00 0.00 0.00 0.00 0.00 0.00 0.00 0.01 0.01 0.02 0.03 0.02 0.00 0.00 0.00 0.00 0.00 0.00 0.01 0.01 0.02 0.05 0.05 0.06 0.04 0.02 0.01 0.00 0.00 0.00 0.00 0.00 0.00
0.44 0.16 0.09 0.03 0.00 0.01 0.01 0.02 0.02 0.00 0.00 0.00 0.00 0.00 0.00 0.00 0.00 0.00 0.01 0.02 0.01 0.00 0.00 0.00 0.00 0.00 0.00 0.00 0.01 0.01 0.02 0.05 0.06 0.08 0.09 0.10 0.10 0.08 0.06 0.03 0.00 0.00 0.01 0.01
0.38 0.19 0.06 0.02 0.02 0.04 0.03 0.04 0.04 0.00 0.00 0.00 0.00 0.00 0.00 0.00 0.00 0.01 0.00 0.01 0.00 0.00 0.00 0.00 0.00 0.00 0.00 0.00 0.01 0.03 0.06 0.07 0.08 0.09 0.09 0.08 0.07 0.05 0.03 0.03 0.04 0.03 0.03 0.02
0.42 0.11 0.02 0.03 0.03 0.04 0.05 0.03 0.01 0.00 0.00 0.00 0.00 0.00 0.00 0.00 0.00 0.00 0.00 0.00 0.00 0.00 0.00 0.00 0.00 0.00 0.00 0.00 0.00 0.01 0.04 0.07 0.08 0.09 0.08 0.07 0.05 0.04 0.04 0.04 0.01 0.01 0.00 0.00

GFSNW_prec_precacc24_114.txt.gz
Total_Precipitation_Accumulation
0.92 0.72 0.44 0.27 0.42 1.04 0.15 0.07 0.06 0.08 0.03 0.02 0.00 0.00 0.00 0.00 0.01 0.00 0.02 0.02 0.07 0.08 0.11 0.13 0.31 0.18 0.02 0.00 0.00 0.00 0.04 0.06 0.09 0.11 0.04 0.01 0.01 0.01 0.04 0.06 0.02 0.02 0.03 0.07
1.04 0.85 0.75 0.39 0.21 0.63 0.27 0.10 0.13 0.16 0.04 0.00 0.00 0.00 0.00 0.00 0.00 0.00 0.00 0.04 0.05 0.03 0.04 0.12 0.11 0.30 0.05 0.00 0.00 0.21 0.14 0.12 0.17 0.13 0.05 0.02 0.01 0.00 0.01 0.01 0.01 0.03 0.15 0.04
0.77 0.58 0.50 0.67 0.36 0.19 0.20 0.05 0.11 0.14 0.05 0.00 0.00 0.00 0.00 0.00 0.00 0.00 0.00 0.00 0.00 0.00 0.01 0.01 0.06 0.22 0.08 0.01 0.02 0.05 0.09 0.12 0.15 0.10 0.02 0.00 0.00 0.00 0.00 0.00 0.01 0.04 0.08 0.02
0.83 0.53 0.23 0.17 0.53 0.15 0.08 0.02 0.01 0.04 0.02 0.00 0.00 0.00 0.00 0.00 0.00 0.00 0.00 0.00 0.00 0.00 0.00 0.00 0.02 0.13 0.09 0.04 0.01 0.01 0.05 0.19 0.04 0.00 0.00 0.00 0.00 0.00 0.00 0.00 0.00 0.06 0.02 0.00
1.14 1.08 0.49 0.06 0.26 0.28 0.08 0.01 0.01 0.01 0.00 0.00 0.00 0.00 0.00 0.00 0.00 0.00 0.00 0.00 0.00 0.00 0.00 0.00 0.00 0.03 0.07 0.12 0.03 0.04 0.00 0.01 0.00 0.00 0.00 0.00 0.00 0.00 0.00 0.00 0.00 0.01 0.01 0.00
0.83 0.61 0.70 0.25 0.11 0.23 0.04 0.00 0.00 0.00 0.00 0.00 0.00 0.00 0.00 0.00 0.00 0.00 0.00 0.00 0.00 0.00 0.00 0.00 0.00 0.00 0.00 0.04 0.05 0.03 0.00 0.00 0.02 0.03 0.00 0.00 0.00 0.00 0.00 0.00 0.00 0.00 0.00 0.00
1.33 0.49 0.21 0.31 0.07 0.04 0.00 0.00 0.00 0.00 0.00 0.00 0.00 0.00 0.00 0.00 0.00 0.00 0.00 0.00 0.00 0.00 0.00 0.00 0.00 0.00 0.00 0.00 0.00 0.00 0.00 0.00 0.00 0.00 0.00 0.00 0.00 0.00 0.00 0.00 0.00 0.00 0.00 0.00
1.40 0.74 0.08 0.07 0.05 0.01 0.00 0.00 0.00 0.00 0.00 0.00 0.00 0.00 0.00 0.00 0.00 0.00 0.00 0.00 0.00 0.00 0.00 0.00 0.00 0.00 0.00 0.00 0.00 0.00 0.00 0.00 0.00 0.00 0.00 0.00 0.00 0.00 0.00 0.00 0.00 0.00 0.00 0.00
0.52 0.80 0.16 0.02 0.02 0.00 0.00 0.00 0.00 0.00 0.00 0.00 0.00 0.00 0.00 0.00 0.00 0.00 0.00 0.00 0.00 0.00 0.00 0.00 0.00 0.00 0.00 0.00 0.00 0.00 0.00 0.00 0.00 0.00 0.00 0.00 0.00 0.00 0.00 0.00 0.01 0.00 0.00 0.00
0.40 0.33 0.26 0.04 0.00 0.00 0.00 0.00 0.00 0.00 0.00 0.00 0.00 0.00 0.00 0.00 0.00 0.00 0.00 0.00 0.00 0.00 0.00 0.00 0.00 0.00 0.00 0.00 0.00 0.00 0.00 0.00 0.00 0.00 0.00 0.00 0.00 0.00 0.00 0.00 0.01 0.00 0.00 0.00
0.36 0.24 0.15 0.04 0.01 0.00 0.00 0.00 0.00 0.00 0.00 0.00 0.00 0.00 0.00 0.00 0.00 0.00 0.00 0.00 0.00 0.00 0.00 0.00 0.00 0.00 0.00 0.00 0.00 0.00 0.00 0.00 0.00 0.00 0.00 0.00 0.00 0.00 0.00 0.00 0.01 0.01 0.00 0.00
0.31 0.12 0.02 0.01 0.00 0.00 0.00 0.00 0.00 0.00 0.00 0.00 0.00 0.00 0.00 0.00 0.00 0.00 0.00 0.00 0.00 0.00 0.00 0.00 0.00 0.00 0.00 0.00 0.01 0.00 0.00 0.00 0.00 0.00 0.00 0.00 0.00 0.00 0.00 0.00 0.00 0.00 0.00 0.00
0.32 0.14 0.04 0.01 0.00 0.00 0.00 0.00 0.00 0.00 0.00 0.00 0.00 0.00 0.00 0.00 0.00 0.00 0.00 0.00 0.00 0.00 0.00 0.00 0.00 0.00 0.00 0.00 0.01 0.00 0.00 0.00 0.00 0.00 0.00 0.00 0.00 0.00 0.00 0.00 0.00 0.00 0.00 0.00
0.37 0.19 0.10 0.02 0.01 0.00 0.00 0.00 0.00 0.00 0.00 0.00 0.00 0.00 0.00 0.00 0.00 0.00 0.00 0.00 0.00 0.00 0.00 0.00 0.00 0.00 0.00 0.00 0.00 0.00 0.00 0.00 0.00 0.01 0.00 0.00 0.00 0.00 0.00 0.00 0.00 0.00 0.00 0.01
0.42 0.28 0.18 0.04 0.00 0.00 0.00 0.00 0.00 0.00 0.00 0.00 0.00 0.00 0.00 0.00 0.00 0.00 0.00 0.00 0.00 0.00 0.00 0.00 0.00 0.00 0.00 0.00 0.00 0.00 0.00 0.00 0.01 0.03 0.01 0.02 0.02 0.01 0.00 0.00 0.00 0.00 0.02 0.01
0.40 0.36 0.22 0.04 0.00 0.00 0.00 0.00 0.00 0.00 0.00 0.00 0.00 0.00 0.00 0.00 0.00 0.00 0.00 0.00 0.00 0.00 0.00 0.00 0.00 0.00 0.00 0.00 0.00 0.00 0.00 0.00 0.00 0.00 0.00 0.01 0.01 0.01 0.01 0.00 0.00 0.00 0.00 0.01
0.42 0.42 0.20 0.02 0.00 0.00 0.00 0.00 0.00 0.00 0.00 0.00 0.00 0.00 0.00 0.00 0.00 0.00 0.00 0.00 0.00 0.00 0.00 0.00 0.00 0.00 0.00 0.00 0.00 0.00 0.00 0.00 0.00 0.00 0.00 0.00 0.00 0.00 0.00 0.00 0.00 0.00 0.00 0.01
0.46 0.38 0.12 0.01 0.00 0.00 0.00 0.00 0.00 0.00 0.00 0.00 0.00 0.00 0.00 0.00 0.00 0.00 0.00 0.00 0.00 0.00 0.00 0.00 0.00 0.00 0.00 0.00 0.00 0.00 0.00 0.00 0.00 0.00 0.00 0.00 0.00 0.00 0.00 0.00 0.00 0.00 0.00 0.00
0.43 0.26 0.06 0.00 0.00 0.00 0.00 0.00 0.00 0.00 0.00 0.00 0.00 0.00 0.00 0.00 0.00 0.00 0.00 0.00 0.00 0.00 0.00 0.00 0.00 0.00 0.00 0.00 0.00 0.00 0.00 0.00 0.00 0.00 0.00 0.00 0.00 0.00 0.00 0.00 0.00 0.00 0.00 0.00
0.37 0.22 0.07 0.02 0.01 0.00 0.00 0.00 0.00 0.00 0.00 0.00 0.00 0.00 0.00 0.00 0.00 0.00 0.00 0.01 0.01 0.01 0.00 0.00 0.01 0.00 0.00 0.00 0.00 0.00 0.00 0.00 0.00 0.00 0.00 0.00 0.00 0.00 0.00 0.00 0.00 0.00 0.00 0.01
0.32 0.17 0.05 0.04 0.01 0.00 0.00 0.00 0.00 0.00 0.00 0.00 0.00 0.00 0.00 0.00 0.00 0.00 0.00 0.00 0.00 0.01 0.00 0.01 0.01 0.00 0.00 0.00 0.00 0.00 0.00 0.00 0.00 0.00 0.01 0.00 0.00 0.00 0.01 0.02 0.02 0.02 0.03 0.04
0.09 0.02 0.03 0.05 0.04 0.04 0.02 0.00 0.00 0.00 0.00 0.00 0.00 0.00 0.00 0.00 0.00 0.00 0.00 0.00 0.00 0.01 0.01 0.02 0.00 0.00 0.00 0.00 0.00 0.00 0.00 0.00 0.01 0.01 0.01 0.01 0.02 0.02 0.02 0.03 0.07 0.08 0.08 0.06
0.12 0.20 0.20 0.11 0.09 0.06 0.02 0.00 0.00 0.00 0.00 0.00 0.00 0.00 0.00 0.00 0.00 0.00 0.00 0.00 0.01 0.01 0.02 0.01 0.00 0.00 0.00 0.00 0.00 0.00 0.00 0.00 0.01 0.02 0.02 0.02 0.02 0.03 0.04 0.04 0.02 0.02 0.01 0.00
0.44 0.25 0.15 0.10 0.04 0.00 0.00 0.00 0.00 0.00 0.00 0.00 0.00 0.00 0.00 0.00 0.00 0.00 0.00 0.00 0.01 0.01 0.01 0.00 0.00 0.00 0.00 0.00 0.00 0.00 0.00 0.01 0.02 0.02 0.02 0.02 0.01 0.01 0.00 0.00 0.00 0.00 0.00 0.00
0.46 0.14 0.07 0.02 0.00 0.01 0.01 0.02 0.02 0.00 0.00 0.00 0.00 0.00 0.00 0.00 0.00 0.00 0.00 0.01 0.01 0.00 0.00 0.00 0.00 0.00 0.00 0.00 0.00 0.00 0.00 0.01 0.02 0.03 0.04 0.04 0.05 0.05 0.05 0.02 0.00 0.00 0.01 0.01
0.44 0.20 0.07 0.02 0.02 0.04 0.03 0.04 0.04 0.00 0.00 0.00 0.00 0.00 0.00 0.00 0.00 0.00 0.00 0.00 0.00 0.00 0.00 0.00 0.00 0.00 0.00 0.00 0.00 0.00 0.01 0.02 0.03 0.04 0.05 0.06 0.06 0.04 0.03 0.03 0.04 0.03 0.03 0.02
0.47 0.12 0.02 0.03 0.03 0.04 0.05 0.03 0.01 0.00 0.00 0.00 0.00 0.00 0.00 0.00 0.00 0.00 0.00 0.00 0.00 0.00 0.00 0.00 0.00 0.00 0.00 0.00 0.00 0.00 0.00 0.01 0.02 0.03 0.05 0.06 0.05 0.04 0.04 0.04 0.01 0.01 0.00 0.00

GFSNW_prec_precacc24_117.txt.gz
Total_Precipitation_Accumulation
0.98 0.76 0.46 0.30 0.47 1.10 0.19 0.16 0.20 0.10 0.04 0.02 0.00 0.00 0.00 0.00 0.00 0.00 0.00 0.00 0.01 0.00 0.02 0.12 0.14 0.01 0.01 0.00 0.00 0.01 0.02 0.03 0.03 0.04 0.02 0.01 0.01 0.00 0.03 0.04 0.01 0.02 0.04 0.16
1.09 0.87 0.76 0.46 0.27 0.77 0.29 0.16 0.23 0.23 0.05 0.01 0.00 0.00 0.00 0.00 0.00 0.00 0.00 0.00 0.00 0.00 0.00 0.10 0.05 0.01 0.00 0.00 0.00 0.21 0.12 0.06 0.10 0.08 0.04 0.02 0.00 0.00 0.00 0.00 0.01 0.02 0.16 0.11
0.79 0.59 0.51 0.72 0.42 0.28 0.25 0.10 0.19 0.20 0.08 0.00 0.00 0.00 0.00 0.00 0.00 0.00 0.00 0.00 0.00 0.00 0.00 0.01 0.03 0.02 0.00 0.01 0.02 0.04 0.07 0.07 0.12 0.10 0.03 0.01 0.00 0.00 0.00 0.00 0.01 0.04 0.10 0.05
0.87 0.54 0.24 0.20 0.58 0.18 0.16 0.04 0.02 0.04 0.02 0.00 0.00 0.00 0.00 0.00 0.00 0.00 0.00 0.00 0.00 0.00 0.00 0.00 0.00 0.01 0.00 0.00 0.01 0.00 0.04 0.17 0.04 0.00 0.00 0.00 0.00 0.00 0.00 0.00 0.00 0.07 0.03 0.00
1.17 1.10 0.51 0.09 0.27 0.29 0.10 0.01 0.02 0.01 0.00 0.00 0.00 0.00 0.00 0.00 0.00 0.00 0.00 0.00 0.00 0.00 0.00 0.00 0.00 0.00 0.01 0.01 0.00 0.00 0.00 0.01 0.00 0.00 0.00 0.00 0.00 0.00 0.00 0.00 0.00 0.02 0.01 0.00
0.85 0.62 0.70 0.27 0.12 0.25 0.06 0.00 0.00 0.00 0.00 0.00 0.00 0.00 0.00 0.00 0.00 0.00 0.00 0.00 0.00 0.00 0.00 0.00 0.00 0.00 0.00 0.00 0.01 0.01 0.00 0.00 0.02 0.02 0.00 0.00 0.00 0.00 0.00 0.00 0.00 0.00 0.00 0.00
1.34 0.49 0.21 0.32 0.08 0.05 0.00 0.00 0.00 0.00 0.00 0.00 0.00 0.00 0.00 0.00 0.00 0.00 0.00 0.00 0.00 0.00 0.00 0.00 0.00 0.00 0.00 0.00 0.00 0.00 0.00 0.00 0.00 0.00 0.00 0.00 0.00 0.00 0.00 0.00 0.00 0.00 0.00 0.00
1.41 0.74 0.09 0.09 0.07 0.02 0.00 0.00 0.00 0.00 0.00 0.00 0.00 0.00 0.00 0.00 0.00 0.00 0.00 0.00 0.00 0.00 0.00 0.00 0.00 0.00 0.00 0.00 0.00 0.00 0.00 0.00 0.00 0.00 0.00 0.00 0.00 0.00 0.00 0.00 0.00 0.00 0.00 0.00
0.53 0.80 0.17 0.03 0.03 0.01 0.00 0.00 0.00 0.00 0.00 0.00 0.00 0.00 0.00 0.00 0.00 0.00 0.00 0.00 0.00 0.00 0.00 0.00 0.00 0.00 0.00 0.00 0.00 0.00 0.00 0.00 0.00 0.00 0.00 0.00 0.00 0.00 0.00 0.00 0.01 0.00 0.00 0.00
0.42 0.34 0.27 0.05 0.01 0.00 0.00 0.00 0.00 0.00 0.00 0.00 0.00 0.00 0.00 0.00 0.00 0.00 0.00 0.00 0.00 0.00 0.00 0.00 0.00 0.00 0.00 0.00 0.00 0.00 0.00 0.00 0.00 0.00 0.00 0.00 0.00 0.00 0.00 0.00 0.01 0.00 0.00 0.00
0.43 0.24 0.15 0.05 0.01 0.00 0.00 0.00 0.00 0.00 0.00 0.00 0.00 0.00 0.00 0.00 0.00 0.00 0.00 0.00 0.00 0.00 0.00 0.00 0.00 0.00 0.00 0.00 0.00 0.00 0.00 0.00 0.00 0.00 0.00 0.00 0.00 0.00 0.00 0.00 0.01 0.01 0.00 0.00
0.39 0.14 0.02 0.01 0.00 0.00 0.00 0.00 0.00 0.00 0.00 0.00 0.00 0.00 0.00 0.00 0.00 0.00 0.00 0.00 0.00 0.00 0.00 0.00 0.00 0.00 0.00 0.00 0.00 0.00 0.00 0.00 0.00 0.00 0.00 0.00 0.00 0.00 0.00 0.00 0.00 0.00 0.00 0.00
0.32 0.14 0.04 0.01 0.00 0.00 0.00 0.00 0.00 0.00 0.00 0.00 0.00 0.00 0.00 0.00 0.00 0.00 0.00 0.00 0.00 0.00 0.00 0.00 0.00 0.00 0.00 0.00 0.00 0.00 0.00 0.00 0.00 0.00 0.00 0.00 0.00 0.00 0.00 0.00 0.00 0.00 0.00 0.00
0.37 0.20 0.10 0.01 0.00 0.00 0.00 0.00 0.00 0.00 0.00 0.00 0.00 0.00 0.00 0.00 0.00 0.00 0.00 0.00 0.00 0.00 0.00 0.00 0.00 0.00 0.00 0.00 0.00 0.00 0.00 0.00 0.00 0.00 0.00 0.00 0.00 0.00 0.00 0.00 0.00 0.00 0.00 0.01
0.42 0.28 0.18 0.03 0.00 0.00 0.00 0.00 0.00 0.00 0.00 0.00 0.00 0.00 0.00 0.00 0.00 0.00 0.00 0.00 0.00 0.00 0.00 0.00 0.00 0.00 0.00 0.00 0.00 0.00 0.00 0.00 0.00 0.02 0.01 0.02 0.02 0.01 0.00 0.00 0.00 0.00 0.02 0.01
0.40 0.36 0.22 0.03 0.00 0.00 0.00 0.00 0.00 0.00 0.00 0.00 0.00 0.00 0.00 0.00 0.00 0.00 0.00 0.00 0.00 0.00 0.00 0.00 0.00 0.00 0.00 0.00 0.00 0.00 0.00 0.00 0.00 0.00 0.00 0.01 0.01 0.01 0.01 0.00 0.00 0.00 0.00 0.01
0.42 0.42 0.20 0.01 0.00 0.00 0.00 0.00 0.00 0.00 0.00 0.00 0.00 0.00 0.00 0.00 0.00 0.00 0.00 0.00 0.00 0.00 0.00 0.00 0.00 0.00 0.00 0.00 0.00 0.00 0.00 0.00 0.00 0.00 0.00 0.00 0.00 0.00 0.00 0.00 0.00 0.00 0.00 0.01
0.46 0.38 0.12 0.00 0.00 0.00 0.00 0.00 0.00 0.00 0.00 0.00 0.00 0.00 0.00 0.00 0.00 0.00 0.00 0.00 0.00 0.00 0.00 0.00 0.00 0.00 0.00 0.00 0.00 0.00 0.00 0.00 0.00 0.00 0.00 0.00 0.00 0.00 0.00 0.00 0.00 0.00 0.00 0.00
0.42 0.26 0.06 0.00 0.00 0.00 0.00 0.00 0.00 0.00 0.00 0.00 0.00 0.00 0.00 0.00 0.00 0.00 0.00 0.00 0.00 0.00 0.00 0.00 0.00 0.00 0.00 0.00 0.00 0.00 0.00 0.00 0.00 0.00 0.00 0.00 0.00 0.00 0.00 0.00 0.00 0.00 0.00 0.00
0.35 0.22 0.07 0.02 0.01 0.00 0.00 0.00 0.00 0.00 0.00 0.00 0.00 0.00 0.00 0.00 0.00 0.00 0.00 0.00 0.00 0.00 0.00 0.00 0.00 0.00 0.00 0.00 0.00 0.00 0.00 0.00 0.00 0.00 0.00 0.00 0.00 0.00 0.00 0.00 0.00 0.00 0.00 0.01
0.32 0.17 0.05 0.02 0.01 0.00 0.00 0.00 0.00 0.00 0.00 0.00 0.00 0.00 0.00 0.00 0.00 0.00 0.00 0.00 0.00 0.00 0.00 0.00 0.00 0.00 0.00 0.00 0.00 0.00 0.00 0.00 0.00 0.00 0.01 0.00 0.00 0.00 0.01 0.01 0.02 0.02 0.03 0.04
0.09 0.02 0.02 0.03 0.03 0.04 0.02 0.00 0.00 0.00 0.00 0.00 0.00 0.00 0.00 0.00 0.00 0.00 0.00 0.00 0.00 0.00 0.00 0.01 0.00 0.00 0.00 0.00 0.00 0.00 0.00 0.00 0.00 0.00 0.01 0.01 0.01 0.01 0.02 0.03 0.07 0.08 0.08 0.06
0.12 0.20 0.19 0.10 0.08 0.06 0.01 0.00 0.00 0.00 0.00 0.00 0.00 0.00 0.00 0.00 0.00 0.00 0.00 0.00 0.00 0.01 0.01 0.00 0.00 0.00 0.00 0.00 0.00 0.00 0.00 0.00 0.00 0.01 0.01 0.01 0.01 0.01 0.02 0.02 0.02 0.02 0.01 0.00
0.46 0.25 0.14 0.09 0.03 0.00 0.00 0.00 0.00 0.00 0.00 0.00 0.00 0.00 0.00 0.00 0.00 0.00 0.00 0.00 0.01 0.01 0.00 0.00 0.00 0.00 0.00 0.00 0.00 0.00 0.00 0.00 0.00 0.00 0.00 0.01 0.00 0.00 0.00 0.00 0.00 0.00 0.00 0.00
0.47 0.15 0.07 0.02 0.00 0.00 0.01 0.02 0.02 0.01 0.00 0.00 0.00 0.00 0.00 0.00 0.00 0.00 0.00 0.01 0.00 0.00 0.00 0.00 0.00 0.00 0.00 0.00 0.00 0.00 0.00 0.00 0.00 0.01 0.01 0.01 0.01 0.02 0.02 0.02 0.00 0.00 0.01 0.01
0.49 0.21 0.05 0.00 0.00 0.02 0.03 0.04 0.04 0.00 0.00 0.00 0.00 0.00 0.00 0.00 0.00 0.00 0.00 0.00 0.00 0.00 0.00 0.00 0.00 0.00 0.00 0.00 0.00 0.00 0.01 0.01 0.01 0.01 0.00 0.01 0.01 0.02 0.02 0.02 0.03 0.03 0.03 0.02
0.57 0.14 0.00 0.01 0.01 0.03 0.04 0.03 0.01 0.00 0.00 0.00 0.00 0.00 0.00 0.00 0.00 0.00 0.00 0.00 0.00 0.00 0.00 0.00 0.00 0.00 0.00 0.00 0.00 0.00 0.00 0.00 0.00 0.00 0.01 0.01 0.01 0.02 0.03 0.04 0.01 0.01 0.00 0.00

GFSNW_prec_precacc24_120.txt.gz
Total_Precipitation_Accumulation
0.99 0.77 0.49 0.31 0.52 1.13 0.20 0.22 0.27 0.13 0.04 0.03 0.01 0.00 0.00 0.00 0.00 0.00 0.00 0.00 0.00 0.00 0.01 0.08 0.02 0.00 0.00 0.00 0.00 0.00 0.00 0.02 0.03 0.03 0.01 0.01 0.01 0.01 0.01 0.04 0.02 0.02 0.07 0.38
1.10 0.89 0.77 0.48 0.28 0.78 0.30 0.18 0.30 0.27 0.05 0.02 0.00 0.00 0.00 0.00 0.00 0.00 0.00 0.00 0.00 0.00 0.00 0.06 0.00 0.00 0.00 0.00 0.01 0.13 0.04 0.04 0.05 0.05 0.03 0.01 0.00 0.00 0.00 0.00 0.00 0.02 0.17 0.26
0.80 0.60 0.52 0.75 0.42 0.28 0.26 0.11 0.24 0.26 0.10 0.00 0.00 0.00 0.00 0.00 0.00 0.00 0.00 0.00 0.00 0.00 0.00 0.00 0.00 0.00 0.00 0.01 0.01 0.03 0.03 0.03 0.08 0.08 0.08 0.02 0.00 0.00 0.00 0.00 0.00 0.05 0.13 0.08
0.87 0.55 0.26 0.22 0.58 0.19 0.16 0.05 0.03 0.05 0.03 0.01 0.00 0.00 0.00 0.00 0.00 0.00 0.00 0.00 0.00 0.00 0.00 0.00 0.00 0.00 0.00 0.00 0.00 0.00 0.04 0.10 0.01 0.00 0.00 0.00 0.00 0.00 0.00 0.00 0.00 0.08 0.05 0.01
1.17 1.11 0.51 0.10 0.27 0.29 0.11 0.01 0.02 0.01 0.00 0.00 0.00 0.00 0.00 0.00 0.00 0.00 0.00 0.00 0.00 0.00 0.00 0.00 0.00 0.00 0.00 0.00 0.00 0.00 0.00 0.00 0.00 0.00 0.00 0.00 0.00 0.00 0.00 0.00 0.02 0.02 0.01 0.00
0.85 0.63 0.71 0.28 0.12 0.25 0.06 0.00 0.00 0.00 0.00 0.00 0.00 0.00 0.00 0.00 0.00 0.00 0.00 0.00 0.00 0.00 0.00 0.00 0.00 0.00 0.00 0.00 0.00 0.00 0.00 0.00 0.01 0.01 0.00 0.00 0.00 0.00 0.00 0.00 0.01 0.00 0.00 0.00
1.34 0.49 0.21 0.32 0.08 0.05 0.00 0.00 0.00 0.00 0.00 0.00 0.00 0.00 0.00 0.00 0.00 0.00 0.00 0.00 0.00 0.00 0.00 0.00 0.00 0.00 0.00 0.00 0.00 0.00 0.00 0.00 0.00 0.00 0.00 0.00 0.00 0.00 0.00 0.00 0.00 0.00 0.00 0.00
1.41 0.74 0.09 0.09 0.07 0.02 0.00 0.00 0.00 0.00 0.00 0.00 0.00 0.00 0.00 0.00 0.00 0.00 0.00 0.00 0.00 0.00 0.00 0.00 0.00 0.00 0.00 0.00 0.00 0.00 0.00 0.00 0.00 0.00 0.00 0.00 0.00 0.00 0.00 0.01 0.00 0.00 0.00 0.00
0.53 0.81 0.17 0.03 0.03 0.01 0.00 0.00 0.00 0.00 0.00 0.00 0.00 0.00 0.00 0.00 0.00 0.00 0.00 0.00 0.00 0.00 0.00 0.00 0.00 0.00 0.00 0.00 0.00 0.00 0.00 0.00 0.00 0.00 0.00 0.00 0.00 0.00 0.00 0.00 0.01 0.00 0.00 0.00
0.42 0.34 0.27 0.05 0.01 0.00 0.00 0.00 0.00 0.00 0.00 0.00 0.00 0.00 0.00 0.00 0.00 0.00 0.00 0.00 0.00 0.00 0.00 0.00 0.00 0.00 0.00 0.00 0.00 0.00 0.00 0.00 0.00 0.00 0.00 0.00 0.00 0.00 0.00 0.00 0.01 0.00 0.00 0.00
0.43 0.25 0.15 0.05 0.01 0.00 0.00 0.00 0.00 0.00 0.00 0.00 0.00 0.00 0.00 0.00 0.00 0.00 0.00 0.00 0.00 0.00 0.00 0.00 0.00 0.00 0.00 0.00 0.00 0.00 0.00 0.00 0.00 0.00 0.00 0.00 0.00 0.00 0.00 0.00 0.01 0.01 0.00 0.00
0.38 0.13 0.02 0.01 0.00 0.00 0.00 0.00 0.00 0.00 0.00 0.00 0.00 0.00 0.00 0.00 0.00 0.00 0.00 0.00 0.00 0.00 0.00 0.00 0.00 0.00 0.00 0.00 0.00 0.00 0.00 0.00 0.00 0.00 0.00 0.00 0.00 0.00 0.00 0.00 0.00 0.00 0.00 0.00
0.27 0.13 0.04 0.01 0.00 0.00 0.00 0.00 0.00 0.00 0.00 0.00 0.00 0.00 0.00 0.00 0.00 0.00 0.00 0.00 0.00 0.00 0.00 0.00 0.00 0.00 0.00 0.00 0.00 0.00 0.00 0.00 0.00 0.00 0.00 0.00 0.00 0.00 0.00 0.00 0.00 0.00 0.00 0.00
0.30 0.19 0.10 0.01 0.00 0.00 0.00 0.00 0.00 0.00 0.00 0.00 0.00 0.00 0.00 0.00 0.00 0.00 0.00 0.00 0.00 0.00 0.00 0.00 0.00 0.00 0.00 0.00 0.00 0.00 0.00 0.00 0.00 0.00 0.00 0.00 0.00 0.00 0.00 0.00 0.00 0.00 0.00 0.01
0.38 0.28 0.18 0.03 0.00 0.00 0.00 0.00 0.00 0.00 0.00 0.00 0.00 0.00 0.00 0.00 0.00 0.00 0.00 0.00 0.00 0.00 0.00 0.00 0.00 0.00 0.00 0.00 0.00 0.00 0.00 0.00 0.00 0.00 0.00 0.02 0.02 0.01 0.00 0.00 0.00 0.00 0.02 0.01
0.39 0.36 0.21 0.03 0.00 0.00 0.00 0.00 0.00 0.00 0.00 0.00 0.00 0.00 0.00 0.00 0.00 0.00 0.00 0.00 0.00 0.00 0.00 0.00 0.00 0.00 0.00 0.00 0.00 0.00 0.00 0.00 0.00 0.00 0.00 0.01 0.01 0.01 0.01 0.00 0.00 0.00 0.00 0.01
0.41 0.41 0.20 0.01 0.00 0.00 0.00 0.00 0.00 0.00 0.00 0.00 0.00 0.00 0.00 0.00 0.00 0.00 0.00 0.00 0.00 0.00 0.00 0.00 0.00 0.00 0.00 0.00 0.00 0.00 0.00 0.00 0.00 0.00 0.00 0.00 0.00 0.00 0.00 0.00 0.00 0.00 0.00 0.01
0.44 0.37 0.12 0.00 0.00 0.00 0.00 0.00 0.00 0.00 0.00 0.00 0.00 0.00 0.00 0.00 0.00 0.00 0.00 0.00 0.00 0.00 0.00 0.00 0.00 0.00 0.00 0.00 0.00 0.00 0.00 0.00 0.00 0.00 0.00 0.00 0.00 0.00 0.00 0.00 0.00 0.00 0.00 0.00
0.41 0.26 0.06 0.00 0.00 0.00 0.00 0.00 0.00 0.00 0.00 0.00 0.00 0.00 0.00 0.00 0.00 0.00 0.00 0.00 0.00 0.00 0.00 0.00 0.00 0.00 0.00 0.00 0.00 0.00 0.00 0.00 0.00 0.00 0.00 0.00 0.00 0.00 0.00 0.00 0.00 0.00 0.00 0.00
0.34 0.21 0.07 0.02 0.00 0.00 0.00 0.00 0.00 0.00 0.00 0.00 0.00 0.00 0.00 0.00 0.00 0.00 0.00 0.00 0.00 0.00 0.00 0.00 0.00 0.00 0.00 0.00 0.00 0.00 0.00 0.00 0.00 0.00 0.00 0.00 0.00 0.00 0.00 0.00 0.00 0.00 0.00 0.01
0.31 0.17 0.05 0.01 0.00 0.00 0.00 0.00 0.00 0.00 0.00 0.00 0.00 0.00 0.00 0.00 0.00 0.00 0.00 0.00 0.00 0.00 0.00 0.00 0.00 0.00 0.00 0.00 0.00 0.00 0.00 0.00 0.00 0.00 0.01 0.00 0.00 0.00 0.00 0.01 0.01 0.02 0.02 0.04
0.09 0.02 0.02 0.02 0.02 0.04 0.02 0.00 0.00 0.00 0.00 0.00 0.00 0.00 0.00 0.00 0.00 0.00 0.00 0.00 0.00 0.00 0.00 0.00 0.00 0.00 0.00 0.00 0.00 0.00 0.00 0.00 0.00 0.00 0.01 0.01 0.00 0.00 0.00 0.01 0.05 0.06 0.07 0.06
0.10 0.18 0.19 0.09 0.06 0.06 0.01 0.00 0.00 0.00 0.00 0.00 0.00 0.00 0.00 0.00 0.00 0.00 0.00 0.00 0.00 0.00 0.00 0.00 0.00 0.00 0.00 0.00 0.00 0.00 0.00 0.00 0.00 0.00 0.00 0.00 0.00 0.00 0.00 0.00 0.00 0.01 0.00 0.00
0.44 0.25 0.14 0.09 0.03 0.00 0.00 0.00 0.00 0.00 0.00 0.00 0.00 0.00 0.00 0.00 0.00 0.00 0.00 0.00 0.00 0.00 0.00 0.00 0.00 0.00 0.00 0.00 0.00 0.00 0.00 0.00 0.00 0.00 0.00 0.00 0.00 0.00 0.00 0.00 0.00 0.00 0.00 0.00
0.47 0.16 0.07 0.02 0.00 0.00 0.00 0.01 0.02 0.01 0.00 0.00 0.00 0.00 0.00 0.00 0.00 0.00 0.00 0.00 0.00 0.00 0.00 0.00 0.00 0.00 0.00 0.00 0.00 0.00 0.00 0.00 0.00 0.00 0.00 0.00 0.00 0.00 0.00 0.00 0.00 0.00 0.00 0.01
0.54 0.24 0.06 0.00 0.00 0.00 0.01 0.03 0.03 0.00 0.00 0.00 0.00 0.00 0.00 0.00 0.00 0.00 0.00 0.00 0.00 0.00 0.00 0.00 0.00 0.00 0.00 0.00 0.00 0.00 0.00 0.00 0.00 0.00 0.00 0.00 0.00 0.00 0.00 0.00 0.00 0.00 0.01 0.01
0.66 0.16 0.00 0.00 0.00 0.01 0.03 0.03 0.01 0.00 0.00 0.00 0.00 0.00 0.00 0.00 0.00 0.00 0.00 0.00 0.00 0.00 0.00 0.00 0.00 0.00 0.00 0.00 0.00 0.00 0.00 0.00 0.00 0.00 0.00 0.00 0.00 0.00 0.01 0.01 0.01 0.01 0.00 0.00

GFSNW_prec_precacc24_123.txt.gz
Total_Precipitation_Accumulation
0.99 0.77 0.50 0.32 0.53 1.13 0.20 0.24 0.32 0.17 0.04 0.03 0.01 0.00 0.00 0.00 0.00 0.00 0.00 0.00 0.00 0.00 0.00 0.01 0.00 0.00 0.00 0.00 0.00 0.01 0.01 0.02 0.04 0.04 0.01 0.01 0.01 0.02 0.01 0.04 0.04 0.04 0.12 0.61
1.09 0.89 0.78 0.48 0.29 0.78 0.30 0.19 0.34 0.28 0.05 0.02 0.00 0.00 0.00 0.00 0.00 0.00 0.00 0.00 0.00 0.00 0.00 0.01 0.00 0.00 0.00 0.00 0.00 0.02 0.02 0.02 0.04 0.04 0.03 0.01 0.00 0.00 0.00 0.00 0.01 0.02 0.14 0.49
0.79 0.60 0.52 0.75 0.42 0.28 0.26 0.11 0.26 0.27 0.10 0.00 0.00 0.00 0.00 0.00 0.00 0.00 0.00 0.00 0.00 0.00 0.00 0.00 0.00 0.00 0.00 0.00 0.01 0.01 0.01 0.01 0.04 0.12 0.16 0.04 0.03 0.00 0.00 0.00 0.01 0.05 0.18 0.13
0.86 0.55 0.26 0.22 0.58 0.19 0.16 0.05 0.03 0.05 0.03 0.01 0.00 0.00 0.00 0.00 0.00 0.00 0.00 0.00 0.00 0.00 0.00 0.00 0.00 0.00 0.00 0.00 0.00 0.00 0.01 0.03 0.01 0.00 0.00 0.00 0.00 0.00 0.00 0.00 0.00 0.10 0.07 0.01
1.16 1.11 0.51 0.10 0.27 0.29 0.11 0.01 0.02 0.01 0.00 0.00 0.00 0.00 0.00 0.00 0.00 0.00 0.00 0.00 0.00 0.00 0.00 0.00 0.00 0.00 0.00 0.00 0.00 0.00 0.00 0.00 0.00 0.00 0.00 0.00 0.00 0.00 0.00 0.01 0.02 0.02 0.01 0.01
0.84 0.63 0.71 0.28 0.12 0.25 0.06 0.00 0.00 0.00 0.00 0.00 0.00 0.00 0.00 0.00 0.00 0.00 0.00 0.00 0.00 0.00 0.00 0.00 0.00 0.00 0.00 0.00 0.00 0.00 0.00 0.00 0.00 0.00 0.00 0.00 0.00 0.00 0.00 0.01 0.01 0.00 0.00 0.00
1.33 0.49 0.21 0.32 0.08 0.05 0.00 0.00 0.00 0.00 0.00 0.00 0.00 0.00 0.00 0.00 0.00 0.00 0.00 0.00 0.00 0.00 0.00 0.00 0.00 0.00 0.00 0.00 0.00 0.00 0.00 0.00 0.00 0.00 0.00 0.00 0.00 0.00 0.00 0.00 0.00 0.00 0.00 0.00
1.39 0.74 0.09 0.09 0.07 0.02 0.00 0.00 0.00 0.00 0.00 0.00 0.00 0.00 0.00 0.00 0.00 0.00 0.00 0.00 0.00 0.00 0.00 0.00 0.00 0.00 0.00 0.00 0.00 0.00 0.00 0.00 0.00 0.00 0.00 0.00 0.00 0.00 0.00 0.01 0.00 0.00 0.00 0.00
0.51 0.81 0.17 0.03 0.03 0.01 0.00 0.00 0.00 0.00 0.00 0.00 0.00 0.00 0.00 0.00 0.00 0.00 0.00 0.00 0.00 0.00 0.00 0.00 0.00 0.00 0.00 0.00 0.00 0.00 0.00 0.00 0.00 0.00 0.00 0.00 0.00 0.00 0.00 0.00 0.01 0.00 0.00 0.00
0.40 0.34 0.27 0.05 0.01 0.00 0.00 0.00 0.00 0.00 0.00 0.00 0.00 0.00 0.00 0.00 0.00 0.00 0.00 0.00 0.00 0.00 0.00 0.00 0.00 0.00 0.00 0.00 0.00 0.00 0.00 0.00 0.00 0.00 0.00 0.00 0.00 0.00 0.00 0.00 0.01 0.00 0.00 0.00
0.42 0.25 0.15 0.05 0.01 0.00 0.00 0.00 0.00 0.00 0.00 0.00 0.00 0.00 0.00 0.00 0.00 0.00 0.00 0.00 0.00 0.00 0.00 0.00 0.00 0.00 0.00 0.00 0.00 0.00 0.00 0.00 0.00 0.00 0.00 0.00 0.00 0.00 0.00 0.00 0.01 0.01 0.00 0.00
0.37 0.13 0.02 0.01 0.00 0.00 0.00 0.00 0.00 0.00 0.00 0.00 0.00 0.00 0.00 0.00 0.00 0.00 0.00 0.00 0.00 0.00 0.00 0.00 0.00 0.00 0.00 0.00 0.00 0.00 0.00 0.00 0.00 0.00 0.00 0.00 0.00 0.00 0.00 0.00 0.00 0.00 0.00 0.00
0.26 0.11 0.02 0.01 0.00 0.00 0.00 0.00 0.00 0.00 0.00 0.00 0.00 0.00 0.00 0.00 0.00 0.00 0.00 0.00 0.00 0.00 0.00 0.00 0.00 0.00 0.00 0.00 0.00 0.00 0.00 0.00 0.00 0.00 0.00 0.00 0.00 0.00 0.00 0.00 0.00 0.00 0.00 0.00
0.23 0.11 0.05 0.01 0.00 0.00 0.00 0.00 0.00 0.00 0.00 0.00 0.00 0.00 0.00 0.00 0.00 0.00 0.00 0.00 0.00 0.00 0.00 0.00 0.00 0.00 0.00 0.00 0.00 0.00 0.00 0.00 0.00 0.00 0.00 0.00 0.00 0.00 0.00 0.00 0.00 0.00 0.00 0.01
0.20 0.14 0.15 0.03 0.00 0.00 0.00 0.00 0.00 0.00 0.00 0.00 0.00 0.00 0.00 0.00 0.00 0.00 0.00 0.00 0.00 0.00 0.00 0.00 0.00 0.00 0.00 0.00 0.00 0.00 0.00 0.00 0.00 0.00 0.00 0.00 0.00 0.01 0.00 0.00 0.00 0.00 0.00 0.01
0.19 0.24 0.20 0.03 0.00 0.00 0.00 0.00 0.00 0.00 0.00 0.00 0.00 0.00 0.00 0.00 0.00 0.00 0.00 0.00 0.00 0.00 0.00 0.00 0.00 0.00 0.00 0.00 0.00 0.00 0.00 0.00 0.00 0.00 0.00 0.00 0.00 0.01 0.01 0.00 0.00 0.00 0.00 0.00
0.28 0.34 0.18 0.01 0.00 0.00 0.00 0.00 0.00 0.00 0.00 0.00 0.00 0.00 0.00 0.00 0.00 0.00 0.00 0.00 0.00 0.00 0.00 0.00 0.00 0.00 0.00 0.00 0.00 0.00 0.00 0.00 0.00 0.00 0.00 0.00 0.00 0.00 0.00 0.00 0.00 0.00 0.00 0.00
0.37 0.33 0.11 0.00 0.00 0.00 0.00 0.00 0.00 0.00 0.00 0.00 0.00 0.00 0.00 0.00 0.00 0.00 0.00 0.00 0.00 0.00 0.00 0.00 0.00 0.00 0.00 0.00 0.00 0.00 0.00 0.00 0.00 0.00 0.00 0.00 0.00 0.00 0.00 0.00 0.00 0.00 0.00 0.00
0.37 0.23 0.05 0.00 0.00 0.00 0.00 0.00 0.00 0.00 0.00 0.00 0.00 0.00 0.00 0.00 0.00 0.00 0.00 0.00 0.00 0.00 0.00 0.00 0.00 0.00 0.00 0.00 0.00 0.00 0.00 0.00 0.00 0.00 0.00 0.00 0.00 0.00 0.00 0.00 0.00 0.00 0.00 0.00
0.32 0.20 0.06 0.02 0.00 0.00 0.00 0.00 0.00 0.00 0.00 0.00 0.00 0.00 0.00 0.00 0.00 0.00 0.00 0.00 0.00 0.00 0.00 0.00 0.00 0.00 0.00 0.00 0.00 0.00 0.00 0.00 0.00 0.00 0.00 0.00 0.00 0.00 0.00 0.00 0.00 0.00 0.00 0.01
0.29 0.16 0.04 0.00 0.00 0.00 0.00 0.00 0.00 0.00 0.00 0.00 0.00 0.00 0.00 0.00 0.00 0.00 0.00 0.00 0.00 0.00 0.00 0.00 0.00 0.00 0.00 0.00 0.00 0.00 0.00 0.00 0.00 0.00 0.00 0.00 0.00 0.00 0.00 0.01 0.01 0.01 0.01 0.02
0.08 0.01 0.01 0.00 0.00 0.01 0.01 0.00 0.00 0.00 0.00 0.00 0.00 0.00 0.00 0.00 0.00 0.00 0.00 0.00 0.00 0.00 0.00 0.00 0.00 0.00 0.00 0.00 0.00 0.00 0.00 0.00 0.00 0.00 0.00 0.00 0.00 0.00 0.00 0.00 0.01 0.01 0.02 0.03
0.07 0.14 0.14 0.05 0.02 0.05 0.01 0.00 0.00 0.00 0.00 0.00 0.00 0.00 0.00 0.00 0.00 0.00 0.00 0.00 0.00 0.00 0.00 0.00 0.00 0.00 0.00 0.00 0.00 0.00 0.00 0.00 0.00 0.00 0.00 0.00 0.00 0.00 0.00 0.00 0.00 0.00 0.00 0.00
0.36 0.21 0.12 0.08 0.03 0.00 0.00 0.00 0.00 0.00 0.00 0.00 0.00 0.00 0.00 0.00 0.00 0.00 0.00 0.00 0.00 0.00 0.00 0.00 0.00 0.00 0.00 0.00 0.00 0.00 0.00 0.00 0.00 0.00 0.00 0.00 0.00 0.00 0.00 0.00 0.00 0.00 0.00 0.00
0.40 0.15 0.07 0.02 0.00 0.00 0.00 0.00 0.01 0.01 0.00 0.00 0.00 0.00 0.00 0.00 0.00 0.00 0.00 0.00 0.00 0.00 0.00 0.00 0.00 0.00 0.00 0.00 0.00 0.00 0.00 0.00 0.00 0.00 0.00 0.00 0.00 0.00 0.00 0.00 0.00 0.00 0.00 0.00
0.58 0.27 0.06 0.00 0.00 0.00 0.00 0.01 0.02 0.00 0.00 0.00 0.00 0.00 0.00 0.00 0.00 0.00 0.00 0.00 0.00 0.00 0.00 0.00 0.00 0.00 0.00 0.00 0.00 0.00 0.00 0.00 0.00 0.00 0.00 0.00 0.00 0.00 0.00 0.00 0.00 0.00 0.00 0.01
0.69 0.18 0.00 0.00 0.00 0.00 0.00 0.01 0.00 0.00 0.00 0.00 0.00 0.00 0.00 0.00 0.00 0.00 0.00 0.00 0.00 0.00 0.00 0.00 0.00 0.00 0.00 0.00 0.00 0.00 0.00 0.00 0.00 0.00 0.00 0.00 0.00 0.00 0.00 0.01 0.01 0.01 0.00 0.00

GFSNW_prec_precacc24_126.txt.gz
Total_Precipitation_Accumulation
0.62 0.68 0.50 0.32 0.53 1.13 0.20 0.24 0.33 0.17 0.04 0.03 0.01 0.00 0.00 0.00 0.00 0.00 0.00 0.00 0.00 0.00 0.00 0.00 0.00 0.00 0.00 0.00 0.00 0.01 0.01 0.02 0.06 0.05 0.01 0.01 0.01 0.03 0.03 0.06 0.05 0.06 0.17 0.71
0.70 0.83 0.78 0.48 0.29 0.78 0.30 0.19 0.34 0.28 0.05 0.02 0.00 0.00 0.00 0.00 0.00 0.00 0.00 0.00 0.00 0.00 0.00 0.00 0.00 0.00 0.00 0.00 0.00 0.02 0.02 0.02 0.04 0.04 0.03 0.01 0.00 0.00 0.01 0.01 0.01 0.03 0.20 0.65
0.51 0.56 0.52 0.75 0.42 0.28 0.26 0.11 0.26 0.27 0.10 0.00 0.00 0.00 0.00 0.00 0.00 0.00 0.00 0.00 0.00 0.00 0.00 0.00 0.00 0.00 0.00 0.00 0.00 0.01 0.01 0.01 0.03 0.14 0.19 0.05 0.03 0.00 0.00 0.00 0.01 0.06 0.30 0.22
0.67 0.53 0.26 0.22 0.58 0.19 0.16 0.05 0.03 0.05 0.03 0.01 0.00 0.00 0.00 0.00 0.00 0.00 0.00 0.00 0.00 0.00 0.00 0.00 0.00 0.00 0.00 0.00 0.00 0.00 0.00 0.02 0.01 0.01 0.01 0.00 0.00 0.00 0.00 0.00 0.00 0.05 0.09 0.03
0.98 1.10 0.51 0.10 0.27 0.29 0.11 0.01 0.02 0.01 0.00 0.00 0.00 0.00 0.00 0.00 0.00 0.00 0.00 0.00 0.00 0.00 0.00 0.00 0.00 0.00 0.00 0.00 0.00 0.00 0.00 0.00 0.00 0.00 0.00 0.00 0.00 0.00 0.00 0.01 0.02 0.01 0.00 0.00
0.69 0.62 0.71 0.28 0.12 0.25 0.06 0.00 0.00 0.00 0.00 0.00 0.00 0.00 0.00 0.00 0.00 0.00 0.00 0.00 0.00 0.00 0.00 0.00 0.00 0.00 0.00 0.00 0.00 0.00 0.00 0.00 0.00 0.00 0.00 0.00 0.00 0.00 0.00 0.01 0.01 0.00 0.00 0.00
1.18 0.49 0.21 0.32 0.08 0.05 0.00 0.00 0.00 0.00 0.00 0.00 0.00 0.00 0.00 0.00 0.00 0.00 0.00 0.00 0.00 0.00 0.00 0.00 0.00 0.00 0.00 0.00 0.00 0.00 0.00 0.00 0.00 0.00 0.00 0.00 0.00 0.00 0.00 0.00 0.00 0.00 0.00 0.00
1.30 0.74 0.09 0.09 0.07 0.02 0.00 0.00 0.00 0.00 0.00 0.00 0.00 0.00 0.00 0.00 0.00 0.00 0.00 0.00 0.00 0.00 0.00 0.00 0.00 0.00 0.00 0.00 0.00 0.00 0.00 0.00 0.00 0.00 0.00 0.00 0.00 0.00 0.00 0.01 0.00 0.00 0.00 0.00
0.47 0.80 0.17 0.03 0.03 0.01 0.00 0.00 0.00 0.00 0.00 0.00 0.00 0.00 0.00 0.00 0.00 0.00 0.00 0.00 0.00 0.00 0.00 0.00 0.00 0.00 0.00 0.00 0.00 0.00 0.00 0.00 0.00 0.00 0.00 0.00 0.00 0.00 0.00 0.00 0.01 0.00 0.00 0.00
0.36 0.33 0.27 0.05 0.01 0.00 0.00 0.00 0.00 0.00 0.00 0.00 0.00 0.00 0.00 0.00 0.00 0.00 0.00 0.00 0.00 0.00 0.00 0.00 0.00 0.00 0.00 0.00 0.00 0.00 0.00 0.00 0.00 0.00 0.00 0.00 0.00 0.00 0.00 0.01 0.01 0.00 0.00 0.00
0.35 0.23 0.15 0.05 0.01 0.00 0.00 0.00 0.00 0.00 0.00 0.00 0.00 0.00 0.00 0.00 0.00 0.00 0.00 0.00 0.00 0.00 0.00 0.00 0.00 0.00 0.00 0.00 0.00 0.00 0.00 0.00 0.00 0.00 0.00 0.00 0.00 0.00 0.00 0.00 0.01 0.01 0.00 0.00
0.29 0.11 0.02 0.01 0.00 0.00 0.00 0.00 0.00 0.00 0.00 0.00 0.00 0.00 0.00 0.00 0.00 0.00 0.00 0.00 0.00 0.00 0.00 0.00 0.00 0.00 0.00 0.00 0.00 0.00 0.00 0.00 0.00 0.00 0.00 0.00 0.00 0.00 0.00 0.00 0.00 0.00 0.00 0.00
0.20 0.10 0.01 0.00 0.00 0.00 0.00 0.00 0.00 0.00 0.00 0.00 0.00 0.00 0.00 0.00 0.00 0.00 0.00 0.00 0.00 0.00 0.00 0.00 0.00 0.00 0.00 0.00 0.00 0.00 0.00 0.00 0.00 0.00 0.00 0.00 0.00 0.00 0.00 0.00 0.00 0.00 0.00 0.00
0.20 0.09 0.02 0.00 0.00 0.00 0.00 0.00 0.00 0.00 0.00 0.00 0.00 0.00 0.00 0.00 0.00 0.00 0.00 0.00 0.00 0.00 0.00 0.00 0.00 0.00 0.00 0.00 0.00 0.00 0.00 0.00 0.00 0.00 0.00 0.00 0.00 0.00 0.00 0.00 0.00 0.00 0.00 0.01
0.17 0.08 0.05 0.01 0.00 0.00 0.00 0.00 0.00 0.00 0.00 0.00 0.00 0.00 0.00 0.00 0.00 0.00 0.00 0.00 0.00 0.00 0.00 0.00 0.00 0.00 0.00 0.00 0.00 0.00 0.00 0.00 0.00 0.00 0.00 0.00 0.00 0.00 0.00 0.00 0.00 0.00 0.00 0.00
0.10 0.09 0.09 0.01 0.00 0.00 0.00 0.00 0.00 0.00 0.00 0.00 0.00 0.00 0.00 0.00 0.00 0.00 0.00 0.00 0.00 0.00 0.00 0.00 0.00 0.00 0.00 0.00 0.00 0.00 0.00 0.00 0.00 0.00 0.00 0.00 0.00 0.00 0.00 0.00 0.00 0.00 0.00 0.00
0.13 0.16 0.11 0.01 0.00 0.00 0.00 0.00 0.00 0.00 0.00 0.00 0.00 0.00 0.00 0.00 0.00 0.00 0.00 0.00 0.00 0.00 0.00 0.00 0.00 0.00 0.00 0.00 0.00 0.00 0.00 0.00 0.00 0.00 0.00 0.00 0.00 0.00 0.00 0.00 0.00 0.00 0.00 0.00
0.21 0.20 0.08 0.00 0.00 0.00 0.00 0.00 0.00 0.00 0.00 0.00 0.00 0.00 0.00 0.00 0.00 0.00 0.00 0.00 0.00 0.00 0.00 0.00 0.00 0.00 0.00 0.00 0.00 0.00 0.00 0.00 0.00 0.00 0.00 0.00 0.00 0.00 0.00 0.00 0.00 0.00 0.00 0.00
0.24 0.16 0.04 0.00 0.00 0.00 0.00 0.00 0.00 0.00 0.00 0.00 0.00 0.00 0.00 0.00 0.00 0.00 0.00 0.00 0.00 0.00 0.00 0.00 0.00 0.00 0.00 0.00 0.00 0.00 0.00 0.00 0.00 0.00 0.00 0.00 0.00 0.00 0.00 0.00 0.00 0.00 0.00 0.00
0.23 0.16 0.05 0.01 0.00 0.00 0.00 0.00 0.00 0.00 0.00 0.00 0.00 0.00 0.00 0.00 0.00 0.00 0.00 0.00 0.00 0.00 0.00 0.00 0.00 0.00 0.00 0.00 0.00 0.00 0.00 0.00 0.00 0.00 0.00 0.00 0.00 0.00 0.00 0.00 0.00 0.00 0.00 0.00
0.24 0.13 0.02 0.00 0.00 0.00 0.00 0.00 0.00 0.00 0.00 0.00 0.00 0.00 0.00 0.00 0.00 0.00 0.00 0.00 0.00 0.00 0.00 0.00 0.00 0.00 0.00 0.00 0.00 0.00 0.00 0.00 0.00 0.00 0.00 0.00 0.00 0.00 0.00 0.01 0.01 0.01 0.01 0.01
0.07 0.01 0.00 0.00 0.00 0.00 0.00 0.00 0.00 0.00 0.00 0.00 0.00 0.00 0.00 0.00 0.00 0.00 0.00 0.00 0.00 0.00 0.00 0.00 0.00 0.00 0.00 0.00 0.00 0.00 0.00 0.00 0.00 0.00 0.00 0.00 0.00 0.00 0.00 0.00 0.01 0.01 0.01 0.00
0.03 0.08 0.09 0.03 0.00 0.00 0.00 0.00 0.00 0.00 0.00 0.00 0.00 0.00 0.00 0.00 0.00 0.00 0.00 0.00 0.00 0.00 0.00 0.00 0.00 0.00 0.00 0.00 0.00 0.00 0.00 0.00 0.00 0.00 0.00 0.00 0.00 0.00 0.00 0.00 0.00 0.00 0.00 0.00
0.26 0.15 0.08 0.05 0.01 0.00 0.00 0.00 0.00 0.00 0.00 0.00 0.00 0.00 0.00 0.00 0.00 0.00 0.00 0.00 0.00 0.00 0.00 0.00 0.00 0.00 0.00 0.00 0.00 0.00 0.00 0.00 0.00 0.00 0.00 0.00 0.00 0.00 0.00 0.00 0.00 0.00 0.00 0.00
0.34 0.13 0.06 0.01 0.00 0.00 0.00 0.00 0.00 0.01 0.00 0.00 0.00 0.00 0.00 0.00 0.00 0.00 0.00 0.00 0.00 0.00 0.00 0.00 0.00 0.00 0.00 0.00 0.00 0.00 0.00 0.00 0.00 0.00 0.00 0.00 0.00 0.00 0.00 0.00 0.00 0.00 0.00 0.00
0.55 0.26 0.06 0.00 0.00 0.00 0.00 0.00 0.00 0.00 0.00 0.00 0.00 0.00 0.00 0.00 0.00 0.00 0.00 0.00 0.00 0.00 0.00 0.00 0.00 0.00 0.00 0.00 0.00 0.00 0.00 0.00 0.00 0.00 0.00 0.00 0.00 0.00 0.00 0.00 0.00 0.00 0.00 0.00
0.69 0.21 0.00 0.00 0.00 0.00 0.00 0.00 0.00 0.00 0.00 0.00 0.00 0.00 0.00 0.00 0.00 0.00 0.00 0.00 0.00 0.00 0.00 0.00 0.00 0.00 0.00 0.00 0.00 0.00 0.00 0.00 0.00 0.00 0.00 0.00 0.00 0.00 0.00 0.00 0.00 0.00 0.00 0.00

GFSNW_prec_precacc24_129.txt.gz
Total_Precipitation_Accumulation
0.21 0.17 0.14 0.18 0.52 1.13 0.20 0.24 0.33 0.17 0.04 0.03 0.01 0.00 0.00 0.00 0.00 0.00 0.00 0.00 0.00 0.00 0.00 0.00 0.00 0.00 0.00 0.00 0.00 0.01 0.01 0.03 0.07 0.06 0.01 0.01 0.01 0.04 0.03 0.06 0.05 0.06 0.19 0.73
0.21 0.21 0.35 0.43 0.28 0.78 0.30 0.19 0.34 0.28 0.05 0.02 0.00 0.00 0.00 0.00 0.00 0.00 0.00 0.00 0.00 0.00 0.00 0.00 0.00 0.00 0.00 0.00 0.00 0.02 0.02 0.02 0.04 0.04 0.03 0.01 0.00 0.00 0.01 0.01 0.01 0.03 0.23 0.71
0.24 0.17 0.23 0.72 0.42 0.28 0.26 0.11 0.26 0.27 0.10 0.00 0.00 0.00 0.00 0.00 0.00 0.00 0.00 0.00 0.00 0.00 0.00 0.00 0.00 0.00 0.00 0.00 0.00 0.00 0.00 0.01 0.03 0.15 0.21 0.05 0.03 0.00 0.00 0.00 0.02 0.07 0.39 0.31
0.33 0.31 0.12 0.21 0.58 0.19 0.16 0.05 0.03 0.05 0.03 0.01 0.00 0.00 0.00 0.00 0.00 0.00 0.00 0.00 0.00 0.00 0.00 0.00 0.00 0.00 0.00 0.00 0.00 0.00 0.00 0.02 0.01 0.01 0.01 0.00 0.00 0.00 0.00 0.00 0.00 0.07 0.16 0.09
0.41 0.74 0.45 0.10 0.27 0.29 0.11 0.01 0.02 0.01 0.00 0.00 0.00 0.00 0.00 0.00 0.00 0.00 0.00 0.00 0.00 0.00 0.00 0.00 0.00 0.00 0.00 0.00 0.00 0.00 0.00 0.00 0.00 0.00 0.00 0.00 0.00 0.00 0.00 0.01 0.02 0.01 0.01 0.01
0.29 0.31 0.69 0.28 0.12 0.25 0.06 0.00 0.00 0.00 0.00 0.00 0.00 0.00 0.00 0.00 0.00 0.00 0.00 0.00 0.00 0.00 0.00 0.00 0.00 0.00 0.00 0.00 0.00 0.00 0.00 0.00 0.00 0.00 0.00 0.00 0.00 0.00 0.00 0.01 0.01 0.00 0.00 0.00
0.55 0.21 0.20 0.32 0.08 0.05 0.00 0.00 0.00 0.00 0.00 0.00 0.00 0.00 0.00 0.00 0.00 0.00 0.00 0.00 0.00 0.00 0.00 0.00 0.00 0.00 0.00 0.00 0.00 0.00 0.00 0.00 0.00 0.00 0.00 0.00 0.00 0.00 0.00 0.00 0.00 0.00 0.00 0.00
0.85 0.49 0.06 0.09 0.07 0.02 0.00 0.00 0.00 0.00 0.00 0.00 0.00 0.00 0.00 0.00 0.00 0.00 0.00 0.00 0.00 0.00 0.00 0.00 0.00 0.00 0.00 0.00 0.00 0.00 0.00 0.00 0.00 0.00 0.00 0.00 0.00 0.00 0.00 0.01 0.00 0.00 0.00 0.00
0.41 0.72 0.16 0.03 0.03 0.01 0.00 0.00 0.00 0.00 0.00 0.00 0.00 0.00 0.00 0.00 0.00 0.00 0.00 0.00 0.00 0.00 0.00 0.00 0.00 0.00 0.00 0.00 0.00 0.00 0.00 0.00 0.00 0.00 0.00 0.00 0.00 0.00 0.00 0.00 0.01 0.00 0.00 0.00
0.32 0.32 0.27 0.05 0.01 0.00 0.00 0.00 0.00 0.00 0.00 0.00 0.00 0.00 0.00 0.00 0.00 0.00 0.00 0.00 0.00 0.00 0.00 0.00 0.00 0.00 0.00 0.00 0.00 0.00 0.00 0.00 0.00 0.00 0.00 0.00 0.00 0.00 0.00 0.01 0.01 0.00 0.00 0.00
0.29 0.22 0.15 0.05 0.01 0.00 0.00 0.00 0.00 0.00 0.00 0.00 0.00 0.00 0.00 0.00 0.00 0.00 0.00 0.00 0.00 0.00 0.00 0.00 0.00 0.00 0.00 0.00 0.00 0.00 0.00 0.00 0.00 0.00 0.00 0.00 0.00 0.00 0.00 0.00 0.00 0.00 0.00 0.00
0.21 0.09 0.02 0.01 0.00 0.00 0.00 0.00 0.00 0.00 0.00 0.00 0.00 0.00 0.00 0.00 0.00 0.00 0.00 0.00 0.00 0.00 0.00 0.00 0.00 0.00 0.00 0.00 0.00 0.00 0.00 0.00 0.00 0.00 0.00 0.00 0.00 0.00 0.00 0.00 0.00 0.00 0.00 0.00
0.14 0.08 0.01 0.00 0.00 0.00 0.00 0.00 0.00 0.00 0.00 0.00 0.00 0.00 0.00 0.00 0.00 0.00 0.00 0.00 0.00 0.00 0.00 0.00 0.00 0.00 0.00 0.00 0.00 0.00 0.00 0.00 0.00 0.00 0.00 0.00 0.00 0.00 0.00 0.00 0.00 0.00 0.00 0.00
0.14 0.08 0.01 0.00 0.00 0.00 0.00 0.00 0.00 0.00 0.00 0.00 0.00 0.00 0.00 0.00 0.00 0.00 0.00 0.00 0.00 0.00 0.00 0.00 0.00 0.00 0.00 0.00 0.00 0.00 0.00 0.00 0.00 0.00 0.00 0.00 0.00 0.00 0.00 0.00 0.00 0.00 0.00 0.00
0.12 0.06 0.01 0.00 0.00 0.00 0.00 0.00 0.00 0.00 0.00 0.00 0.00 0.00 0.00 0.00 0.00 0.00 0.00 0.00 0.00 0.00 0.00 0.00 0.00 0.00 0.00 0.00 0.00 0.00 0.00 0.00 0.00 0.00 0.00 0.00 0.00 0.00 0.00 0.00 0.00 0.00 0.00 0.00
0.08 0.03 0.02 0.00 0.00 0.00 0.00 0.00 0.00 0.00 0.00 0.00 0.00 0.00 0.00 0.00 0.00 0.00 0.00 0.00 0.00 0.00 0.00 0.00 0.00 0.00 0.00 0.00 0.00 0.00 0.00 0.00 0.00 0.00 0.00 0.00 0.00 0.00 0.00 0.00 0.00 0.00 0.00 0.00
0.07 0.04 0.04 0.00 0.00 0.00 0.00 0.00 0.00 0.00 0.00 0.00 0.00 0.00 0.00 0.00 0.00 0.00 0.00 0.00 0.00 0.00 0.00 0.00 0.00 0.00 0.00 0.00 0.00 0.00 0.00 0.00 0.00 0.00 0.00 0.00 0.00 0.00 0.00 0.00 0.00 0.00 0.00 0.00
0.11 0.07 0.03 0.00 0.00 0.00 0.00 0.00 0.00 0.00 0.00 0.00 0.00 0.00 0.00 0.00 0.00 0.00 0.00 0.00 0.00 0.00 0.00 0.00 0.00 0.00 0.00 0.00 0.00 0.00 0.00 0.00 0.00 0.00 0.00 0.00 0.00 0.00 0.00 0.00 0.00 0.00 0.00 0.00
0.16 0.09 0.02 0.00 0.00 0.00 0.00 0.00 0.00 0.00 0.00 0.00 0.00 0.00 0.00 0.00 0.00 0.00 0.00 0.00 0.00 0.00 0.00 0.00 0.00 0.00 0.00 0.00 0.00 0.00 0.00 0.00 0.00 0.00 0.00 0.00 0.00 0.00 0.00 0.00 0.00 0.00 0.00 0.00
0.18 0.12 0.04 0.00 0.00 0.00 0.00 0.00 0.00 0.00 0.00 0.00 0.00 0.00 0.00 0.00 0.00 0.00 0.00 0.00 0.00 0.00 0.00 0.00 0.00 0.00 0.00 0.00 0.00 0.00 0.00 0.00 0.00 0.00 0.00 0.00 0.00 0.00 0.00 0.00 0.00 0.00 0.00 0.00
0.20 0.11 0.01 0.00 0.00 0.00 0.00 0.00 0.00 0.00 0.00 0.00 0.00 0.00 0.00 0.00 0.00 0.00 0.00 0.00 0.00 0.00 0.00 0.00 0.00 0.00 0.00 0.00 0.00 0.00 0.00 0.00 0.00 0.00 0.00 0.00 0.00 0.00 0.00 0.00 0.01 0.00 0.00 0.00
0.06 0.01 0.00 0.00 0.00 0.00 0.00 0.00 0.00 0.00 0.00 0.00 0.00 0.00 0.00 0.00 0.00 0.00 0.00 0.00 0.00 0.00 0.00 0.00 0.00 0.00 0.00 0.00 0.00 0.00 0.00 0.00 0.00 0.00 0.00 0.00 0.00 0.00 0.00 0.00 0.01 0.01 0.00 0.00
0.02 0.03 0.03 0.01 0.00 0.00 0.00 0.00 0.00 0.00 0.00 0.00 0.00 0.00 0.00 0.00 0.00 0.00 0.00 0.00 0.00 0.00 0.00 0.00 0.00 0.00 0.00 0.00 0.00 0.00 0.00 0.00 0.00 0.00 0.00 0.00 0.00 0.00 0.00 0.00 0.00 0.00 0.00 0.00
0.12 0.06 0.03 0.01 0.00 0.00 0.00 0.00 0.00 0.00 0.00 0.00 0.00 0.00 0.00 0.00 0.00 0.00 0.00 0.00 0.00 0.00 0.00 0.00 0.00 0.00 0.00 0.00 0.00 0.00 0.00 0.00 0.00 0.00 0.00 0.00 0.00 0.00 0.00 0.00 0.00 0.00 0.00 0.00
0.24 0.09 0.04 0.01 0.00 0.00 0.00 0.00 0.00 0.01 0.00 0.00 0.00 0.00 0.00 0.00 0.00 0.00 0.00 0.00 0.00 0.00 0.00 0.00 0.00 0.00 0.00 0.00 0.00 0.00 0.00 0.00 0.00 0.00 0.00 0.00 0.00 0.00 0.00 0.00 0.00 0.00 0.00 0.00
0.50 0.23 0.05 0.00 0.00 0.00 0.00 0.00 0.00 0.00 0.00 0.00 0.00 0.00 0.00 0.00 0.00 0.00 0.00 0.00 0.00 0.00 0.00 0.00 0.00 0.00 0.00 0.00 0.00 0.00 0.00 0.00 0.00 0.00 0.00 0.00 0.00 0.00 0.00 0.00 0.00 0.00 0.00 0.00
0.70 0.24 0.00 0.00 0.00 0.00 0.00 0.00 0.00 0.00 0.00 0.00 0.00 0.00 0.00 0.00 0.00 0.00 0.00 0.00 0.00 0.00 0.00 0.00 0.00 0.00 0.00 0.00 0.00 0.00 0.00 0.00 0.00 0.00 0.00 0.00 0.00 0.00 0.00 0.00 0.00 0.00 0.00 0.00

GFSNW_prec_precacc24_132.txt.gz
Total_Precipitation_Accumulation
0.19 0.12 0.07 0.07 0.23 1.00 0.19 0.24 0.33 0.16 0.04 0.03 0.01 0.00 0.00 0.00 0.00 0.00 0.00 0.00 0.00 0.00 0.00 0.00 0.00 0.00 0.00 0.00 0.00 0.01 0.02 0.07 0.08 0.07 0.02 0.01 0.01 0.04 0.03 0.06 0.05 0.06 0.20 0.74
0.16 0.08 0.04 0.12 0.18 0.73 0.28 0.19 0.33 0.26 0.05 0.02 0.00 0.00 0.00 0.00 0.00 0.00 0.00 0.00 0.00 0.00 0.00 0.00 0.00 0.00 0.00 0.00 0.00 0.02 0.02 0.03 0.04 0.04 0.03 0.01 0.00 0.00 0.01 0.01 0.01 0.04 0.25 0.73
0.14 0.05 0.05 0.19 0.19 0.27 0.26 0.11 0.25 0.26 0.10 0.00 0.00 0.00 0.00 0.00 0.00 0.00 0.00 0.00 0.00 0.00 0.00 0.00 0.00 0.00 0.00 0.00 0.00 0.00 0.00 0.01 0.03 0.14 0.21 0.05 0.03 0.00 0.00 0.00 0.02 0.08 0.44 0.36
0.14 0.09 0.07 0.12 0.39 0.18 0.16 0.05 0.03 0.05 0.03 0.01 0.00 0.00 0.00 0.00 0.00 0.00 0.00 0.00 0.00 0.00 0.00 0.00 0.00 0.00 0.00 0.00 0.00 0.00 0.00 0.01 0.01 0.01 0.01 0.00 0.00 0.00 0.00 0.00 0.00 0.08 0.17 0.11
0.19 0.18 0.13 0.07 0.19 0.28 0.11 0.01 0.01 0.01 0.00 0.00 0.00 0.00 0.00 0.00 0.00 0.00 0.00 0.00 0.00 0.00 0.00 0.00 0.00 0.00 0.00 0.00 0.00 0.00 0.00 0.00 0.00 0.00 0.00 0.00 0.00 0.00 0.00 0.01 0.02 0.01 0.01 0.02
0.18 0.20 0.31 0.19 0.08 0.25 0.06 0.00 0.00 0.00 0.00 0.00 0.00 0.00 0.00 0.00 0.00 0.00 0.00 0.00 0.00 0.00 0.00 0.00 0.00 0.00 0.00 0.00 0.00 0.00 0.00 0.00 0.00 0.00 0.00 0.00 0.00 0.00 0.00 0.01 0.01 0.00 0.01 0.01
0.14 0.12 0.14 0.26 0.07 0.05 0.00 0.00 0.00 0.00 0.00 0.00 0.00 0.00 0.00 0.00 0.00 0.00 0.00 0.00 0.00 0.00 0.00 0.00 0.00 0.00 0.00 0.00 0.00 0.00 0.00 0.00 0.00 0.00 0.00 0.00 0.00 0.00 0.00 0.00 0.00 0.00 0.00 0.01
0.23 0.10 0.03 0.08 0.06 0.02 0.00 0.00 0.00 0.00 0.00 0.00 0.00 0.00 0.00 0.00 0.00 0.00 0.00 0.00 0.00 0.00 0.00 0.00 0.00 0.00 0.00 0.00 0.00 0.00 0.00 0.00 0.00 0.00 0.00 0.00 0.00 0.00 0.00 0.00 0.00 0.00 0.00 0.01
0.26 0.34 0.07 0.03 0.03 0.01 0.00 0.00 0.00 0.00 0.00 0.00 0.00 0.00 0.00 0.00 0.00 0.00 0.00 0.00 0.00 0.00 0.00 0.00 0.00 0.00 0.00 0.00 0.00 0.00 0.00 0.00 0.00 0.00 0.00 0.00 0.00 0.00 0.00 0.00 0.01 0.00 0.00 0.00
0.30 0.29 0.23 0.04 0.01 0.00 0.00 0.00 0.00 0.00 0.00 0.00 0.00 0.00 0.00 0.00 0.00 0.00 0.00 0.00 0.00 0.00 0.00 0.00 0.00 0.00 0.00 0.00 0.00 0.00 0.00 0.00 0.00 0.00 0.00 0.00 0.00 0.00 0.00 0.01 0.01 0.00 0.00 0.00
0.24 0.21 0.15 0.04 0.01 0.00 0.00 0.00 0.00 0.00 0.00 0.00 0.00 0.00 0.00 0.00 0.00 0.00 0.00 0.00 0.00 0.00 0.00 0.00 0.00 0.00 0.00 0.00 0.00 0.00 0.00 0.00 0.00 0.00 0.00 0.00 0.00 0.00 0.00 0.00 0.00 0.00 0.00 0.00
0.12 0.09 0.02 0.01 0.00 0.00 0.00 0.00 0.00 0.00 0.00 0.00 0.00 0.00 0.00 0.00 0.00 0.00 0.00 0.00 0.00 0.00 0.00 0.00 0.00 0.00 0.00 0.00 0.00 0.00 0.00 0.00 0.00 0.00 0.00 0.00 0.00 0.00 0.00 0.00 0.00 0.00 0.00 0.00
0.06 0.08 0.01 0.00 0.00 0.00 0.00 0.00 0.00 0.00 0.00 0.00 0.00 0.00 0.00 0.00 0.00 0.00 0.00 0.00 0.00 0.00 0.00 0.00 0.00 0.00 0.00 0.00 0.00 0.00 0.00 0.00 0.00 0.00 0.00 0.00 0.00 0.00 0.00 0.00 0.00 0.00 0.00 0.00
0.10 0.08 0.01 0.00 0.00 0.00 0.00 0.00 0.00 0.00 0.00 0.00 0.00 0.00 0.00 0.00 0.00 0.00 0.00 0.00 0.00 0.00 0.00 0.00 0.00 0.00 0.00 0.00 0.00 0.00 0.00 0.00 0.00 0.00 0.00 0.00 0.00 0.00 0.00 0.00 0.00 0.00 0.00 0.00
0.10 0.06 0.00 0.00 0.00 0.00 0.00 0.00 0.00 0.00 0.00 0.00 0.00 0.00 0.00 0.00 0.00 0.00 0.00 0.00 0.00 0.00 0.00 0.00 0.00 0.00 0.00 0.00 0.00 0.00 0.00 0.00 0.00 0.00 0.00 0.00 0.00 0.00 0.00 0.00 0.00 0.00 0.00 0.00
0.05 0.03 0.00 0.00 0.00 0.00 0.00 0.00 0.00 0.00 0.00 0.00 0.00 0.00 0.00 0.00 0.00 0.00 0.00 0.00 0.00 0.00 0.00 0.00 0.00 0.00 0.00 0.00 0.00 0.00 0.00 0.00 0.00 0.00 0.00 0.00 0.00 0.00 0.00 0.00 0.00 0.00 0.00 0.00
0.04 0.02 0.00 0.00 0.00 0.00 0.00 0.00 0.00 0.00 0.00 0.00 0.00 0.00 0.00 0.00 0.00 0.00 0.00 0.00 0.00 0.00 0.00 0.00 0.00 0.00 0.00 0.00 0.00 0.00 0.00 0.00 0.00 0.00 0.00 0.00 0.00 0.00 0.00 0.00 0.00 0.00 0.00 0.00
0.03 0.01 0.00 0.00 0.00 0.00 0.00 0.00 0.00 0.00 0.00 0.00 0.00 0.00 0.00 0.00 0.00 0.00 0.00 0.00 0.00 0.00 0.00 0.00 0.00 0.00 0.00 0.00 0.00 0.00 0.00 0.00 0.00 0.00 0.00 0.00 0.00 0.00 0.00 0.00 0.00 0.00 0.00 0.00
0.05 0.01 0.00 0.00 0.00 0.00 0.00 0.00 0.00 0.00 0.00 0.00 0.00 0.00 0.00 0.00 0.00 0.00 0.00 0.00 0.00 0.00 0.00 0.00 0.00 0.00 0.00 0.00 0.00 0.00 0.00 0.00 0.00 0.00 0.00 0.00 0.00 0.00 0.00 0.00 0.00 0.00 0.00 0.00
0.08 0.04 0.02 0.00 0.00 0.00 0.00 0.00 0.00 0.00 0.00 0.00 0.00 0.00 0.00 0.00 0.00 0.00 0.00 0.00 0.00 0.00 0.00 0.00 0.00 0.00 0.00 0.00 0.00 0.00 0.00 0.00 0.00 0.00 0.00 0.00 0.00 0.00 0.00 0.00 0.00 0.00 0.00 0.00
0.10 0.06 0.00 0.00 0.00 0.00 0.00 0.00 0.00 0.00 0.00 0.00 0.00 0.00 0.00 0.00 0.00 0.00 0.00 0.00 0.00 0.00 0.00 0.00 0.00 0.00 0.00 0.00 0.00 0.00 0.00 0.00 0.00 0.00 0.00 0.00 0.00 0.00 0.00 0.00 0.00 0.00 0.00 0.00
0.04 0.00 0.00 0.00 0.00 0.00 0.00 0.00 0.00 0.00 0.00 0.00 0.00 0.00 0.00 0.00 0.00 0.00 0.00 0.00 0.00 0.00 0.00 0.00 0.00 0.00 0.00 0.00 0.00 0.00 0.00 0.00 0.00 0.00 0.00 0.00 0.00 0.00 0.00 0.00 0.00 0.00 0.00 0.00
0.02 0.02 0.02 0.01 0.00 0.00 0.00 0.00 0.00 0.00 0.00 0.00 0.00 0.00 0.00 0.00 0.00 0.00 0.00 0.00 0.00 0.00 0.00 0.00 0.00 0.00 0.00 0.00 0.00 0.00 0.00 0.00 0.00 0.00 0.00 0.00 0.00 0.00 0.00 0.00 0.00 0.00 0.00 0.00
0.08 0.04 0.03 0.00 0.00 0.00 0.00 0.00 0.00 0.00 0.00 0.00 0.00 0.00 0.00 0.00 0.00 0.00 0.00 0.00 0.00 0.00 0.00 0.00 0.00 0.00 0.00 0.00 0.00 0.00 0.00 0.00 0.00 0.00 0.00 0.00 0.00 0.00 0.00 0.00 0.00 0.00 0.00 0.00
0.19 0.08 0.02 0.00 0.00 0.00 0.00 0.00 0.00 0.01 0.00 0.00 0.00 0.00 0.00 0.00 0.00 0.00 0.00 0.00 0.00 0.00 0.00 0.00 0.00 0.00 0.00 0.00 0.00 0.00 0.00 0.00 0.00 0.00 0.00 0.00 0.00 0.00 0.00 0.00 0.00 0.00 0.00 0.00
0.47 0.22 0.03 0.00 0.00 0.00 0.00 0.00 0.00 0.00 0.00 0.00 0.00 0.00 0.00 0.00 0.00 0.00 0.00 0.00 0.00 0.00 0.00 0.00 0.00 0.00 0.00 0.00 0.00 0.00 0.00 0.00 0.00 0.00 0.00 0.00 0.00 0.00 0.00 0.00 0.00 0.00 0.00 0.00
0.68 0.24 0.00 0.00 0.00 0.00 0.00 0.00 0.00 0.00 0.00 0.00 0.00 0.00 0.00 0.00 0.00 0.00 0.00 0.00 0.00 0.00 0.00 0.00 0.00 0.00 0.00 0.00 0.00 0.00 0.00 0.00 0.00 0.00 0.00 0.00 0.00 0.00 0.00 0.00 0.00 0.00 0.00 0.00

GFSNW_prec_precacc24_135.txt.gz
Total_Precipitation_Accumulation
0.14 0.08 0.07 0.07 0.15 0.42 0.10 0.23 0.32 0.14 0.02 0.03 0.01 0.00 0.00 0.00 0.00 0.00 0.00 0.00 0.00 0.00 0.00 0.00 0.00 0.00 0.00 0.00 0.00 0.01 0.03 0.09 0.09 0.07 0.02 0.01 0.01 0.04 0.03 0.06 0.05 0.06 0.21 0.73
0.12 0.06 0.04 0.12 0.10 0.47 0.22 0.18 0.29 0.21 0.04 0.02 0.00 0.00 0.00 0.00 0.00 0.00 0.00 0.00 0.00 0.00 0.00 0.00 0.00 0.00 0.00 0.00 0.00 0.02 0.01 0.03 0.04 0.04 0.03 0.01 0.00 0.00 0.01 0.01 0.01 0.04 0.26 0.73
0.08 0.02 0.03 0.09 0.07 0.17 0.25 0.10 0.22 0.21 0.08 0.00 0.00 0.00 0.00 0.00 0.00 0.00 0.00 0.00 0.00 0.00 0.00 0.00 0.00 0.00 0.00 0.00 0.00 0.00 0.00 0.01 0.03 0.14 0.20 0.05 0.03 0.00 0.00 0.00 0.02 0.08 0.45 0.37
0.08 0.04 0.04 0.05 0.05 0.07 0.15 0.04 0.02 0.04 0.03 0.01 0.00 0.00 0.00 0.00 0.00 0.00 0.00 0.00 0.00 0.00 0.00 0.00 0.00 0.00 0.00 0.00 0.00 0.00 0.00 0.01 0.01 0.01 0.01 0.00 0.00 0.00 0.00 0.00 0.00 0.08 0.17 0.12
0.09 0.09 0.06 0.06 0.06 0.11 0.08 0.01 0.01 0.01 0.00 0.00 0.00 0.00 0.00 0.00 0.00 0.00 0.00 0.00 0.00 0.00 0.00 0.00 0.00 0.00 0.00 0.00 0.00 0.00 0.00 0.00 0.00 0.00 0.00 0.00 0.00 0.00 0.00 0.01 0.02 0.01 0.01 0.02
0.08 0.09 0.07 0.07 0.05 0.21 0.04 0.00 0.00 0.00 0.00 0.00 0.00 0.00 0.00 0.00 0.00 0.00 0.00 0.00 0.00 0.00 0.00 0.00 0.00 0.00 0.00 0.00 0.00 0.00 0.00 0.00 0.00 0.00 0.00 0.00 0.00 0.00 0.00 0.01 0.01 0.00 0.01 0.01
0.07 0.07 0.07 0.04 0.03 0.05 0.00 0.00 0.00 0.00 0.00 0.00 0.00 0.00 0.00 0.00 0.00 0.00 0.00 0.00 0.00 0.00 0.00 0.00 0.00 0.00 0.00 0.00 0.00 0.00 0.00 0.00 0.00 0.00 0.00 0.00 0.00 0.00 0.00 0.00 0.00 0.00 0.00 0.01
0.06 0.04 0.03 0.02 0.03 0.02 0.00 0.00 0.00 0.00 0.00 0.00 0.00 0.00 0.00 0.00 0.00 0.00 0.00 0.00 0.00 0.00 0.00 0.00 0.00 0.00 0.00 0.00 0.00 0.00 0.00 0.00 0.00 0.00 0.00 0.00 0.00 0.00 0.00 0.00 0.00 0.00 0.00 0.01
0.07 0.03 0.01 0.01 0.02 0.01 0.00 0.00 0.00 0.00 0.00 0.00 0.00 0.00 0.00 0.00 0.00 0.00 0.00 0.00 0.00 0.00 0.00 0.00 0.00 0.00 0.00 0.00 0.00 0.00 0.00 0.00 0.00 0.00 0.00 0.00 0.00 0.00 0.00 0.00 0.01 0.00 0.00 0.00
0.21 0.07 0.02 0.01 0.00 0.00 0.00 0.00 0.00 0.00 0.00 0.00 0.00 0.00 0.00 0.00 0.00 0.00 0.00 0.00 0.00 0.00 0.00 0.00 0.00 0.00 0.00 0.00 0.00 0.00 0.00 0.00 0.00 0.00 0.00 0.00 0.00 0.00 0.00 0.01 0.01 0.00 0.00 0.00
0.23 0.19 0.09 0.01 0.00 0.00 0.00 0.00 0.00 0.00 0.00 0.00 0.00 0.00 0.00 0.00 0.00 0.00 0.00 0.00 0.00 0.00 0.00 0.00 0.00 0.00 0.00 0.00 0.00 0.00 0.00 0.00 0.00 0.00 0.00 0.00 0.00 0.00 0.00 0.00 0.00 0.00 0.00 0.00
0.09 0.05 0.02 0.01 0.00 0.00 0.00 0.00 0.00 0.00 0.00 0.00 0.00 0.00 0.00 0.00 0.00 0.00 0.00 0.00 0.00 0.00 0.00 0.00 0.00 0.00 0.00 0.00 0.00 0.00 0.00 0.00 0.00 0.00 0.00 0.00 0.00 0.00 0.00 0.00 0.00 0.00 0.00 0.00
0.01 0.01 0.00 0.00 0.00 0.00 0.00 0.00 0.00 0.00 0.00 0.00 0.00 0.00 0.00 0.00 0.00 0.00 0.00 0.00 0.00 0.00 0.00 0.00 0.00 0.00 0.00 0.00 0.00 0.00 0.00 0.00 0.00 0.00 0.00 0.00 0.00 0.00 0.00 0.00 0.00 0.00 0.00 0.00
0.03 0.03 0.00 0.00 0.00 0.00 0.00 0.00 0.00 0.00 0.00 0.00 0.00 0.00 0.00 0.00 0.00 0.00 0.00 0.00 0.00 0.00 0.00 0.00 0.00 0.00 0.00 0.00 0.00 0.00 0.00 0.00 0.00 0.00 0.00 0.00 0.00 0.00 0.00 0.00 0.00 0.00 0.00 0.00
0.05 0.04 0.00 0.00 0.00 0.00 0.00 0.00 0.00 0.00 0.00 0.00 0.00 0.00 0.00 0.00 0.00 0.00 0.00 0.00 0.00 0.00 0.00 0.00 0.00 0.00 0.00 0.00 0.00 0.00 0.00 0.00 0.00 0.00 0.00 0.00 0.00 0.00 0.00 0.00 0.00 0.00 0.00 0.00
0.03 0.01 0.00 0.00 0.00 0.00 0.00 0.00 0.00 0.00 0.00 0.00 0.00 0.00 0.00 0.00 0.00 0.00 0.00 0.00 0.00 0.00 0.00 0.00 0.00 0.00 0.00 0.00 0.00 0.00 0.00 0.00 0.00 0.00 0.00 0.00 0.00 0.00 0.00 0.00 0.00 0.00 0.00 0.00
0.03 0.01 0.00 0.00 0.00 0.00 0.00 0.00 0.00 0.00 0.00 0.00 0.00 0.00 0.00 0.00 0.00 0.00 0.00 0.00 0.00 0.00 0.00 0.00 0.00 0.00 0.00 0.00 0.00 0.00 0.00 0.00 0.00 0.00 0.00 0.00 0.00 0.00 0.00 0.00 0.00 0.00 0.00 0.00
0.02 0.02 0.02 0.01 0.00 0.00 0.00 0.00 0.00 0.00 0.00 0.00 0.00 0.00 0.00 0.00 0.00 0.00 0.00 0.00 0.00 0.00 0.00 0.00 0.00 0.00 0.00 0.00 0.00 0.00 0.00 0.00 0.00 0.00 0.00 0.00 0.00 0.00 0.00 0.00 0.00 0.00 0.00 0.00
0.02 0.02 0.02 0.01 0.00 0.00 0.00 0.00 0.00 0.00 0.00 0.00 0.00 0.00 0.00 0.00 0.00 0.00 0.00 0.00 0.00 0.00 0.00 0.00 0.00 0.00 0.00 0.00 0.00 0.00 0.00 0.00 0.00 0.00 0.00 0.00 0.00 0.00 0.00 0.00 0.00 0.00 0.00 0.00
0.01 0.00 0.00 0.00 0.00 0.00 0.00 0.00 0.00 0.00 0.00 0.00 0.00 0.00 0.00 0.00 0.00 0.00 0.00 0.00 0.00 0.00 0.00 0.00 0.00 0.00 0.00 0.00 0.00 0.00 0.00 0.00 0.00 0.00 0.00 0.00 0.00 0.00 0.00 0.00 0.00 0.00 0.00 0.00
0.01 0.00 0.00 0.00 0.00 0.00 0.00 0.00 0.00 0.00 0.00 0.00 0.00 0.00 0.00 0.00 0.00 0.00 0.00 0.00 0.00 0.00 0.00 0.00 0.00 0.00 0.00 0.00 0.00 0.00 0.00 0.00 0.00 0.00 0.00 0.00 0.00 0.00 0.00 0.00 0.00 0.00 0.00 0.00
0.01 0.00 0.00 0.00 0.00 0.00 0.00 0.00 0.00 0.00 0.00 0.00 0.00 0.00 0.00 0.00 0.00 0.00 0.00 0.00 0.00 0.00 0.00 0.00 0.00 0.00 0.00 0.00 0.00 0.00 0.00 0.00 0.00 0.00 0.00 0.00 0.00 0.00 0.00 0.00 0.00 0.00 0.00 0.00
0.01 0.01 0.00 0.00 0.00 0.00 0.00 0.00 0.00 0.00 0.00 0.00 0.00 0.00 0.00 0.00 0.00 0.00 0.00 0.00 0.00 0.00 0.00 0.00 0.00 0.00 0.00 0.00 0.00 0.00 0.00 0.00 0.00 0.00 0.00 0.00 0.00 0.00 0.00 0.00 0.00 0.00 0.00 0.00
0.08 0.04 0.03 0.00 0.00 0.00 0.00 0.00 0.00 0.00 0.00 0.00 0.00 0.00 0.00 0.00 0.00 0.00 0.00 0.00 0.00 0.00 0.00 0.00 0.00 0.00 0.00 0.00 0.00 0.00 0.00 0.00 0.00 0.00 0.00 0.00 0.00 0.00 0.00 0.00 0.00 0.00 0.00 0.00
0.20 0.07 0.02 0.00 0.00 0.00 0.00 0.00 0.00 0.01 0.00 0.00 0.00 0.00 0.00 0.00 0.00 0.00 0.00 0.00 0.00 0.00 0.00 0.00 0.00 0.00 0.00 0.00 0.00 0.00 0.00 0.00 0.00 0.00 0.00 0.00 0.00 0.00 0.00 0.00 0.00 0.00 0.00 0.00
0.48 0.21 0.02 0.00 0.00 0.00 0.00 0.00 0.00 0.00 0.00 0.00 0.00 0.00 0.00 0.00 0.00 0.00 0.00 0.00 0.00 0.00 0.00 0.00 0.00 0.00 0.00 0.00 0.00 0.00 0.00 0.00 0.00 0.00 0.00 0.00 0.00 0.00 0.00 0.00 0.00 0.00 0.00 0.00
0.68 0.23 0.01 0.00 0.00 0.00 0.00 0.00 0.00 0.00 0.00 0.00 0.00 0.00 0.00 0.00 0.00 0.00 0.00 0.00 0.00 0.00 0.00 0.00 0.00 0.00 0.00 0.00 0.00 0.00 0.00 0.00 0.00 0.00 0.00 0.00 0.00 0.00 0.00 0.00 0.00 0.00 0.00 0.00

GFSNW_prec_precacc24_138.txt.gz
Total_Precipitation_Accumulation
0.09 0.06 0.07 0.05 0.11 0.09 0.05 0.17 0.28 0.10 0.00 0.01 0.01 0.00 0.00 0.00 0.00 0.00 0.00 0.00 0.00 0.00 0.00 0.00 0.00 0.00 0.00 0.00 0.00 0.01 0.03 0.09 0.09 0.07 0.02 0.00 0.01 0.04 0.05 0.09 0.07 0.09 0.22 0.67
0.07 0.04 0.03 0.09 0.07 0.15 0.03 0.10 0.21 0.12 0.01 0.02 0.00 0.00 0.00 0.00 0.00 0.00 0.00 0.00 0.00 0.00 0.00 0.00 0.00 0.00 0.00 0.00 0.00 0.01 0.01 0.03 0.04 0.04 0.03 0.01 0.00 0.00 0.01 0.02 0.05 0.07 0.29 0.74
0.04 0.02 0.03 0.07 0.06 0.09 0.06 0.06 0.15 0.13 0.04 0.00 0.00 0.00 0.00 0.00 0.00 0.00 0.00 0.00 0.00 0.00 0.00 0.00 0.00 0.00 0.00 0.00 0.00 0.00 0.00 0.01 0.03 0.13 0.20 0.05 0.03 0.00 0.00 0.00 0.04 0.09 0.48 0.43
0.03 0.02 0.03 0.05 0.05 0.04 0.08 0.03 0.01 0.01 0.01 0.00 0.00 0.00 0.00 0.00 0.00 0.00 0.00 0.00 0.00 0.00 0.00 0.00 0.00 0.00 0.00 0.00 0.00 0.00 0.00 0.01 0.00 0.01 0.01 0.00 0.00 0.00 0.00 0.00 0.00 0.08 0.17 0.13
0.03 0.03 0.02 0.04 0.01 0.01 0.03 0.01 0.00 0.00 0.00 0.00 0.00 0.00 0.00 0.00 0.00 0.00 0.00 0.00 0.00 0.00 0.00 0.00 0.00 0.00 0.00 0.00 0.00 0.00 0.00 0.00 0.00 0.00 0.00 0.00 0.00 0.00 0.00 0.01 0.02 0.01 0.01 0.02
0.02 0.02 0.01 0.03 0.00 0.02 0.02 0.00 0.00 0.00 0.00 0.00 0.00 0.00 0.00 0.00 0.00 0.00 0.00 0.00 0.00 0.00 0.00 0.00 0.00 0.00 0.00 0.00 0.00 0.00 0.00 0.00 0.00 0.00 0.00 0.00 0.00 0.00 0.00 0.01 0.01 0.00 0.01 0.01
0.01 0.00 0.01 0.01 0.00 0.01 0.00 0.00 0.00 0.00 0.00 0.00 0.00 0.00 0.00 0.00 0.00 0.00 0.00 0.00 0.00 0.00 0.00 0.00 0.00 0.00 0.00 0.00 0.00 0.00 0.00 0.00 0.00 0.00 0.00 0.00 0.00 0.00 0.00 0.00 0.00 0.00 0.00 0.01
0.01 0.00 0.01 0.01 0.01 0.01 0.00 0.00 0.00 0.00 0.00 0.00 0.00 0.00 0.00 0.00 0.00 0.00 0.00 0.00 0.00 0.00 0.00 0.00 0.00 0.00 0.00 0.00 0.00 0.00 0.00 0.00 0.00 0.00 0.00 0.00 0.00 0.00 0.00 0.00 0.00 0.00 0.00 0.01
0.00 0.00 0.01 0.01 0.01 0.01 0.00 0.00 0.00 0.00 0.00 0.00 0.00 0.00 0.00 0.00 0.00 0.00 0.00 0.00 0.00 0.00 0.00 0.00 0.00 0.00 0.00 0.00 0.00 0.00 0.00 0.00 0.00 0.00 0.00 0.00 0.00 0.00 0.00 0.00 0.01 0.00 0.00 0.00
0.02 0.00 0.00 0.00 0.00 0.00 0.00 0.00 0.00 0.00 0.00 0.00 0.00 0.00 0.00 0.00 0.00 0.00 0.00 0.00 0.00 0.00 0.00 0.00 0.00 0.00 0.00 0.00 0.00 0.00 0.00 0.00 0.00 0.00 0.00 0.00 0.00 0.00 0.00 0.01 0.01 0.00 0.00 0.00
0.07 0.00 0.00 0.00 0.00 0.00 0.00 0.00 0.00 0.00 0.00 0.00 0.00 0.00 0.00 0.00 0.00 0.00 0.00 0.00 0.00 0.00 0.00 0.00 0.00 0.00 0.00 0.00 0.00 0.00 0.00 0.00 0.00 0.00 0.00 0.00 0.00 0.00 0.00 0.00 0.00 0.00 0.00 0.00
0.08 0.02 0.00 0.00 0.00 0.00 0.00 0.00 0.00 0.00 0.00 0.00 0.00 0.00 0.00 0.00 0.00 0.00 0.00 0.00 0.00 0.00 0.00 0.00 0.00 0.00 0.00 0.00 0.00 0.00 0.00 0.00 0.00 0.00 0.00 0.00 0.00 0.00 0.00 0.00 0.00 0.00 0.00 0.00
0.01 0.00 0.00 0.00 0.00 0.00 0.00 0.00 0.00 0.00 0.00 0.00 0.00 0.00 0.00 0.00 0.00 0.00 0.00 0.00 0.00 0.00 0.00 0.00 0.00 0.00 0.00 0.00 0.00 0.00 0.00 0.00 0.00 0.00 0.00 0.00 0.00 0.00 0.00 0.00 0.00 0.00 0.00 0.00
0.01 0.00 0.00 0.00 0.00 0.00 0.00 0.00 0.00 0.00 0.00 0.00 0.00 0.00 0.00 0.00 0.00 0.00 0.00 0.00 0.00 0.00 0.00 0.00 0.00 0.00 0.00 0.00 0.00 0.00 0.00 0.00 0.00 0.00 0.00 0.00 0.00 0.00 0.00 0.00 0.00 0.00 0.00 0.00
0.01 0.01 0.00 0.00 0.00 0.00 0.00 0.00 0.00 0.00 0.00 0.00 0.00 0.00 0.00 0.00 0.00 0.00 0.00 0.00 0.00 0.00 0.00 0.00 0.00 0.00 0.00 0.00 0.00 0.00 0.00 0.00 0.00 0.00 0.00 0.00 0.00 0.00 0.00 0.00 0.00 0.00 0.00 0.00
0.01 0.01 0.00 0.00 0.00 0.00 0.00 0.00 0.00 0.00 0.00 0.00 0.00 0.00 0.00 0.00 0.00 0.00 0.00 0.00 0.00 0.00 0.00 0.00 0.00 0.00 0.00 0.00 0.00 0.00 0.00 0.00 0.00 0.00 0.00 0.00 0.00 0.00 0.00 0.00 0.00 0.00 0.00 0.00
0.01 0.00 0.00 0.01 0.00 0.00 0.00 0.00 0.00 0.00 0.00 0.00 0.00 0.00 0.00 0.00 0.00 0.00 0.00 0.00 0.00 0.00 0.00 0.00 0.00 0.00 0.00 0.00 0.00 0.00 0.00 0.00 0.00 0.00 0.00 0.00 0.00 0.00 0.00 0.00 0.00 0.00 0.00 0.00
0.01 0.01 0.02 0.03 0.01 0.00 0.00 0.00 0.00 0.00 0.00 0.00 0.00 0.00 0.00 0.00 0.00 0.00 0.00 0.00 0.00 0.00 0.00 0.00 0.00 0.00 0.00 0.00 0.00 0.00 0.00 0.00 0.00 0.00 0.00 0.00 0.00 0.00 0.00 0.00 0.00 0.00 0.00 0.00
0.02 0.03 0.05 0.04 0.03 0.01 0.00 0.00 0.00 0.00 0.00 0.00 0.00 0.00 0.00 0.00 0.00 0.00 0.00 0.00 0.00 0.00 0.00 0.00 0.00 0.00 0.00 0.00 0.00 0.00 0.00 0.00 0.00 0.00 0.00 0.00 0.00 0.00 0.00 0.00 0.00 0.00 0.00 0.00
0.02 0.01 0.01 0.01 0.01 0.00 0.00 0.00 0.00 0.00 0.00 0.00 0.00 0.00 0.00 0.00 0.00 0.00 0.00 0.00 0.00 0.00 0.00 0.00 0.00 0.00 0.00 0.00 0.00 0.00 0.00 0.00 0.00 0.00 0.00 0.00 0.00 0.00 0.00 0.00 0.00 0.00 0.00 0.00
0.02 0.00 0.00 0.00 0.00 0.00 0.00 0.00 0.00 0.00 0.00 0.00 0.00 0.00 0.00 0.00 0.00 0.00 0.00 0.00 0.00 0.00 0.00 0.00 0.00 0.00 0.00 0.00 0.00 0.00 0.00 0.00 0.00 0.00 0.00 0.00 0.00 0.00 0.00 0.00 0.00 0.00 0.00 0.00
0.01 0.00 0.00 0.00 0.00 0.00 0.00 0.00 0.00 0.00 0.00 0.00 0.00 0.00 0.00 0.00 0.00 0.00 0.00 0.00 0.00 0.00 0.00 0.00 0.00 0.00 0.00 0.00 0.00 0.00 0.00 0.00 0.00 0.00 0.00 0.00 0.00 0.00 0.00 0.00 0.00 0.00 0.00 0.00
0.03 0.00 0.00 0.00 0.00 0.00 0.00 0.00 0.00 0.00 0.00 0.00 0.00 0.00 0.00 0.00 0.00 0.00 0.00 0.00 0.00 0.00 0.00 0.00 0.00 0.00 0.00 0.00 0.00 0.00 0.00 0.00 0.00 0.00 0.00 0.00 0.00 0.00 0.00 0.00 0.00 0.00 0.00 0.00
0.12 0.05 0.05 0.00 0.00 0.00 0.00 0.00 0.00 0.00 0.00 0.00 0.00 0.00 0.00 0.00 0.00 0.00 0.00 0.00 0.00 0.00 0.00 0.00 0.00 0.00 0.00 0.00 0.00 0.00 0.00 0.00 0.00 0.00 0.00 0.00 0.00 0.00 0.00 0.00 0.00 0.00 0.00 0.00
0.30 0.16 0.05 0.00 0.00 0.00 0.00 0.00 0.00 0.00 0.00 0.00 0.00 0.00 0.00 0.00 0.00 0.00 0.00 0.00 0.00 0.00 0.00 0.00 0.00 0.00 0.00 0.00 0.00 0.00 0.00 0.00 0.00 0.00 0.00 0.00 0.00 0.00 0.00 0.00 0.00 0.00 0.00 0.00
0.57 0.26 0.01 0.00 0.00 0.00 0.00 0.00 0.00 0.00 0.00 0.00 0.00 0.00 0.00 0.00 0.00 0.00 0.00 0.00 0.00 0.00 0.00 0.00 0.00 0.00 0.00 0.00 0.00 0.00 0.00 0.00 0.00 0.00 0.00 0.00 0.00 0.00 0.00 0.00 0.00 0.00 0.00 0.00
0.76 0.24 0.01 0.00 0.00 0.00 0.00 0.00 0.00 0.00 0.00 0.00 0.00 0.00 0.00 0.00 0.00 0.00 0.00 0.00 0.00 0.00 0.00 0.00 0.00 0.00 0.00 0.00 0.00 0.00 0.00 0.00 0.00 0.00 0.00 0.00 0.00 0.00 0.00 0.00 0.00 0.00 0.00 0.00